# Wetter Temperatur Luftdruck Luftfeuchtigkeit Sichtweite Windgeschwindigkeit Windrichtung Zeit
1 Rain 2 1003 87 10000 6.17 330 12:51 22.04.2021
2 Rain 2 1002 93 8000 5.66 330 12:30 22.04.2021
3 Snow 2 1002 93 5000 5.66 320 11:49 22.04.2021
4 Snow 1 1002 93 2500 5.66 310 11:25 22.04.2021
5 Snow 1 1001 93 1900 5.66 310 10:47 22.04.2021
6 Snow 1 1001 93 4800 6.17 320 10:29 22.04.2021
7 Snow 1 1001 93 5000 5.14 330 09:58 22.04.2021
8 Snow 1 1001 93 5000 5.14 330 09:33 22.04.2021
9 Rain 2 1000 93 7000 5.66 330 08:47 22.04.2021
10 Drizzle 2 1000 93 10000 6.17 330 08:23 22.04.2021
11 Drizzle 3 1000 87 10000 6.69 340 07:47 22.04.2021
12 Drizzle 3 999 87 10000 6.17 340 07:29 22.04.2021
13 Clouds 4 999 87 10000 5.14 350 06:41 22.04.2021
14 Clouds 4 998 87 10000 5.14 330 05:54 22.04.2021
15 Clouds 4 998 87 10000 4.12 340 05:20 22.04.2021
16 Clouds 1 998 93 10000 1.88 355 01:58 22.04.2021
17 Clouds 3 998 81 10000 1.03 0 23:55 21.04.2021
18 Clouds 3 998 81 10000 1.03 0 23:37 21.04.2021
19 Clouds 5 998 75 10000 1.31 241 22:48 21.04.2021
20 Clear 5 998 75 10000 1.46 206 22:25 21.04.2021
21 Clear 6 998 70 10000 1.46 206 21:59 21.04.2021
22 Clear 6 998 70 10000 1.46 206 21:40 21.04.2021
23 Clear 7 998 61 10000 0.51 0 21:19 21.04.2021
24 Clear 8 999 53 10000 2.06 120 20:27 21.04.2021
25 Clear 9 999 49 10000 1.54 0 19:46 21.04.2021
26 Clouds 9 999 53 10000 1.54 40 19:27 21.04.2021
27 Rain 9 999 53 10000 3.09 220 18:52 21.04.2021
28 Rain 9 999 46 10000 5.66 230 18:34 21.04.2021
29 Clear 10 999 50 10000 4.12 240 17:59 21.04.2021
30 Clear 11 999 50 10000 4.12 240 17:39 21.04.2021
31 Clouds 11 999 54 10000 3.6 260 17:20 21.04.2021
32 Clouds 11 999 58 10000 3.09 240 16:38 21.04.2021
33 Clear 12 999 44 10000 6.69 190 15:47 21.04.2021
34 Clear 13 1000 41 10000 5.14 200 15:21 21.04.2021
35 Clear 14 1000 38 10000 4.12 150 14:44 21.04.2021
36 Clear 14 1000 38 10000 4.12 140 14:25 21.04.2021
37 Clear 14 1000 33 10000 3.6 200 13:50 21.04.2021
38 Clear 15 1001 33 10000 4.12 190 13:22 21.04.2021
39 Clear 15 1001 31 10000 4.12 190 12:46 21.04.2021
40 Clear 14 1002 33 10000 5.66 140 12:20 21.04.2021
41 Clear 13 1002 33 10000 4.63 200 11:43 21.04.2021
42 Clear 13 1002 35 10000 4.63 160 11:23 21.04.2021
43 Clear 13 1003 38 10000 4.12 160 10:39 21.04.2021
44 Clear 12 1004 37 10000 3.09 180 09:57 21.04.2021
45 Clear 9 1004 40 10000 3.09 190 09:26 21.04.2021
46 Clear 9 1005 43 10000 2.06 180 08:50 21.04.2021
47 Clear 8 1005 42 10000 2.06 170 08:24 21.04.2021
48 Clear 7 1005 52 10000 1.03 120 07:54 21.04.2021
49 Clear 5 1006 60 10000 1.54 130 07:28 21.04.2021
50 Clear 2 1007 64 10000 1.54 130 06:21 21.04.2021
51 Clouds 2 1010 60 10000 1.95 190 02:28 21.04.2021
52 Clouds 3 1012 52 10000 1.97 177 00:20 21.04.2021
53 Clouds 3 1012 48 10000 1.03 150 23:40 20.04.2021
54 Clouds 5 1013 45 10000 1.54 150 22:49 20.04.2021
55 Clear 6 1013 42 10000 2.06 140 22:24 20.04.2021
56 Clear 6 1013 36 10000 2.57 150 21:57 20.04.2021
57 Clear 7 1013 36 10000 2.57 150 21:39 20.04.2021
58 Clear 7 1014 37 10000 3.09 150 21:21 20.04.2021
59 Clear 9 1014 34 10000 3.09 150 20:38 20.04.2021
60 Clear 9 1014 35 10000 3.6 150 20:20 20.04.2021
61 Clear 12 1014 32 10000 3.09 160 19:47 20.04.2021
62 Clear 12 1014 30 10000 3.6 140 19:29 20.04.2021
63 Clear 13 1014 33 10000 4.12 110 18:46 20.04.2021
64 Clear 13 1014 30 10000 4.63 110 18:28 20.04.2021
65 Clear 14 1015 30 10000 3.6 130 17:41 20.04.2021
66 Clear 13 1015 30 10000 2.57 110 16:51 20.04.2021
67 Clear 14 1016 29 10000 2.57 160 16:28 20.04.2021
68 Clear 14 1017 31 10000 2.57 100 15:36 20.04.2021
69 Clear 15 1017 31 10000 2.57 100 15:18 20.04.2021
70 Clear 14 1017 29 10000 1.54 0 14:45 20.04.2021
71 Clear 14 1018 30 10000 3.09 110 14:22 20.04.2021
72 Clear 14 1019 33 10000 2.06 50 13:28 20.04.2021
73 Clear 13 1019 33 10000 2.06 120 12:55 20.04.2021
74 Clear 13 1019 30 10000 3.09 110 12:24 20.04.2021
75 Clear 13 1020 33 10000 3.09 70 11:46 20.04.2021
76 Clear 12 1020 35 10000 3.09 80 11:25 20.04.2021
77 Clear 12 1020 32 10000 3.09 100 10:48 20.04.2021
78 Clear 11 1020 37 10000 3.09 50 10:24 20.04.2021
79 Clear 11 1021 37 10000 3.6 70 09:47 20.04.2021
80 Clear 10 1021 43 10000 2.57 70 09:18 20.04.2021
81 Clear 8 1021 46 10000 3.09 60 08:42 20.04.2021
82 Clear 7 1022 65 10000 2.82 68 07:58 20.04.2021
83 Clear 5 1022 75 10000 1.03 270 07:31 20.04.2021
84 Clear 1 1022 86 10000 1.03 290 05:42 20.04.2021
85 Clear 2 1023 86 10000 0.51 290 04:43 20.04.2021
86 Clear 2 1023 86 10000 0.51 320 03:41 20.04.2021
87 Clear 4 1025 70 10000 1.54 60 00:51 20.04.2021
88 Clouds 4 1025 57 10000 1.54 70 23:53 19.04.2021
89 Clouds 5 1025 61 10000 1.03 80 23:29 19.04.2021
90 Clouds 5 1025 61 10000 1.54 70 22:39 19.04.2021
91 Clear 6 1025 57 10000 2.06 80 22:19 19.04.2021
92 Clear 7 1026 57 10000 1.54 80 21:38 19.04.2021
93 Clear 7 1026 53 10000 2.06 70 21:20 19.04.2021
94 Clear 7 1026 53 10000 2.06 70 21:20 19.04.2021
95 Clear 8 1026 49 10000 2.57 70 20:41 19.04.2021
96 Clear 9 1026 46 10000 3.09 60 20:20 19.04.2021
97 Clear 10 1026 46 10000 3.6 60 19:46 19.04.2021
98 Clear 11 1026 43 10000 4.12 60 19:25 19.04.2021
99 Clear 12 1026 40 10000 4.63 60 18:48 19.04.2021
100 Clear 12 1026 43 10000 4.12 60 18:24 19.04.2021
101 Clear 12 1026 43 10000 5.14 60 17:58 19.04.2021
102 Clear 12 1026 43 10000 5.14 60 17:39 19.04.2021
103 Clear 13 1026 38 10000 4.63 80 17:20 19.04.2021
104 Clear 13 1026 35 10000 5.14 90 16:41 19.04.2021
105 Clear 13 1027 38 10000 5.14 90 16:21 19.04.2021
106 Clear 13 1027 38 10000 4.63 70 15:40 19.04.2021
107 Clear 13 1027 38 10000 5.14 80 15:22 19.04.2021
108 Clear 14 1027 33 10000 6.17 80 14:38 19.04.2021
109 Clear 14 1028 30 10000 6.17 80 14:19 19.04.2021
110 Clear 14 1028 30 10000 5.14 70 13:44 19.04.2021
111 Clear 14 1028 33 10000 4.12 60 13:25 19.04.2021
112 Clear 14 1028 30 10000 6.17 60 12:43 19.04.2021
113 Clear 14 1028 30 10000 6.17 60 12:43 19.04.2021
114 Clear 13 1028 33 10000 6.17 60 12:23 19.04.2021
115 Clear 13 1028 33 10000 5.14 50 11:54 19.04.2021
116 Clear 13 1028 35 10000 4.63 60 11:26 19.04.2021
117 Clear 12 1028 35 10000 4.12 60 10:47 19.04.2021
118 Clear 12 1028 40 10000 3.09 70 10:25 19.04.2021
119 Clear 11 1029 40 10000 3.09 60 09:50 19.04.2021
120 Clear 10 1029 46 10000 2.57 40 09:30 19.04.2021
121 Clear 10 1029 46 10000 2.57 40 09:30 19.04.2021
122 Clear 9 1029 49 10000 2.57 30 08:59 19.04.2021
123 Clear 7 1029 53 10000 1.03 350 08:28 19.04.2021
124 Clear 6 1028 60 10000 1.54 350 07:48 19.04.2021
125 Clear 5 1028 65 10000 1.03 340 07:19 19.04.2021
126 Clear 3 1028 69 10000 2.77 49 06:36 19.04.2021
127 Clear 4 1029 64 10000 0.51 0 02:36 19.04.2021
128 Clouds 5 1029 52 10000 1.03 0 01:26 19.04.2021
129 Clouds 6 1029 45 10000 2.06 20 23:56 18.04.2021
130 Clouds 5 1029 42 10000 1.54 360 23:18 18.04.2021
131 Clouds 6 1029 39 10000 2.57 20 22:48 18.04.2021
132 Clear 6 1029 37 10000 2.57 40 22:29 18.04.2021
133 Clear 7 1029 40 10000 2.57 50 21:41 18.04.2021
134 Clear 8 1029 40 10000 3.6 60 21:20 18.04.2021
135 Clear 8 1029 34 10000 2.57 50 20:40 18.04.2021
136 Clear 9 1029 34 10000 2.57 60 20:20 18.04.2021
137 Clear 11 1029 32 10000 3.6 80 19:49 18.04.2021
138 Clear 11 1029 30 10000 4.12 70 19:29 18.04.2021
139 Clear 12 1029 30 10000 4.63 70 18:54 18.04.2021
140 Clear 12 1029 30 10000 4.63 70 18:31 18.04.2021
141 Clear 13 1029 30 10000 4.63 60 17:57 18.04.2021
142 Clear 12 1029 30 10000 4.63 60 17:38 18.04.2021
143 Clear 12 1029 30 10000 5.14 80 17:19 18.04.2021
144 Clear 12 1029 32 10000 5.14 70 16:41 18.04.2021
145 Clear 13 1029 32 10000 5.14 80 15:59 18.04.2021
146 Clear 13 1029 32 10000 5.14 80 15:39 18.04.2021
147 Clear 12 1029 32 10000 5.66 80 15:19 18.04.2021
148 Clear 13 1029 30 10000 5.66 60 14:42 18.04.2021
149 Clear 13 1029 30 10000 5.66 70 14:19 18.04.2021
150 Clear 13 1029 30 10000 6.17 70 13:50 18.04.2021
151 Clear 14 1029 30 10000 5.14 50 13:30 18.04.2021
152 Clear 14 1029 30 10000 5.14 50 13:30 18.04.2021
153 Clear 13 1029 30 10000 6.17 60 12:43 18.04.2021
154 Clear 13 1029 28 10000 5.66 60 12:20 18.04.2021
155 Clear 13 1029 30 10000 5.66 70 11:41 18.04.2021
156 Clouds 12 1029 30 10000 5.14 60 11:20 18.04.2021
157 Clouds 12 1029 32 10000 4.12 50 10:45 18.04.2021
158 Clouds 11 1029 35 10000 3.6 30 10:21 18.04.2021
159 Clouds 10 1029 43 10000 2.57 30 09:44 18.04.2021
160 Clouds 9 1029 49 10000 3.09 30 09:26 18.04.2021
161 Clouds 8 1029 53 10000 1.54 20 08:48 18.04.2021
162 Clouds 7 1029 60 10000 2.06 20 08:29 18.04.2021
163 Clouds 6 1029 65 10000 1.54 20 07:53 18.04.2021
164 Clouds 5 1029 65 10000 1.54 20 07:35 18.04.2021
165 Clouds 2 1029 80 10000 1.54 360 05:39 18.04.2021
166 Clouds 3 1029 86 10000 1.03 0 05:21 18.04.2021
167 Clouds 3 1030 65 10000 1.54 350 02:24 18.04.2021
168 Clouds 4 1030 60 10000 2.06 360 01:31 18.04.2021
169 Clouds 5 1030 52 10000 2.57 360 00:28 18.04.2021
170 Clouds 6 1029 49 10000 3.09 10 23:27 17.04.2021
171 Clouds 7 1029 42 10000 2.06 20 22:49 17.04.2021
172 Clouds 8 1030 40 10000 3.09 20 22:30 17.04.2021
173 Clouds 8 1030 40 10000 2.57 10 21:45 17.04.2021
174 Clouds 8 1029 34 10000 3.09 20 21:25 17.04.2021
175 Clouds 9 1029 35 10000 3.09 20 20:43 17.04.2021
176 Clouds 10 1029 28 10000 3.09 20 20:23 17.04.2021
177 Clouds 12 1029 26 10000 3.09 40 19:43 17.04.2021
178 Clouds 12 1029 26 10000 3.6 70 19:20 17.04.2021
179 Clouds 12 1029 24 10000 4.63 60 18:51 17.04.2021
180 Clouds 12 1029 24 10000 5.14 70 18:25 17.04.2021
181 Clouds 12 1029 22 10000 5.14 60 17:43 17.04.2021
182 Clear 12 1029 22 10000 6.17 70 17:21 17.04.2021
183 Clear 12 1029 22 10000 6.17 70 16:40 17.04.2021
184 Clear 13 1029 24 10000 6.17 70 16:22 17.04.2021
185 Clear 12 1030 28 10000 6.17 60 15:22 17.04.2021
186 Clear 12 1030 26 10000 5.66 70 14:44 17.04.2021
187 Clear 13 1030 26 10000 5.14 60 14:20 17.04.2021
188 Clear 13 1030 28 10000 4.63 60 13:43 17.04.2021
189 Clear 12 1030 35 10000 4.12 60 12:55 17.04.2021
190 Clear 10 1030 37 10000 5.14 60 12:32 17.04.2021
191 Clear 10 1030 37 10000 4.63 50 11:51 17.04.2021
192 Clear 10 1030 37 10000 4.63 50 11:33 17.04.2021
193 Clear 10 1030 37 10000 4.63 50 10:56 17.04.2021
194 Clear 10 1030 37 10000 4.63 50 10:38 17.04.2021
195 Clear 8 1029 46 10000 4.12 20 09:47 17.04.2021
196 Clear 6 1029 60 10000 2.57 350 08:54 17.04.2021
197 Clouds 5 1029 70 10000 2.06 350 08:29 17.04.2021
198 Clouds 5 1029 75 10000 2.57 360 07:45 17.04.2021
199 Clouds 1 1029 86 10000 1.54 330 05:43 17.04.2021
200 Clouds 2 1029 80 10000 2.57 350 03:46 17.04.2021
201 Clouds 4 1030 65 10000 2.06 20 00:56 17.04.2021
202 Clouds 4 1030 60 10000 2.57 40 00:30 17.04.2021
203 Clouds 4 1030 60 10000 2.57 40 00:30 17.04.2021
204 Clouds 4 1030 60 10000 2.57 360 23:59 16.04.2021
205 Clouds 5 1030 60 10000 2.57 360 23:34 16.04.2021
206 Clouds 5 1030 49 10000 3.09 360 22:51 16.04.2021
207 Clear 6 1030 45 10000 3.6 360 22:24 16.04.2021
208 Clear 6 1030 45 10000 3.09 360 21:57 16.04.2021
209 Clear 6 1030 45 10000 3.09 360 21:39 16.04.2021
210 Clear 7 1029 39 10000 3.6 10 20:56 16.04.2021
211 Clear 7 1029 39 10000 3.6 10 20:37 16.04.2021
212 Clear 8 1029 32 10000 4.12 20 19:58 16.04.2021
213 Clear 8 1029 32 10000 4.12 20 19:40 16.04.2021
214 Clear 9 1029 32 10000 5.14 30 19:19 16.04.2021
215 Clear 10 1029 28 10000 5.14 20 18:27 16.04.2021
216 Clear 11 1029 26 10000 5.66 30 17:49 16.04.2021
217 Clear 11 1029 26 10000 5.14 30 17:20 16.04.2021
218 Clear 11 1029 28 10000 5.14 30 16:45 16.04.2021
219 Clear 11 1029 30 10000 5.14 10 16:26 16.04.2021
220 Clear 11 1029 30 10000 5.14 10 16:26 16.04.2021
221 Clear 11 1030 30 10000 5.66 50 15:56 16.04.2021
222 Clear 11 1030 30 10000 4.63 70 15:29 16.04.2021
223 Clear 11 1030 28 10000 6.69 70 14:46 16.04.2021
224 Clear 11 1030 30 10000 6.17 70 14:28 16.04.2021
225 Clear 11 1030 30 10000 5.66 80 13:56 16.04.2021
226 Clear 11 1030 32 10000 5.66 60 13:23 16.04.2021
227 Clear 10 1030 32 10000 5.14 80 12:54 16.04.2021
228 Clear 11 1030 32 10000 5.14 80 12:34 16.04.2021
229 Clear 10 1030 37 10000 6.17 40 11:59 16.04.2021
230 Clear 10 1030 37 10000 6.17 40 11:41 16.04.2021
231 Clear 9 1031 43 10000 4.63 20 11:20 16.04.2021
232 Clear 8 1031 46 10000 3.09 10 10:41 16.04.2021
233 Clear 7 1031 53 10000 2.57 360 10:20 16.04.2021
234 Clear 6 1031 60 10000 2.57 350 09:44 16.04.2021
235 Clear 5 1031 65 10000 2.57 350 09:21 16.04.2021
236 Clear 4 1031 70 10000 2.57 10 08:44 16.04.2021
237 Clear 3 1031 75 10000 3.09 350 08:19 16.04.2021
238 Clear 2 1031 75 10000 2.57 10 07:43 16.04.2021
239 Clear 1 1031 80 10000 3.09 360 07:25 16.04.2021
240 Clear 0 1031 74 10000 2.06 360 06:39 16.04.2021
241 Clouds 0 1030 74 10000 2.57 350 05:32 16.04.2021
242 Clouds 1 1031 64 10000 1.54 360 01:41 16.04.2021
243 Clouds 1 1032 55 10000 2.06 20 00:44 16.04.2021
244 Clouds 1 1032 55 10000 2.06 10 00:21 16.04.2021
245 Clouds 1 1031 55 10000 2.06 10 23:52 15.04.2021
246 Clouds 1 1032 52 10000 2.06 20 23:32 15.04.2021
247 Clouds 2 1031 56 10000 2.57 10 22:50 15.04.2021
248 Clear 2 1032 52 10000 2.57 10 22:23 15.04.2021
249 Clear 3 1032 48 10000 2.06 20 21:44 15.04.2021
250 Clear 4 1032 45 10000 2.57 20 21:26 15.04.2021
251 Clear 5 1031 42 10000 2.57 20 20:49 15.04.2021
252 Clear 6 1031 42 10000 2.57 30 20:25 15.04.2021
253 Clear 7 1031 39 10000 3.09 20 19:57 15.04.2021
254 Clear 7 1031 39 10000 3.09 20 19:39 15.04.2021
255 Clear 8 1031 39 10000 3.09 20 19:20 15.04.2021
256 Clear 8 1031 34 10000 3.6 30 18:39 15.04.2021
257 Clear 8 1031 34 10000 3.6 20 18:18 15.04.2021
258 Clear 9 1031 34 10000 3.6 30 17:53 15.04.2021
259 Clear 9 1032 32 10000 4.12 40 17:30 15.04.2021
260 Clear 10 1032 34 10000 3.6 50 16:44 15.04.2021
261 Clear 9 1032 34 10000 4.12 40 16:24 15.04.2021
262 Clear 9 1032 37 10000 4.12 20 15:50 15.04.2021
263 Clear 9 1032 34 10000 4.63 40 15:27 15.04.2021
264 Clear 9 1032 32 10000 4.63 60 14:44 15.04.2021
265 Clear 9 1032 32 10000 4.63 60 14:44 15.04.2021
266 Clear 10 1032 32 10000 4.63 70 14:26 15.04.2021
267 Clear 9 1033 31 10000 4.12 10 13:51 15.04.2021
268 Clear 9 1033 34 10000 4.12 40 13:25 15.04.2021
269 Clear 9 1033 34 10000 4.12 40 12:53 15.04.2021
270 Clear 9 1033 34 10000 3.6 30 12:27 15.04.2021
271 Clear 8 1033 39 10000 3.09 60 11:48 15.04.2021
272 Clear 8 1033 39 10000 3.09 60 11:48 15.04.2021
273 Clear 7 1033 42 10000 3.6 60 11:30 15.04.2021
274 Clear 7 1033 42 10000 4.12 50 10:59 15.04.2021
275 Clear 7 1033 42 10000 4.12 50 10:40 15.04.2021
276 Clear 6 1033 45 10000 3.09 30 10:22 15.04.2021
277 Clear 5 1033 52 10000 2.57 50 09:31 15.04.2021
278 Clear 4 1032 65 10000 2.06 340 08:53 15.04.2021
279 Clear 3 1032 65 10000 2.06 340 08:34 15.04.2021
280 Clear 1 1032 80 10000 1.03 330 07:47 15.04.2021
281 Clear 0 1032 86 10000 1.54 360 07:18 15.04.2021
282 Clear -1 1032 93 10000 2.09 16 06:36 15.04.2021
283 Clouds -2 1031 93 10000 1.03 280 04:57 15.04.2021
284 Clouds -2 1031 86 10000 0.51 280 03:59 15.04.2021
285 Clouds -1 1030 80 10000 0.35 268 00:23 15.04.2021
286 Clouds 0 1029 80 10000 0.35 268 23:36 14.04.2021
287 Clouds 1 1029 69 10000 0.62 201 22:59 14.04.2021
288 Clouds 1 1029 69 10000 0.62 201 22:39 14.04.2021
289 Clear 1 1029 69 10000 1.13 161 22:20 14.04.2021
290 Clear 1 1029 64 10000 0.51 0 21:42 14.04.2021
291 Clear 1 1028 60 10000 1.03 0 21:22 14.04.2021
292 Clear 3 1028 52 10000 2.06 160 20:48 14.04.2021
293 Clear 3 1028 45 10000 2.57 80 20:29 14.04.2021
294 Clear 4 1027 36 10000 2.57 350 19:48 14.04.2021
295 Clear 6 1027 36 10000 2.06 20 19:19 14.04.2021
296 Clear 6 1027 36 10000 2.06 20 19:19 14.04.2021
297 Clear 6 1027 39 10000 3.6 50 18:55 14.04.2021
298 Clear 7 1027 36 10000 4.12 350 18:21 14.04.2021
299 Clear 7 1027 36 10000 3.09 350 17:57 14.04.2021
300 Clear 7 1027 39 10000 4.63 350 17:24 14.04.2021
301 Clear 8 1026 31 10000 3.09 290 16:52 14.04.2021
302 Clear 7 1026 39 10000 4.12 310 16:24 14.04.2021
303 Clear 7 1026 39 10000 4.12 300 15:42 14.04.2021
304 Clear 7 1026 39 10000 3.09 290 15:22 14.04.2021
305 Clear 7 1026 39 10000 4.12 340 14:46 14.04.2021
306 Clear 7 1026 42 10000 4.12 290 14:23 14.04.2021
307 Clouds 7 1026 42 10000 2.57 300 13:54 14.04.2021
308 Clouds 7 1025 42 10000 2.57 260 13:19 14.04.2021
309 Clouds 7 1025 45 10000 3.6 300 12:37 14.04.2021
310 Clear 6 1025 45 10000 3.09 280 11:43 14.04.2021
311 Clear 5 1025 52 10000 3.09 310 11:25 14.04.2021
312 Clear 5 1025 52 10000 3.6 300 10:48 14.04.2021
313 Clear 4 1025 56 10000 3.6 320 10:30 14.04.2021
314 Clear 3 1025 60 10000 3.09 330 09:42 14.04.2021
315 Clear 3 1024 65 10000 3.09 320 09:21 14.04.2021
316 Clear 2 1024 69 10000 2.06 320 08:43 14.04.2021
317 Clear 1 1024 80 10000 1.54 280 08:20 14.04.2021
318 Clear -1 1023 93 10000 1.54 270 06:55 14.04.2021
319 Clear -1 1023 93 10000 1.54 280 06:24 14.04.2021
320 Clear 0 1022 93 10000 1.54 300 04:34 14.04.2021
321 Clouds 0 1021 93 10000 1.03 290 01:49 14.04.2021
322 Clouds 1 1020 93 10000 1.54 270 00:39 14.04.2021
323 Clouds 1 1020 87 10000 1.03 270 23:47 13.04.2021
324 Clouds 1 1020 93 10000 2.06 270 23:27 13.04.2021
325 Clouds 1 1020 93 10000 0.51 250 22:42 13.04.2021
326 Clear 2 1020 93 10000 1.03 230 22:19 13.04.2021
327 Clouds 2 1020 87 10000 0.51 210 21:45 13.04.2021
328 Clouds 3 1019 93 10000 1.54 240 21:27 13.04.2021
329 Clouds 3 1019 87 10000 0.51 250 20:42 13.04.2021
330 Clear 3 1019 81 10000 1.54 210 20:21 13.04.2021
331 Clouds 4 1018 87 10000 1.54 170 19:48 13.04.2021
332 Clouds 4 1018 87 10000 1.03 210 19:24 13.04.2021
333 Rain 5 1018 87 10000 3.6 240 18:40 13.04.2021
334 Clouds 6 1018 70 10000 4.12 270 17:56 13.04.2021
335 Rain 6 1018 70 10000 4.12 270 17:36 13.04.2021
336 Rain 7 1018 53 10000 4.12 220 17:18 13.04.2021
337 Clouds 7 1017 57 10000 5.14 180 16:43 13.04.2021
338 Clouds 7 1017 57 10000 5.14 190 16:20 13.04.2021
339 Clouds 7 1017 61 10000 5.66 190 15:44 13.04.2021
340 Clouds 7 1017 61 10000 5.66 190 15:44 13.04.2021
341 Clouds 7 1017 57 10000 4.12 190 15:22 13.04.2021
342 Clouds 7 1018 56 10000 4.63 220 14:46 13.04.2021
343 Clouds 7 1018 56 10000 4.63 220 14:46 13.04.2021
344 Clouds 7 1017 61 10000 4.12 180 14:19 13.04.2021
345 Clouds 7 1017 53 10000 5.14 210 13:45 13.04.2021
346 Clouds 7 1017 53 10000 4.63 210 13:24 13.04.2021
347 Clouds 7 1017 53 10000 4.12 190 12:56 13.04.2021
348 Clouds 7 1017 53 10000 4.12 190 12:27 13.04.2021
349 Clouds 7 1017 53 10000 4.63 210 11:55 13.04.2021
350 Clouds 6 1017 56 10000 4.63 240 11:29 13.04.2021
351 Clouds 6 1017 61 10000 5.14 200 10:47 13.04.2021
352 Clouds 5 1017 70 10000 4.63 210 10:21 13.04.2021
353 Clouds 5 1017 65 10000 4.63 190 09:56 13.04.2021
354 Clouds 5 1017 65 10000 4.63 190 09:36 13.04.2021
355 Clear 4 1017 75 10000 4.12 200 08:54 13.04.2021
356 Clear 4 1017 75 10000 4.12 200 08:36 13.04.2021
357 Clear 3 1017 70 10000 3.09 200 08:18 13.04.2021
358 Clear 2 1017 75 10000 3.09 200 07:36 13.04.2021
359 Clouds 1 1015 84 10000 1.34 197 06:31 13.04.2021
360 Clouds 1 1015 84 10000 1.34 197 04:47 13.04.2021
361 Clouds 2 1015 83 10000 1.34 208 01:39 13.04.2021
362 Clouds 3 1014 78 10000 0.45 219 00:19 13.04.2021
363 Clouds 4 1014 79 10000 2.24 194 23:44 12.04.2021
364 Clear 4 1016 81 10000 1.54 210 23:24 12.04.2021
365 Clear 4 1016 81 10000 1.54 210 22:38 12.04.2021
366 Clouds 4 1016 81 10000 1.03 0 21:57 12.04.2021
367 Clouds 4 1016 81 10000 1.03 0 21:38 12.04.2021
368 Clouds 4 1016 81 10000 3.24 234 21:19 12.04.2021
369 Clouds 5 1015 75 10000 3.55 234 20:38 12.04.2021
370 Clear 5 1015 70 10000 1.03 0 20:20 12.04.2021
371 Clouds 6 1015 70 10000 2.57 280 19:43 12.04.2021
372 Clouds 6 1014 70 10000 2.06 270 19:23 12.04.2021
373 Clouds 7 1014 70 10000 2.06 260 18:56 12.04.2021
374 Clouds 7 1014 70 10000 2.06 260 18:37 12.04.2021
375 Clouds 7 1014 65 10000 3.6 270 18:18 12.04.2021
376 Clouds 7 1014 70 10000 2.06 260 17:42 12.04.2021
377 Clouds 7 1014 70 10000 3.6 260 17:21 12.04.2021
378 Clouds 6 1014 70 10000 4.63 240 16:44 12.04.2021
379 Clouds 6 1014 70 10000 5.66 250 16:26 12.04.2021
380 Clouds 6 1013 81 10000 5.66 240 15:48 12.04.2021
381 Clouds 6 1013 81 10000 5.66 240 15:21 12.04.2021
382 Clouds 6 1013 81 10000 5.14 240 14:49 12.04.2021
383 Clouds 6 1012 81 10000 4.63 250 14:29 12.04.2021
384 Clouds 6 1012 87 10000 5.66 250 13:45 12.04.2021
385 Clouds 7 1011 81 10000 4.12 230 13:22 12.04.2021
386 Clouds 6 1011 87 10000 3.09 240 12:44 12.04.2021
387 Clouds 6 1011 87 10000 3.6 230 12:24 12.04.2021
388 Clouds 6 1011 87 10000 3.6 230 11:53 12.04.2021
389 Clouds 6 1010 87 9000 2.57 240 10:56 12.04.2021
390 Clouds 7 1010 87 9000 2.57 240 10:38 12.04.2021
391 Clouds 7 1010 87 10000 2.57 240 10:20 12.04.2021
392 Clouds 7 1009 87 8000 2.06 240 09:40 12.04.2021
393 Clear 6 1009 81 10000 1.54 270 09:18 12.04.2021
394 Clear 6 1009 87 10000 1.03 100 08:35 12.04.2021
395 Clear 4 1009 93 10000 4.12 163 07:32 12.04.2021
396 Clear 4 1009 93 10000 1.54 300 06:57 12.04.2021
397 Clouds 3 1009 93 10000 0.51 350 05:51 12.04.2021
398 Clouds 4 1010 87 10000 2.57 70 03:59 12.04.2021
399 Clouds 2 1015 93 10000 4.63 80 00:52 12.04.2021
400 Rain 2 1015 93 10000 5.14 70 00:24 12.04.2021
401 Rain 1 1015 93 10000 5.14 70 23:46 11.04.2021
402 Snow 1 1016 93 6000 5.66 70 23:27 11.04.2021
403 Snow 1 1017 93 1400 4.63 70 22:46 11.04.2021
404 Rain 1 1017 87 6000 5.14 70 22:23 11.04.2021
405 Rain 2 1018 87 10000 4.63 90 21:46 11.04.2021
406 Snow 2 1019 80 10000 4.12 70 21:27 11.04.2021
407 Snow 2 1019 80 7000 6.17 100 20:55 11.04.2021
408 Clouds 2 1019 70 10000 8.23 120 20:29 11.04.2021
409 Rain 3 1018 75 10000 3.09 60 19:54 11.04.2021
410 Rain 2 1018 75 10000 3.09 60 19:36 11.04.2021
411 Snow 3 1019 75 10000 5.14 90 19:18 11.04.2021
412 Rain 2 1020 75 8000 8.23 120 18:42 11.04.2021
413 Rain 4 1019 56 10000 6.69 110 18:24 11.04.2021
414 Rain 4 1019 65 10000 5.66 110 17:46 11.04.2021
415 Rain 4 1019 56 10000 6.69 120 17:27 11.04.2021
416 Rain 6 1019 45 10000 5.14 100 16:50 11.04.2021
417 Clear 7 1019 39 10000 5.14 100 16:23 11.04.2021
418 Clear 7 1019 36 10000 5.66 110 15:54 11.04.2021
419 Clear 8 1019 39 10000 4.12 140 15:27 11.04.2021
420 Clear 8 1019 39 10000 4.12 140 15:27 11.04.2021
421 Clear 8 1019 34 10000 4.12 150 14:59 11.04.2021
422 Clear 8 1019 34 10000 4.12 150 14:41 11.04.2021
423 Clear 9 1020 40 10000 4.12 150 13:52 11.04.2021
424 Clear 9 1020 37 10000 4.12 150 13:31 11.04.2021
425 Clear 8 1020 37 10000 3.6 160 12:54 11.04.2021
426 Clear 8 1020 37 10000 4.12 180 12:22 11.04.2021
427 Clear 9 1020 40 10000 4.12 150 11:52 11.04.2021
428 Clouds 8 1019 42 10000 3.6 150 11:27 11.04.2021
429 Clouds 8 1019 49 10000 2.57 130 10:50 11.04.2021
430 Clouds 7 1019 61 10000 2.57 120 10:31 11.04.2021
431 Clouds 6 1019 61 10000 1.54 0 09:58 11.04.2021
432 Clouds 6 1019 61 10000 1.54 0 09:35 11.04.2021
433 Clouds 5 1019 65 10000 1.54 180 08:59 11.04.2021
434 Clear 3 1018 70 10000 1.54 200 08:26 11.04.2021
435 Clear 1 1018 74 10000 1.03 0 07:24 11.04.2021
436 Clear -1 1017 86 10000 1.55 216 06:54 11.04.2021
437 Clear -1 1017 86 10000 1.88 228 05:44 11.04.2021
438 Clear -1 1016 80 10000 1.97 240 05:21 11.04.2021
439 Clear 0 1016 74 10000 1.54 210 04:35 11.04.2021
440 Clear 2 1015 56 10000 2.57 220 02:45 11.04.2021
441 Clear 3 1014 48 10000 2.57 220 00:40 11.04.2021
442 Clear 3 1013 45 10000 3.09 230 23:49 10.04.2021
443 Clear 4 1013 42 10000 3.6 240 23:26 10.04.2021
444 Clear 4 1012 42 10000 3.09 240 22:45 10.04.2021
445 Clear 4 1012 42 10000 3.09 240 22:23 10.04.2021
446 Clear 4 1012 38 10000 2.57 230 21:50 10.04.2021
447 Clear 4 1011 41 10000 2.06 240 21:23 10.04.2021
448 Clear 5 1011 36 10000 2.57 260 20:47 10.04.2021
449 Clear 6 1010 31 10000 3.09 250 20:24 10.04.2021
450 Clear 7 1010 27 10000 4.12 250 19:45 10.04.2021
451 Clear 8 1009 29 10000 5.66 260 19:26 10.04.2021
452 Clear 8 1009 29 10000 6.17 260 18:52 10.04.2021
453 Clear 9 1009 27 10000 7.2 260 18:31 10.04.2021
454 Clear 9 1009 27 10000 7.2 260 18:31 10.04.2021
455 Clear 9 1008 27 10000 6.17 260 17:41 10.04.2021
456 Clear 9 1008 29 10000 7.72 260 17:21 10.04.2021
457 Clear 9 1008 34 10000 7.72 250 16:31 10.04.2021
458 Clear 9 1007 34 10000 7.2 250 15:55 10.04.2021
459 Clear 9 1007 34 10000 7.2 260 15:32 10.04.2021
460 Clear 8 1007 37 10000 7.72 260 14:47 10.04.2021
461 Clouds 8 1006 36 10000 7.2 240 14:21 10.04.2021
462 Clear 8 1006 39 10000 7.72 220 13:43 10.04.2021
463 Clear 7 1005 42 10000 7.72 240 13:25 10.04.2021
464 Clouds 6 1005 49 10000 7.72 250 12:35 10.04.2021
465 Clear 6 1004 56 10000 7.72 240 11:52 10.04.2021
466 Clear 5 1004 56 10000 8.23 240 11:26 10.04.2021
467 Clear 5 1003 60 10000 7.72 250 10:54 10.04.2021
468 Clear 4 1003 60 10000 8.23 240 10:32 10.04.2021
469 Clear 4 1002 65 10000 8.23 240 09:59 10.04.2021
470 Clear 3 1002 65 10000 7.2 240 09:29 10.04.2021
471 Clear 3 1001 75 10000 6.69 240 08:54 10.04.2021
472 Clouds 2 1001 75 10000 7.2 240 08:30 10.04.2021
473 Clouds 2 1001 75 10000 7.2 240 08:30 10.04.2021
474 Clouds 2 1001 80 10000 6.17 240 07:52 10.04.2021
475 Clouds 2 1000 80 10000 5.14 230 07:21 10.04.2021
476 Clouds 2 1000 80 10000 6.69 240 06:27 10.04.2021
477 Clouds 1 999 87 10000 5.66 240 04:42 10.04.2021
478 Clouds 2 998 87 10000 5.14 230 02:57 10.04.2021
479 Clouds 2 998 87 10000 5.14 230 02:35 10.04.2021
480 Clouds 3 997 87 10000 4.12 230 00:53 10.04.2021
481 Drizzle 3 997 93 8000 4.63 230 00:29 10.04.2021
482 Rain 3 997 93 10000 4.63 230 23:44 09.04.2021
483 Clouds 3 995 94 10000 2.24 199 23:20 09.04.2021
484 Rain 3 996 93 10000 4.63 230 22:44 09.04.2021
485 Rain 2 996 93 4500 4.12 230 22:25 09.04.2021
486 Rain 3 996 87 4900 2.57 230 21:39 09.04.2021
487 Rain 3 995 93 5000 5.66 270 21:19 09.04.2021
488 Rain 4 995 87 10000 2.06 260 20:45 09.04.2021
489 Rain 4 994 87 9000 3.09 290 20:23 09.04.2021
490 Rain 4 994 70 10000 5.66 270 19:57 09.04.2021
491 Rain 6 994 70 10000 5.66 270 19:39 09.04.2021
492 Clouds 7 992 49 10000 7.2 230 19:20 09.04.2021
493 Clouds 7 992 49 10000 8.23 230 18:41 09.04.2021
494 Clouds 8 992 53 10000 7.72 250 18:21 09.04.2021
495 Clouds 8 991 53 10000 5.14 260 17:43 09.04.2021
496 Clouds 8 991 53 10000 8.23 240 17:21 09.04.2021
497 Clouds 8 990 46 10000 9.77 220 16:39 09.04.2021
498 Clouds 9 990 53 10000 8.75 210 15:59 09.04.2021
499 Clouds 8 990 53 10000 8.75 210 15:40 09.04.2021
500 Clouds 8 990 70 10000 9.26 200 15:19 09.04.2021
501 Rain 7 991 70 10000 6.69 210 14:42 09.04.2021
502 Rain 7 991 61 10000 6.17 210 13:57 09.04.2021
503 Clouds 7 991 61 10000 6.17 210 13:39 09.04.2021
504 Clouds 7 991 65 10000 5.66 210 13:20 09.04.2021
505 Clouds 6 992 70 10000 7.2 200 12:46 09.04.2021
506 Clouds 5 992 75 10000 6.17 210 11:52 09.04.2021
507 Drizzle 4 991 75 10000 5.66 190 11:27 09.04.2021
508 Rain 4 992 87 10000 5.66 180 10:50 09.04.2021
509 Rain 4 992 81 10000 7.2 190 10:30 09.04.2021
510 Rain 5 992 75 10000 7.72 180 09:55 09.04.2021
511 Rain 5 992 70 10000 7.2 180 09:27 09.04.2021
512 Clouds 5 993 70 10000 7.2 190 08:54 09.04.2021
513 Clouds 5 993 70 10000 6.69 180 08:23 09.04.2021
514 Clouds 4 994 75 10000 7.2 180 07:21 09.04.2021
515 Clouds 4 996 75 10000 6.17 180 06:21 09.04.2021
516 Rain 2 999 80 10000 5.14 180 03:54 09.04.2021
517 Rain 2 999 70 10000 5.66 180 03:30 09.04.2021
518 Clouds 3 1002 56 10000 3.6 190 00:38 09.04.2021
519 Clouds 2 1003 52 10000 3.09 190 00:20 09.04.2021
520 Clouds 3 1003 52 10000 3.09 220 23:30 08.04.2021
521 Clouds 3 1003 56 10000 3.09 220 22:47 08.04.2021
522 Clear 3 1004 70 10000 3.09 220 22:27 08.04.2021
523 Clear 4 1004 65 10000 2.06 190 21:58 08.04.2021
524 Clear 4 1004 65 10000 2.06 190 21:38 08.04.2021
525 Clear 4 1004 65 10000 2.57 190 21:20 08.04.2021
526 Clear 4 1004 56 10000 3.6 180 20:53 08.04.2021
527 Clear 4 1004 56 10000 3.6 180 20:34 08.04.2021
528 Clear 5 1004 52 10000 3.6 170 19:57 08.04.2021
529 Clouds 6 1005 45 10000 4.12 190 19:24 08.04.2021
530 Clouds 6 1005 39 10000 3.6 210 18:56 08.04.2021
531 Clear 7 1005 36 10000 2.06 260 18:24 08.04.2021
532 Clouds 7 1005 33 10000 3.6 260 17:52 08.04.2021
533 Clear 8 1006 31 10000 3.6 210 17:26 08.04.2021
534 Clear 8 1006 29 10000 4.63 270 16:57 08.04.2021
535 Clear 8 1006 29 10000 4.63 270 16:36 08.04.2021
536 Clear 8 1006 29 10000 4.63 270 16:36 08.04.2021
537 Clear 8 1006 33 10000 2.57 240 15:55 08.04.2021
538 Clear 7 1006 33 10000 2.57 240 15:36 08.04.2021
539 Clear 7 1006 33 10000 4.63 250 15:18 08.04.2021
540 Clear 7 1006 31 10000 4.63 260 14:39 08.04.2021
541 Clear 7 1006 33 10000 5.14 260 14:19 08.04.2021
542 Clear 7 1006 33 10000 4.12 240 13:43 08.04.2021
543 Clear 7 1006 36 10000 3.6 270 13:23 08.04.2021
544 Clear 6 1007 42 10000 3.6 290 12:49 08.04.2021
545 Clear 6 1007 38 10000 4.63 270 12:30 08.04.2021
546 Clear 5 1006 42 10000 3.6 300 11:56 08.04.2021
547 Clear 5 1006 42 10000 3.09 260 11:21 08.04.2021
548 Clear 4 1006 48 10000 2.57 280 10:43 08.04.2021
549 Clear 4 1006 52 10000 1.54 300 10:24 08.04.2021
550 Clear 3 1006 56 10000 2.06 340 09:43 08.04.2021
551 Clear 1 1006 60 10000 2.06 300 08:53 08.04.2021
552 Clear 1 1006 60 10000 2.06 300 08:35 08.04.2021
553 Clear 0 1005 80 10000 1.03 270 07:59 08.04.2021
554 Clear -1 1005 80 10000 1.03 270 07:40 08.04.2021
555 Clouds -2 1004 93 10000 2.14 324 04:51 08.04.2021
556 Clouds 0 1003 74 10000 2.36 300 01:25 08.04.2021
557 Clouds 0 1002 69 10000 2.36 300 00:30 08.04.2021
558 Clouds 0 1002 69 10000 2.15 299 23:45 07.04.2021
559 Clouds 0 1002 64 10000 1.67 293 23:22 07.04.2021
560 Clouds 1 1002 64 10000 0.51 160 22:55 07.04.2021
561 Clouds 1 1002 64 10000 0.51 160 22:35 07.04.2021
562 Clear 1 1001 60 10000 0.94 313 21:53 07.04.2021
563 Clear 1 1001 60 10000 0.94 313 21:32 07.04.2021
564 Clear 3 1001 42 10000 1.54 10 20:49 07.04.2021
565 Clear 3 1001 42 10000 2.06 40 20:28 07.04.2021
566 Clear 4 1000 39 10000 2.06 40 19:50 07.04.2021
567 Clear 6 1000 36 10000 3.09 30 19:31 07.04.2021
568 Clear 6 999 36 10000 2.57 20 18:56 07.04.2021
569 Clear 7 999 36 10000 3.09 30 18:22 07.04.2021
570 Clear 7 999 36 10000 3.6 360 17:59 07.04.2021
571 Clear 7 999 36 10000 3.6 360 17:40 07.04.2021
572 Clear 7 998 34 10000 4.12 350 16:59 07.04.2021
573 Clear 8 998 34 10000 4.12 350 16:40 07.04.2021
574 Clear 7 998 36 10000 3.6 350 16:20 07.04.2021
575 Clear 7 998 39 10000 4.63 330 15:51 07.04.2021
576 Clouds 7 998 45 10000 5.66 340 15:25 07.04.2021
577 Clouds 6 997 49 10000 4.63 340 14:37 07.04.2021
578 Clouds 6 997 49 10000 5.66 330 14:18 07.04.2021
579 Clouds 6 997 49 10000 4.63 350 13:37 07.04.2021
580 Clouds 6 996 56 10000 6.17 340 13:19 07.04.2021
581 Clouds 5 996 56 10000 4.63 360 12:42 07.04.2021
582 Clouds 5 996 65 10000 4.63 340 12:18 07.04.2021
583 Clouds 4 995 70 10000 4.63 340 11:41 07.04.2021
584 Clouds 4 995 70 10000 4.63 350 11:21 07.04.2021
585 Clouds 4 994 70 10000 5.14 360 10:46 07.04.2021
586 Clear 4 993 70 10000 5.14 340 09:47 07.04.2021
587 Clear 3 993 81 10000 4.63 330 09:28 07.04.2021
588 Clouds 3 993 87 10000 3.6 310 08:51 07.04.2021
589 Clouds 2 992 93 10000 2.57 290 08:30 07.04.2021
590 Snow 1 992 93 10000 2.06 300 07:48 07.04.2021
591 Snow 1 991 93 5000 2.06 310 07:28 07.04.2021
592 Snow 1 991 93 7000 3.09 310 06:42 07.04.2021
593 Snow 1 990 100 10000 2.57 270 05:22 07.04.2021
594 Clouds 3 988 48 10000 2.57 220 01:23 07.04.2021
595 Clouds 4 988 45 10000 3.6 220 23:47 06.04.2021
596 Clouds 4 988 45 10000 4.12 210 23:22 06.04.2021
597 Clouds 4 987 42 10000 3.6 210 22:55 06.04.2021
598 Clear 4 987 38 10000 4.12 210 22:21 06.04.2021
599 Clear 4 987 38 10000 4.12 220 21:44 06.04.2021
600 Clouds 4 986 49 10000 2.68 188 21:24 06.04.2021
601 Clear 5 987 36 10000 5.14 230 20:58 06.04.2021
602 Clouds 5 985 47 10000 1.34 207 20:39 06.04.2021
603 Clear 5 987 36 10000 5.66 230 20:19 06.04.2021
604 Clear 6 987 36 10000 5.66 230 19:42 06.04.2021
605 Clear 6 987 36 10000 6.17 240 19:24 06.04.2021
606 Clear 6 986 36 10000 6.69 240 18:43 06.04.2021
607 Clear 7 986 31 10000 7.2 250 18:20 06.04.2021
608 Clear 7 986 31 10000 8.75 240 17:45 06.04.2021
609 Clear 8 986 31 10000 8.75 250 17:20 06.04.2021
610 Clear 7 986 33 10000 8.23 250 16:49 06.04.2021
611 Clear 8 986 31 10000 8.23 250 16:27 06.04.2021
612 Clear 8 986 34 10000 9.26 240 15:27 06.04.2021
613 Clear 8 985 34 10000 8.75 250 14:50 06.04.2021
614 Clear 7 985 36 10000 9.26 260 14:31 06.04.2021
615 Clear 7 985 39 10000 8.75 260 13:59 06.04.2021
616 Clear 7 985 39 10000 8.75 260 13:39 06.04.2021
617 Clear 6 985 39 10000 9.77 260 13:20 06.04.2021
618 Clear 6 985 39 10000 9.26 260 12:38 06.04.2021
619 Clear 5 984 42 10000 9.26 260 12:19 06.04.2021
620 Clear 5 984 42 10000 9.77 260 11:48 06.04.2021
621 Clear 5 984 42 10000 8.23 260 11:20 06.04.2021
622 Clear 5 984 45 10000 8.75 270 10:46 06.04.2021
623 Clear 4 984 45 10000 9.26 260 10:24 06.04.2021
624 Clear 4 984 45 10000 8.23 260 09:47 06.04.2021
625 Clear 3 984 48 10000 7.72 260 09:26 06.04.2021
626 Clear 2 984 51 10000 6.17 260 08:38 06.04.2021
627 Clear 2 983 51 10000 8.23 260 07:47 06.04.2021
628 Clear 1 983 55 10000 6.17 250 06:55 06.04.2021
629 Clouds 0 983 60 10000 5.14 250 05:18 06.04.2021
630 Clouds 1 982 64 10000 4.12 250 01:54 06.04.2021
631 Clouds 1 982 69 10000 4.12 240 00:43 06.04.2021
632 Clouds 1 982 69 10000 4.12 250 00:20 06.04.2021
633 Clouds 1 982 60 10000 5.14 270 23:42 05.04.2021
634 Clouds 1 982 69 10000 4.63 260 23:19 05.04.2021
635 Clouds 1 982 69 10000 5.14 250 22:45 05.04.2021
636 Snow 1 981 69 10000 4.63 230 22:24 05.04.2021
637 Clear 1 981 69 10000 4.63 220 21:40 05.04.2021
638 Clouds 2 982 69 10000 4.12 230 21:20 05.04.2021
639 Clouds 2 982 64 10000 4.63 230 20:42 05.04.2021
640 Snow 2 981 64 10000 5.66 240 20:23 05.04.2021
641 Clear 2 981 60 10000 5.14 240 19:40 05.04.2021
642 Clear 2 981 56 10000 5.66 250 19:20 05.04.2021
643 Clear 3 981 56 10000 6.69 240 18:43 05.04.2021
644 Clouds 3 981 56 10000 6.17 250 18:25 05.04.2021
645 Clear 3 981 52 10000 7.2 240 17:55 05.04.2021
646 Clear 3 981 52 10000 7.2 240 17:36 05.04.2021
647 Clear 3 981 56 10000 6.69 250 17:18 05.04.2021
648 Clouds 3 981 52 10000 8.23 250 16:39 05.04.2021
649 Clouds 2 981 55 10000 7.72 260 16:19 05.04.2021
650 Clouds 2 981 64 10000 7.2 250 15:48 05.04.2021
651 Clouds 1 981 75 10000 6.17 250 15:27 05.04.2021
652 Clouds 1 981 75 10000 7.2 240 14:36 05.04.2021
653 Clouds 0 980 86 10000 7.2 240 13:59 05.04.2021
654 Snow 0 980 93 10000 7.2 260 13:31 05.04.2021
655 Snow 0 980 93 6000 5.14 260 12:48 05.04.2021
656 Snow 0 979 93 1000 7.2 280 12:26 05.04.2021
657 Snow 0 979 93 1000 7.2 280 12:26 05.04.2021
658 Snow 0 979 93 1000 7.2 280 11:53 05.04.2021
659 Snow 0 979 93 2400 6.69 270 11:32 05.04.2021
660 Snow 1 978 93 6000 6.69 270 10:57 05.04.2021
661 Snow 0 978 93 6000 6.69 270 10:36 05.04.2021
662 Snow 0 977 93 8000 8.75 290 09:56 05.04.2021
663 Snow 0 977 93 8000 8.75 290 09:37 05.04.2021
664 Snow 0 976 93 2000 5.66 280 09:19 05.04.2021
665 Snow 1 975 80 1800 7.72 230 08:40 05.04.2021
666 Clouds 2 976 75 10000 6.17 220 08:19 05.04.2021
667 Clouds 2 976 75 10000 6.69 230 07:34 05.04.2021
668 Rain 5 978 75 10000 5.66 200 04:23 05.04.2021
669 Clouds 7 982 65 10000 7.2 220 01:34 05.04.2021
670 Clouds 7 984 61 10000 7.72 230 00:24 05.04.2021
671 Clouds 8 985 61 10000 9.26 230 23:38 04.04.2021
672 Clouds 8 986 66 10000 8.75 230 23:18 04.04.2021
673 Clouds 8 987 66 10000 9.77 230 22:49 04.04.2021
674 Clouds 8 987 61 10000 7.72 230 22:26 04.04.2021
675 Clear 9 989 53 10000 7.2 230 21:23 04.04.2021
676 Clear 10 989 53 10000 6.69 220 20:51 04.04.2021
677 Clear 10 990 50 10000 6.69 220 20:23 04.04.2021
678 Clear 10 991 50 10000 5.14 220 19:42 04.04.2021
679 Clear 10 992 46 10000 6.17 220 19:21 04.04.2021
680 Clear 10 993 43 10000 7.72 220 18:56 04.04.2021
681 Clear 11 993 43 10000 7.72 220 18:37 04.04.2021
682 Clear 11 994 40 10000 5.66 220 18:19 04.04.2021
683 Clear 12 996 35 10000 7.2 230 17:27 04.04.2021
684 Clear 12 996 35 10000 7.2 220 16:58 04.04.2021
685 Clear 12 996 35 10000 7.2 220 16:40 04.04.2021
686 Clear 12 998 37 10000 7.2 210 15:58 04.04.2021
687 Clear 12 998 37 10000 7.2 210 15:33 04.04.2021
688 Clear 11 1000 37 10000 8.23 230 14:42 04.04.2021
689 Clear 11 1001 40 10000 7.72 230 14:24 04.04.2021
690 Clear 10 1002 40 10000 6.69 240 13:28 04.04.2021
691 Clear 10 1003 43 10000 6.17 210 12:53 04.04.2021
692 Clear 10 1004 40 10000 5.66 220 12:32 04.04.2021
693 Clear 9 1005 46 10000 5.66 230 11:52 04.04.2021
694 Clear 8 1006 43 10000 6.17 220 11:31 04.04.2021
695 Clear 8 1007 46 10000 6.17 240 10:56 04.04.2021
696 Clear 7 1007 49 10000 5.14 240 10:32 04.04.2021
697 Clear 6 1008 52 10000 6.17 240 09:52 04.04.2021
698 Clear 5 1009 56 10000 5.14 240 09:24 04.04.2021
699 Clear 4 1009 65 10000 4.12 220 08:50 04.04.2021
700 Clear 4 1009 65 10000 4.12 220 08:32 04.04.2021
701 Clear 4 1009 65 10000 4.12 220 08:32 04.04.2021
702 Clouds 2 1011 69 10000 4.12 230 07:22 04.04.2021
703 Clouds 1 1011 69 10000 3.6 240 06:34 04.04.2021
704 Clouds 2 1012 69 10000 2.06 240 04:34 04.04.2021
705 Clouds 3 1014 65 10000 2.57 250 01:28 04.04.2021
706 Clouds 5 1015 60 10000 2.57 270 00:19 04.04.2021
707 Clouds 5 1015 60 10000 3.09 300 23:47 03.04.2021
708 Clouds 6 1015 56 10000 3.6 290 23:23 03.04.2021
709 Clouds 6 1016 52 10000 3.6 270 22:50 03.04.2021
710 Clouds 6 1016 52 10000 3.09 260 22:20 03.04.2021
711 Clouds 6 1016 52 10000 3.09 260 22:20 03.04.2021
712 Clouds 6 1016 52 10000 2.57 250 21:47 03.04.2021
713 Clouds 6 1016 49 10000 2.57 240 21:23 03.04.2021
714 Clouds 6 1016 49 10000 2.57 240 20:49 03.04.2021
715 Clouds 6 1016 49 10000 2.57 240 20:27 03.04.2021
716 Clouds 6 1016 45 10000 4.12 280 19:50 03.04.2021
717 Clouds 7 1016 45 10000 4.63 270 19:24 03.04.2021
718 Clouds 8 1016 39 10000 5.14 270 18:48 03.04.2021
719 Clouds 8 1017 39 10000 4.63 270 18:30 03.04.2021
720 Clouds 8 1017 36 10000 4.63 290 17:53 03.04.2021
721 Clear 8 1017 36 10000 6.17 280 17:25 03.04.2021
722 Clear 8 1018 36 10000 4.63 320 16:51 03.04.2021
723 Clear 7 1018 39 10000 6.69 310 16:22 03.04.2021
724 Clear 7 1018 36 10000 6.17 280 15:50 03.04.2021
725 Clear 7 1018 34 10000 5.66 340 15:23 03.04.2021
726 Clear 7 1019 36 10000 6.17 320 14:44 03.04.2021
727 Clear 7 1019 33 10000 5.14 320 14:24 03.04.2021
728 Clear 6 1019 39 10000 5.66 290 13:53 03.04.2021
729 Clear 6 1019 39 10000 5.66 300 13:25 03.04.2021
730 Clear 6 1019 42 10000 4.63 320 12:57 03.04.2021
731 Clear 6 1019 39 10000 5.66 320 12:32 03.04.2021
732 Clear 5 1019 45 10000 5.14 300 11:40 03.04.2021
733 Clear 5 1019 45 10000 5.14 330 11:19 03.04.2021
734 Clear 4 1019 52 10000 5.14 310 10:43 03.04.2021
735 Clear 4 1019 56 10000 5.14 320 10:25 03.04.2021
736 Clear 3 1019 60 10000 4.63 330 09:29 03.04.2021
737 Clear 2 1018 60 10000 5.66 330 08:59 03.04.2021
738 Clouds 2 1018 60 10000 5.14 330 08:31 03.04.2021
739 Clouds 2 1018 60 10000 4.63 320 07:30 03.04.2021
740 Clouds 2 1018 60 10000 5.14 330 06:50 03.04.2021
741 Clouds 3 1016 52 10000 5.14 320 03:53 03.04.2021
742 Clouds 3 1016 48 10000 4.63 320 02:54 03.04.2021
743 Clouds 4 1016 52 10000 4.12 320 02:27 03.04.2021
744 Clouds 4 1015 56 10000 4.12 320 00:31 03.04.2021
745 Clouds 4 1015 52 10000 4.63 320 23:55 02.04.2021
746 Clouds 4 1015 48 10000 4.63 320 23:29 02.04.2021
747 Clouds 4 1012 59 10000 4.02 338 22:56 02.04.2021
748 Clouds 4 1012 63 10000 2.68 341 22:37 02.04.2021
749 Clear 4 1014 60 10000 2.57 300 21:56 02.04.2021
750 Clear 4 1014 60 10000 2.57 300 21:38 02.04.2021
751 Clear 4 1014 60 10000 2.57 330 21:18 02.04.2021
752 Clear 4 1014 70 10000 2.06 310 20:38 02.04.2021
753 Clear 4 1014 70 10000 2.06 310 20:38 02.04.2021
754 Clouds 4 1014 75 10000 2.06 350 20:18 02.04.2021
755 Clouds 5 1014 60 10000 9.77 350 19:40 02.04.2021
756 Rain 5 1013 56 10000 4.63 310 19:22 02.04.2021
757 Clear 6 1013 56 10000 5.14 310 18:43 02.04.2021
758 Clouds 7 1013 66 10000 4.26 356 18:23 02.04.2021
759 Clear 7 1012 56 10000 4.12 320 17:54 02.04.2021
760 Clear 6 1012 61 10000 5.14 330 17:24 02.04.2021
761 Clouds 7 1012 65 10000 5.66 330 16:24 02.04.2021
762 Clouds 8 1011 46 10000 4.63 10 15:43 02.04.2021
763 Clouds 8 1011 42 10000 5.14 300 15:19 02.04.2021
764 Clouds 9 1011 40 10000 5.66 300 14:33 02.04.2021
765 Clouds 8 1011 42 10000 5.14 310 13:50 02.04.2021
766 Clouds 8 1011 42 10000 6.17 340 13:27 02.04.2021
767 Clear 8 1011 42 10000 5.66 320 12:53 02.04.2021
768 Clouds 8 1011 42 10000 5.66 320 12:20 02.04.2021
769 Clouds 8 1011 42 10000 5.66 320 11:58 02.04.2021
770 Clear 7 1011 42 10000 5.66 300 11:21 02.04.2021
771 Clear 7 1012 52 10000 4.12 290 10:51 02.04.2021
772 Clear 6 1012 52 10000 4.12 290 10:33 02.04.2021
773 Clear 5 1012 60 10000 3.6 270 09:57 02.04.2021
774 Clear 5 1012 60 10000 3.6 270 09:37 02.04.2021
775 Clear 4 1012 56 10000 4.12 270 09:18 02.04.2021
776 Clear 4 1012 60 10000 3.6 280 08:37 02.04.2021
777 Clear 4 1012 60 10000 2.57 280 07:52 02.04.2021
778 Clear 4 1012 60 10000 3.09 270 07:19 02.04.2021
779 Clouds 3 1013 60 10000 2.57 260 06:31 02.04.2021
780 Clouds 3 1015 60 10000 1.54 270 02:59 02.04.2021
781 Clouds 4 1015 56 10000 2.06 280 00:54 02.04.2021
782 Clouds 4 1015 56 10000 2.06 280 00:36 02.04.2021
783 Clouds 5 1016 56 10000 3.09 310 23:42 01.04.2021
784 Clouds 5 1016 56 10000 2.57 290 23:24 01.04.2021
785 Clear 4 1016 60 10000 2.57 230 22:22 01.04.2021
786 Clear 3 1016 60 10000 2.57 230 21:52 01.04.2021
787 Clear 4 1016 56 10000 2.06 230 21:29 01.04.2021
788 Clear 4 1016 56 10000 2.06 230 21:00 01.04.2021
789 Clear 4 1016 56 10000 2.06 230 20:33 01.04.2021
790 Clear 6 1017 45 10000 3.09 290 19:57 01.04.2021
791 Clear 7 1017 45 10000 3.09 290 19:39 01.04.2021
792 Clear 9 1017 42 10000 5.66 290 18:51 01.04.2021
793 Clear 9 1017 40 10000 6.17 280 18:19 01.04.2021
794 Clear 9 1017 43 10000 6.17 280 17:58 01.04.2021
795 Clear 9 1017 43 10000 6.17 280 17:38 01.04.2021
796 Clear 9 1017 43 10000 6.69 280 17:19 01.04.2021
797 Clear 9 1017 43 10000 6.17 280 16:41 01.04.2021
798 Clear 9 1017 43 10000 6.17 280 16:41 01.04.2021
799 Clouds 9 1017 40 10000 5.14 280 15:49 01.04.2021
800 Clouds 9 1017 43 10000 5.14 280 15:23 01.04.2021
801 Clouds 9 1017 43 10000 4.12 260 14:51 01.04.2021
802 Clouds 9 1018 49 10000 4.12 310 14:29 01.04.2021
803 Clouds 8 1018 49 10000 5.14 310 13:59 01.04.2021
804 Clouds 8 1018 49 10000 4.63 310 13:32 01.04.2021
805 Clouds 8 1018 49 10000 3.6 320 12:58 01.04.2021
806 Clouds 8 1018 49 10000 3.6 320 12:37 01.04.2021
807 Clouds 7 1018 53 10000 4.63 300 12:18 01.04.2021
808 Clear 6 1018 56 10000 4.12 350 11:42 01.04.2021
809 Clear 6 1018 61 10000 4.12 350 11:18 01.04.2021
810 Clear 5 1018 60 10000 4.12 320 10:46 01.04.2021
811 Clear 5 1018 60 10000 4.12 330 10:25 01.04.2021
812 Clear 4 1018 75 10000 4.12 320 09:32 01.04.2021
813 Clear 3 1018 75 10000 3.09 320 08:58 01.04.2021
814 Clear 3 1018 75 10000 3.09 320 08:32 01.04.2021
815 Clear 1 1017 80 10000 2.06 310 07:22 01.04.2021
816 Clear 0 1017 80 10000 2.57 310 06:57 01.04.2021
817 Clouds 0 1017 80 10000 2.06 310 06:20 01.04.2021
818 Clouds 2 1016 81 10000 2.06 310 03:20 01.04.2021
819 Clouds 4 1016 93 10000 1.54 290 00:23 01.04.2021
820 Clouds 4 1016 93 10000 1.54 280 23:44 31.03.2021
821 Clouds 4 1016 93 10000 1.54 290 22:56 31.03.2021
822 Clouds 4 1016 93 10000 1.54 290 22:37 31.03.2021
823 Clear 4 1016 93 10000 1.54 280 22:18 31.03.2021
824 Clear 5 1016 93 10000 1.54 280 21:40 31.03.2021
825 Clear 5 1016 93 10000 1.03 280 21:19 31.03.2021
826 Clear 5 1016 93 10000 1.03 280 21:19 31.03.2021
827 Clouds 5 1016 93 10000 1.54 280 20:41 31.03.2021
828 Clouds 5 1016 93 10000 1.54 280 20:22 31.03.2021
829 Clouds 5 1016 93 10000 1.54 290 19:42 31.03.2021
830 Clouds 5 1016 87 10000 2.57 310 19:21 31.03.2021
831 Drizzle 5 1016 87 10000 2.57 310 18:57 31.03.2021
832 Rain 6 1016 87 10000 2.57 310 18:38 31.03.2021
833 Rain 6 1016 87 10000 3.09 320 17:44 31.03.2021
834 Drizzle 6 1016 81 10000 2.57 330 17:25 31.03.2021
835 Drizzle 6 1016 87 10000 2.06 310 16:55 31.03.2021
836 Drizzle 6 1016 87 10000 2.06 310 16:36 31.03.2021
837 Rain 6 1016 87 10000 2.57 350 15:58 31.03.2021
838 Rain 6 1016 87 10000 2.57 350 15:40 31.03.2021
839 Rain 6 1016 87 10000 2.06 320 15:18 31.03.2021
840 Rain 6 1016 87 10000 1.54 0 14:41 31.03.2021
841 Rain 6 1016 87 10000 2.06 360 14:18 31.03.2021
842 Rain 6 1016 81 9000 2.57 360 13:24 31.03.2021
843 Rain 6 1016 81 9000 2.57 20 12:41 31.03.2021
844 Drizzle 6 1016 87 10000 2.57 360 12:19 31.03.2021
845 Drizzle 6 1016 87 9000 3.09 10 11:39 31.03.2021
846 Rain 6 1016 93 6000 2.06 20 11:19 31.03.2021
847 Mist 6 1016 93 5000 1.54 340 10:44 31.03.2021
848 Mist 6 1015 93 5000 2.57 350 10:22 31.03.2021
849 Drizzle 7 1015 93 5000 3.09 20 09:33 31.03.2021
850 Mist 8 1015 87 2500 3.6 260 08:48 31.03.2021
851 Mist 8 1014 87 6000 3.6 250 08:30 31.03.2021
852 Clouds 8 1014 87 9000 3.6 250 07:42 31.03.2021
853 Clouds 8 1014 87 10000 5.14 250 05:55 31.03.2021
854 Clouds 9 1014 81 10000 5.14 250 02:44 31.03.2021
855 Clouds 10 1014 81 10000 6.17 250 00:54 31.03.2021
856 Clouds 10 1014 81 10000 3.6 230 00:26 31.03.2021
857 Clouds 10 1014 81 10000 3.09 240 23:58 30.03.2021
858 Clouds 10 1014 81 10000 2.57 240 23:27 30.03.2021
859 Clouds 10 1014 81 10000 3.09 250 22:55 30.03.2021
860 Clouds 10 1014 81 10000 3.09 250 22:37 30.03.2021
861 Clear 10 1015 81 10000 3.09 240 22:19 30.03.2021
862 Clear 10 1015 81 10000 3.09 240 22:19 30.03.2021
863 Clear 11 1015 76 10000 3.6 250 21:42 30.03.2021
864 Clear 11 1015 76 10000 4.63 250 21:19 30.03.2021
865 Clear 12 1015 76 10000 4.12 240 20:48 30.03.2021
866 Clear 12 1015 71 10000 3.09 250 20:27 30.03.2021
867 Clear 12 1015 67 10000 3.09 250 19:48 30.03.2021
868 Clear 13 1015 67 10000 3.6 250 19:22 30.03.2021
869 Clear 13 1015 62 10000 3.09 250 18:34 30.03.2021
870 Clear 14 1015 62 10000 6.17 250 17:51 30.03.2021
871 Clouds 14 1014 62 10000 7.72 270 17:32 30.03.2021
872 Clouds 13 1015 67 10000 7.72 280 16:48 30.03.2021
873 Clouds 13 1014 67 10000 6.17 270 16:28 30.03.2021
874 Clouds 13 1014 67 10000 6.69 280 15:43 30.03.2021
875 Clouds 13 1014 67 10000 7.72 280 15:20 30.03.2021
876 Clouds 13 1014 67 10000 8.23 270 14:46 30.03.2021
877 Clouds 13 1014 67 10000 8.75 270 14:21 30.03.2021
878 Clouds 13 1014 67 10000 8.75 260 13:51 30.03.2021
879 Clouds 13 1013 67 10000 9.26 260 13:30 30.03.2021
880 Clouds 13 1013 71 10000 7.72 260 12:42 30.03.2021
881 Clouds 13 1013 76 10000 6.69 250 12:23 30.03.2021
882 Clouds 13 1011 78 10000 2.24 268 11:50 30.03.2021
883 Clouds 13 1011 80 10000 1.34 245 11:21 30.03.2021
884 Clouds 12 1013 76 10000 7.2 240 10:43 30.03.2021
885 Clouds 12 1013 76 10000 6.69 230 10:20 30.03.2021
886 Clouds 11 1013 82 10000 6.17 240 09:43 30.03.2021
887 Clouds 11 1013 82 10000 6.69 240 09:24 30.03.2021
888 Clouds 11 1013 82 10000 5.66 230 08:51 30.03.2021
889 Clouds 11 1013 82 10000 5.66 230 08:32 30.03.2021
890 Clouds 10 1013 81 10000 4.12 230 07:50 30.03.2021
891 Clouds 9 1013 87 10000 3.6 220 07:21 30.03.2021
892 Clouds 8 1013 87 10000 3.09 230 05:25 30.03.2021
893 Clouds 9 1014 81 10000 6.17 260 03:23 30.03.2021
894 Clouds 10 1012 81 10000 5.14 250 00:22 30.03.2021
895 Clouds 11 1012 76 10000 5.14 240 23:29 29.03.2021
896 Clouds 11 1011 76 10000 6.17 240 22:43 29.03.2021
897 Clouds 11 1011 71 10000 7.2 240 21:59 29.03.2021
898 Clouds 11 1011 71 10000 7.2 240 21:37 29.03.2021
899 Clouds 11 1010 71 10000 6.69 230 20:59 29.03.2021
900 Clouds 11 1010 71 10000 6.69 230 20:38 29.03.2021
901 Clouds 11 1010 71 10000 5.14 230 20:20 29.03.2021
902 Clouds 11 1010 71 10000 5.66 230 19:45 29.03.2021
903 Clouds 11 1009 71 10000 5.14 230 19:18 29.03.2021
904 Clouds 11 1009 71 10000 5.66 220 18:40 29.03.2021
905 Clouds 11 1009 67 10000 6.17 220 18:20 29.03.2021
906 Clouds 12 1009 71 10000 6.17 210 17:39 29.03.2021
907 Clouds 11 1009 76 10000 4.12 190 16:59 29.03.2021
908 Clouds 11 1009 76 10000 4.12 190 16:35 29.03.2021
909 Clouds 11 1010 76 10000 6.17 210 15:52 29.03.2021
910 Clouds 10 1010 76 10000 6.17 210 15:34 29.03.2021
911 Clouds 10 1010 81 10000 5.66 180 14:55 29.03.2021
912 Clouds 10 1010 81 10000 5.66 180 14:33 29.03.2021
913 Drizzle 9 1011 87 10000 4.12 180 13:52 29.03.2021
914 Drizzle 9 1011 81 10000 4.63 190 13:26 29.03.2021
915 Rain 9 1011 81 10000 4.63 190 12:50 29.03.2021
916 Rain 9 1011 76 10000 4.63 190 11:53 29.03.2021
917 Rain 9 1011 76 10000 4.63 190 11:35 29.03.2021
918 Clouds 9 1012 76 10000 4.63 190 10:59 29.03.2021
919 Clouds 9 1012 76 10000 4.63 190 10:36 29.03.2021
920 Clouds 8 1012 76 10000 4.63 210 09:42 29.03.2021
921 Clouds 7 1012 87 10000 3.6 190 08:52 29.03.2021
922 Clouds 6 1012 87 10000 3.09 190 08:28 29.03.2021
923 Clouds 5 1012 93 10000 3.6 180 07:28 29.03.2021
924 Clouds 5 1012 87 10000 3.6 180 06:27 29.03.2021
925 Clouds 5 1012 93 10000 4.63 190 03:51 29.03.2021
926 Drizzle 5 1012 87 10000 3.6 180 01:43 29.03.2021
927 Clouds 5 1012 81 10000 3.6 180 00:22 29.03.2021
928 Drizzle 5 1012 81 10000 4.63 190 23:42 28.03.2021
929 Drizzle 5 1012 75 10000 4.63 190 23:19 28.03.2021
930 Clouds 5 1012 75 10000 4.12 200 22:39 28.03.2021
931 Clear 5 1012 70 10000 3.6 190 22:20 28.03.2021
932 Clear 5 1012 70 10000 3.6 190 21:41 28.03.2021
933 Clear 5 1012 70 10000 4.12 200 21:22 28.03.2021
934 Clear 5 1011 70 10000 3.6 210 20:48 28.03.2021
935 Clear 5 1011 70 10000 4.12 210 20:29 28.03.2021
936 Clear 6 1011 70 10000 3.09 220 19:44 28.03.2021
937 Clear 6 1011 81 10000 4.63 210 19:23 28.03.2021
938 Clouds 6 1011 81 10000 3.09 190 18:58 28.03.2021
939 Clouds 5 1011 87 10000 3.09 200 18:27 28.03.2021
940 Clouds 4 1010 87 10000 3.6 200 17:50 28.03.2021
941 Clouds 4 1010 87 10000 4.12 220 17:27 28.03.2021
942 Rain 4 1010 87 10000 6.17 220 16:46 28.03.2021
943 Rain 3 1008 91 10000 3.13 203 16:23 28.03.2021
944 Rain 3 1008 91 10000 2.24 196 15:42 28.03.2021
945 Drizzle 3 1009 93 6000 6.17 230 15:18 28.03.2021
946 Clouds 4 1008 93 5000 2.57 210 14:31 28.03.2021
947 Drizzle 4 1008 93 8000 3.09 210 13:48 28.03.2021
948 Rain 4 1007 87 5000 3.09 210 13:22 28.03.2021
949 Mist 4 1007 87 5000 2.57 210 12:50 28.03.2021
950 Clouds 4 1007 81 10000 2.57 200 12:32 28.03.2021
951 Clouds 3 1007 70 10000 1.03 0 11:45 28.03.2021
952 Clouds 3 1007 81 10000 1.54 0 11:25 28.03.2021
953 Clouds 3 1007 87 10000 3.09 130 10:44 28.03.2021
954 Clouds 4 1007 75 10000 2.57 120 10:25 28.03.2021
955 Clouds 4 1007 75 10000 4.63 120 09:47 28.03.2021
956 Clouds 3 1007 75 10000 4.63 110 09:24 28.03.2021
957 Clouds 3 1007 81 10000 5.14 110 08:46 28.03.2021
958 Mist 3 1007 93 9000 6.17 120 07:50 28.03.2021
959 Clouds 4 1007 87 10000 5.14 110 06:40 28.03.2021
960 Mist 4 1007 93 6000 4.12 110 04:18 28.03.2021
961 Mist 5 1007 87 3500 4.12 120 01:22 28.03.2021
962 Mist 5 1008 87 4200 4.12 130 00:20 28.03.2021
963 Mist 5 1008 87 5000 3.09 130 23:43 27.03.2021
964 Mist 5 1008 81 5000 3.09 130 22:58 27.03.2021
965 Mist 5 1008 81 5000 3.09 130 22:36 27.03.2021
966 Mist 5 1008 87 5000 3.6 130 21:59 27.03.2021
967 Mist 5 1008 87 5000 3.6 130 21:38 27.03.2021
968 Mist 5 1008 75 6000 2.57 140 21:19 27.03.2021
969 Mist 5 1008 75 6000 2.57 180 20:38 27.03.2021
970 Mist 5 1007 75 5000 3.6 110 20:20 27.03.2021
971 Mist 5 1008 81 5000 3.6 120 19:42 27.03.2021
972 Mist 5 1008 75 5000 4.12 130 19:23 27.03.2021
973 Mist 5 1008 75 5000 4.63 130 18:49 27.03.2021
974 Mist 6 1008 75 6000 4.12 130 18:28 27.03.2021
975 Mist 6 1008 76 6000 5.66 140 17:54 27.03.2021
976 Clouds 7 1008 71 6000 5.14 130 17:24 27.03.2021
977 Clouds 8 1008 71 7000 6.69 130 16:49 27.03.2021
978 Clouds 8 1008 66 7000 6.17 130 16:29 27.03.2021
979 Clouds 10 1009 62 7000 5.14 140 15:50 27.03.2021
980 Clouds 9 1008 62 7000 6.69 140 15:24 27.03.2021
981 Clouds 11 1009 58 8000 6.17 160 14:49 27.03.2021
982 Clouds 11 1009 58 9000 6.17 130 13:51 27.03.2021
983 Clouds 11 1010 54 10000 7.2 130 13:26 27.03.2021
984 Clouds 12 1010 54 10000 6.17 130 12:55 27.03.2021
985 Clear 12 1010 50 10000 7.2 130 12:24 27.03.2021
986 Clear 12 1010 43 10000 7.72 140 11:42 27.03.2021
987 Clear 12 1011 47 10000 5.66 140 11:20 27.03.2021
988 Clear 10 1011 50 10000 7.2 150 10:45 27.03.2021
989 Clear 11 1011 54 10000 5.66 150 10:22 27.03.2021
990 Clear 9 1011 61 10000 5.14 160 09:28 27.03.2021
991 Clear 9 1011 57 10000 4.63 150 08:43 27.03.2021
992 Clouds 8 1012 61 10000 3.6 150 08:21 27.03.2021
993 Clouds 6 1012 75 10000 3.6 140 07:34 27.03.2021
994 Clouds 5 1012 81 10000 3.09 140 06:43 27.03.2021
995 Mist 4 1012 87 9000 2.57 140 04:58 27.03.2021
996 Mist 4 1012 87 9000 2.57 140 04:39 27.03.2021
997 Mist 4 1013 87 7000 2.06 140 00:50 27.03.2021
998 Mist 4 1013 87 7000 1.54 140 00:29 27.03.2021
999 Mist 4 1013 87 7000 2.06 140 23:54 26.03.2021
1000 Mist 5 1013 81 9000 2.57 160 22:56 26.03.2021
1001 Mist 5 1013 81 9000 2.57 160 22:34 26.03.2021
1002 Clear 5 1014 81 10000 2.57 150 21:36 26.03.2021
1003 Clear 5 1014 75 10000 2.57 170 21:18 26.03.2021
1004 Clear 5 1014 75 10000 3.09 150 20:33 26.03.2021
1005 Clear 6 1014 70 10000 3.6 170 19:57 26.03.2021
1006 Clear 6 1014 70 10000 3.6 170 19:39 26.03.2021
1007 Clear 7 1014 66 10000 3.6 170 19:20 26.03.2021
1008 Clear 7 1014 66 10000 4.12 170 18:42 26.03.2021
1009 Clouds 8 1014 61 10000 4.12 180 18:20 26.03.2021
1010 Clear 9 1013 57 10000 3.6 170 17:45 26.03.2021
1011 Clear 11 1014 54 10000 4.63 190 16:56 26.03.2021
1012 Clear 11 1014 54 10000 4.63 190 16:32 26.03.2021
1013 Clouds 11 1014 54 10000 4.63 170 15:51 26.03.2021
1014 Clouds 12 1014 50 10000 4.12 210 15:21 26.03.2021
1015 Clear 12 1014 44 10000 4.63 200 14:24 26.03.2021
1016 Clear 12 1014 41 10000 4.12 220 13:34 26.03.2021
1017 Clouds 11 1015 47 10000 3.6 240 12:50 26.03.2021
1018 Clouds 11 1015 54 10000 2.57 250 12:24 26.03.2021
1019 Clouds 10 1015 62 10000 2.57 240 11:34 26.03.2021
1020 Clouds 9 1015 71 10000 3.09 210 10:52 26.03.2021
1021 Clouds 9 1015 71 10000 3.09 210 10:33 26.03.2021
1022 Clouds 7 1015 76 10000 2.06 240 09:42 26.03.2021
1023 Clouds 6 1015 81 10000 2.06 210 09:19 26.03.2021
1024 Clouds 5 1015 81 10000 3.09 230 08:38 26.03.2021
1025 Clouds 5 1015 87 10000 4.12 250 08:20 26.03.2021
1026 Clouds 4 1015 87 10000 2.57 230 07:23 26.03.2021
1027 Clouds 4 1014 87 10000 2.57 240 06:58 26.03.2021
1028 Clouds 4 1014 87 10000 4.12 240 06:30 26.03.2021
1029 Clouds 3 1014 93 10000 4.12 250 05:26 26.03.2021
1030 Clouds 3 1013 87 10000 3.6 230 01:58 26.03.2021
1031 Clouds 4 1013 75 10000 4.12 240 00:27 26.03.2021
1032 Clouds 5 1013 81 10000 4.12 230 23:44 25.03.2021
1033 Clouds 5 1013 81 10000 3.09 210 22:56 25.03.2021
1034 Clear 5 1012 75 10000 3.09 220 22:29 25.03.2021
1035 Clear 6 1012 75 10000 3.09 220 21:51 25.03.2021
1036 Clear 6 1012 75 10000 3.09 220 21:33 25.03.2021
1037 Clear 6 1012 75 10000 3.09 220 21:33 25.03.2021
1038 Clear 7 1012 70 10000 3.09 220 20:45 25.03.2021
1039 Clouds 7 1012 70 10000 3.09 240 20:25 25.03.2021
1040 Clouds 7 1012 76 10000 3.6 230 19:45 25.03.2021
1041 Clouds 7 1011 61 10000 5.14 250 19:27 25.03.2021
1042 Clouds 7 1011 70 10000 3.09 240 18:47 25.03.2021
1043 Clouds 8 1011 61 10000 5.14 260 18:27 25.03.2021
1044 Clouds 8 1011 53 10000 5.66 270 17:51 25.03.2021
1045 Clouds 9 1011 53 10000 5.66 270 17:33 25.03.2021
1046 Clouds 10 1011 46 10000 3.09 240 16:51 25.03.2021
1047 Clouds 10 1011 46 10000 3.09 240 16:51 25.03.2021
1048 Clear 10 1011 43 10000 3.6 250 16:30 25.03.2021
1049 Clear 11 1011 43 10000 4.63 260 15:45 25.03.2021
1050 Clear 11 1011 43 10000 5.66 250 15:21 25.03.2021
1051 Clear 11 1011 43 10000 6.17 250 14:46 25.03.2021
1052 Clear 10 1011 46 10000 6.17 250 13:52 25.03.2021
1053 Clear 10 1011 46 10000 6.17 260 13:24 25.03.2021
1054 Clear 9 1011 53 10000 6.69 260 12:45 25.03.2021
1055 Clear 9 1011 57 10000 5.66 260 12:21 25.03.2021
1056 Clear 8 1011 57 10000 6.69 260 11:52 25.03.2021
1057 Clouds 8 1011 61 10000 6.17 240 11:30 25.03.2021
1058 Clouds 7 1011 61 10000 6.17 250 10:57 25.03.2021
1059 Clouds 7 1011 61 10000 6.17 250 10:38 25.03.2021
1060 Clouds 7 1011 61 10000 6.69 240 10:18 25.03.2021
1061 Clouds 6 1011 65 10000 7.2 250 09:42 25.03.2021
1062 Clouds 6 1009 72 10000 4.02 253 08:58 25.03.2021
1063 Clouds 5 1011 70 10000 5.14 240 08:29 25.03.2021
1064 Clouds 4 1010 75 10000 6.17 240 07:24 25.03.2021
1065 Clouds 4 1010 75 10000 3.09 230 06:27 25.03.2021
1066 Clouds 4 1010 81 10000 3.6 240 05:49 25.03.2021
1067 Clouds 6 1010 70 10000 5.66 250 04:33 25.03.2021
1068 Clouds 6 1010 81 10000 2.57 220 00:44 25.03.2021
1069 Clouds 7 1010 76 10000 3.6 240 00:18 25.03.2021
1070 Clouds 7 1010 76 10000 4.12 250 23:33 24.03.2021
1071 Clouds 7 1010 81 10000 3.6 250 22:51 24.03.2021
1072 Clouds 8 1010 76 10000 3.6 250 22:32 24.03.2021
1073 Clouds 8 1010 76 10000 3.6 240 21:47 24.03.2021
1074 Clouds 8 1010 76 10000 3.6 240 21:47 24.03.2021
1075 Clouds 8 1010 76 10000 3.09 250 21:25 24.03.2021
1076 Clouds 8 1010 76 10000 3.6 250 20:46 24.03.2021
1077 Clouds 8 1010 76 10000 3.6 250 20:46 24.03.2021
1078 Clouds 8 1010 71 10000 4.12 250 20:21 24.03.2021
1079 Clear 8 1010 71 10000 4.63 240 19:59 24.03.2021
1080 Clear 8 1010 71 10000 4.12 250 19:31 24.03.2021
1081 Clear 8 1010 71 10000 3.6 250 18:52 24.03.2021
1082 Clear 8 1010 66 10000 4.12 250 18:24 24.03.2021
1083 Clear 9 1010 66 10000 6.69 250 17:53 24.03.2021
1084 Clear 9 1009 66 10000 7.2 250 17:32 24.03.2021
1085 Clear 9 1009 66 10000 7.2 250 17:32 24.03.2021
1086 Clear 9 1009 66 10000 7.2 250 17:32 24.03.2021
1087 Clouds 10 1009 62 10000 7.2 260 16:54 24.03.2021
1088 Clouds 10 1009 62 10000 8.23 260 16:31 24.03.2021
1089 Clear 10 1009 62 10000 6.69 260 15:58 24.03.2021
1090 Clear 10 1009 62 10000 6.69 260 15:33 24.03.2021
1091 Clouds 10 1010 57 10000 8.75 260 14:59 24.03.2021
1092 Clouds 10 1010 61 10000 7.72 260 14:28 24.03.2021
1093 Clouds 10 1010 57 10000 8.75 250 13:58 24.03.2021
1094 Clouds 10 1010 57 10000 8.23 240 13:28 24.03.2021
1095 Clouds 9 1010 53 10000 7.72 250 12:49 24.03.2021
1096 Clouds 9 1010 53 10000 6.69 260 12:27 24.03.2021
1097 Clouds 8 1010 57 10000 7.2 250 11:54 24.03.2021
1098 Clouds 8 1008 62 10000 2.24 227 11:35 24.03.2021
1099 Clouds 8 1010 57 10000 6.69 240 10:46 24.03.2021
1100 Clouds 7 1010 65 10000 7.2 240 10:26 24.03.2021
1101 Clouds 6 1010 65 10000 7.2 250 09:54 24.03.2021
1102 Clouds 6 1010 65 10000 6.69 250 09:25 24.03.2021
1103 Clouds 6 1010 70 10000 5.14 230 08:57 24.03.2021
1104 Clouds 6 1008 77 10000 3.58 219 08:29 24.03.2021
1105 Clouds 6 1010 75 10000 6.17 230 07:42 24.03.2021
1106 Clouds 6 1010 75 10000 5.66 230 07:18 24.03.2021
1107 Clouds 6 1010 75 10000 5.14 230 06:41 24.03.2021
1108 Clouds 4 1012 75 10000 3.09 240 01:24 24.03.2021
1109 Clouds 5 1012 70 10000 4.12 230 00:33 24.03.2021
1110 Clouds 5 1012 65 10000 3.09 220 23:43 23.03.2021
1111 Clouds 5 1012 70 10000 3.09 210 23:18 23.03.2021
1112 Clouds 5 1013 70 10000 2.57 220 22:44 23.03.2021
1113 Clear 6 1013 65 10000 2.57 220 22:23 23.03.2021
1114 Clear 6 1013 65 10000 2.57 220 21:41 23.03.2021
1115 Clear 6 1013 61 10000 2.57 220 21:22 23.03.2021
1116 Clear 7 1013 61 10000 3.09 200 20:43 23.03.2021
1117 Clear 7 1013 53 10000 2.57 190 20:25 23.03.2021
1118 Clear 8 1013 49 10000 3.09 200 19:45 23.03.2021
1119 Clear 8 1013 53 10000 2.57 190 19:25 23.03.2021
1120 Clear 9 1013 50 10000 3.6 190 18:43 23.03.2021
1121 Clear 10 1013 43 10000 2.57 190 18:22 23.03.2021
1122 Clear 13 1013 38 10000 3.09 220 17:45 23.03.2021
1123 Clear 12 1013 35 10000 3.6 230 17:21 23.03.2021
1124 Clear 13 1013 35 10000 4.12 250 16:39 23.03.2021
1125 Clear 14 1013 33 10000 5.14 250 16:19 23.03.2021
1126 Clear 14 1013 33 10000 4.63 260 15:38 23.03.2021
1127 Clear 14 1014 31 10000 5.66 240 14:52 23.03.2021
1128 Clear 14 1014 31 10000 5.66 240 14:52 23.03.2021
1129 Clear 13 1014 33 10000 5.14 260 14:21 23.03.2021
1130 Clear 13 1014 33 10000 5.14 260 13:50 23.03.2021
1131 Clear 13 1014 33 10000 5.66 250 13:26 23.03.2021
1132 Clear 13 1014 38 10000 4.63 250 12:59 23.03.2021
1133 Clear 13 1014 38 10000 4.63 250 12:39 23.03.2021
1134 Clear 12 1014 38 10000 4.63 260 12:19 23.03.2021
1135 Clear 12 1014 40 10000 3.6 260 11:42 23.03.2021
1136 Clear 10 1014 46 10000 3.6 250 10:44 23.03.2021
1137 Clear 9 1014 46 10000 3.6 260 10:23 23.03.2021
1138 Clear 9 1014 49 10000 2.57 240 09:58 23.03.2021
1139 Clear 8 1014 49 10000 2.57 240 09:36 23.03.2021
1140 Clear 7 1014 53 10000 2.06 250 09:18 23.03.2021
1141 Clear 7 1014 53 10000 2.57 240 08:39 23.03.2021
1142 Clear 5 1014 60 10000 1.54 0 08:20 23.03.2021
1143 Clear 3 1014 75 10000 1.03 0 07:28 23.03.2021
1144 Clear 2 1013 75 10000 0.51 0 06:59 23.03.2021
1145 Clouds 1 1013 75 10000 0.51 0 06:24 23.03.2021
1146 Clouds 3 1012 65 10000 1.67 289 03:21 23.03.2021
1147 Clouds 3 1012 65 10000 1.54 280 01:34 23.03.2021
1148 Clouds 5 1011 52 10000 2.06 270 23:33 22.03.2021
1149 Clouds 6 1011 49 10000 3.09 280 22:46 22.03.2021
1150 Clear 7 1011 49 10000 3.09 270 22:24 22.03.2021
1151 Clear 6 1011 53 10000 3.09 260 21:57 22.03.2021
1152 Clear 6 1011 53 10000 3.09 260 21:36 22.03.2021
1153 Clear 6 1011 57 10000 2.57 260 21:18 22.03.2021
1154 Clear 7 1011 61 10000 2.57 240 20:38 22.03.2021
1155 Clear 7 1010 61 10000 2.06 250 20:19 22.03.2021
1156 Clear 7 1010 57 10000 2.06 260 19:48 22.03.2021
1157 Clear 7 1010 57 10000 2.57 290 19:29 22.03.2021
1158 Clear 8 1010 57 10000 3.6 290 18:46 22.03.2021
1159 Clear 8 1010 57 10000 4.12 280 18:27 22.03.2021
1160 Clear 8 1009 53 10000 4.12 290 17:51 22.03.2021
1161 Clear 9 1009 49 10000 4.12 270 17:24 22.03.2021
1162 Clear 9 1009 49 10000 5.14 280 16:59 22.03.2021
1163 Clear 9 1009 49 10000 5.14 280 16:41 22.03.2021
1164 Clouds 10 1009 43 10000 6.17 280 15:59 22.03.2021
1165 Clouds 10 1009 43 10000 6.17 280 15:37 22.03.2021
1166 Clear 10 1009 43 10000 7.2 270 15:18 22.03.2021
1167 Clear 9 1009 46 10000 4.63 270 14:49 22.03.2021
1168 Clear 9 1009 46 10000 4.63 260 14:29 22.03.2021
1169 Clear 8 1009 45 10000 4.63 280 13:39 22.03.2021
1170 Clear 8 1009 45 10000 4.63 280 13:19 22.03.2021
1171 Clear 7 1009 45 10000 6.17 280 12:45 22.03.2021
1172 Clear 7 1009 45 10000 6.17 280 12:22 22.03.2021
1173 Clear 6 1009 48 10000 5.66 280 11:46 22.03.2021
1174 Clear 5 1009 48 10000 5.66 280 11:22 22.03.2021
1175 Clear 5 1009 48 10000 5.66 270 10:44 22.03.2021
1176 Clouds 5 1010 56 10000 4.63 280 10:24 22.03.2021
1177 Clouds 4 1010 60 10000 6.17 280 09:43 22.03.2021
1178 Clear 4 1010 52 10000 5.14 270 09:22 22.03.2021
1179 Clear 3 1010 52 10000 4.63 270 08:44 22.03.2021
1180 Clear 3 1010 52 10000 4.12 270 08:24 22.03.2021
1181 Clear 2 1010 51 10000 4.63 270 07:45 22.03.2021
1182 Clear 2 1010 55 10000 3.6 260 06:57 22.03.2021
1183 Clear 1 1010 55 10000 3.6 260 06:35 22.03.2021
1184 Clouds 1 1010 55 10000 4.12 290 02:38 22.03.2021
1185 Clouds 1 1010 55 10000 3.6 290 00:33 22.03.2021
1186 Clouds 1 1010 47 10000 4.12 300 23:54 21.03.2021
1187 Clouds 1 1009 47 10000 4.12 290 23:20 21.03.2021
1188 Clouds 1 1009 47 10000 4.12 290 23:20 21.03.2021
1189 Clouds 1 1009 47 10000 4.63 300 22:56 21.03.2021
1190 Clear 2 1009 38 10000 7.2 310 22:20 21.03.2021
1191 Clear 2 1009 41 10000 4.12 290 21:41 21.03.2021
1192 Clear 2 1009 41 10000 3.09 290 21:22 21.03.2021
1193 Clear 2 1008 41 10000 3.6 310 20:44 21.03.2021
1194 Clear 3 1008 38 10000 4.63 310 20:26 21.03.2021
1195 Clear 3 1008 35 10000 5.14 310 19:54 21.03.2021
1196 Clear 4 1007 35 10000 4.63 300 19:23 21.03.2021
1197 Clear 4 1007 35 10000 5.14 310 18:50 21.03.2021
1198 Clear 4 1007 38 10000 4.12 310 18:27 21.03.2021
1199 Clear 4 1007 38 10000 4.12 310 18:27 21.03.2021
1200 Clear 4 1007 33 10000 5.66 310 17:48 21.03.2021
1201 Clear 5 1007 33 10000 7.72 310 17:21 21.03.2021
1202 Clear 5 1006 30 10000 8.23 310 16:59 21.03.2021
1203 Clear 5 1006 30 10000 8.23 310 16:41 21.03.2021
1204 Clear 5 1006 28 10000 8.75 320 16:22 21.03.2021
1205 Clear 5 1006 28 10000 9.26 310 15:41 21.03.2021
1206 Clear 6 1006 31 10000 8.23 320 15:20 21.03.2021
1207 Clear 6 1006 28 10000 8.23 330 14:46 21.03.2021
1208 Clear 6 1005 28 10000 8.75 320 14:27 21.03.2021
1209 Clear 6 1005 28 10000 8.75 320 13:54 21.03.2021
1210 Clear 6 1005 30 10000 8.75 330 13:25 21.03.2021
1211 Clear 6 1005 31 10000 9.26 310 12:42 21.03.2021
1212 Clear 5 1005 33 10000 9.26 320 12:24 21.03.2021
1213 Clear 5 1004 33 10000 8.75 310 11:38 21.03.2021
1214 Clouds 5 1003 36 10000 8.75 320 11:19 21.03.2021
1215 Clouds 5 1003 36 10000 8.75 320 10:43 21.03.2021
1216 Clear 5 1003 36 10000 10.29 320 10:23 21.03.2021
1217 Clear 5 1003 36 10000 9.26 310 09:46 21.03.2021
1218 Clear 4 1002 41 10000 10.29 310 09:28 21.03.2021
1219 Clear 4 1002 45 10000 9.26 310 08:44 21.03.2021
1220 Clear 3 1001 48 10000 8.23 310 08:26 21.03.2021
1221 Clear 3 1001 48 10000 7.72 300 07:39 21.03.2021
1222 Clouds 2 1001 55 10000 6.69 300 06:56 21.03.2021
1223 Clouds 2 1000 55 10000 7.2 300 05:55 21.03.2021
1224 Clouds 4 998 81 10000 4.63 270 02:34 21.03.2021
1225 Rain 3 999 87 10000 4.12 280 00:43 21.03.2021
1226 Rain 4 999 81 10000 3.6 280 00:24 21.03.2021
1227 Rain 4 999 75 10000 3.6 260 23:50 20.03.2021
1228 Clouds 4 999 81 10000 3.6 250 23:24 20.03.2021
1229 Clouds 4 999 75 10000 3.09 240 22:56 20.03.2021
1230 Clouds 4 999 75 10000 4.12 250 22:23 20.03.2021
1231 Clouds 3 1000 75 10000 4.63 240 21:47 20.03.2021
1232 Clouds 4 1000 70 10000 4.63 240 21:25 20.03.2021
1233 Clouds 4 1001 70 10000 4.12 240 20:48 20.03.2021
1234 Clouds 5 1001 70 10000 4.12 240 20:23 20.03.2021
1235 Clouds 4 1002 65 10000 4.12 240 19:51 20.03.2021
1236 Clouds 4 1002 65 10000 4.63 240 19:29 20.03.2021
1237 Clouds 4 1003 65 10000 3.6 250 18:51 20.03.2021
1238 Clouds 5 1003 61 10000 3.6 240 18:28 20.03.2021
1239 Clouds 4 1004 57 10000 3.6 240 17:58 20.03.2021
1240 Clouds 4 1004 57 10000 3.6 240 17:40 20.03.2021
1241 Clear 7 1004 57 10000 3.6 230 17:19 20.03.2021
1242 Clear 7 1005 57 10000 5.14 240 16:38 20.03.2021
1243 Clear 7 1006 57 10000 5.14 250 16:18 20.03.2021
1244 Clear 7 1006 57 10000 5.66 240 15:40 20.03.2021
1245 Clear 4 1007 53 10000 4.63 240 15:21 20.03.2021
1246 Clear 4 1008 53 10000 5.66 260 14:32 20.03.2021
1247 Clear 4 1009 53 10000 5.14 240 13:59 20.03.2021
1248 Clear 4 1010 52 10000 5.66 250 13:30 20.03.2021
1249 Clear 4 1010 52 10000 5.66 250 13:30 20.03.2021
1250 Clear 3 1010 56 10000 6.69 250 12:37 20.03.2021
1251 Clear 3 1011 56 10000 5.66 250 12:18 20.03.2021
1252 Clear 4 1012 56 10000 6.17 250 11:41 20.03.2021
1253 Clear 3 1012 56 10000 6.69 250 11:21 20.03.2021
1254 Clear 3 1012 56 10000 6.69 250 10:39 20.03.2021
1255 Clear 3 1012 56 10000 6.69 250 10:39 20.03.2021
1256 Clouds 3 1013 55 10000 5.66 250 10:21 20.03.2021
1257 Clouds 2 1013 55 10000 5.14 250 09:44 20.03.2021
1258 Clouds 1 1014 60 10000 5.66 240 09:22 20.03.2021
1259 Clouds 1 1014 60 10000 5.14 240 08:51 20.03.2021
1260 Clouds 0 1015 59 10000 5.14 240 08:19 20.03.2021
1261 Clouds 0 1015 59 10000 4.12 240 07:47 20.03.2021
1262 Clouds 0 1015 59 10000 3.09 220 07:29 20.03.2021
1263 Snow -1 1016 64 10000 4.12 230 06:39 20.03.2021
1264 Clouds -1 1017 55 10000 3.6 230 05:28 20.03.2021
1265 Clouds -1 1018 51 10000 3.09 210 03:44 20.03.2021
1266 Clouds -2 1021 55 10000 3.09 200 01:42 20.03.2021
1267 Clouds -2 1023 59 10000 3.09 200 23:46 19.03.2021
1268 Clouds -2 1023 59 10000 2.57 180 23:19 19.03.2021
1269 Clouds -2 1023 54 10000 2.57 180 22:43 19.03.2021
1270 Clear -2 1024 54 10000 2.06 170 22:24 19.03.2021
1271 Clear -3 1024 54 10000 2.06 160 21:51 19.03.2021
1272 Clear -2 1024 54 10000 2.06 160 21:20 19.03.2021
1273 Clear -2 1025 54 10000 1.54 160 20:46 19.03.2021
1274 Clear -2 1025 51 10000 1.54 120 20:26 19.03.2021
1275 Clear -2 1025 54 10000 1.54 90 19:50 19.03.2021
1276 Clear -2 1026 47 10000 1.03 20 19:23 19.03.2021
1277 Clear -2 1026 47 10000 1.03 20 18:49 19.03.2021
1278 Clear -1 1026 43 10000 1.54 40 18:30 19.03.2021
1279 Clear -1 1026 43 10000 2.57 40 17:58 19.03.2021
1280 Clear -1 1026 43 10000 2.57 40 17:38 19.03.2021
1281 Clear 0 1026 40 10000 3.6 350 17:18 19.03.2021
1282 Clear 0 1026 43 10000 2.06 20 16:44 19.03.2021
1283 Clouds 0 1026 43 10000 4.63 30 16:25 19.03.2021
1284 Clear 0 1026 40 10000 3.6 330 15:34 19.03.2021
1285 Clouds 0 1027 40 10000 4.63 10 14:53 19.03.2021
1286 Clouds 1 1027 40 10000 4.63 10 14:34 19.03.2021
1287 Clear 0 1027 40 10000 5.14 360 13:53 19.03.2021
1288 Clear 0 1027 40 10000 5.14 10 13:19 19.03.2021
1289 Snow 0 1027 37 10000 5.66 350 12:47 19.03.2021
1290 Clouds 0 1027 37 10000 6.69 340 12:18 19.03.2021
1291 Clouds 0 1027 40 10000 5.66 340 11:33 19.03.2021
1292 Clouds 0 1027 40 10000 6.17 350 10:52 19.03.2021
1293 Clouds 0 1027 47 10000 5.14 360 10:23 19.03.2021
1294 Clouds -1 1027 55 10000 5.14 350 09:44 19.03.2021
1295 Clear -1 1027 55 10000 5.14 350 09:26 19.03.2021
1296 Clear -2 1027 59 10000 5.14 340 08:52 19.03.2021
1297 Clear -2 1027 64 10000 4.12 330 08:29 19.03.2021
1298 Clear -3 1027 63 10000 4.63 330 07:50 19.03.2021
1299 Clear -3 1027 68 10000 4.12 330 07:31 19.03.2021
1300 Clear -4 1026 68 10000 3.09 310 05:29 19.03.2021
1301 Clear -4 1025 68 10000 3.6 330 02:36 19.03.2021
1302 Clouds -3 1024 63 10000 3.6 350 23:57 18.03.2021
1303 Clouds -3 1024 63 10000 3.09 350 23:29 18.03.2021
1304 Clouds -3 1023 63 10000 3.6 340 22:54 18.03.2021
1305 Clear -3 1023 63 10000 3.6 350 22:27 18.03.2021
1306 Clear -2 1023 59 10000 3.6 340 21:55 18.03.2021
1307 Clear -2 1023 59 10000 3.6 340 21:36 18.03.2021
1308 Clouds -2 1022 59 10000 5.14 10 20:43 18.03.2021
1309 Clouds -2 1022 64 10000 5.14 10 20:23 18.03.2021
1310 Clear -1 1022 59 10000 3.6 20 19:43 18.03.2021
1311 Clear -1 1021 59 10000 5.14 20 19:23 18.03.2021
1312 Clear -1 1021 51 10000 4.63 10 18:52 18.03.2021
1313 Clouds 0 1021 55 10000 4.12 10 18:26 18.03.2021
1314 Clouds 0 1020 59 10000 4.63 10 17:44 18.03.2021
1315 Clouds 0 1020 60 10000 4.63 340 17:20 18.03.2021
1316 Clouds 1 1020 69 10000 5.14 360 16:41 18.03.2021
1317 Clouds 1 1020 75 10000 5.66 10 16:23 18.03.2021
1318 Clouds 1 1020 75 10000 5.66 10 16:23 18.03.2021
1319 Clouds 1 1019 80 10000 5.14 360 15:41 18.03.2021
1320 Clouds 1 1019 86 10000 5.14 350 15:23 18.03.2021
1321 Clouds 2 1019 93 10000 3.6 350 14:49 18.03.2021
1322 Clouds 2 1019 65 10000 5.14 340 14:23 18.03.2021
1323 Rain 3 1019 65 10000 5.14 340 13:43 18.03.2021
1324 Clouds 3 1019 60 10000 4.12 350 13:25 18.03.2021
1325 Clouds 4 1019 65 10000 5.14 330 12:42 18.03.2021
1326 Clouds 4 1019 60 10000 5.66 320 12:24 18.03.2021
1327 Clouds 4 1018 60 10000 4.63 340 11:50 18.03.2021
1328 Clouds 3 1018 60 10000 3.6 330 11:27 18.03.2021
1329 Clear 3 1018 60 10000 4.12 330 10:44 18.03.2021
1330 Clouds 3 1018 64 10000 2.57 330 10:25 18.03.2021
1331 Clouds 2 1019 64 10000 2.06 320 09:54 18.03.2021
1332 Clouds 1 1019 69 10000 2.57 320 09:28 18.03.2021
1333 Clear 0 1019 69 10000 2.57 310 08:46 18.03.2021
1334 Clear 0 1019 74 10000 2.06 300 08:27 18.03.2021
1335 Clear -1 1019 74 10000 3.09 290 07:50 18.03.2021
1336 Clear -1 1019 74 10000 2.06 290 07:24 18.03.2021
1337 Clouds -2 1019 86 10000 2.06 280 06:27 18.03.2021
1338 Clouds -2 1019 86 10000 2.06 280 05:42 18.03.2021
1339 Clouds -2 1022 80 10000 2.02 275 00:57 18.03.2021
1340 Clouds -4 1022 93 10000 1.03 270 23:58 17.03.2021
1341 Clouds -3 1022 86 10000 1.45 287 22:44 17.03.2021
1342 Clear -2 1022 86 10000 1.03 250 22:25 17.03.2021
1343 Clear -3 1023 80 10000 1.43 312 21:55 17.03.2021
1344 Clear -3 1023 80 10000 1.43 312 21:33 17.03.2021
1345 Clear -3 1023 80 10000 1.46 326 21:33 17.03.2021
1346 Clear -3 1023 80 10000 1.03 260 20:58 17.03.2021
1347 Clear -2 1023 80 10000 1.03 260 20:40 17.03.2021
1348 Clear -2 1023 80 10000 0.51 280 20:21 17.03.2021
1349 Clear -2 1023 74 10000 1.4 338 19:43 17.03.2021
1350 Clear -1 1023 64 10000 0.51 0 19:21 17.03.2021
1351 Clear -1 1023 59 10000 1.54 350 18:52 17.03.2021
1352 Clear 0 1023 59 10000 1.54 350 18:33 17.03.2021
1353 Clouds 1 1023 55 10000 3.6 340 17:46 17.03.2021
1354 Clouds 2 1023 51 10000 3.6 360 17:23 17.03.2021
1355 Clouds 2 1023 55 10000 5.14 350 16:45 17.03.2021
1356 Clouds 2 1023 55 10000 4.12 330 16:24 17.03.2021
1357 Clouds 2 1023 55 10000 4.63 340 15:53 17.03.2021
1358 Clouds 3 1023 55 10000 4.63 320 15:35 17.03.2021
1359 Clouds 2 1023 55 10000 5.14 320 14:45 17.03.2021
1360 Clouds 2 1023 55 10000 4.12 340 14:26 17.03.2021
1361 Clouds 2 1023 55 10000 4.12 350 13:55 17.03.2021
1362 Clouds 2 1023 55 10000 4.12 350 13:27 17.03.2021
1363 Clouds 3 1022 60 10000 5.14 340 12:51 17.03.2021
1364 Clouds 3 1022 60 10000 4.12 360 12:31 17.03.2021
1365 Clouds 2 1022 60 10000 5.14 350 11:51 17.03.2021
1366 Clouds 2 1022 60 10000 5.14 350 11:23 17.03.2021
1367 Clouds 2 1022 60 10000 6.17 330 10:55 17.03.2021
1368 Clouds 3 1021 65 10000 5.14 350 10:26 17.03.2021
1369 Clouds 3 1021 65 10000 5.14 350 10:26 17.03.2021
1370 Clouds 2 1021 69 10000 4.63 330 09:48 17.03.2021
1371 Clouds 1 1021 80 10000 3.09 340 09:25 17.03.2021
1372 Clouds 1 1021 80 10000 3.6 340 08:58 17.03.2021
1373 Clouds 1 1021 80 10000 3.6 340 08:38 17.03.2021
1374 Clear 0 1021 80 10000 3.6 340 07:49 17.03.2021
1375 Clear 0 1020 80 10000 2.57 330 07:30 17.03.2021
1376 Clear 0 1020 80 10000 2.06 320 06:42 17.03.2021
1377 Clouds -1 1019 86 10000 1.03 290 04:23 17.03.2021
1378 Clouds -1 1019 86 10000 2.28 339 03:25 17.03.2021
1379 Clouds 1 1019 69 10000 0.51 0 00:40 17.03.2021
1380 Clouds 0 1019 75 10000 1.84 325 23:33 16.03.2021
1381 Clouds 0 1018 75 10000 1.03 270 22:59 16.03.2021
1382 Clouds 1 1018 75 10000 1.03 270 22:35 16.03.2021
1383 Clear 1 1018 69 10000 1.41 339 21:54 16.03.2021
1384 Clear 1 1018 69 10000 1.41 339 21:35 16.03.2021
1385 Clear 1 1018 75 10000 0.51 280 20:59 16.03.2021
1386 Clear 1 1018 75 10000 0.51 280 20:41 16.03.2021
1387 Clear 1 1018 60 10000 1.25 26 20:18 16.03.2021
1388 Clear 1 1018 60 10000 1.03 360 19:42 16.03.2021
1389 Clear 2 1017 56 10000 1.54 10 19:23 16.03.2021
1390 Clear 2 1017 56 10000 2.06 360 18:45 16.03.2021
1391 Clouds 3 1017 52 10000 2.57 360 18:27 16.03.2021
1392 Clouds 3 1016 52 10000 3.09 20 17:50 16.03.2021
1393 Clouds 4 1016 52 10000 2.57 10 17:31 16.03.2021
1394 Clouds 4 1016 49 10000 3.6 310 16:53 16.03.2021
1395 Clouds 5 1016 49 10000 3.6 330 16:30 16.03.2021
1396 Clouds 4 1016 52 10000 4.12 320 15:47 16.03.2021
1397 Clouds 6 1016 52 10000 3.09 310 15:22 16.03.2021
1398 Clouds 6 1015 52 10000 3.09 300 14:59 16.03.2021
1399 Clouds 6 1015 52 10000 3.09 300 14:40 16.03.2021
1400 Clouds 6 1015 52 10000 3.6 320 14:21 16.03.2021
1401 Clouds 5 1015 56 10000 3.09 300 13:54 16.03.2021
1402 Clouds 5 1015 56 10000 3.6 290 13:27 16.03.2021
1403 Clouds 6 1015 56 10000 3.09 280 12:54 16.03.2021
1404 Clouds 5 1015 56 10000 3.09 280 12:35 16.03.2021
1405 Clear 5 1015 60 10000 1.54 290 11:55 16.03.2021
1406 Clear 5 1015 60 10000 1.54 0 11:29 16.03.2021
1407 Clear 4 1015 75 10000 2.06 350 10:46 16.03.2021
1408 Clear 3 1014 81 10000 2.06 350 10:20 16.03.2021
1409 Clear 2 1014 81 10000 2.06 340 09:40 16.03.2021
1410 Clear 1 1014 100 10000 1.54 330 09:19 16.03.2021
1411 Clear 0 1014 100 10000 2.06 300 08:52 16.03.2021
1412 Clear 0 1014 100 10000 2.06 300 08:33 16.03.2021
1413 Clouds -1 1013 100 6000 0.51 240 07:50 16.03.2021
1414 Clear -2 1013 100 10000 1.8 295 07:24 16.03.2021
1415 Clouds -2 1013 100 5000 1.54 290 06:37 16.03.2021
1416 Mist -2 1012 100 5000 1.57 297 05:36 16.03.2021
1417 Clouds -1 1011 100 2200 1.03 270 02:46 16.03.2021
1418 Clouds -2 1011 100 1200 1.03 180 02:25 16.03.2021
1419 Clouds -2 1010 100 1000 0.51 40 00:38 16.03.2021
1420 Fog -2 1010 100 250 1.54 30 23:53 15.03.2021
1421 Fog -1 1010 100 100 1.03 90 23:19 15.03.2021
1422 Fog -1 1009 93 200 1.54 100 22:42 15.03.2021
1423 Clouds -1 1009 100 10000 1.54 50 22:24 15.03.2021
1424 Clouds -1 1009 93 10000 1.54 60 21:48 15.03.2021
1425 Clear -1 1008 93 10000 2.06 50 21:27 15.03.2021
1426 Clear 0 1008 93 10000 1.03 0 20:47 15.03.2021
1427 Clear 0 1008 86 10000 2.06 80 20:28 15.03.2021
1428 Clear 0 1007 87 10000 2.06 80 19:58 15.03.2021
1429 Clear 1 1007 87 10000 2.06 80 19:39 15.03.2021
1430 Clear 1 1007 80 10000 2.06 60 19:21 15.03.2021
1431 Clear 2 1007 75 10000 2.57 70 18:42 15.03.2021
1432 Clear 2 1006 81 10000 3.6 70 18:22 15.03.2021
1433 Clear 2 1006 81 10000 2.57 50 17:52 15.03.2021
1434 Clear 3 1005 75 10000 2.57 30 17:22 15.03.2021
1435 Clouds 3 1005 65 10000 3.6 60 16:44 15.03.2021
1436 Clear 3 1004 70 10000 3.6 70 16:18 15.03.2021
1437 Clear 3 1004 61 10000 3.6 70 15:39 15.03.2021
1438 Clear 4 1003 56 10000 2.57 270 15:20 15.03.2021
1439 Clear 5 1003 53 10000 2.06 260 14:41 15.03.2021
1440 Clear 5 1002 45 10000 1.03 0 14:20 15.03.2021
1441 Clear 5 1002 49 10000 1.54 0 13:45 15.03.2021
1442 Clear 5 1002 53 10000 2.21 72 13:24 15.03.2021
1443 Clear 5 1002 53 10000 1.03 320 12:46 15.03.2021
1444 Clear 4 1001 56 10000 2.02 61 12:18 15.03.2021
1445 Clear 4 1001 60 10000 2.02 61 11:46 15.03.2021
1446 Clear 5 1001 65 10000 1.71 60 11:26 15.03.2021
1447 Clouds 5 1001 70 10000 1.03 0 10:45 15.03.2021
1448 Clouds 5 1001 70 10000 1.03 0 10:45 15.03.2021
1449 Clear 4 1000 70 10000 1.54 250 10:26 15.03.2021
1450 Clear 4 1000 75 10000 1.54 240 09:48 15.03.2021
1451 Clouds 3 999 75 10000 1.03 250 09:30 15.03.2021
1452 Clouds 3 999 75 10000 0.51 40 08:47 15.03.2021
1453 Clouds 2 999 80 10000 0.51 30 08:27 15.03.2021
1454 Clouds 1 998 80 10000 0.79 39 07:43 15.03.2021
1455 Clear 1 998 80 10000 0.6 33 07:24 15.03.2021
1456 Clouds 0 998 86 10000 0.98 39 06:21 15.03.2021
1457 Clouds 1 997 80 10000 1.01 284 03:59 15.03.2021
1458 Clouds 1 996 75 10000 1.03 0 01:20 15.03.2021
1459 Clouds 2 996 69 10000 1.03 210 23:45 14.03.2021
1460 Clouds 2 996 69 10000 1.54 210 23:19 14.03.2021
1461 Clouds 2 996 69 10000 1.03 0 22:39 14.03.2021
1462 Clear 2 996 69 10000 1.54 220 22:18 14.03.2021
1463 Clear 2 996 69 10000 0.51 0 21:41 14.03.2021
1464 Clear 2 996 65 10000 0.51 0 21:18 14.03.2021
1465 Clear 2 996 65 10000 1.54 270 20:42 14.03.2021
1466 Clear 2 995 60 10000 1.54 260 20:24 14.03.2021
1467 Clear 2 995 60 10000 1.85 270 19:42 14.03.2021
1468 Clear 2 995 56 10000 1.54 0 19:20 14.03.2021
1469 Clear 3 995 52 10000 2.06 280 18:41 14.03.2021
1470 Clear 3 994 52 10000 3.09 280 17:58 14.03.2021
1471 Clear 3 994 52 10000 3.09 280 17:38 14.03.2021
1472 Clear 3 994 52 10000 4.12 270 17:19 14.03.2021
1473 Clear 3 994 56 10000 5.14 280 16:42 14.03.2021
1474 Clear 4 994 56 10000 4.12 290 16:23 14.03.2021
1475 Clear 4 993 49 10000 3.6 320 15:49 14.03.2021
1476 Clear 4 993 56 10000 4.12 320 15:24 14.03.2021
1477 Clear 5 993 56 10000 3.6 320 14:40 14.03.2021
1478 Clear 4 993 61 10000 4.63 320 14:20 14.03.2021
1479 Clear 5 992 65 10000 3.6 340 13:45 14.03.2021
1480 Clear 4 992 70 10000 2.57 310 13:26 14.03.2021
1481 Clouds 4 992 75 10000 3.6 310 12:43 14.03.2021
1482 Clouds 3 992 75 10000 2.57 300 12:23 14.03.2021
1483 Clouds 3 992 87 10000 3.09 310 11:41 14.03.2021
1484 Clouds 3 991 87 10000 2.06 310 11:22 14.03.2021
1485 Clouds 2 991 93 10000 2.06 330 10:38 14.03.2021
1486 Clouds 2 991 100 10000 1.54 320 10:20 14.03.2021
1487 Clouds 2 991 100 10000 1.54 290 09:59 14.03.2021
1488 Clouds 1 991 100 10000 1.54 290 09:40 14.03.2021
1489 Clouds 1 991 100 10000 1.54 290 09:20 14.03.2021
1490 Clouds 0 990 100 10000 1.54 300 08:39 14.03.2021
1491 Clouds 0 990 100 10000 2.06 320 07:59 14.03.2021
1492 Clouds 0 990 100 10000 1.54 300 07:28 14.03.2021
1493 Clouds 0 989 100 9000 1.03 0 05:38 14.03.2021
1494 Clouds 0 989 100 9000 1.03 0 05:38 14.03.2021
1495 Clouds 0 989 100 5000 1.54 70 01:29 14.03.2021
1496 Clouds 0 990 100 550 1.03 90 00:42 14.03.2021
1497 Fog 0 990 100 350 2.06 120 00:18 14.03.2021
1498 Mist 0 990 100 8000 2.06 140 23:42 13.03.2021
1499 Clouds 0 990 100 10000 1.54 130 23:19 13.03.2021
1500 Clouds 0 990 100 10000 1.54 130 23:19 13.03.2021
1501 Clouds 0 990 100 10000 1.03 100 22:47 13.03.2021
1502 Clouds 0 990 100 10000 1.03 110 22:23 13.03.2021
1503 Clouds 0 990 93 10000 1.03 120 21:36 13.03.2021
1504 Clouds 0 990 86 10000 1.22 143 21:18 13.03.2021
1505 Clouds 1 990 87 10000 1.03 0 20:46 13.03.2021
1506 Clouds 1 990 81 10000 3.09 160 20:25 13.03.2021
1507 Clouds 2 990 81 10000 2.06 170 19:44 13.03.2021
1508 Clouds 2 990 75 10000 3.09 180 19:24 13.03.2021
1509 Clouds 2 990 75 10000 2.06 180 18:43 13.03.2021
1510 Clouds 3 990 75 10000 1.54 170 18:20 13.03.2021
1511 Clouds 3 990 70 10000 1.54 170 17:51 13.03.2021
1512 Clouds 4 990 70 10000 2.06 180 17:32 13.03.2021
1513 Clouds 3 990 65 10000 2.06 200 16:55 13.03.2021
1514 Clouds 3 990 65 10000 2.06 200 16:37 13.03.2021
1515 Clouds 4 990 65 10000 1.54 210 15:56 13.03.2021
1516 Clouds 4 990 65 10000 2.06 220 15:21 13.03.2021
1517 Clouds 4 990 70 10000 1.54 210 14:42 13.03.2021
1518 Clouds 4 990 70 10000 2.06 210 14:23 13.03.2021
1519 Clouds 4 990 70 10000 2.06 200 13:30 13.03.2021
1520 Clouds 4 990 75 10000 1.54 190 12:54 13.03.2021
1521 Clouds 4 990 75 10000 1.54 190 12:36 13.03.2021
1522 Clouds 3 990 81 10000 1.54 190 11:58 13.03.2021
1523 Clouds 4 990 81 10000 1.54 190 11:39 13.03.2021
1524 Clouds 3 990 81 10000 1.03 0 11:20 13.03.2021
1525 Clouds 4 990 87 10000 1.54 0 10:31 13.03.2021
1526 Clouds 3 990 93 10000 2.57 210 10:00 13.03.2021
1527 Clouds 3 990 93 10000 2.57 210 09:33 13.03.2021
1528 Clouds 3 990 87 10000 2.57 210 08:54 13.03.2021
1529 Clouds 2 989 93 10000 2.57 210 08:26 13.03.2021
1530 Clouds 1 989 93 10000 2.57 210 07:57 13.03.2021
1531 Clouds 1 989 93 10000 2.57 210 07:38 13.03.2021
1532 Clouds 1 989 87 10000 3.09 210 05:30 13.03.2021
1533 Clouds 3 989 87 10000 4.63 210 02:42 13.03.2021
1534 Clouds 4 988 81 10000 4.12 210 00:36 13.03.2021
1535 Clouds 4 988 81 10000 3.6 230 23:46 12.03.2021
1536 Clouds 4 988 75 10000 3.6 220 23:28 12.03.2021
1537 Clouds 4 988 70 10000 5.14 240 22:41 12.03.2021
1538 Clouds 4 988 70 10000 4.63 240 22:20 12.03.2021
1539 Clouds 4 988 75 10000 4.63 240 21:38 12.03.2021
1540 Clouds 5 987 75 10000 5.66 250 21:19 12.03.2021
1541 Clouds 5 987 75 10000 4.12 250 20:48 12.03.2021
1542 Clouds 5 987 75 10000 4.63 240 20:24 12.03.2021
1543 Clouds 3 987 75 10000 4.63 250 19:45 12.03.2021
1544 Clouds 4 986 75 10000 5.14 250 19:27 12.03.2021
1545 Clear 4 986 75 10000 5.66 250 18:53 12.03.2021
1546 Clouds 4 986 75 10000 5.14 250 18:29 12.03.2021
1547 Clouds 5 986 81 10000 5.66 250 17:45 12.03.2021
1548 Clouds 4 985 87 10000 2.57 260 17:27 12.03.2021
1549 Clouds 4 985 87 10000 3.6 260 16:49 12.03.2021
1550 Clouds 4 985 87 10000 3.6 270 16:28 12.03.2021
1551 Clouds 4 985 87 10000 4.12 260 15:40 12.03.2021
1552 Clouds 4 984 87 10000 4.63 260 15:21 12.03.2021
1553 Clouds 3 984 93 10000 5.66 270 14:42 12.03.2021
1554 Clouds 3 984 87 10000 6.69 270 14:19 12.03.2021
1555 Clouds 3 983 93 10000 4.12 260 13:40 12.03.2021
1556 Clouds 3 983 93 10000 5.14 260 13:20 12.03.2021
1557 Clouds 3 982 93 10000 5.66 260 12:49 12.03.2021
1558 Clouds 3 982 100 10000 6.17 260 12:28 12.03.2021
1559 Clouds 3 981 100 10000 5.14 260 11:57 12.03.2021
1560 Clouds 3 981 100 9000 4.63 250 11:30 12.03.2021
1561 Clouds 2 981 100 5000 5.14 250 10:59 12.03.2021
1562 Clouds 2 981 100 5000 5.14 250 10:41 12.03.2021
1563 Rain 3 980 100 6000 3.6 250 10:20 12.03.2021
1564 Rain 3 980 100 4800 3.09 230 09:29 12.03.2021
1565 Rain 2 979 100 4800 2.06 210 08:57 12.03.2021
1566 Rain 2 979 100 4800 2.06 210 08:38 12.03.2021
1567 Rain 2 979 100 900 1.03 140 07:41 12.03.2021
1568 Rain 2 979 100 1000 1.03 150 07:19 12.03.2021
1569 Fog 2 979 100 450 2.06 150 06:41 12.03.2021
1570 Fog 2 979 100 450 2.57 130 05:43 12.03.2021
1571 Rain 1 981 100 8000 5.14 130 00:52 12.03.2021
1572 Snow 1 982 100 9000 6.17 130 23:56 11.03.2021
1573 Rain 0 983 100 4600 7.72 140 22:58 11.03.2021
1574 Rain 0 983 100 4600 7.72 140 22:38 11.03.2021
1575 Snow 0 984 100 5000 8.75 140 22:18 11.03.2021
1576 Snow 0 985 100 6000 8.75 140 21:46 11.03.2021
1577 Snow 0 985 100 7000 8.75 140 21:22 11.03.2021
1578 Snow 0 986 100 5000 9.26 140 20:49 11.03.2021
1579 Snow 0 987 100 5000 9.77 140 20:22 11.03.2021
1580 Snow 0 987 100 3000 10.29 140 19:49 11.03.2021
1581 Snow 0 988 100 3800 10.8 140 19:30 11.03.2021
1582 Snow 0 989 100 3000 9.77 140 18:52 11.03.2021
1583 Snow 0 989 100 3000 9.77 140 18:34 11.03.2021
1584 Snow 0 990 100 1500 10.8 140 17:52 11.03.2021
1585 Snow 0 990 100 1000 9.77 140 17:30 11.03.2021
1586 Snow 0 992 100 600 9.77 140 16:32 11.03.2021
1587 Snow 0 992 100 2000 9.77 130 15:55 11.03.2021
1588 Snow 0 992 100 2000 9.77 130 15:37 11.03.2021
1589 Snow 1 993 93 2000 9.77 130 15:19 11.03.2021
1590 Snow 2 994 86 2700 9.77 140 14:38 11.03.2021
1591 Snow 2 995 75 8000 10.29 140 14:18 11.03.2021
1592 Rain 3 996 69 10000 10.8 140 13:43 11.03.2021
1593 Rain 2 997 69 10000 10.8 140 13:21 11.03.2021
1594 Clouds 3 998 65 10000 9.77 140 12:49 11.03.2021
1595 Clouds 3 999 69 10000 9.77 140 12:27 11.03.2021
1596 Clouds 2 1000 69 10000 9.77 140 11:46 11.03.2021
1597 Clouds 2 1001 75 9000 9.26 150 11:27 11.03.2021
1598 Clouds 2 1002 75 10000 8.23 140 10:50 11.03.2021
1599 Clouds 2 1002 75 10000 8.75 140 10:22 11.03.2021
1600 Clouds 1 1003 80 10000 8.75 140 09:48 11.03.2021
1601 Clouds 1 1004 80 10000 8.23 130 09:29 11.03.2021
1602 Clouds 0 1004 86 10000 8.23 130 08:48 11.03.2021
1603 Clouds 0 1005 80 10000 8.23 140 08:24 11.03.2021
1604 Clouds 0 1006 74 10000 7.72 130 07:44 11.03.2021
1605 Clouds -1 1007 80 10000 6.69 140 06:52 11.03.2021
1606 Clouds -1 1008 80 10000 6.17 130 06:32 11.03.2021
1607 -273 0 0 0 0 0 05:47 11.03.2021
1608 Clouds -4 1014 86 10000 2.57 140 02:20 11.03.2021
1609 Clouds -5 1016 86 10000 3.09 130 23:55 10.03.2021
1610 Clouds -5 1017 86 10000 3.6 120 23:22 10.03.2021
1611 Clouds -4 1018 80 10000 4.63 120 22:39 10.03.2021
1612 Clouds -4 1018 86 10000 2.57 130 21:57 10.03.2021
1613 Clouds -4 1018 86 10000 2.57 130 21:38 10.03.2021
1614 Clouds -4 1019 86 10000 3.09 120 21:20 10.03.2021
1615 Clouds -4 1019 86 10000 3.6 110 20:42 10.03.2021
1616 Clouds -4 1019 86 10000 3.09 110 20:21 10.03.2021
1617 Clouds -4 1020 86 10000 2.57 90 19:40 10.03.2021
1618 Clouds -4 1020 86 10000 2.06 80 19:21 10.03.2021
1619 Snow -4 1020 86 10000 2.06 100 18:42 10.03.2021
1620 Snow -4 1020 86 10000 3.09 80 18:23 10.03.2021
1621 Clouds -4 1021 80 10000 2.57 80 17:42 10.03.2021
1622 Snow -4 1021 86 9000 2.57 60 17:21 10.03.2021
1623 Snow -4 1021 80 10000 2.57 80 16:55 10.03.2021
1624 Snow -4 1021 80 10000 2.57 80 16:37 10.03.2021
1625 Snow -4 1021 80 10000 3.6 80 16:18 10.03.2021
1626 Clouds -4 1022 80 10000 3.6 70 15:39 10.03.2021
1627 Clouds -3 1022 74 10000 3.09 50 15:21 10.03.2021
1628 Clouds -3 1022 74 10000 3.09 50 15:21 10.03.2021
1629 Snow -3 1022 86 10000 2.57 40 14:40 10.03.2021
1630 Snow -3 1023 86 9000 2.57 40 14:19 10.03.2021
1631 Snow -3 1023 86 10000 2.57 40 13:43 10.03.2021
1632 Snow -3 1023 86 9000 3.09 40 13:18 10.03.2021
1633 Snow -3 1023 80 10000 2.57 40 12:41 10.03.2021
1634 Snow -3 1023 86 7000 3.09 50 11:59 10.03.2021
1635 Snow -4 1023 86 7000 2.57 40 11:31 10.03.2021
1636 Clouds -4 1021 76 10000 1.34 41 10:57 10.03.2021
1637 Snow -4 1023 86 6000 2.57 20 10:34 10.03.2021
1638 Snow -4 1023 86 5000 2.57 10 09:58 10.03.2021
1639 Snow -5 1023 86 5000 2.57 10 09:40 10.03.2021
1640 Snow -5 1023 86 6000 2.57 20 09:20 10.03.2021
1641 Snow -5 1023 93 4800 2.57 20 08:46 10.03.2021
1642 Snow -5 1023 93 6000 3.09 20 08:28 10.03.2021
1643 Snow -5 1023 93 6000 3.09 20 08:28 10.03.2021
1644 Snow -5 1023 93 7000 2.57 10 07:55 10.03.2021
1645 Snow -5 1023 86 6000 2.57 20 07:29 10.03.2021
1646 Snow -5 1023 86 8000 2.57 30 06:54 10.03.2021
1647 Snow -5 1023 86 9000 2.57 20 05:59 10.03.2021
1648 Snow -3 1021 86 9000 4.12 70 00:48 10.03.2021
1649 Snow -2 1020 93 3000 3.09 20 23:49 09.03.2021
1650 Snow -2 1019 93 10000 5.14 350 22:58 09.03.2021
1651 Snow -2 1019 93 10000 5.14 350 22:38 09.03.2021
1652 Snow -2 1019 86 10000 5.14 340 22:18 09.03.2021
1653 Snow -1 1019 86 10000 5.14 350 21:44 09.03.2021
1654 Snow -1 1019 86 10000 6.69 340 21:24 09.03.2021
1655 Snow -1 1018 86 10000 5.14 340 20:56 09.03.2021
1656 Snow -1 1018 86 10000 5.14 340 20:38 09.03.2021
1657 Snow -1 1018 86 10000 5.14 340 20:19 09.03.2021
1658 Snow -1 1018 93 8000 5.66 330 19:45 09.03.2021
1659 Snow -1 1017 86 5000 5.14 320 19:25 09.03.2021
1660 Snow -1 1017 86 8000 5.14 320 18:42 09.03.2021
1661 Snow -1 1016 86 8000 5.66 320 18:23 09.03.2021
1662 Clouds -1 1016 86 10000 6.17 330 17:49 09.03.2021
1663 Snow 0 1016 86 5000 5.66 330 17:28 09.03.2021
1664 Snow 0 1016 86 5000 5.66 330 17:28 09.03.2021
1665 Snow 0 1015 86 10000 5.14 320 16:41 09.03.2021
1666 Clouds 0 1015 86 10000 6.69 330 16:23 09.03.2021
1667 Snow 0 1015 93 10000 4.63 310 15:59 09.03.2021
1668 Snow 1 1014 80 10000 4.63 290 15:30 09.03.2021
1669 Clouds 1 1014 80 10000 4.12 290 14:55 09.03.2021
1670 Clouds 1 1014 86 10000 4.12 300 14:28 09.03.2021
1671 Snow 0 1014 93 6000 3.6 300 13:43 09.03.2021
1672 Snow 0 1014 93 7000 3.6 290 13:22 09.03.2021
1673 Snow 0 1014 93 7000 4.63 290 12:56 09.03.2021
1674 Snow 0 1014 93 7000 4.63 290 12:38 09.03.2021
1675 Snow 0 1013 86 10000 4.63 270 11:58 09.03.2021
1676 Snow 0 1013 86 10000 4.63 270 11:39 09.03.2021
1677 Snow 0 1013 80 10000 4.63 250 11:19 09.03.2021
1678 Snow 0 1013 80 10000 4.63 260 10:41 09.03.2021
1679 Snow -1 1013 80 10000 4.63 260 10:22 09.03.2021
1680 Snow -1 1013 74 10000 4.63 250 09:58 09.03.2021
1681 Snow -1 1013 74 10000 4.63 250 09:37 09.03.2021
1682 Clouds -1 1013 69 10000 5.14 250 09:18 09.03.2021
1683 Clouds -1 1013 69 10000 5.14 240 08:35 09.03.2021
1684 Clear -2 1013 69 10000 3.09 230 07:48 09.03.2021
1685 Clear -3 1014 64 10000 2.57 210 07:28 09.03.2021
1686 Clear -3 1014 64 10000 2.57 210 07:28 09.03.2021
1687 Clear -3 1014 63 10000 3.6 220 06:59 09.03.2021
1688 Clouds -3 1014 59 10000 3.09 230 05:54 09.03.2021
1689 Clouds -3 1017 59 10000 3.09 210 02:27 09.03.2021
1690 Clouds -3 1018 59 10000 1.54 210 00:18 09.03.2021
1691 Clouds -3 1018 63 10000 2.06 220 23:39 08.03.2021
1692 Clouds -2 1018 59 10000 2.57 220 23:21 08.03.2021
1693 Clouds -2 1018 54 10000 2.57 220 22:43 08.03.2021
1694 Clear -2 1018 54 10000 3.09 220 22:25 08.03.2021
1695 Clear -2 1018 54 10000 2.06 220 21:50 08.03.2021
1696 Clear -2 1019 54 10000 2.06 220 21:30 08.03.2021
1697 Clear -2 1019 51 10000 2.57 220 20:45 08.03.2021
1698 Clear -2 1019 54 10000 2.06 210 20:24 08.03.2021
1699 Clear -2 1019 54 10000 2.06 220 19:54 08.03.2021
1700 Clear -2 1019 51 10000 2.06 220 19:27 08.03.2021
1701 Clear -1 1019 51 10000 2.06 220 18:38 08.03.2021
1702 Clear 0 1019 43 10000 1.54 240 18:20 08.03.2021
1703 Clear 0 1020 37 10000 2.06 250 17:49 08.03.2021
1704 Clear 1 1020 37 10000 3.6 260 17:24 08.03.2021
1705 Clear 1 1020 32 10000 5.14 270 16:45 08.03.2021
1706 Clear 1 1020 32 10000 5.14 270 16:26 08.03.2021
1707 Clear 2 1020 32 10000 5.14 280 15:48 08.03.2021
1708 Clear 2 1020 32 10000 4.63 270 15:25 08.03.2021
1709 Clear 2 1020 35 10000 4.12 270 14:38 08.03.2021
1710 Clear 2 1020 38 10000 5.14 310 14:19 08.03.2021
1711 Clear 2 1020 38 10000 3.6 330 13:37 08.03.2021
1712 Clear 2 1021 38 10000 4.63 320 13:18 08.03.2021
1713 Clear 2 1021 44 10000 4.12 300 12:42 08.03.2021
1714 Clear 1 1020 51 10000 3.6 330 12:22 08.03.2021
1715 Clouds 1 1021 51 10000 5.14 320 11:38 08.03.2021
1716 Clear 1 1020 51 10000 5.66 330 11:18 08.03.2021
1717 Clear 0 1020 55 10000 4.63 340 10:41 08.03.2021
1718 Clear 0 1020 59 10000 4.63 330 10:19 08.03.2021
1719 Clear -1 1020 59 10000 5.66 330 09:41 08.03.2021
1720 Clear -1 1020 59 10000 5.14 330 09:22 08.03.2021
1721 Clear -2 1019 64 10000 4.12 330 08:27 08.03.2021
1722 Clouds -3 1019 68 10000 3.6 310 07:23 08.03.2021
1723 Clouds -2 1018 64 10000 3.09 320 06:42 08.03.2021
1724 Snow -2 1016 74 10000 5.14 320 03:37 08.03.2021
1725 Clouds -1 1015 64 10000 3.09 290 00:44 08.03.2021
1726 Clouds -1 1014 64 10000 3.6 310 23:54 07.03.2021
1727 Clouds -1 1014 64 10000 4.63 310 23:28 07.03.2021
1728 Clouds -1 1014 69 10000 4.63 320 22:59 07.03.2021
1729 Clouds -1 1014 69 10000 4.63 320 22:41 07.03.2021
1730 Clear -1 1013 64 10000 6.17 310 22:20 07.03.2021
1731 Clear -1 1013 69 10000 5.66 310 21:42 07.03.2021
1732 Clouds 0 1013 69 10000 6.17 310 21:24 07.03.2021
1733 Snow -1 1013 80 9000 7.2 330 20:46 07.03.2021
1734 Snow -1 1013 80 9000 7.2 330 20:46 07.03.2021
1735 Snow -1 1013 80 10000 5.14 360 20:28 07.03.2021
1736 Clouds 0 1009 65 10000 2.24 330 19:56 07.03.2021
1737 Snow 0 1012 40 10000 7.2 320 19:37 07.03.2021
1738 Snow 0 1011 40 10000 7.72 320 19:19 07.03.2021
1739 Clear 1 1011 40 10000 7.72 320 18:40 07.03.2021
1740 Clear 1 1010 40 10000 6.17 320 18:19 07.03.2021
1741 Clear 1 1010 40 10000 6.69 320 17:39 07.03.2021
1742 Clear 1 1010 44 10000 6.69 320 17:20 07.03.2021
1743 Clouds 1 1010 40 10000 7.72 330 16:56 07.03.2021
1744 Clouds 1 1010 40 10000 7.72 330 16:37 07.03.2021
1745 Clouds 1 1009 40 10000 7.2 320 16:18 07.03.2021
1746 Clouds 0 1009 43 10000 7.72 310 15:42 07.03.2021
1747 Clouds 0 1009 43 10000 8.75 320 15:21 07.03.2021
1748 Clouds 0 1008 40 10000 6.69 320 14:30 07.03.2021
1749 Clouds 0 1008 40 10000 8.75 320 13:59 07.03.2021
1750 Clouds 0 1008 43 10000 6.69 320 13:39 07.03.2021
1751 Clouds 0 1008 43 10000 6.69 320 13:18 07.03.2021
1752 Clouds 0 1007 43 10000 7.2 320 12:43 07.03.2021
1753 Clouds 0 1007 43 10000 7.2 320 12:24 07.03.2021
1754 Clouds 0 1006 43 10000 8.23 320 11:25 07.03.2021
1755 Clouds -1 1005 47 10000 8.75 320 10:59 07.03.2021
1756 Clouds -1 1005 47 10000 8.75 320 10:38 07.03.2021
1757 Clouds -1 1005 43 10000 9.77 310 09:59 07.03.2021
1758 Clouds -1 1005 43 10000 9.77 310 09:39 07.03.2021
1759 Clouds 0 1004 43 10000 8.23 310 09:20 07.03.2021
1760 Clouds 0 1004 51 10000 7.72 290 08:45 07.03.2021
1761 Clouds 0 1003 51 10000 7.2 290 08:22 07.03.2021
1762 Clouds -1 1003 51 10000 7.2 290 07:23 07.03.2021
1763 Clouds 0 1004 43 10000 8.23 290 02:40 07.03.2021
1764 Clouds 0 1004 51 10000 7.2 300 00:36 07.03.2021
1765 Clouds 1 1004 75 10000 7.2 280 23:41 06.03.2021
1766 Clouds 1 1004 80 10000 5.66 270 23:22 06.03.2021
1767 Clouds 1 1004 80 10000 4.63 300 22:47 06.03.2021
1768 Snow 1 1004 93 10000 6.17 310 22:25 06.03.2021
1769 Rain 2 1004 81 10000 8.23 290 21:54 06.03.2021
1770 Rain 3 1003 65 10000 8.75 300 21:21 06.03.2021
1771 Rain 4 1003 60 10000 7.72 270 20:48 06.03.2021
1772 Clouds 4 1003 60 10000 7.2 270 20:26 06.03.2021
1773 Clouds 5 1003 56 10000 7.72 270 19:41 06.03.2021
1774 Clouds 5 1003 56 10000 7.72 260 19:19 06.03.2021
1775 Clouds 5 1003 56 10000 8.23 260 18:45 06.03.2021
1776 Clouds 5 1004 56 10000 8.23 260 18:23 06.03.2021
1777 Clouds 5 1004 56 10000 7.72 260 17:56 06.03.2021
1778 Clouds 5 1004 56 10000 7.72 260 17:37 06.03.2021
1779 Clear 5 1004 56 10000 7.2 250 17:18 06.03.2021
1780 Clear 5 1005 60 10000 6.69 250 16:41 06.03.2021
1781 Clear 5 1005 60 10000 7.72 250 16:21 06.03.2021
1782 Clear 6 1006 56 10000 7.2 250 15:47 06.03.2021
1783 Clear 6 1006 56 10000 7.2 250 15:29 06.03.2021
1784 Clear 6 1007 56 10000 7.72 260 14:49 06.03.2021
1785 Clear 6 1008 56 10000 8.75 250 14:25 06.03.2021
1786 Clear 6 1008 56 10000 6.69 260 13:39 06.03.2021
1787 Clear 7 1009 53 10000 7.72 240 13:20 06.03.2021
1788 Clear 6 1009 56 10000 7.72 250 12:44 06.03.2021
1789 Clear 6 1010 56 10000 7.72 250 12:19 06.03.2021
1790 Clear 5 1010 56 10000 7.2 240 11:49 06.03.2021
1791 Clear 5 1011 60 10000 6.69 240 11:21 06.03.2021
1792 Clear 4 1012 65 10000 6.17 240 10:48 06.03.2021
1793 Clear 3 1012 65 10000 5.66 250 10:19 06.03.2021
1794 Clear 3 1013 69 10000 5.14 260 09:46 06.03.2021
1795 Clear 2 1013 69 10000 5.14 240 09:19 06.03.2021
1796 Clouds 1 1013 69 10000 5.14 250 08:40 06.03.2021
1797 Clouds 1 1014 64 10000 6.17 240 07:57 06.03.2021
1798 Clouds 0 1014 69 10000 5.66 240 07:24 06.03.2021
1799 Clouds 0 1015 60 10000 5.66 240 06:58 06.03.2021
1800 Clouds -1 1013 63 10000 2.24 224 05:37 06.03.2021
1801 Clouds -2 1019 68 10000 3.6 210 02:38 06.03.2021
1802 Clouds -3 1020 68 10000 3.6 210 00:56 06.03.2021
1803 Clouds -3 1021 63 10000 3.09 210 23:54 05.03.2021
1804 Clouds -4 1021 68 10000 2.06 210 23:29 05.03.2021
1805 Clouds -4 1022 68 10000 2.06 220 22:49 05.03.2021
1806 Clear -4 1022 74 10000 2.06 200 22:25 05.03.2021
1807 Clear -4 1022 68 10000 2.06 200 21:54 05.03.2021
1808 Clear -4 1022 68 10000 2.06 200 21:36 05.03.2021
1809 Clear -4 1022 74 10000 1.03 0 20:58 05.03.2021
1810 Clear -4 1022 74 10000 1.03 0 20:40 05.03.2021
1811 Clear -4 1022 63 10000 1.49 239 20:22 05.03.2021
1812 Clear -3 1022 59 10000 1.03 190 19:41 05.03.2021
1813 Clear -3 1023 63 10000 0.91 284 19:20 05.03.2021
1814 Clear -2 1022 50 10000 1.03 200 18:43 05.03.2021
1815 Clear -2 1022 50 10000 1.03 0 18:25 05.03.2021
1816 Clear -1 1022 43 10000 2.06 350 17:39 05.03.2021
1817 Clear 0 1022 40 10000 2.06 340 17:20 05.03.2021
1818 Clear 0 1022 37 10000 3.6 360 16:41 05.03.2021
1819 Clear 1 1021 40 10000 5.14 320 16:22 05.03.2021
1820 Clear 1 1021 40 10000 6.17 320 15:53 05.03.2021
1821 Clear 1 1021 40 10000 7.2 310 15:26 05.03.2021
1822 Clear 0 1021 44 10000 6.17 330 14:39 05.03.2021
1823 Clouds 0 1021 44 10000 6.17 310 14:19 05.03.2021
1824 Clouds 0 1021 47 10000 6.17 330 13:42 05.03.2021
1825 Clouds 0 1020 47 10000 5.66 320 13:20 05.03.2021
1826 Clouds 1 1020 60 10000 5.14 320 12:40 05.03.2021
1827 Clouds 1 1020 64 10000 5.66 340 11:39 05.03.2021
1828 Clear 0 1020 69 10000 5.66 330 11:19 05.03.2021
1829 Clear 0 1019 69 10000 5.66 330 10:43 05.03.2021
1830 Clear 0 1019 74 10000 4.63 320 10:24 05.03.2021
1831 Clear -1 1019 74 10000 5.14 320 09:52 05.03.2021
1832 Clear -1 1018 80 10000 4.12 320 09:29 05.03.2021
1833 Clear -2 1018 74 10000 4.12 320 08:57 05.03.2021
1834 Clear -2 1018 74 10000 4.12 320 08:38 05.03.2021
1835 Clear -3 1018 80 10000 3.6 300 08:20 05.03.2021
1836 Clear -4 1017 86 10000 3.09 300 07:30 05.03.2021
1837 Clear -4 1017 86 10000 3.09 290 06:34 05.03.2021
1838 Clear -4 1017 86 10000 3.09 300 05:39 05.03.2021
1839 Clouds -4 1016 100 10000 2.06 270 00:54 05.03.2021
1840 Clear -4 1016 93 10000 3.04 313 23:53 04.03.2021
1841 Clear -4 1016 100 10000 0.51 60 23:24 04.03.2021
1842 Clear -3 1015 86 10000 2.1 298 22:29 04.03.2021
1843 Clear -2 1015 93 10000 1.54 260 21:53 04.03.2021
1844 Clear -3 1015 93 10000 2.1 298 21:31 04.03.2021
1845 Clouds -3 1015 93 10000 1.86 308 20:57 04.03.2021
1846 Clouds -3 1015 93 10000 1.86 308 20:38 04.03.2021
1847 Clouds -2 1016 86 10000 2.06 260 20:18 04.03.2021
1848 Clear -2 1015 86 10000 1.03 220 19:43 04.03.2021
1849 Clear -2 1016 93 10000 1.03 260 19:23 04.03.2021
1850 Clear -2 1016 86 10000 2.09 341 18:47 04.03.2021
1851 Clear -1 1015 86 10000 1.54 350 18:26 04.03.2021
1852 Clear -1 1015 80 10000 2.06 350 17:47 04.03.2021
1853 Clouds 0 1015 86 8000 6.17 350 17:29 04.03.2021
1854 Clouds 2 1014 48 10000 5.66 330 16:48 04.03.2021
1855 Clouds 3 1014 52 10000 4.12 330 16:29 04.03.2021
1856 Clouds 3 1014 52 10000 3.09 320 15:52 04.03.2021
1857 Clouds 3 1014 52 10000 3.09 320 15:33 04.03.2021
1858 Clouds 3 1015 52 10000 5.14 330 14:53 04.03.2021
1859 Clouds 3 1015 52 10000 6.69 300 14:31 04.03.2021
1860 Clouds 3 1015 56 10000 5.14 330 13:50 04.03.2021
1861 Clouds 2 1015 56 10000 5.14 330 13:32 04.03.2021
1862 Clouds 2 1015 64 10000 4.12 310 12:58 04.03.2021
1863 Clouds 2 1015 64 10000 4.12 310 12:39 04.03.2021
1864 Clouds 1 1015 64 10000 4.12 320 11:47 04.03.2021
1865 Clouds 1 1015 64 10000 4.12 350 11:26 04.03.2021
1866 Clouds 1 1015 69 10000 4.63 320 10:55 04.03.2021
1867 Clouds 0 1015 69 10000 5.14 330 10:31 04.03.2021
1868 Clouds 0 1015 69 10000 3.6 330 09:47 04.03.2021
1869 Clouds 0 1015 69 10000 4.12 320 09:24 04.03.2021
1870 Clouds -1 1015 69 10000 4.12 310 08:37 04.03.2021
1871 Clouds -2 1014 74 10000 3.6 310 07:54 04.03.2021
1872 Clouds -2 1014 74 10000 3.6 310 07:54 04.03.2021
1873 Clouds -2 1014 74 10000 3.6 310 07:33 04.03.2021
1874 Clouds -2 1014 74 10000 3.6 310 06:25 04.03.2021
1875 Clouds -2 1014 74 10000 3.6 310 05:40 04.03.2021
1876 Clouds 2 1014 60 10000 5.14 320 01:44 04.03.2021
1877 Clouds 1 1014 93 10000 2.57 280 22:56 03.03.2021
1878 Clouds 1 1014 100 10000 2.06 270 22:28 03.03.2021
1879 Clear 1 1014 100 10000 2.06 280 21:46 03.03.2021
1880 Clouds 1 1014 93 10000 2.06 290 21:25 03.03.2021
1881 Clouds 1 1014 93 10000 3.09 300 20:59 03.03.2021
1882 Clouds 1 1014 93 10000 3.09 300 20:41 03.03.2021
1883 Clouds 1 1014 93 10000 3.6 260 20:23 03.03.2021
1884 Clouds 1 1014 93 10000 3.6 260 19:45 03.03.2021
1885 Clouds 1 1014 93 10000 4.63 260 19:26 03.03.2021
1886 Clouds 1 1014 93 10000 5.14 270 18:48 03.03.2021
1887 Clouds 2 1014 87 10000 5.14 260 18:29 03.03.2021
1888 Clouds 2 1014 87 10000 5.66 260 17:54 03.03.2021
1889 Clouds 3 1015 81 10000 5.66 260 17:20 03.03.2021
1890 Clouds 4 1015 87 10000 4.63 250 16:44 03.03.2021
1891 Clouds 5 1015 81 10000 5.14 260 16:26 03.03.2021
1892 Clear 5 1016 81 10000 5.14 260 15:45 03.03.2021
1893 Clear 6 1016 81 10000 5.14 250 15:27 03.03.2021
1894 Clear 6 1017 81 10000 5.66 260 14:34 03.03.2021
1895 Clear 6 1017 81 10000 5.66 260 13:59 03.03.2021
1896 Clear 6 1017 81 10000 5.66 260 13:37 03.03.2021
1897 Clear 6 1018 81 10000 5.14 260 13:18 03.03.2021
1898 Clear 6 1019 75 10000 6.17 240 12:40 03.03.2021
1899 Clear 5 1019 75 10000 5.14 270 12:22 03.03.2021
1900 Clear 5 1019 75 10000 5.14 250 11:43 03.03.2021
1901 Clear 5 1020 75 10000 4.63 240 11:21 03.03.2021
1902 Clear 5 1020 81 10000 4.12 250 10:43 03.03.2021
1903 Clear 4 1020 81 10000 3.6 250 10:20 03.03.2021
1904 Clear 3 1021 87 10000 3.6 260 09:40 03.03.2021
1905 Clear 2 1021 87 10000 2.06 240 08:49 03.03.2021
1906 Clear 2 1022 87 10000 2.06 240 08:23 03.03.2021
1907 Clear 1 1022 93 10000 1.54 230 07:53 03.03.2021
1908 Clear 1 1022 93 10000 1.54 230 07:20 03.03.2021
1909 Clouds 1 1023 93 10000 1.03 0 06:19 03.03.2021
1910 Clouds 3 1023 81 10000 2.06 230 05:30 03.03.2021
1911 Clouds 3 1024 81 10000 2.57 240 04:36 03.03.2021
1912 Clouds 3 1025 87 10000 1.54 220 03:52 03.03.2021
1913 Clouds 0 1027 86 10000 2.36 249 00:18 03.03.2021
1914 Clouds 0 1027 86 10000 2.36 249 23:32 02.03.2021
1915 Clouds 0 1028 80 10000 1.03 100 22:48 02.03.2021
1916 Clear 0 1028 86 10000 2.09 233 22:21 02.03.2021
1917 Clear 0 1028 86 10000 2.09 233 21:46 02.03.2021
1918 Clear 0 1028 80 10000 1.86 229 21:28 02.03.2021
1919 Clear 0 1029 80 10000 1.86 229 20:55 02.03.2021
1920 Clear 0 1029 80 10000 1.86 229 20:36 02.03.2021
1921 Clear 1 1028 80 10000 1.21 251 20:18 02.03.2021
1922 Clear 2 1029 75 10000 1.21 251 19:43 02.03.2021
1923 Clear 3 1029 65 10000 1.37 274 19:24 02.03.2021
1924 Clear 3 1029 65 10000 1.37 274 18:41 02.03.2021
1925 Clear 5 1029 52 10000 1.03 270 18:21 02.03.2021
1926 Clear 5 1029 52 10000 2.57 290 17:54 02.03.2021
1927 Clear 5 1029 52 10000 2.57 290 17:36 02.03.2021
1928 Clear 6 1029 49 10000 4.12 280 17:18 02.03.2021
1929 Clear 7 1029 42 10000 4.12 270 16:38 02.03.2021
1930 Clear 8 1029 40 10000 4.12 300 15:52 02.03.2021
1931 Clear 9 1029 40 10000 5.66 320 15:25 02.03.2021
1932 Clear 9 1029 40 10000 5.14 300 14:29 02.03.2021
1933 Clear 8 1029 42 10000 5.14 320 13:59 02.03.2021
1934 Clear 8 1029 42 10000 5.14 320 13:39 02.03.2021
1935 Clear 8 1029 46 10000 6.17 320 13:21 02.03.2021
1936 Clear 8 1029 49 10000 6.69 320 12:31 02.03.2021
1937 Clear 8 1029 49 10000 6.69 320 11:59 02.03.2021
1938 Clear 8 1029 49 10000 6.69 320 11:38 02.03.2021
1939 Clear 8 1028 57 10000 5.14 310 11:19 02.03.2021
1940 Clear 7 1028 65 10000 4.63 310 10:42 02.03.2021
1941 Clear 6 1028 70 10000 4.63 290 10:23 02.03.2021
1942 Clear 5 1028 70 10000 4.63 290 09:40 02.03.2021
1943 Clear 5 1027 75 10000 3.6 290 09:20 02.03.2021
1944 Clear 4 1027 75 10000 3.09 280 08:38 02.03.2021
1945 Clear 3 1026 81 10000 2.06 260 07:59 02.03.2021
1946 Clear 3 1026 81 10000 2.06 260 07:38 02.03.2021
1947 Clear 2 1025 81 10000 2.57 280 06:35 02.03.2021
1948 Clear 3 1024 75 10000 3.6 280 05:46 02.03.2021
1949 Clear 3 1024 75 10000 3.6 280 05:46 02.03.2021
1950 Clear 4 1024 75 10000 5.14 280 05:28 02.03.2021
1951 Clouds 5 1023 70 10000 4.12 260 01:45 02.03.2021
1952 Clouds 5 1023 70 10000 4.12 260 01:45 02.03.2021
1953 Clouds 5 1022 65 10000 4.63 270 01:27 02.03.2021
1954 Clouds 6 1022 65 10000 4.12 260 00:39 02.03.2021
1955 Clouds 6 1023 65 10000 3.09 250 23:28 01.03.2021
1956 Clouds 5 1023 65 10000 3.09 260 22:42 01.03.2021
1957 Clear 5 1023 65 10000 2.57 250 22:22 01.03.2021
1958 Clear 5 1023 65 10000 4.63 250 21:46 01.03.2021
1959 Clear 5 1023 65 10000 3.09 250 21:24 01.03.2021
1960 Clear 5 1023 70 10000 3.09 250 20:48 01.03.2021
1961 Clear 5 1023 70 10000 3.09 250 20:27 01.03.2021
1962 Clear 5 1023 70 10000 3.6 240 19:54 01.03.2021
1963 Clear 5 1023 70 10000 3.6 240 19:33 01.03.2021
1964 Clear 5 1024 70 10000 3.09 250 18:46 01.03.2021
1965 Clear 5 1023 65 10000 3.09 260 18:25 01.03.2021
1966 Clear 6 1023 65 10000 3.09 250 17:56 01.03.2021
1967 Clear 6 1023 65 10000 3.09 250 17:37 01.03.2021
1968 Clear 6 1023 61 10000 3.6 250 17:18 01.03.2021
1969 Clear 6 1023 61 10000 3.09 240 16:43 01.03.2021
1970 Clear 6 1023 61 10000 2.57 260 16:24 01.03.2021
1971 Clear 7 1023 61 10000 4.63 280 15:41 01.03.2021
1972 Clear 7 1023 57 10000 4.63 270 15:20 01.03.2021
1973 Clear 7 1023 61 10000 4.63 280 14:44 01.03.2021
1974 Clear 8 1023 57 10000 5.66 260 14:26 01.03.2021
1975 Clear 7 1024 65 10000 6.17 270 13:40 01.03.2021
1976 -273 0 0 0 0 0 13:21 01.03.2021
1977 Clear 7 1024 61 10000 5.66 270 13:21 01.03.2021
1978 Clear 7 1024 61 10000 7.2 290 12:51 01.03.2021
1979 Clear 6 1024 65 10000 7.72 290 12:30 01.03.2021
1980 Clear 6 1023 65 10000 5.14 270 11:58 01.03.2021
1981 Clear 6 1023 65 10000 6.69 270 11:34 01.03.2021
1982 Clear 6 1023 65 10000 5.14 250 10:44 01.03.2021
1983 Clear 5 1023 75 10000 4.63 240 10:23 01.03.2021
1984 Clear 5 1024 75 10000 4.63 250 09:56 01.03.2021
1985 Clear 4 1024 75 10000 4.63 250 09:38 01.03.2021
1986 Clear 4 1024 81 10000 4.63 260 09:20 01.03.2021
1987 Clear 3 1023 81 10000 4.12 230 08:44 01.03.2021
1988 Clear 1 1024 87 10000 2.57 260 07:44 01.03.2021
1989 Clear 1 1024 100 10000 2.06 250 06:51 01.03.2021
1990 Clear 0 1027 93 10000 2.24 233 02:49 01.03.2021
1991 Clouds 1 1028 100 10000 1.03 120 00:37 01.03.2021
1992 Clouds 2 1028 93 10000 2.13 279 23:26 28.02.2021
1993 Clouds 2 1028 87 10000 2.14 280 22:45 28.02.2021
1994 Clear 3 1028 87 10000 2.05 312 22:21 28.02.2021
1995 Clear 3 1028 87 10000 2.05 312 22:21 28.02.2021
1996 Clear 4 1028 81 10000 1.03 210 21:48 28.02.2021
1997 Clear 3 1028 87 10000 0.51 0 21:25 28.02.2021
1998 Clear 4 1028 75 10000 2.06 280 20:52 28.02.2021
1999 Clear 5 1028 75 10000 2.06 280 20:34 28.02.2021
2000 Clear 5 1027 70 10000 2.57 270 19:47 28.02.2021
2001 Clear 6 1027 65 10000 1.54 270 19:28 28.02.2021
2002 Clear 6 1028 65 10000 1.54 260 18:49 28.02.2021
2003 Clear 7 1027 61 10000 2.57 250 18:28 28.02.2021
2004 Clear 8 1028 57 10000 1.54 250 17:59 28.02.2021
2005 Clear 8 1028 57 10000 1.54 250 17:40 28.02.2021
2006 Clear 8 1028 57 10000 3.09 280 17:21 28.02.2021
2007 Clear 9 1028 57 10000 3.6 280 16:48 28.02.2021
2008 Clear 10 1027 54 10000 4.12 300 16:30 28.02.2021
2009 Clear 10 1027 54 10000 4.63 290 15:52 28.02.2021
2010 Clear 11 1027 54 10000 4.63 320 15:28 28.02.2021
2011 Clear 11 1027 54 10000 5.14 310 14:58 28.02.2021
2012 Clear 11 1027 54 10000 5.14 310 14:39 28.02.2021
2013 Clear 11 1027 54 10000 5.14 300 14:19 28.02.2021
2014 Clear 10 1027 57 10000 6.69 300 13:39 28.02.2021
2015 Clear 10 1027 57 10000 5.14 290 13:19 28.02.2021
2016 Clear 9 1027 57 10000 5.14 290 12:54 28.02.2021
2017 Clear 9 1027 57 10000 5.14 290 12:35 28.02.2021
2018 Clouds 9 1024 59 10000 2.68 270 11:59 28.02.2021
2019 Clear 8 1027 65 10000 5.66 280 11:41 28.02.2021
2020 Clouds 8 1027 65 10000 4.63 280 11:22 28.02.2021
2021 Clouds 7 1026 70 10000 4.63 270 10:43 28.02.2021
2022 Clouds 6 1026 70 10000 3.6 280 10:25 28.02.2021
2023 Clouds 6 1026 70 10000 4.12 280 09:40 28.02.2021
2024 Clouds 5 1025 75 10000 3.09 280 09:21 28.02.2021
2025 Clouds 5 1025 75 10000 3.6 270 08:45 28.02.2021
2026 Clouds 4 1025 75 10000 3.6 270 08:26 28.02.2021
2027 Clouds 3 1024 81 10000 3.6 270 07:46 28.02.2021
2028 Clouds 2 1024 81 10000 3.6 260 07:28 28.02.2021
2029 Clouds 2 1024 81 10000 4.12 260 06:24 28.02.2021
2030 Clouds 2 1024 81 10000 3.09 260 05:21 28.02.2021
2031 Clear 2 1025 87 10000 2.57 270 02:29 28.02.2021
2032 Clear 3 1025 81 10000 2.57 280 01:36 28.02.2021
2033 Clear 3 1025 81 10000 4.12 280 00:43 28.02.2021
2034 Clear 3 1025 81 10000 2.57 270 00:21 28.02.2021
2035 Clear 3 1025 81 10000 2.06 270 23:44 27.02.2021
2036 Clear 3 1025 75 10000 2.06 270 23:18 27.02.2021
2037 Clear 3 1025 70 10000 3.6 250 22:42 27.02.2021
2038 Clouds 3 1026 70 10000 2.57 260 22:18 27.02.2021
2039 Clouds 3 1025 70 10000 3.6 240 21:38 27.02.2021
2040 Clouds 4 1026 70 10000 3.09 230 21:20 27.02.2021
2041 Clouds 4 1026 65 10000 3.6 230 20:46 27.02.2021
2042 Clouds 5 1026 65 10000 3.6 240 20:26 27.02.2021
2043 Clouds 5 1027 65 10000 3.09 260 19:45 27.02.2021
2044 Clouds 5 1027 65 10000 2.57 230 19:25 27.02.2021
2045 Clouds 5 1027 65 10000 2.57 240 18:43 27.02.2021
2046 Clouds 6 1027 61 10000 2.57 240 18:21 27.02.2021
2047 Clouds 6 1027 61 10000 1.54 240 17:45 27.02.2021
2048 Clear 6 1027 61 10000 2.57 270 17:21 27.02.2021
2049 Clear 6 1028 57 10000 3.6 280 16:59 27.02.2021
2050 Clear 6 1028 57 10000 3.6 280 16:41 27.02.2021
2051 Clear 7 1028 57 10000 4.12 270 16:23 27.02.2021
2052 Clouds 7 1025 59 10000 3.07 284 15:39 27.02.2021
2053 Clouds 7 1026 59 10000 3.47 289 14:52 27.02.2021
2054 Clouds 7 1026 59 10000 0.89 288 14:33 27.02.2021
2055 Clear 7 1029 57 10000 5.14 270 13:56 27.02.2021
2056 Clear 7 1029 61 10000 6.69 280 13:33 27.02.2021
2057 Clear 6 1029 61 10000 4.63 270 12:57 27.02.2021
2058 Clear 6 1029 61 10000 4.63 270 12:36 27.02.2021
2059 Clear 6 1028 61 10000 4.63 280 12:18 27.02.2021
2060 Clear 5 1028 65 10000 5.14 280 11:42 27.02.2021
2061 Clear 4 1028 70 10000 4.63 280 11:23 27.02.2021
2062 Clear 4 1028 70 10000 4.12 290 10:46 27.02.2021
2063 Clear 4 1028 75 10000 4.12 300 10:27 27.02.2021
2064 Clear 3 1028 75 10000 4.12 290 09:50 27.02.2021
2065 Clear 3 1028 75 10000 3.6 280 09:26 27.02.2021
2066 Clear 2 1027 75 10000 3.09 280 08:42 27.02.2021
2067 Clear 1 1027 80 10000 2.57 290 08:21 27.02.2021
2068 Clear 1 1027 80 10000 2.57 290 07:42 27.02.2021
2069 Clear 1 1025 86 10000 3.6 300 04:47 27.02.2021
2070 Clear 3 1022 75 10000 3.6 300 00:54 27.02.2021
2071 Clear 4 1021 70 10000 4.12 310 23:54 26.02.2021
2072 Clear 4 1020 70 10000 4.12 300 23:30 26.02.2021
2073 Clear 5 1020 65 10000 5.66 300 22:59 26.02.2021
2074 Clear 5 1019 65 10000 4.63 310 22:30 26.02.2021
2075 Clear 6 1019 61 10000 4.63 300 21:47 26.02.2021
2076 Clear 6 1018 61 10000 5.14 310 21:28 26.02.2021
2077 Clear 6 1018 61 10000 5.14 310 20:44 26.02.2021
2078 Clear 6 1018 61 10000 5.14 310 20:44 26.02.2021
2079 Clear 7 1017 57 10000 4.63 310 20:22 26.02.2021
2080 Clear 7 1017 53 10000 6.17 330 19:51 26.02.2021
2081 Clear 8 1016 53 10000 5.14 320 19:25 26.02.2021
2082 Clear 8 1015 53 10000 5.14 310 18:46 26.02.2021
2083 Clear 8 1015 66 10000 4.12 290 18:23 26.02.2021
2084 Clear 8 1014 61 10000 5.14 270 17:44 26.02.2021
2085 Clear 8 1013 61 10000 5.66 290 17:26 26.02.2021
2086 Clear 9 1013 61 10000 5.14 290 16:53 26.02.2021
2087 Clear 9 1013 57 10000 6.17 280 16:32 26.02.2021
2088 Clear 9 1012 57 10000 6.17 280 15:58 26.02.2021
2089 Clear 10 1012 57 10000 6.17 280 15:39 26.02.2021
2090 Clear 9 1012 62 10000 7.2 280 15:20 26.02.2021
2091 Clear 9 1011 61 10000 6.17 270 14:47 26.02.2021
2092 Clear 9 1011 66 10000 6.69 270 14:26 26.02.2021
2093 Clear 9 1011 71 10000 7.2 270 13:46 26.02.2021
2094 Clear 9 1011 71 10000 7.2 270 13:25 26.02.2021
2095 Clear 8 1010 71 10000 7.2 280 12:40 26.02.2021
2096 Clear 7 1010 70 10000 7.72 280 11:58 26.02.2021
2097 Clear 7 1010 70 10000 7.72 280 11:38 26.02.2021
2098 Clear 6 1009 75 10000 8.75 270 10:54 26.02.2021
2099 Clear 6 1009 75 10000 6.17 280 10:20 26.02.2021
2100 Clear 6 1009 75 10000 6.17 260 09:46 26.02.2021
2101 Clear 5 1008 81 10000 5.14 270 09:26 26.02.2021
2102 Clouds 5 1008 87 10000 4.63 260 08:29 26.02.2021
2103 Clouds 4 1008 87 10000 5.66 260 07:54 26.02.2021
2104 Clouds 4 1007 87 10000 6.17 250 06:48 26.02.2021
2105 Clouds 5 1008 81 10000 6.17 260 05:39 26.02.2021
2106 Clouds 5 1008 81 10000 5.14 250 04:49 26.02.2021
2107 Clear 4 1008 87 10000 5.66 240 02:36 26.02.2021
2108 Clouds 6 1009 75 10000 6.69 250 00:24 26.02.2021
2109 Clouds 6 1008 75 10000 8.23 250 23:30 25.02.2021
2110 Clouds 6 1009 75 10000 9.26 260 22:50 25.02.2021
2111 Clouds 7 1009 81 10000 5.14 250 22:31 25.02.2021
2112 Clouds 7 1008 87 10000 5.66 260 21:47 25.02.2021
2113 Clouds 8 1008 87 10000 6.17 260 21:28 25.02.2021
2114 Clouds 8 1008 81 10000 6.17 250 20:43 25.02.2021
2115 Clouds 9 1009 81 10000 6.17 250 20:24 25.02.2021
2116 Clouds 9 1009 81 10000 5.66 260 19:53 25.02.2021
2117 Clouds 9 1009 81 10000 5.66 250 19:22 25.02.2021
2118 Clouds 10 1009 76 10000 5.14 260 18:59 25.02.2021
2119 Clouds 10 1009 76 10000 5.14 260 18:33 25.02.2021
2120 Clouds 11 1009 76 10000 8.23 240 17:57 25.02.2021
2121 Clouds 11 1009 76 10000 6.17 240 17:29 25.02.2021
2122 Clouds 11 1009 76 10000 7.2 240 16:54 25.02.2021
2123 Clouds 11 1009 76 10000 5.14 230 16:31 25.02.2021
2124 Clouds 11 1009 76 10000 5.14 230 15:36 25.02.2021
2125 Clouds 11 1010 71 10000 5.14 220 15:18 25.02.2021
2126 Clouds 11 1010 76 10000 5.14 220 14:29 25.02.2021
2127 Clouds 11 1011 82 10000 4.12 220 13:57 25.02.2021
2128 Clouds 11 1011 82 10000 4.12 220 13:39 25.02.2021
2129 Clouds 11 1011 82 10000 4.12 220 13:18 25.02.2021
2130 Clouds 11 1012 87 10000 4.12 200 12:23 25.02.2021
2131 Clouds 11 1012 82 10000 4.63 210 11:51 25.02.2021
2132 Clouds 11 1012 82 10000 5.66 220 11:31 25.02.2021
2133 Clouds 11 1012 82 10000 7.2 220 10:47 25.02.2021
2134 Clouds 10 1012 87 10000 6.69 220 10:29 25.02.2021
2135 Clouds 10 1012 87 10000 6.17 230 09:45 25.02.2021
2136 Clouds 10 1012 81 10000 5.66 220 09:19 25.02.2021
2137 Clouds 9 1013 87 10000 5.14 230 08:30 25.02.2021
2138 Clouds 9 1013 87 10000 5.66 240 07:58 25.02.2021
2139 Clouds 9 1013 87 10000 5.66 240 07:38 25.02.2021
2140 Clouds 9 1013 87 10000 5.66 220 06:57 25.02.2021
2141 Clouds 9 1014 93 10000 5.66 240 04:22 25.02.2021
2142 Clouds 9 1014 87 10000 3.6 240 01:42 25.02.2021
2143 Clouds 8 1015 87 10000 5.14 240 00:46 25.02.2021
2144 Clouds 9 1015 87 10000 4.63 240 23:56 24.02.2021
2145 Clouds 9 1015 87 10000 5.14 240 23:32 24.02.2021
2146 Clouds 9 1015 87 10000 6.17 230 22:47 24.02.2021
2147 Clouds 9 1015 87 10000 6.69 230 22:29 24.02.2021
2148 Clouds 9 1015 87 10000 7.72 230 21:48 24.02.2021
2149 Clouds 9 1015 87 10000 6.69 230 21:24 24.02.2021
2150 Clouds 9 1015 87 10000 5.66 230 20:48 24.02.2021
2151 Clouds 9 1015 87 10000 5.66 230 20:25 24.02.2021
2152 Clouds 9 1015 87 10000 5.14 220 19:40 24.02.2021
2153 Clouds 9 1015 81 10000 5.66 220 19:20 24.02.2021
2154 Clouds 9 1015 81 10000 4.12 220 18:50 24.02.2021
2155 Clouds 9 1015 81 10000 4.12 220 18:50 24.02.2021
2156 Clouds 9 1015 81 10000 5.14 230 18:29 24.02.2021
2157 Clouds 9 1015 87 10000 3.6 220 17:39 24.02.2021
2158 Clouds 8 1015 93 10000 2.57 210 17:21 24.02.2021
2159 Clouds 9 1015 93 10000 2.57 200 16:46 24.02.2021
2160 Clouds 8 1015 93 10000 3.09 200 16:20 24.02.2021
2161 Clouds 8 1015 87 10000 3.09 210 15:50 24.02.2021
2162 Clouds 8 1015 87 10000 4.12 210 15:28 24.02.2021
2163 Clouds 8 1015 87 10000 3.6 210 14:44 24.02.2021
2164 Clouds 8 1013 23 10000 6.41 238 14:26 24.02.2021
2165 Clouds 8 1015 93 10000 4.63 200 13:41 24.02.2021
2166 Clouds 8 1015 87 10000 5.14 210 13:23 24.02.2021
2167 Clouds 7 1016 93 9000 5.14 210 12:53 24.02.2021
2168 Clouds 7 1016 93 9000 5.14 210 12:33 24.02.2021
2169 Clouds 7 1017 93 7000 4.12 200 11:52 24.02.2021
2170 Clouds 6 1017 93 7000 5.14 190 11:29 24.02.2021
2171 Mist 6 1017 100 6000 4.12 210 10:38 24.02.2021
2172 Mist 5 1018 93 7000 4.63 190 10:19 24.02.2021
2173 Clouds 5 1018 93 7000 4.12 200 09:24 24.02.2021
2174 Clouds 4 1019 100 6000 4.12 190 08:45 24.02.2021
2175 Clouds 4 1019 100 6000 4.12 180 08:24 24.02.2021
2176 Mist 3 1020 100 4000 3.09 180 07:21 24.02.2021
2177 Mist 3 1020 100 4000 3.09 190 06:56 24.02.2021
2178 Snow 1 1022 100 10000 2.57 190 04:40 24.02.2021
2179 Mist 1 1023 100 3700 0.51 0 00:44 24.02.2021
2180 Clouds 2 1023 93 10000 2.06 220 23:32 23.02.2021
2181 Clouds 2 1024 100 10000 3.09 240 22:42 23.02.2021
2182 Clouds 2 1024 100 10000 3.09 240 22:21 23.02.2021
2183 Clear 3 1024 93 10000 3.09 260 21:47 23.02.2021
2184 Clouds 3 1023 93 10000 1.54 260 21:24 23.02.2021
2185 Clouds 3 1023 93 10000 3.6 260 20:49 23.02.2021
2186 Clouds 4 1023 93 10000 3.6 270 20:30 23.02.2021
2187 Clouds 4 1023 93 10000 4.63 260 19:49 23.02.2021
2188 Clouds 4 1023 93 10000 4.63 260 19:29 23.02.2021
2189 Clouds 5 1023 93 10000 4.12 260 18:59 23.02.2021
2190 Clouds 5 1023 93 10000 4.12 260 18:41 23.02.2021
2191 Clouds 5 1022 93 10000 4.12 250 18:20 23.02.2021
2192 Clouds 5 1022 93 10000 4.12 260 17:46 23.02.2021
2193 Clouds 5 1022 93 10000 4.12 250 17:18 23.02.2021
2194 Clouds 5 1022 93 10000 4.12 250 16:43 23.02.2021
2195 Clouds 5 1021 93 10000 4.12 260 16:20 23.02.2021
2196 Clouds 5 1021 93 10000 4.63 250 15:42 23.02.2021
2197 Clouds 5 1021 87 10000 4.63 260 15:23 23.02.2021
2198 Clouds 5 1020 93 10000 5.66 260 14:46 23.02.2021
2199 Clouds 5 1020 100 10000 5.66 250 14:26 23.02.2021
2200 Clouds 4 1020 100 7000 6.69 270 13:55 23.02.2021
2201 Mist 4 1020 100 4100 6.69 280 13:31 23.02.2021
2202 Mist 5 1019 100 4400 5.66 260 12:54 23.02.2021
2203 Clouds 5 1019 100 5000 6.17 260 12:22 23.02.2021
2204 Mist 4 1019 100 4000 3.6 250 11:51 23.02.2021
2205 Mist 4 1018 100 5000 2.06 230 11:25 23.02.2021
2206 Mist 4 1018 100 4600 2.06 230 10:53 23.02.2021
2207 Mist 4 1018 100 4600 2.06 230 10:35 23.02.2021
2208 Rain 3 1018 100 3700 1.54 210 09:45 23.02.2021
2209 Clouds 3 1018 100 4000 2.06 230 09:26 23.02.2021
2210 Rain 3 1017 100 3500 1.54 150 08:57 23.02.2021
2211 Rain 3 1017 100 3500 1.54 150 08:39 23.02.2021
2212 Rain 3 1018 100 1100 1.03 200 08:20 23.02.2021
2213 Clouds 2 1018 100 1100 1.54 0 06:50 23.02.2021
2214 Clouds 3 1018 100 1000 2.06 140 05:22 23.02.2021
2215 Clouds 2 1020 100 900 4.63 130 02:36 23.02.2021
2216 Fog 2 1020 100 800 5.66 120 01:42 23.02.2021
2217 Fog 2 1021 100 500 5.14 130 00:18 23.02.2021
2218 Fog 3 1022 100 900 5.14 120 23:24 22.02.2021
2219 Fog 2 1021 100 750 6.69 110 22:41 22.02.2021
2220 Clouds 2 1022 100 1200 5.14 110 22:21 22.02.2021
2221 Clouds 2 1023 100 1200 4.63 100 21:46 22.02.2021
2222 Mist 2 1023 100 1100 4.63 100 21:24 22.02.2021
2223 Mist 2 1023 100 1200 5.14 100 20:55 22.02.2021
2224 Mist 2 1023 100 1500 4.63 110 20:31 22.02.2021
2225 Mist 2 1023 100 1600 5.14 110 19:58 22.02.2021
2226 Mist 2 1023 100 1600 5.14 110 19:38 22.02.2021
2227 Mist 2 1023 100 1600 5.14 110 19:18 22.02.2021
2228 Mist 2 1023 100 1200 5.14 110 18:44 22.02.2021
2229 Mist 2 1023 100 1500 4.12 110 18:21 22.02.2021
2230 Mist 2 1023 100 2500 4.63 100 17:36 22.02.2021
2231 Mist 3 1023 93 4000 5.14 110 17:18 22.02.2021
2232 Mist 3 1023 100 4500 4.63 100 16:42 22.02.2021
2233 Clouds 3 1023 100 6000 3.6 80 15:56 22.02.2021
2234 Mist 4 1023 100 4000 3.09 90 15:29 22.02.2021
2235 Mist 4 1023 100 3500 3.6 90 14:48 22.02.2021
2236 Mist 4 1023 100 2100 3.09 80 14:30 22.02.2021
2237 Mist 4 1023 100 2000 2.57 90 13:48 22.02.2021
2238 Mist 4 1023 100 2900 2.57 90 13:23 22.02.2021
2239 Mist 4 1022 100 1800 3.09 90 12:42 22.02.2021
2240 Mist 4 1022 100 1600 4.63 70 12:20 22.02.2021
2241 Clouds 4 1022 100 2700 2.06 80 11:45 22.02.2021
2242 Clouds 5 1022 100 1600 2.57 60 11:25 22.02.2021
2243 Fog 4 1021 100 800 1.54 70 10:50 22.02.2021
2244 Fog 4 1021 100 700 0.51 0 10:28 22.02.2021
2245 Fog 4 1021 100 350 1.03 0 09:49 22.02.2021
2246 Fog 4 1020 100 200 0.96 7 09:30 22.02.2021
2247 Fog 4 1020 100 800 0.96 7 08:57 22.02.2021
2248 Fog 4 1020 100 800 0.96 7 08:38 22.02.2021
2249 Mist 3 1020 100 4600 1.2 349 07:58 22.02.2021
2250 Mist 3 1020 100 4600 1.55 288 07:27 22.02.2021
2251 Clouds 3 1019 93 6000 1.55 288 06:46 22.02.2021
2252 Mist 2 1019 100 6000 1.94 276 05:45 22.02.2021
2253 Mist 3 1018 100 4900 1.76 283 03:44 22.02.2021
2254 Mist 3 1017 93 6000 1.99 294 02:51 22.02.2021
2255 Clouds 4 1016 93 10000 1.54 250 00:46 22.02.2021
2256 Clouds 4 1016 93 10000 2.06 230 00:23 22.02.2021
2257 Clouds 5 1015 87 10000 2.57 220 23:33 21.02.2021
2258 Clouds 4 1015 93 10000 2.06 210 22:54 21.02.2021
2259 Clear 4 1015 93 10000 1.54 210 22:24 21.02.2021
2260 Clear 4 1015 93 10000 1.03 190 21:48 21.02.2021
2261 Clear 4 1015 93 10000 1.03 0 21:30 21.02.2021
2262 Clear 4 1015 93 10000 2.06 210 20:47 21.02.2021
2263 Clear 4 1015 93 10000 2.06 210 20:20 21.02.2021
2264 Drizzle 4 1014 93 10000 1.54 210 19:54 21.02.2021
2265 Drizzle 4 1014 93 10000 1.54 210 19:34 21.02.2021
2266 Clear 4 1014 87 10000 2.06 220 18:59 21.02.2021
2267 Clear 5 1014 87 10000 1.54 230 18:26 21.02.2021
2268 Clear 5 1014 87 10000 2.06 190 17:39 21.02.2021
2269 Clear 5 1014 87 10000 1.03 0 17:18 21.02.2021
2270 Clear 5 1013 87 10000 1.03 0 16:43 21.02.2021
2271 Clear 6 1013 87 10000 2.06 210 16:24 21.02.2021
2272 Clear 6 1013 81 10000 1.54 170 15:25 21.02.2021
2273 Clear 6 1014 81 10000 2.57 210 14:56 21.02.2021
2274 Clear 7 1014 81 10000 2.57 210 14:37 21.02.2021
2275 Clear 6 1013 87 10000 1.54 160 13:54 21.02.2021
2276 Clear 6 1013 87 10000 2.57 150 13:29 21.02.2021
2277 Clear 5 1013 93 10000 2.06 130 12:33 21.02.2021
2278 Clear 5 1014 93 10000 2.06 130 11:59 21.02.2021
2279 Clear 5 1014 93 10000 2.06 130 11:41 21.02.2021
2280 Clouds 4 1014 100 10000 2.57 140 10:46 21.02.2021
2281 Clouds 4 1014 93 10000 3.09 130 10:21 21.02.2021
2282 Clouds 4 1014 100 8000 1.54 140 09:43 21.02.2021
2283 Clouds 4 1014 100 8000 1.54 130 09:24 21.02.2021
2284 Fog 3 1014 100 550 1.54 120 08:36 21.02.2021
2285 Clouds 3 1014 100 4800 1.54 110 07:57 21.02.2021
2286 Rain 3 1014 100 450 2.32 182 07:22 21.02.2021
2287 Clouds 3 1014 100 2000 1.54 140 06:24 21.02.2021
2288 Clouds 3 1014 93 10000 1.03 0 02:42 21.02.2021
2289 Clouds 3 1013 100 10000 1.54 210 01:20 21.02.2021
2290 Clouds 4 1013 93 10000 2.06 210 00:21 21.02.2021
2291 Clouds 4 1013 93 10000 1.03 0 23:47 20.02.2021
2292 Clouds 4 1013 93 10000 2.57 200 22:58 20.02.2021
2293 Clouds 4 1013 93 10000 2.06 200 22:33 20.02.2021
2294 Clouds 4 1013 93 10000 3.09 200 21:57 20.02.2021
2295 Clouds 4 1013 93 10000 3.09 200 21:39 20.02.2021
2296 Clouds 3 1013 100 10000 3.6 210 21:18 20.02.2021
2297 Rain 4 1013 87 10000 3.6 210 20:38 20.02.2021
2298 Clouds 4 1013 93 10000 4.12 200 20:19 20.02.2021
2299 Clouds 3 1013 87 10000 4.12 210 19:41 20.02.2021
2300 Drizzle 4 1013 93 10000 4.12 200 18:58 20.02.2021
2301 Drizzle 3 1013 87 10000 4.63 200 18:33 20.02.2021
2302 Rain 4 1013 87 10000 4.12 200 17:59 20.02.2021
2303 Rain 4 1013 87 10000 4.12 200 17:33 20.02.2021
2304 Rain 4 1014 87 10000 4.63 190 16:49 20.02.2021
2305 Rain 4 1014 87 10000 4.12 190 16:26 20.02.2021
2306 Rain 4 1014 87 10000 4.12 190 15:42 20.02.2021
2307 Rain 4 1014 93 10000 4.12 180 14:53 20.02.2021
2308 Rain 4 1014 93 10000 3.6 180 14:27 20.02.2021
2309 Drizzle 4 1015 93 10000 3.6 190 13:58 20.02.2021
2310 Rain 4 1015 93 10000 3.6 190 13:39 20.02.2021
2311 Rain 4 1015 93 10000 3.09 190 13:21 20.02.2021
2312 Rain 4 1015 93 10000 3.09 190 12:44 20.02.2021
2313 Rain 4 1015 93 10000 3.09 190 11:54 20.02.2021
2314 Drizzle 4 1015 93 10000 3.09 190 11:35 20.02.2021
2315 Rain 3 1015 93 10000 2.57 170 10:52 20.02.2021
2316 Rain 3 1015 93 10000 2.57 180 10:27 20.02.2021
2317 Clouds 3 1013 25 10000 2.68 181 09:47 20.02.2021
2318 Clouds 2 1015 100 10000 2.06 200 08:56 20.02.2021
2319 Clouds 2 1015 100 10000 2.57 210 08:25 20.02.2021
2320 Mist 2 1014 100 8000 2.57 210 07:19 20.02.2021
2321 Clouds 2 1014 93 10000 2.57 230 02:32 20.02.2021
2322 Clouds 2 1014 93 10000 2.57 240 01:58 20.02.2021
2323 Mist 2 1013 93 7000 2.57 220 01:18 20.02.2021
2324 Mist 2 1013 93 7000 2.57 220 01:18 20.02.2021
2325 Mist 2 1013 93 5000 2.57 230 00:37 20.02.2021
2326 Mist 2 1013 93 2600 2.57 230 23:41 19.02.2021
2327 Mist 2 1013 93 2800 2.57 220 22:48 19.02.2021
2328 Mist 2 1013 93 4700 2.57 210 22:25 19.02.2021
2329 Mist 2 1013 100 2400 2.06 210 21:44 19.02.2021
2330 Mist 2 1012 100 1900 2.57 190 21:25 19.02.2021
2331 Mist 2 1012 100 1200 2.06 190 20:44 19.02.2021
2332 Mist 2 1012 100 1500 2.57 170 20:26 19.02.2021
2333 Mist 2 1012 100 1500 2.57 160 19:49 19.02.2021
2334 Mist 2 1012 93 1800 2.57 140 19:20 19.02.2021
2335 Mist 2 1012 93 1900 2.57 140 18:51 19.02.2021
2336 Mist 2 1012 93 2700 2.06 150 18:28 19.02.2021
2337 Mist 2 1012 93 3000 3.09 140 17:43 19.02.2021
2338 Mist 2 1012 93 2700 2.57 170 16:44 19.02.2021
2339 Mist 2 1012 100 2600 3.09 160 16:22 19.02.2021
2340 Mist 2 1012 93 4000 2.57 160 15:55 19.02.2021
2341 Mist 2 1011 93 4500 4.12 140 15:30 19.02.2021
2342 Mist 2 1011 93 5000 4.12 140 14:52 19.02.2021
2343 Mist 2 1011 93 5000 4.12 140 14:33 19.02.2021
2344 Clouds 2 1011 93 7000 4.12 130 13:56 19.02.2021
2345 Clouds 2 1011 93 7000 4.12 130 13:36 19.02.2021
2346 Drizzle 2 1012 100 7000 4.63 140 12:54 19.02.2021
2347 Rain 2 1012 93 10000 4.63 140 12:28 19.02.2021
2348 Rain 2 1012 93 9000 4.12 140 11:59 19.02.2021
2349 Snow 2 1012 93 9000 4.12 140 11:34 19.02.2021
2350 Snow 1 1012 93 9000 5.14 130 10:55 19.02.2021
2351 Rain 1 1012 93 9000 5.14 140 10:34 19.02.2021
2352 Mist 1 1012 93 9000 4.63 140 09:58 19.02.2021
2353 Drizzle 1 1012 93 8000 4.63 140 09:28 19.02.2021
2354 Drizzle 1 1012 93 8000 4.63 140 08:55 19.02.2021
2355 Clouds 0 1012 93 9000 4.63 140 08:29 19.02.2021
2356 Mist 0 1012 93 9000 4.12 140 07:57 19.02.2021
2357 Mist 0 1012 93 9000 4.12 140 07:37 19.02.2021
2358 Clouds 0 1012 93 10000 5.14 150 07:19 19.02.2021
2359 Clouds 0 1012 93 10000 5.14 150 06:36 19.02.2021
2360 Clouds 0 1013 93 10000 5.14 150 04:42 19.02.2021
2361 Clouds 0 1015 86 10000 5.14 140 02:44 19.02.2021
2362 Clouds 0 1016 86 10000 4.12 140 01:28 19.02.2021
2363 Clouds 0 1016 86 10000 4.12 140 00:35 19.02.2021
2364 Clouds 0 1016 80 10000 3.6 150 23:45 18.02.2021
2365 Clouds 0 1017 80 10000 4.12 150 23:27 18.02.2021
2366 Clouds -1 1017 86 10000 4.12 150 22:37 18.02.2021
2367 Clouds -1 1017 86 10000 4.12 150 22:18 18.02.2021
2368 Clouds -1 1017 80 10000 3.6 160 21:40 18.02.2021
2369 Clouds -1 1018 80 10000 4.12 160 21:21 18.02.2021
2370 Clouds -2 1018 86 10000 3.6 150 20:39 18.02.2021
2371 Clouds -2 1018 86 10000 3.6 150 20:21 18.02.2021
2372 Clouds -2 1018 86 10000 3.6 160 19:43 18.02.2021
2373 Clouds -2 1019 80 10000 3.6 160 19:20 18.02.2021
2374 Clouds -2 1019 80 10000 3.6 150 18:50 18.02.2021
2375 Clouds -2 1020 80 10000 3.6 150 18:26 18.02.2021
2376 Clouds -2 1020 74 10000 3.6 150 17:49 18.02.2021
2377 Clouds -2 1020 74 10000 4.12 150 17:24 18.02.2021
2378 Clouds -3 1021 80 10000 4.63 160 16:46 18.02.2021
2379 Clouds -3 1021 80 10000 5.66 160 16:28 18.02.2021
2380 Clouds -3 1021 74 10000 5.14 170 15:43 18.02.2021
2381 Clouds -3 1021 74 10000 4.63 170 15:23 18.02.2021
2382 Clouds -3 1022 74 10000 5.14 150 14:53 18.02.2021
2383 Clouds -3 1022 74 10000 5.14 150 14:33 18.02.2021
2384 Clouds -2 1022 69 10000 5.14 180 13:50 18.02.2021
2385 Clouds -2 1022 69 10000 5.14 180 13:50 18.02.2021
2386 Clouds -2 1022 69 10000 5.14 180 13:50 18.02.2021
2387 Clouds -2 1022 69 10000 4.63 170 13:22 18.02.2021
2388 Clouds -2 1023 69 10000 4.12 160 12:55 18.02.2021
2389 Clouds -2 1023 69 10000 4.63 160 12:31 18.02.2021
2390 Clouds -2 1023 69 10000 4.12 160 11:47 18.02.2021
2391 Clouds -2 1023 69 10000 5.14 150 11:28 18.02.2021
2392 Clouds -2 1022 73 10000 2.68 165 10:58 18.02.2021
2393 Clouds -2 1022 73 10000 2.24 172 10:37 18.02.2021
2394 Clouds -2 1023 74 10000 3.09 160 10:18 18.02.2021
2395 Clouds -2 1022 73 10000 0.89 175 09:31 18.02.2021
2396 Clouds -3 1024 74 10000 2.57 140 08:50 18.02.2021
2397 Clouds -3 1024 80 10000 3.09 120 08:31 18.02.2021
2398 Clouds -4 1024 74 10000 2.57 130 07:48 18.02.2021
2399 Clouds -4 1023 80 10000 3.09 110 07:24 18.02.2021
2400 Clouds -4 1023 74 10000 2.57 130 06:18 18.02.2021
2401 Clouds -4 1023 74 10000 2.57 60 00:40 18.02.2021
2402 Clouds -5 1024 74 10000 1.54 0 23:45 17.02.2021
2403 Clouds -6 1024 74 10000 2.06 70 23:18 17.02.2021
2404 Clouds -4 1023 74 10000 3.09 70 22:40 17.02.2021
2405 Clouds -4 1024 80 10000 3.09 60 22:22 17.02.2021
2406 Clouds -4 1023 80 10000 1.54 70 21:45 17.02.2021
2407 Clouds -4 1023 80 10000 2.06 60 21:20 17.02.2021
2408 Clouds -4 1023 74 10000 2.06 60 20:42 17.02.2021
2409 Clouds -4 1023 74 10000 3.6 110 20:23 17.02.2021
2410 Clouds -4 1023 74 10000 3.09 90 19:38 17.02.2021
2411 Clouds -4 1023 68 10000 4.63 120 18:59 17.02.2021
2412 Clouds -4 1023 68 10000 4.63 120 18:40 17.02.2021
2413 Clouds -4 1022 68 10000 4.12 130 17:59 17.02.2021
2414 Clouds -4 1022 68 10000 4.12 130 17:36 17.02.2021
2415 Clouds -4 1022 68 10000 3.09 100 17:18 17.02.2021
2416 Clouds -4 1022 74 10000 4.63 80 16:42 17.02.2021
2417 Clouds -4 1022 74 10000 3.6 120 16:22 17.02.2021
2418 Clouds -4 1022 74 10000 3.6 100 15:43 17.02.2021
2419 Clouds -4 1022 74 10000 5.66 110 15:22 17.02.2021
2420 Clouds -3 1022 74 10000 5.14 110 14:45 17.02.2021
2421 Clouds -4 1022 74 10000 3.6 100 14:26 17.02.2021
2422 Clouds -4 1021 74 10000 4.63 100 13:45 17.02.2021
2423 Snow -4 1021 74 10000 4.63 90 13:24 17.02.2021
2424 Snow -4 1021 74 10000 5.14 90 12:39 17.02.2021
2425 Snow -3 1021 74 10000 4.63 90 12:20 17.02.2021
2426 Clouds -3 1021 80 10000 5.14 100 11:36 17.02.2021
2427 Clouds -3 1021 80 10000 4.63 90 11:18 17.02.2021
2428 Clouds -3 1020 80 10000 5.14 90 10:44 17.02.2021
2429 Clouds -4 1020 80 10000 4.63 90 10:23 17.02.2021
2430 Clouds -4 1020 74 10000 5.14 80 09:44 17.02.2021
2431 Clouds -4 1020 80 10000 4.63 80 09:25 17.02.2021
2432 Clouds -4 1020 74 10000 5.14 90 08:43 17.02.2021
2433 Clouds -4 1019 74 10000 5.66 100 08:22 17.02.2021
2434 Clouds -4 1019 74 10000 5.14 90 07:33 17.02.2021
2435 Clouds -3 1019 80 10000 5.14 70 06:19 17.02.2021
2436 Drizzle -1 1018 93 10000 4.63 70 02:34 17.02.2021
2437 Snow -1 1018 100 2600 4.12 60 01:55 17.02.2021
2438 Snow -2 1018 100 1900 4.12 60 00:33 17.02.2021
2439 Drizzle -2 1018 86 2300 1.54 50 23:55 16.02.2021
2440 Drizzle -2 1018 86 2300 1.54 50 23:36 16.02.2021
2441 Clouds -3 1018 93 10000 0.51 350 22:43 16.02.2021
2442 Clouds -3 1018 86 10000 1.89 50 22:25 16.02.2021
2443 Clouds -3 1018 86 10000 1.54 0 21:54 16.02.2021
2444 Clouds -3 1018 86 10000 1.54 0 21:36 16.02.2021
2445 Clouds -3 1018 86 10000 1.54 340 21:18 16.02.2021
2446 Clouds -3 1018 86 10000 2.06 30 20:41 16.02.2021
2447 Clouds -3 1018 86 10000 1.54 0 20:20 16.02.2021
2448 Clouds -3 1018 86 10000 1.54 360 19:42 16.02.2021
2449 Clouds -3 1018 86 10000 1.54 20 19:23 16.02.2021
2450 Clouds -3 1018 86 10000 1.54 10 18:40 16.02.2021
2451 Clouds -3 1018 86 10000 2.06 10 18:22 16.02.2021
2452 Clouds -3 1018 86 10000 2.06 350 17:52 16.02.2021
2453 Clouds -3 1018 80 10000 1.03 0 17:27 16.02.2021
2454 Clouds -3 1018 80 10000 1.54 360 16:51 16.02.2021
2455 Clouds -2 1018 80 10000 1.54 350 16:29 16.02.2021
2456 Clouds -1 1018 80 10000 1.54 350 15:47 16.02.2021
2457 Clouds -1 1018 80 10000 1.54 0 15:29 16.02.2021
2458 Clouds -1 1018 80 10000 1.54 330 14:55 16.02.2021
2459 Clouds -1 1018 80 10000 1.54 330 14:36 16.02.2021
2460 Clouds -1 1018 80 10000 1.54 310 14:18 16.02.2021
2461 Clouds -2 1019 86 10000 1.54 290 13:37 16.02.2021
2462 Clouds -1 1019 80 10000 2.57 300 12:47 16.02.2021
2463 Clouds -1 1019 74 10000 2.57 290 12:26 16.02.2021
2464 Clouds -2 1019 80 10000 1.54 280 11:55 16.02.2021
2465 Clouds -2 1019 80 10000 1.54 280 11:55 16.02.2021
2466 Clouds -2 1019 80 10000 1.54 280 11:37 16.02.2021
2467 Clouds -2 1017 73 10000 1.54 279 11:18 16.02.2021
2468 Clouds -3 1017 72 10000 1.54 279 10:45 16.02.2021
2469 Clouds -3 1017 73 10000 1.6 254 10:25 16.02.2021
2470 Clouds -6 1020 86 10000 1.6 254 09:48 16.02.2021
2471 Clear -6 1020 86 10000 1.03 0 09:26 16.02.2021
2472 Clear -7 1020 93 10000 2.06 220 08:48 16.02.2021
2473 Clear -7 1019 92 10000 0.51 0 08:26 16.02.2021
2474 Clear -8 1020 92 10000 2.06 210 07:32 16.02.2021
2475 Clouds -9 1020 100 10000 2.37 238 06:25 16.02.2021
2476 Clouds -10 1022 92 10000 2.14 241 02:19 16.02.2021
2477 Clouds -8 1024 100 10000 1.03 230 23:47 15.02.2021
2478 Clouds -8 1024 92 10000 2.06 210 23:26 15.02.2021
2479 Clouds -8 1024 92 10000 1.54 220 22:47 15.02.2021
2480 Clear -7 1025 92 10000 2.06 210 22:26 15.02.2021
2481 Clear -7 1025 92 10000 1.03 0 21:43 15.02.2021
2482 Clear -7 1025 92 10000 0.51 0 21:24 15.02.2021
2483 Clear -7 1026 92 10000 2.42 241 20:53 15.02.2021
2484 Clear -7 1026 92 10000 2.42 241 20:35 15.02.2021
2485 Clear -6 1026 93 10000 0.51 0 19:50 15.02.2021
2486 Clear -6 1026 93 10000 0.51 0 19:50 15.02.2021
2487 Clear -6 1026 86 10000 1.54 200 19:25 15.02.2021
2488 Clear -6 1026 80 10000 1.03 0 18:54 15.02.2021
2489 Clear -5 1026 80 10000 2.06 190 18:27 15.02.2021
2490 Clear -5 1027 80 10000 1.54 180 17:57 15.02.2021
2491 Clear -5 1027 80 10000 1.54 180 17:39 15.02.2021
2492 Clear -4 1027 74 10000 1.54 160 17:20 15.02.2021
2493 Clear -4 1027 74 10000 1.54 160 16:37 15.02.2021
2494 Clear -2 1028 64 10000 1.54 160 16:18 15.02.2021
2495 Clear -2 1028 59 10000 2.06 210 15:42 15.02.2021
2496 Clear -1 1029 59 10000 1.54 0 15:19 15.02.2021
2497 Clear -1 1029 59 10000 2.06 230 14:43 15.02.2021
2498 Clear -2 1029 59 10000 2.57 240 14:20 15.02.2021
2499 Clear -2 1030 59 10000 3.09 240 13:49 15.02.2021
2500 Clear -2 1030 54 10000 3.09 250 13:20 15.02.2021
2501 Clear -2 1030 54 10000 3.09 230 12:45 15.02.2021
2502 Clear -3 1030 50 10000 3.09 230 12:25 15.02.2021
2503 Clear -3 1030 54 10000 2.06 230 11:51 15.02.2021
2504 Clear -4 1031 58 10000 1.54 250 11:23 15.02.2021
2505 Clear -5 1031 58 10000 2.06 240 10:50 15.02.2021
2506 Clear -5 1031 68 10000 1.54 230 10:28 15.02.2021
2507 Clear -5 1031 74 10000 1.54 220 09:57 15.02.2021
2508 Clear -6 1031 74 10000 1.54 220 09:39 15.02.2021
2509 Clear -7 1031 79 10000 1.54 0 09:21 15.02.2021
2510 Clear -7 1031 93 10000 0.51 0 08:20 15.02.2021
2511 Clouds -6 1032 86 10000 1.54 240 06:59 15.02.2021
2512 Clouds -6 1032 86 10000 1.54 240 06:40 15.02.2021
2513 Clouds -6 1033 93 10000 1.44 268 02:47 15.02.2021
2514 Clouds -7 1033 93 10000 1.25 277 01:55 15.02.2021
2515 Clear -8 1033 86 10000 1.03 270 23:59 14.02.2021
2516 Clouds -7 1033 74 10000 2.06 260 23:23 14.02.2021
2517 Clouds -6 1033 74 10000 0.51 330 22:41 14.02.2021
2518 Clear -6 1033 74 10000 1.03 270 22:22 14.02.2021
2519 Clouds -4 1033 59 10000 1.54 280 21:51 14.02.2021
2520 Clouds -2 1033 64 10000 2.06 290 21:29 14.02.2021
2521 Clear -2 1033 64 10000 1.54 290 20:52 14.02.2021
2522 Clear -2 1033 64 10000 1.54 290 20:29 14.02.2021
2523 Clear -2 1033 64 10000 2.57 310 19:49 14.02.2021
2524 Clear -1 1033 59 10000 2.57 300 18:59 14.02.2021
2525 Clear -1 1033 59 10000 2.57 300 18:39 14.02.2021
2526 Clear -2 1033 64 10000 2.57 300 18:20 14.02.2021
2527 Clear -2 1033 69 10000 2.57 300 17:39 14.02.2021
2528 Clear -1 1033 64 10000 3.09 310 16:57 14.02.2021
2529 Clear -1 1033 64 10000 3.09 310 16:38 14.02.2021
2530 Clear -1 1033 64 10000 4.12 310 16:18 14.02.2021
2531 Clear -1 1033 69 10000 3.6 310 15:40 14.02.2021
2532 Clear 0 1033 59 10000 4.12 330 14:51 14.02.2021
2533 Clear 0 1033 64 10000 5.66 320 14:27 14.02.2021
2534 Clear 0 1033 59 10000 5.14 330 13:54 14.02.2021
2535 Clear 0 1032 64 10000 5.14 300 13:30 14.02.2021
2536 Clear 0 1032 74 10000 3.09 310 12:44 14.02.2021
2537 Clear 0 1032 80 10000 3.6 290 12:20 14.02.2021
2538 Clear 0 1032 74 10000 3.6 290 11:50 14.02.2021
2539 Clouds -1 1032 80 10000 2.57 280 11:22 14.02.2021
2540 Clouds -1 1032 80 10000 2.57 290 10:45 14.02.2021
2541 Clouds -3 1032 80 10000 3.09 290 09:57 14.02.2021
2542 Clouds -3 1032 80 10000 3.09 290 09:38 14.02.2021
2543 Clouds -3 1032 80 10000 3.09 280 09:20 14.02.2021
2544 Clouds -3 1031 80 10000 3.09 290 08:39 14.02.2021
2545 Clouds -4 1031 80 10000 3.09 280 07:56 14.02.2021
2546 Clouds -4 1030 80 10000 3.09 280 06:49 14.02.2021
2547 Clouds -5 1030 80 10000 2.57 290 05:41 14.02.2021
2548 Clouds -5 1030 80 10000 3.6 280 03:31 14.02.2021
2549 Clouds -5 1030 80 10000 2.06 270 01:57 14.02.2021
2550 Clouds -4 1030 74 10000 4.12 270 00:47 14.02.2021
2551 Clouds -4 1031 68 10000 4.12 270 00:22 14.02.2021
2552 Clouds -4 1031 68 10000 4.12 270 23:40 13.02.2021
2553 Clouds -4 1031 68 10000 4.63 280 23:20 13.02.2021
2554 Clouds -4 1031 68 10000 4.63 280 22:41 13.02.2021
2555 Clouds -4 1031 68 10000 4.12 290 22:18 13.02.2021
2556 Clouds -4 1031 68 10000 4.63 290 21:42 13.02.2021
2557 Clouds -4 1031 63 10000 3.6 290 20:53 13.02.2021
2558 Clear -4 1031 63 10000 4.12 290 20:29 13.02.2021
2559 Clear -3 1031 63 10000 4.63 280 19:51 13.02.2021
2560 Clear -3 1031 63 10000 4.63 280 19:25 13.02.2021
2561 Clear -3 1031 63 10000 4.12 280 18:54 13.02.2021
2562 Clear -3 1031 63 10000 4.12 280 18:34 13.02.2021
2563 Clear -3 1031 59 10000 4.63 280 17:55 13.02.2021
2564 Clear -3 1031 59 10000 5.14 280 17:36 13.02.2021
2565 Clear -3 1031 59 10000 5.14 280 17:18 13.02.2021
2566 Clear -3 1031 59 10000 5.14 280 16:42 13.02.2021
2567 Clear -2 1031 59 10000 4.63 270 15:58 13.02.2021
2568 Clear -2 1032 59 10000 4.63 270 15:27 13.02.2021
2569 Clear -2 1032 59 10000 4.63 270 14:42 13.02.2021
2570 Clear -2 1032 59 10000 4.63 280 14:24 13.02.2021
2571 Clear -3 1032 59 10000 6.69 280 13:44 13.02.2021
2572 Clear -3 1033 59 10000 6.17 280 13:23 13.02.2021
2573 Clear -4 1033 63 10000 5.66 290 12:38 13.02.2021
2574 Clear -4 1033 58 10000 4.63 280 12:18 13.02.2021
2575 Clear -5 1033 58 10000 4.63 280 11:40 13.02.2021
2576 Clear -6 1033 63 10000 5.14 280 11:18 13.02.2021
2577 Clear -6 1033 58 10000 5.14 280 10:44 13.02.2021
2578 Clear -7 1033 63 10000 4.63 280 10:23 13.02.2021
2579 Clear -7 1033 62 10000 4.12 280 09:50 13.02.2021
2580 Clear -8 1034 67 10000 3.09 280 09:29 13.02.2021
2581 Clear -9 1034 67 10000 2.57 280 08:52 13.02.2021
2582 Clear -9 1034 67 10000 2.57 280 08:26 13.02.2021
2583 Clear -9 1034 67 10000 2.57 280 07:45 13.02.2021
2584 Clear -9 1034 73 10000 4.63 280 06:35 13.02.2021
2585 Clear -8 1034 73 10000 4.12 280 05:18 13.02.2021
2586 Clear -7 1034 73 10000 3.09 290 03:44 13.02.2021
2587 Clear -6 1035 79 10000 3.09 290 01:25 13.02.2021
2588 Clear -6 1035 86 10000 2.06 260 00:19 13.02.2021
2589 Clear -5 1035 86 10000 2.06 280 23:46 12.02.2021
2590 Clear -5 1035 80 10000 2.06 270 23:20 12.02.2021
2591 Clear -5 1035 80 10000 2.06 270 22:37 12.02.2021
2592 Clear -5 1035 86 10000 3.09 280 22:18 12.02.2021
2593 Clear -5 1035 86 10000 3.09 280 21:42 12.02.2021
2594 Clear -5 1034 86 10000 3.09 280 21:22 12.02.2021
2595 Clear -5 1034 86 10000 3.09 280 20:45 12.02.2021
2596 Clear -5 1034 80 10000 3.09 290 20:26 12.02.2021
2597 Clear -5 1034 86 10000 2.57 280 19:55 12.02.2021
2598 Clear -5 1034 86 10000 2.06 280 19:29 12.02.2021
2599 Clear -5 1034 80 10000 2.57 280 18:38 12.02.2021
2600 Clear -5 1035 80 10000 2.57 280 18:18 12.02.2021
2601 Clear -5 1035 80 10000 2.57 280 17:41 12.02.2021
2602 Clear -4 1034 74 10000 2.57 270 16:54 12.02.2021
2603 Clear -3 1034 80 10000 2.57 270 16:18 12.02.2021
2604 Clouds -3 1034 80 10000 3.09 280 15:43 12.02.2021
2605 Clouds -3 1034 80 10000 3.6 290 15:20 12.02.2021
2606 Clouds -3 1034 80 10000 3.6 290 14:37 12.02.2021
2607 Clouds -3 1034 86 10000 3.6 280 13:51 12.02.2021
2608 Clouds -4 1034 80 10000 3.09 290 13:32 12.02.2021
2609 Clouds -4 1034 86 10000 3.09 280 12:55 12.02.2021
2610 Clouds -4 1034 86 10000 3.09 280 12:36 12.02.2021
2611 Clouds -5 1034 86 10000 2.57 300 11:48 12.02.2021
2612 Clouds -6 1034 86 10000 3.09 290 11:22 12.02.2021
2613 Clouds -6 1034 86 10000 1.54 280 10:51 12.02.2021
2614 Clouds -7 1034 86 10000 1.54 260 10:33 12.02.2021
2615 Clouds -8 1034 92 10000 2.06 280 09:43 12.02.2021
2616 Clouds -9 1034 92 10000 1.03 270 09:24 12.02.2021
2617 Clouds -10 1034 85 10000 1.54 270 08:47 12.02.2021
2618 Clear -11 1033 92 10000 1.03 240 08:27 12.02.2021
2619 Clouds -11 1033 92 10000 1.54 270 07:53 12.02.2021
2620 Clouds -12 1033 92 10000 1.54 280 07:27 12.02.2021
2621 Clouds -11 1033 85 10000 1.54 290 06:54 12.02.2021
2622 Clouds -12 1033 85 10000 2.57 280 05:39 12.02.2021
2623 Clouds -12 1034 92 10000 1.54 270 03:48 12.02.2021
2624 Clouds -12 1035 85 10000 3.09 290 00:47 12.02.2021
2625 Clouds -12 1034 92 10000 1.54 240 23:39 11.02.2021
2626 Clouds -11 1034 85 10000 1.54 270 23:20 11.02.2021
2627 Clouds -11 1034 85 10000 2.06 270 22:44 11.02.2021
2628 Clear -11 1034 85 10000 2.57 300 22:23 11.02.2021
2629 Clear -11 1034 92 10000 2.06 300 21:46 11.02.2021
2630 Clouds -11 1034 92 10000 2.06 290 21:26 11.02.2021
2631 Clouds -11 1033 92 10000 2.06 270 20:58 11.02.2021
2632 Clouds -11 1033 92 10000 2.06 270 20:39 11.02.2021
2633 Clouds -11 1033 92 10000 1.54 270 20:21 11.02.2021
2634 Clear -10 1033 92 10000 1.03 270 19:47 11.02.2021
2635 Clear -10 1033 92 10000 2.06 270 19:26 11.02.2021
2636 Clouds -9 1033 92 10000 1.54 270 18:45 11.02.2021
2637 Clear -9 1033 92 10000 1.54 290 18:24 11.02.2021
2638 Clear -9 1033 92 10000 2.06 290 17:49 11.02.2021
2639 Snow -9 1033 86 10000 3.09 290 17:21 11.02.2021
2640 Snow -8 1032 92 10000 2.57 300 16:47 11.02.2021
2641 Snow -8 1032 86 10000 3.6 330 16:29 11.02.2021
2642 Snow -8 1032 86 10000 4.63 320 15:48 11.02.2021
2643 Snow -7 1032 86 10000 4.12 330 15:26 11.02.2021
2644 Snow -6 1031 86 10000 3.6 300 14:58 11.02.2021
2645 Snow -6 1031 86 10000 2.57 310 14:32 11.02.2021
2646 Clouds -6 1031 79 10000 2.06 310 13:45 11.02.2021
2647 Clouds -6 1031 79 10000 2.06 310 13:45 11.02.2021
2648 Clouds -7 1031 86 10000 2.57 300 13:21 11.02.2021
2649 Clouds -7 1031 86 10000 2.57 310 12:58 11.02.2021
2650 Clouds -7 1031 86 10000 2.57 310 12:36 11.02.2021
2651 Clouds -8 1031 86 10000 3.09 310 11:57 11.02.2021
2652 Clouds -9 1031 86 10000 3.09 310 11:39 11.02.2021
2653 Clouds -9 1030 92 10000 2.06 320 11:18 11.02.2021
2654 Clouds -10 1030 85 10000 1.54 330 10:39 11.02.2021
2655 Clear -10 1030 85 10000 1.54 290 10:21 11.02.2021
2656 Clear -11 1030 92 10000 1.54 290 09:41 11.02.2021
2657 Clear -12 1030 92 10000 1.54 290 09:19 11.02.2021
2658 Clear -12 1030 92 10000 1.54 290 09:19 11.02.2021
2659 Clear -12 1029 85 10000 1.54 290 08:46 11.02.2021
2660 Clouds -12 1029 92 10000 1.03 270 07:53 11.02.2021
2661 Clouds -12 1028 92 10000 1.03 0 06:46 11.02.2021
2662 Clouds -12 1027 92 10000 2.06 300 06:23 11.02.2021
2663 Clouds -10 1026 92 10000 2.57 330 03:46 11.02.2021
2664 Clouds -9 1026 92 10000 2.57 350 02:25 11.02.2021
2665 Rain -6 1025 100 8000 3.09 360 00:24 11.02.2021
2666 Rain -6 1025 100 8000 3.09 360 00:24 11.02.2021
2667 Drizzle -6 1024 93 9000 2.57 360 23:54 10.02.2021
2668 Snow -6 1024 93 5000 2.57 360 23:20 10.02.2021
2669 Snow -6 1023 93 2300 2.57 10 22:44 10.02.2021
2670 Snow -6 1023 93 2000 3.09 10 22:24 10.02.2021
2671 Snow -7 1022 100 6000 2.57 10 21:40 10.02.2021
2672 Snow -6 1022 93 2000 2.06 10 21:21 10.02.2021
2673 Snow -7 1022 100 5000 1.54 10 20:52 10.02.2021
2674 Snow -7 1021 93 6000 2.06 310 20:29 10.02.2021
2675 Snow -7 1021 93 6000 2.06 340 19:57 10.02.2021
2676 Snow -7 1021 93 10000 2.06 340 19:39 10.02.2021
2677 Snow -7 1021 93 10000 2.06 340 19:18 10.02.2021
2678 Snow -6 1021 86 10000 2.57 340 18:36 10.02.2021
2679 Snow -6 1020 86 10000 3.09 340 18:18 10.02.2021
2680 Snow -6 1020 86 10000 3.09 350 17:44 10.02.2021
2681 Clouds -6 1020 86 10000 3.09 350 17:20 10.02.2021
2682 Clouds -6 1020 86 10000 3.09 350 16:46 10.02.2021
2683 Clouds -6 1019 86 10000 3.09 360 16:25 10.02.2021
2684 Clouds -6 1019 86 10000 3.09 360 15:39 10.02.2021
2685 Snow -5 1019 79 10000 3.09 360 15:21 10.02.2021
2686 Clouds -6 1019 79 10000 2.57 360 14:39 10.02.2021
2687 Clouds -5 1019 73 10000 2.57 350 13:55 10.02.2021
2688 Snow -5 1019 68 10000 2.57 10 13:31 10.02.2021
2689 Clear -5 1019 73 10000 2.57 360 12:56 10.02.2021
2690 Clear -6 1019 73 10000 2.57 360 12:37 10.02.2021
2691 Clear -6 1018 73 10000 2.57 360 12:18 10.02.2021
2692 Clear -6 1018 73 10000 2.57 350 11:41 10.02.2021
2693 Clear -7 1018 79 10000 1.54 350 11:22 10.02.2021
2694 Clear -7 1018 79 10000 2.57 340 10:40 10.02.2021
2695 Clear -9 1018 85 10000 1.03 0 10:18 10.02.2021
2696 Clear -9 1018 85 10000 1.03 300 09:37 10.02.2021
2697 Clear -10 1018 85 10000 1.54 300 09:18 10.02.2021
2698 Clear -10 1018 85 10000 1.54 290 08:42 10.02.2021
2699 Clear -11 1017 85 10000 1.03 0 07:53 10.02.2021
2700 Clear -11 1017 92 10000 1.54 300 06:59 10.02.2021
2701 Clouds -12 1017 85 10000 0.51 310 03:43 10.02.2021
2702 Clouds -11 1018 92 10000 1.03 310 00:31 10.02.2021
2703 Clouds -11 1018 92 10000 2.06 10 23:35 09.02.2021
2704 Clouds -10 1018 79 10000 2.06 360 22:54 09.02.2021
2705 Clear -11 1018 85 10000 1.54 10 22:24 09.02.2021
2706 Clouds -10 1018 79 10000 2.06 360 21:52 09.02.2021
2707 Clouds -10 1018 79 10000 2.06 360 21:33 09.02.2021
2708 Clear -10 1018 79 10000 2.57 10 20:50 09.02.2021
2709 Clear -10 1018 79 10000 2.06 10 20:27 09.02.2021
2710 Clear -10 1018 79 10000 2.57 10 19:59 09.02.2021
2711 Clear -10 1018 79 10000 2.57 10 19:39 09.02.2021
2712 Clear -9 1018 79 10000 2.57 10 19:00 09.02.2021
2713 Clear -9 1018 79 10000 2.57 10 18:39 09.02.2021
2714 Clouds -8 1018 73 10000 2.57 360 17:58 09.02.2021
2715 Clouds -7 1018 73 10000 2.57 360 17:40 09.02.2021
2716 Clouds -7 1018 73 10000 2.57 360 17:21 09.02.2021
2717 Clouds -7 1018 73 10000 2.06 10 16:42 09.02.2021
2718 Clouds -6 1018 73 10000 3.09 360 16:19 09.02.2021
2719 Clouds -6 1018 73 10000 3.09 10 15:50 09.02.2021
2720 Clouds -5 1018 68 10000 4.12 20 15:26 09.02.2021
2721 Snow -5 1018 74 7000 4.63 20 14:55 09.02.2021
2722 Snow -5 1019 74 10000 3.6 20 14:28 09.02.2021
2723 Snow -5 1019 79 10000 4.12 40 13:52 09.02.2021
2724 Snow -5 1019 79 7000 3.6 30 13:26 09.02.2021
2725 Snow -5 1019 79 10000 3.6 30 12:54 09.02.2021
2726 Snow -5 1019 79 10000 3.6 30 12:36 09.02.2021
2727 Clouds -5 1019 86 10000 4.12 40 11:58 09.02.2021
2728 Clouds -6 1019 86 10000 4.12 40 11:39 09.02.2021
2729 Clouds -6 1019 86 10000 3.09 30 11:20 09.02.2021
2730 Clouds -6 1019 86 10000 3.09 30 11:20 09.02.2021
2731 Snow -5 1019 86 10000 4.12 20 10:50 09.02.2021
2732 Snow -6 1019 86 10000 3.6 30 10:19 09.02.2021
2733 Snow -7 1019 86 10000 3.6 20 09:43 09.02.2021
2734 Snow -7 1019 86 10000 3.6 30 09:25 09.02.2021
2735 Snow -7 1019 86 4600 3.09 30 08:47 09.02.2021
2736 Snow -7 1019 86 10000 3.09 30 08:26 09.02.2021
2737 Clouds -8 1019 79 10000 3.6 30 06:55 09.02.2021
2738 Clouds -8 1019 79 10000 2.57 20 04:53 09.02.2021
2739 Clouds -9 1020 86 10000 2.57 20 03:41 09.02.2021
2740 Clouds -8 1020 86 10000 2.57 30 00:44 09.02.2021
2741 Clouds -8 1021 86 10000 3.09 30 23:57 08.02.2021
2742 Snow -8 1021 86 9000 3.6 20 23:22 08.02.2021
2743 Clouds -8 1021 86 10000 2.57 30 22:44 08.02.2021
2744 Clouds -8 1021 86 10000 3.09 20 22:26 08.02.2021
2745 Clouds -8 1021 86 10000 2.57 30 21:58 08.02.2021
2746 Clouds -8 1021 86 10000 2.57 30 21:36 08.02.2021
2747 Snow -7 1021 86 10000 3.09 20 21:18 08.02.2021
2748 Snow -7 1021 86 10000 3.09 20 20:42 08.02.2021
2749 Clouds -7 1021 86 10000 3.09 20 20:21 08.02.2021
2750 Snow -6 1022 79 10000 2.57 20 19:45 08.02.2021
2751 Snow -6 1022 79 10000 2.57 20 19:26 08.02.2021
2752 Clouds -7 1022 86 10000 3.09 20 18:49 08.02.2021
2753 Clouds -7 1022 86 10000 3.09 10 18:24 08.02.2021
2754 Clear -7 1022 86 10000 3.6 10 17:47 08.02.2021
2755 Clear -7 1022 86 10000 2.57 10 17:26 08.02.2021
2756 Clear -6 1022 79 10000 2.57 20 16:47 08.02.2021
2757 Clear -6 1022 79 10000 3.09 30 16:23 08.02.2021
2758 Clouds -5 1022 80 10000 4.63 40 15:49 08.02.2021
2759 Clouds -4 1022 80 10000 4.63 50 15:21 08.02.2021
2760 Clouds -4 1022 80 10000 3.6 30 14:59 08.02.2021
2761 Clouds -4 1022 80 10000 3.6 30 14:41 08.02.2021
2762 Clouds -4 1022 80 10000 4.12 20 14:22 08.02.2021
2763 Clear -4 1023 80 10000 4.12 10 13:42 08.02.2021
2764 Clear -4 1023 80 10000 2.57 350 13:23 08.02.2021
2765 Clear -4 1023 80 10000 1.54 10 12:38 08.02.2021
2766 Clear -4 1024 93 10000 1.54 0 11:58 08.02.2021
2767 Clear -5 1024 93 10000 2.06 360 11:32 08.02.2021
2768 Clouds -5 1024 93 10000 1.54 340 10:46 08.02.2021
2769 Clouds -7 1024 100 10000 1.03 290 10:25 08.02.2021
2770 Clouds -7 1024 93 10000 0.51 290 09:55 08.02.2021
2771 Clouds -8 1024 93 10000 0.51 290 09:36 08.02.2021
2772 Snow -9 1023 92 10000 1.03 330 08:54 08.02.2021
2773 Clouds -10 1023 100 10000 1.03 340 08:24 08.02.2021
2774 Clouds -9 1024 92 10000 2.28 14 07:38 08.02.2021
2775 Mist -9 1023 100 4000 1.03 330 06:33 08.02.2021
2776 Clouds -12 1024 92 10000 1.54 330 04:54 08.02.2021
2777 Snow -10 1024 92 350 2.72 343 02:26 08.02.2021
2778 Clouds -11 1024 92 10000 1.54 310 00:24 08.02.2021
2779 Clouds -11 1025 92 10000 1.03 290 23:53 07.02.2021
2780 Clouds -10 1025 100 10000 1.54 270 23:28 07.02.2021
2781 Clouds -11 1025 92 10000 1.54 270 22:56 07.02.2021
2782 Clouds -10 1025 92 10000 1.54 270 22:37 07.02.2021
2783 Clouds -10 1025 92 10000 1.54 270 22:19 07.02.2021
2784 Clear -10 1025 92 10000 1.54 270 21:49 07.02.2021
2785 Clouds -9 1025 92 10000 1.54 260 21:22 07.02.2021
2786 Clouds -8 1025 93 10000 2.57 270 20:49 07.02.2021
2787 Clouds -8 1025 93 10000 2.06 270 20:27 07.02.2021
2788 Clouds -7 1025 93 10000 2.06 280 19:45 07.02.2021
2789 Clouds -7 1025 93 10000 1.54 300 19:27 07.02.2021
2790 Clouds -6 1026 93 10000 2.57 310 18:44 07.02.2021
2791 Clouds -6 1026 86 10000 3.09 320 18:26 07.02.2021
2792 Clouds -6 1026 86 10000 3.09 310 17:45 07.02.2021
2793 Snow -6 1026 93 10000 3.6 320 17:23 07.02.2021
2794 Clouds -6 1026 93 10000 2.57 310 16:59 07.02.2021
2795 Clouds -6 1026 93 10000 2.57 310 16:41 07.02.2021
2796 Clouds -6 1026 93 10000 2.57 320 16:20 07.02.2021
2797 Clouds -5 1026 86 10000 3.09 320 15:44 07.02.2021
2798 Clouds -5 1026 86 10000 3.6 340 15:21 07.02.2021
2799 Clouds -5 1027 93 10000 2.57 320 14:44 07.02.2021
2800 Clouds -4 1027 86 10000 3.6 320 14:26 07.02.2021
2801 Clouds -5 1027 93 10000 3.09 320 13:45 07.02.2021
2802 Snow -5 1027 93 9000 3.6 310 13:26 07.02.2021
2803 Clouds -5 1027 93 10000 1.54 290 12:40 07.02.2021
2804 Clouds -5 1027 93 10000 2.06 290 12:21 07.02.2021
2805 Clouds -6 1027 93 10000 2.57 290 11:43 07.02.2021
2806 Snow -6 1028 93 10000 2.06 290 11:24 07.02.2021
2807 Snow -8 1028 100 10000 1.54 0 10:31 07.02.2021
2808 Snow -8 1028 92 10000 1.54 280 09:57 07.02.2021
2809 Snow -8 1028 92 10000 1.54 280 09:39 07.02.2021
2810 Clouds -10 1028 92 10000 1.54 250 09:20 07.02.2021
2811 Clouds -11 1028 92 10000 1.03 290 08:19 07.02.2021
2812 Clouds -9 1028 92 10000 1.54 270 06:33 07.02.2021
2813 Clouds -9 1028 92 10000 1.54 330 05:56 07.02.2021
2814 Clouds -9 1027 100 10000 2.06 360 02:53 07.02.2021
2815 Clouds -6 1027 93 10000 3.09 340 00:58 07.02.2021
2816 Clouds -6 1027 93 10000 3.09 340 00:28 07.02.2021
2817 Clouds -6 1026 93 10000 3.6 310 23:32 06.02.2021
2818 Snow -6 1026 93 10000 3.6 300 22:31 06.02.2021
2819 Clouds -6 1026 86 10000 4.12 280 21:39 06.02.2021
2820 Clouds -6 1026 86 10000 3.6 290 21:20 06.02.2021
2821 Clouds -7 1026 86 10000 4.12 290 20:45 06.02.2021
2822 Clouds -7 1026 93 10000 3.6 290 20:23 06.02.2021
2823 Snow -7 1027 86 10000 3.09 290 19:55 06.02.2021
2824 Clouds -7 1027 86 10000 3.09 290 19:28 06.02.2021
2825 Drizzle -7 1027 86 10000 3.6 280 18:46 06.02.2021
2826 Clouds -7 1027 86 10000 2.57 270 18:27 06.02.2021
2827 Clouds -7 1027 86 10000 2.57 290 17:44 06.02.2021
2828 Clear -7 1027 86 10000 2.57 280 17:22 06.02.2021
2829 Clear -7 1027 86 10000 2.57 270 16:58 06.02.2021
2830 Clear -7 1027 86 10000 2.57 270 16:37 06.02.2021
2831 Clear -7 1027 79 10000 3.09 280 16:19 06.02.2021
2832 Clouds -6 1028 73 10000 3.6 270 15:40 06.02.2021
2833 Clear -6 1028 79 10000 3.09 270 15:19 06.02.2021
2834 Clear -5 1028 73 10000 2.57 310 14:44 06.02.2021
2835 Clear -5 1028 73 10000 3.6 320 14:23 06.02.2021
2836 Clouds -5 1028 73 10000 4.12 310 13:47 06.02.2021
2837 Clouds -5 1028 79 10000 4.12 300 12:56 06.02.2021
2838 Clouds -5 1028 79 10000 4.12 310 12:21 06.02.2021
2839 Clouds -6 1029 79 10000 5.14 320 11:47 06.02.2021
2840 Clouds -7 1029 86 10000 5.14 330 11:22 06.02.2021
2841 Clear -7 1029 93 10000 4.12 320 10:56 06.02.2021
2842 Clear -8 1029 86 10000 4.63 320 10:28 06.02.2021
2843 Clear -8 1029 92 10000 4.12 310 09:56 06.02.2021
2844 Clear -9 1029 92 10000 4.12 310 09:36 06.02.2021
2845 Clear -9 1029 86 10000 3.6 300 09:18 06.02.2021
2846 Clear -10 1029 92 10000 2.57 300 08:33 06.02.2021
2847 Clouds -9 1028 86 10000 2.57 290 07:56 06.02.2021
2848 Clouds -10 1029 92 10000 1.54 320 05:43 06.02.2021
2849 Snow -10 1029 92 5000 2.06 340 03:56 06.02.2021
2850 Clouds -9 1028 86 10000 3.09 350 01:42 06.02.2021
2851 Clouds -9 1027 100 10000 2.57 340 00:47 06.02.2021
2852 Clouds -9 1027 100 10000 2.06 340 00:19 06.02.2021
2853 Clouds -9 1027 92 10000 1.54 310 23:42 05.02.2021
2854 Snow -8 1027 100 6000 1.54 300 23:24 05.02.2021
2855 Snow -9 1027 92 10000 1.03 0 22:47 05.02.2021
2856 Snow -9 1026 92 10000 2.57 290 22:20 05.02.2021
2857 Snow -9 1026 100 10000 2.57 280 21:45 05.02.2021
2858 Snow -10 1026 92 9000 1.54 280 21:26 05.02.2021
2859 Snow -10 1026 92 10000 1.54 280 20:45 05.02.2021
2860 Clear -9 1026 92 10000 1.54 290 19:52 05.02.2021
2861 Clear -9 1026 92 10000 2.06 300 19:20 05.02.2021
2862 Clear -8 1026 92 10000 2.06 310 18:53 05.02.2021
2863 Clear -8 1026 100 10000 2.06 300 18:23 05.02.2021
2864 Clear -8 1026 100 10000 2.06 300 17:44 05.02.2021
2865 Clouds -8 1026 93 10000 2.06 300 17:22 05.02.2021
2866 Clouds -7 1026 86 10000 2.57 290 16:49 05.02.2021
2867 Snow -7 1026 86 10000 2.57 310 16:24 05.02.2021
2868 Snow -6 1026 93 10000 3.6 310 15:57 05.02.2021
2869 Clouds -6 1026 86 10000 2.57 320 15:26 05.02.2021
2870 Clouds -5 1026 86 10000 3.09 310 14:41 05.02.2021
2871 Snow -5 1026 93 5000 4.12 320 14:23 05.02.2021
2872 Snow -5 1026 86 10000 3.6 320 13:59 05.02.2021
2873 Snow -6 1026 86 10000 3.6 320 13:37 05.02.2021
2874 Snow -6 1025 86 6000 3.6 310 12:56 05.02.2021
2875 Snow -6 1025 86 6000 3.6 310 12:37 05.02.2021
2876 Clear -6 1025 86 10000 3.09 320 11:42 05.02.2021
2877 Clear -6 1025 86 10000 3.09 310 11:22 05.02.2021
2878 Clear -7 1025 86 10000 2.57 310 10:59 05.02.2021
2879 Clear -7 1025 86 10000 2.06 320 10:27 05.02.2021
2880 Clear -8 1024 92 10000 2.06 320 09:48 05.02.2021
2881 Clear -9 1024 92 10000 2.57 330 09:29 05.02.2021
2882 Clear -10 1024 92 10000 2.57 300 08:58 05.02.2021
2883 Clear -10 1023 92 10000 2.57 290 08:28 05.02.2021
2884 Clear -9 1023 92 10000 2.57 300 07:38 05.02.2021
2885 Clouds -9 1022 92 10000 2.57 320 06:57 05.02.2021
2886 Clouds -10 1022 92 10000 2.57 300 05:38 05.02.2021
2887 Clouds -11 1021 100 10000 2.06 290 03:23 05.02.2021
2888 Clouds -11 1021 92 10000 2.57 280 02:25 05.02.2021
2889 Clouds -11 1021 92 10000 2.57 280 00:41 05.02.2021
2890 Clouds -11 1021 92 10000 3.09 290 00:21 05.02.2021
2891 Clouds -10 1021 92 10000 3.09 280 23:59 04.02.2021
2892 Clouds -10 1021 92 10000 3.09 280 23:59 04.02.2021
2893 Clouds -10 1021 92 10000 3.09 280 23:39 04.02.2021
2894 Clouds -10 1021 92 10000 3.09 290 23:20 04.02.2021
2895 Snow -10 1021 92 10000 4.12 290 22:51 04.02.2021
2896 Snow -9 1021 92 3000 4.12 290 22:27 04.02.2021
2897 Snow -9 1021 92 10000 4.12 290 21:42 04.02.2021
2898 Clouds -9 1020 86 10000 4.12 280 21:21 04.02.2021
2899 Clouds -9 1020 86 10000 4.63 290 20:53 04.02.2021
2900 Clouds -8 1020 86 10000 4.12 270 20:34 04.02.2021
2901 Clouds -9 1020 86 10000 4.12 290 19:47 04.02.2021
2902 Clouds -9 1020 92 10000 4.63 280 18:59 04.02.2021
2903 Clouds -9 1020 92 10000 4.63 280 18:36 04.02.2021
2904 Clouds -9 1020 86 10000 4.12 290 18:18 04.02.2021
2905 Clouds -9 1020 86 10000 5.66 280 17:41 04.02.2021
2906 Clouds -8 1020 86 10000 4.63 300 17:20 04.02.2021
2907 Clouds -8 1020 86 10000 4.63 310 16:41 04.02.2021
2908 Clouds -8 1019 86 10000 3.6 300 16:19 04.02.2021
2909 Clouds -8 1019 86 10000 4.63 290 15:40 04.02.2021
2910 Clouds -8 1019 86 10000 4.63 290 15:21 04.02.2021
2911 Clouds -7 1019 86 10000 5.14 300 14:49 04.02.2021
2912 Clouds -7 1019 86 10000 5.14 290 14:21 04.02.2021
2913 Clouds -7 1019 86 10000 5.14 310 13:56 04.02.2021
2914 Clouds -7 1019 86 10000 5.14 310 13:36 04.02.2021
2915 Clouds -7 1019 86 10000 5.14 310 12:57 04.02.2021
2916 Snow -7 1018 86 4600 5.14 320 12:20 04.02.2021
2917 Snow -7 1018 86 10000 4.12 310 11:38 04.02.2021
2918 Snow -7 1018 86 10000 5.66 310 11:20 04.02.2021
2919 Snow -8 1018 86 10000 4.63 320 10:43 04.02.2021
2920 Snow -9 1017 92 10000 4.63 320 09:56 04.02.2021
2921 Snow -8 1017 92 10000 4.63 320 09:37 04.02.2021
2922 Snow -9 1017 92 10000 4.63 310 09:18 04.02.2021
2923 Snow -9 1016 86 10000 4.12 320 08:37 04.02.2021
2924 Clouds -9 1016 86 10000 4.63 310 08:18 04.02.2021
2925 Snow -9 1015 92 10000 4.12 320 07:38 04.02.2021
2926 Snow -9 1015 86 10000 4.12 310 06:54 04.02.2021
2927 Snow -9 1015 86 10000 4.12 310 06:35 04.02.2021
2928 Clouds -9 1013 92 10000 3.09 310 03:52 04.02.2021
2929 Snow -8 1013 92 10000 3.6 300 02:24 04.02.2021
2930 Snow -7 1012 93 9000 3.09 320 00:35 04.02.2021
2931 Snow -7 1012 86 10000 4.12 310 23:39 03.02.2021
2932 Snow -7 1012 93 10000 3.6 330 22:43 03.02.2021
2933 Snow -7 1011 93 10000 3.6 320 22:22 03.02.2021
2934 Snow -7 1011 93 9000 4.12 310 21:57 03.02.2021
2935 Snow -7 1011 93 9000 4.12 310 21:36 03.02.2021
2936 Snow -7 1011 93 9000 4.63 310 21:18 03.02.2021
2937 Snow -7 1011 93 5000 4.63 320 20:43 03.02.2021
2938 Snow -7 1011 93 9000 3.09 320 20:24 03.02.2021
2939 Snow -7 1010 86 10000 2.57 310 19:43 03.02.2021
2940 Snow -7 1010 86 9000 3.09 320 19:21 03.02.2021
2941 Snow -7 1010 86 10000 3.6 310 18:48 03.02.2021
2942 Snow -7 1010 93 10000 4.12 310 18:20 03.02.2021
2943 Snow -7 1010 93 10000 4.12 310 17:51 03.02.2021
2944 Snow -7 1010 93 9000 3.6 320 17:30 03.02.2021
2945 Snow -6 1010 86 10000 4.63 310 16:56 03.02.2021
2946 Clouds -6 1009 93 9000 4.12 310 16:30 03.02.2021
2947 Snow -6 1009 86 10000 4.12 320 15:46 03.02.2021
2948 Snow -6 1009 86 5000 4.12 320 15:25 03.02.2021
2949 Clouds -6 1009 86 10000 4.63 320 14:53 03.02.2021
2950 Snow -6 1009 86 7000 4.63 310 14:26 03.02.2021
2951 Clouds -5 1009 86 10000 5.14 310 13:54 03.02.2021
2952 Snow -6 1009 86 9000 4.63 310 13:28 03.02.2021
2953 Clouds -5 1009 86 10000 3.6 310 12:49 03.02.2021
2954 Clouds -6 1009 93 10000 4.63 300 12:27 03.02.2021
2955 Clouds -6 1009 86 10000 3.6 300 11:55 03.02.2021
2956 Clouds -7 1008 93 10000 3.09 310 11:36 03.02.2021
2957 Clouds -6 1008 86 10000 4.12 310 10:58 03.02.2021
2958 Snow -7 1008 86 7000 4.63 310 10:23 03.02.2021
2959 Snow -7 1008 86 9000 4.12 310 09:48 03.02.2021
2960 Snow -7 1008 86 8000 3.6 300 09:29 03.02.2021
2961 Snow -7 1008 86 10000 3.6 300 08:54 03.02.2021
2962 Snow -7 1008 86 10000 3.6 300 08:54 03.02.2021
2963 Snow -7 1008 86 10000 3.6 300 08:34 03.02.2021
2964 Snow -6 1007 93 10000 4.12 290 07:42 03.02.2021
2965 Clouds -6 1006 93 10000 4.63 300 06:41 03.02.2021
2966 Snow -5 1006 93 10000 4.12 340 04:55 03.02.2021
2967 Clouds -4 1006 86 10000 3.6 330 04:32 03.02.2021
2968 Clouds -4 1005 86 10000 4.63 340 03:39 03.02.2021
2969 Clouds -4 1005 86 10000 4.63 340 02:37 03.02.2021
2970 Snow -4 1005 93 10000 5.14 350 00:56 03.02.2021
2971 Snow -3 1004 86 10000 5.14 350 23:59 02.02.2021
2972 Snow -3 1004 86 10000 5.14 350 23:40 02.02.2021
2973 Snow -3 1004 93 10000 4.63 360 23:22 02.02.2021
2974 Snow -3 1004 93 10000 3.6 360 22:36 02.02.2021
2975 Snow -3 1003 93 10000 4.12 10 22:18 02.02.2021
2976 Snow -3 1003 100 10000 4.12 10 21:39 02.02.2021
2977 Snow -3 1003 100 10000 4.12 10 21:19 02.02.2021
2978 Snow -3 1003 100 6000 4.63 10 20:44 02.02.2021
2979 Snow -2 1002 93 1600 4.63 20 20:20 02.02.2021
2980 Snow -2 1002 93 10000 4.63 20 19:48 02.02.2021
2981 Snow -2 1002 93 6000 3.6 20 19:29 02.02.2021
2982 Snow -2 1002 100 1000 3.6 10 18:46 02.02.2021
2983 Snow -2 1002 93 1000 3.6 30 18:26 02.02.2021
2984 Snow -2 1002 100 250 3.09 20 17:51 02.02.2021
2985 Snow -2 1002 100 400 3.6 30 17:24 02.02.2021
2986 Snow -2 1001 100 600 4.63 30 16:58 02.02.2021
2987 Snow -1 1001 100 600 4.63 30 16:38 02.02.2021
2988 Snow -1 1001 100 1000 4.63 30 16:18 02.02.2021
2989 Snow -1 1001 93 4000 4.12 20 15:42 02.02.2021
2990 Snow -1 1001 93 4000 4.63 30 15:21 02.02.2021
2991 Snow 0 1001 100 9000 5.14 40 14:41 02.02.2021
2992 Snow 0 1001 93 10000 3.6 40 14:19 02.02.2021
2993 Snow 0 1002 93 6000 3.6 50 13:54 02.02.2021
2994 Snow 0 1002 93 6000 3.6 50 13:36 02.02.2021
2995 Snow 0 1002 93 5000 2.57 40 13:18 02.02.2021
2996 Snow 0 1002 100 550 2.06 10 12:29 02.02.2021
2997 Snow -1 1003 93 2000 1.54 50 11:43 02.02.2021
2998 Snow -1 1003 100 2500 2.06 50 11:21 02.02.2021
2999 Snow -1 1003 93 8000 3.09 40 10:53 02.02.2021
3000 Snow -1 1003 93 8000 3.09 40 10:27 02.02.2021
3001 Snow -1 1003 93 8000 3.09 40 09:46 02.02.2021
3002 Snow -1 1003 100 10000 2.06 50 09:25 02.02.2021
3003 Snow -2 1003 100 8000 2.57 60 08:48 02.02.2021
3004 Snow -2 1003 100 10000 3.09 60 08:22 02.02.2021
3005 Snow -2 1003 100 5000 2.06 50 07:28 02.02.2021
3006 Snow -3 1003 100 2900 1.54 70 06:42 02.02.2021
3007 Snow -3 1004 93 4500 2.06 70 05:53 02.02.2021
3008 Snow -3 1004 100 10000 1.54 50 04:37 02.02.2021
3009 Snow -5 1004 93 10000 1.4 73 02:26 02.02.2021
3010 Clouds -5 1004 93 10000 1.4 73 01:46 02.02.2021
3011 Clouds -5 1004 93 10000 1.03 0 00:34 02.02.2021
3012 Clouds -5 1004 93 10000 0.51 0 23:19 01.02.2021
3013 Clouds -5 1004 93 10000 1.03 300 22:50 01.02.2021
3014 Clouds -5 1003 93 10000 0.51 350 22:32 01.02.2021
3015 Clouds -5 1003 93 10000 0.92 68 21:49 01.02.2021
3016 Clouds -5 1003 93 10000 0.92 68 21:30 01.02.2021
3017 Clouds -5 1003 93 10000 0.92 68 21:30 01.02.2021
3018 Clouds -5 1003 93 10000 1.03 280 20:56 01.02.2021
3019 Clouds -5 1003 93 10000 1.03 280 20:36 01.02.2021
3020 Clouds -5 1003 93 10000 1.54 310 20:18 01.02.2021
3021 Clouds -5 1002 93 10000 0.32 92 19:38 01.02.2021
3022 Clouds -5 1002 93 10000 1.03 350 19:18 01.02.2021
3023 Clouds -5 1002 93 10000 0.51 0 18:46 01.02.2021
3024 Clear -6 1002 93 10000 1.03 280 18:26 01.02.2021
3025 Clear -6 1002 93 10000 0.9 154 17:47 01.02.2021
3026 Clear -6 1002 93 10000 0.96 169 17:23 01.02.2021
3027 Clear -6 1002 93 10000 0.96 169 16:47 01.02.2021
3028 Clear -6 1002 93 10000 0.86 176 16:28 01.02.2021
3029 Clear -5 1002 86 10000 0.86 175 15:43 01.02.2021
3030 Clear -5 1001 86 10000 0.69 209 15:19 01.02.2021
3031 Clear -5 1001 80 10000 0.69 209 14:52 01.02.2021
3032 Clear -5 1001 86 10000 0.51 250 14:27 01.02.2021
3033 Clear -6 1001 86 10000 2.57 200 13:47 01.02.2021
3034 Clear -6 1001 80 10000 1.03 0 13:26 01.02.2021
3035 Clear -6 1001 80 10000 1.03 0 13:26 01.02.2021
3036 Clear -6 1001 86 10000 1.54 230 12:45 01.02.2021
3037 Clear -6 1001 86 10000 1.03 240 12:25 01.02.2021
3038 Clear -7 1001 93 10000 1.54 230 11:51 01.02.2021
3039 Clear -7 1001 93 10000 2.06 230 11:22 01.02.2021
3040 Clear -8 1000 93 10000 1.54 0 10:55 01.02.2021
3041 Clear -8 1000 93 10000 1.54 0 10:36 01.02.2021
3042 Clear -9 1000 92 10000 1.03 170 10:18 01.02.2021
3043 Clear -10 1000 100 10000 2.36 257 09:42 01.02.2021
3044 Clear -11 999 92 10000 1.54 220 08:56 01.02.2021
3045 Clear -11 999 92 10000 1.54 220 08:56 01.02.2021
3046 Clear -12 999 92 10000 1.54 210 08:27 01.02.2021
3047 Clear -11 999 92 10000 0.51 210 07:34 01.02.2021
3048 Clouds -10 998 100 10000 1.54 200 05:27 01.02.2021
3049 Clouds -8 997 93 10000 1.03 240 02:40 01.02.2021
3050 Clouds -9 996 92 10000 1.54 230 00:27 01.02.2021
3051 Clouds -10 996 92 10000 1.54 240 23:29 31.01.2021
3052 Clear -11 996 92 10000 1.03 220 22:41 31.01.2021
3053 Clear -10 996 92 10000 2.24 277 22:23 31.01.2021
3054 Clear -10 996 92 10000 1.03 0 21:49 31.01.2021
3055 Clear -10 996 92 10000 1.03 230 21:22 31.01.2021
3056 Clear -10 996 100 10000 1.03 230 20:46 31.01.2021
3057 Clear -10 996 92 10000 1.03 220 20:21 31.01.2021
3058 Clear -10 995 100 10000 2.06 250 19:43 31.01.2021
3059 Clear -9 995 93 10000 1.54 260 19:24 31.01.2021
3060 Clear -9 995 93 10000 1.54 260 19:24 31.01.2021
3061 Clear -9 996 93 10000 2.57 260 18:58 31.01.2021
3062 Clear -9 996 93 10000 2.57 260 18:40 31.01.2021
3063 Clear -8 995 100 10000 2.06 260 18:19 31.01.2021
3064 Clear -8 995 100 10000 2.06 280 17:45 31.01.2021
3065 Clear -8 995 93 10000 1.03 260 17:23 31.01.2021
3066 Clear -8 995 93 10000 2.06 270 16:47 31.01.2021
3067 Clear -7 995 93 10000 1.54 260 16:28 31.01.2021
3068 Clear -7 995 86 10000 2.57 270 15:51 31.01.2021
3069 Clear -6 995 86 10000 2.57 270 15:32 31.01.2021
3070 Clear -6 995 86 10000 3.09 270 14:42 31.01.2021
3071 Clear -6 995 86 10000 2.57 270 14:22 31.01.2021
3072 Clear -6 996 79 10000 2.06 260 13:52 31.01.2021
3073 Clear -6 996 79 10000 2.06 260 13:52 31.01.2021
3074 Clear -6 996 79 10000 2.57 260 13:34 31.01.2021
3075 Clear -7 996 86 10000 2.57 270 12:48 31.01.2021
3076 Clear -7 996 86 10000 3.09 270 12:22 31.01.2021
3077 Clear -8 996 86 10000 2.57 270 11:44 31.01.2021
3078 Clear -8 996 86 10000 2.57 270 11:24 31.01.2021
3079 Clear -9 996 86 10000 1.54 280 10:54 31.01.2021
3080 Clear -9 996 86 10000 1.54 280 10:34 31.01.2021
3081 Clear -11 995 92 10000 0.51 280 09:50 31.01.2021
3082 Clear -12 995 92 10000 2.45 292 09:23 31.01.2021
3083 Clear -12 995 92 10000 1.03 270 08:33 31.01.2021
3084 Clear -12 995 92 10000 1.03 300 06:56 31.01.2021
3085 Clear -11 995 85 10000 2.06 290 05:31 31.01.2021
3086 Clouds -10 995 85 10000 3.09 300 00:46 31.01.2021
3087 Clouds -10 995 92 10000 2.57 290 00:21 31.01.2021
3088 Clouds -11 995 92 10000 2.57 300 23:30 30.01.2021
3089 Clouds -11 995 92 10000 2.57 290 22:56 30.01.2021
3090 Clouds -10 995 92 10000 2.06 290 22:29 30.01.2021
3091 Clouds -11 995 100 10000 1.54 300 21:40 30.01.2021
3092 Clouds -11 995 92 10000 2.06 290 21:21 30.01.2021
3093 Clouds -10 995 92 10000 2.06 270 20:47 30.01.2021
3094 Clouds -10 995 92 10000 3.09 280 20:28 30.01.2021
3095 Clouds -10 995 92 10000 2.06 290 19:46 30.01.2021
3096 Clouds -10 995 92 10000 2.06 290 19:26 30.01.2021
3097 Clouds -10 995 100 10000 2.57 290 18:42 30.01.2021
3098 Clouds -10 995 85 10000 2.57 290 18:22 30.01.2021
3099 Clouds -10 995 92 10000 2.57 290 17:59 30.01.2021
3100 Clear -10 995 100 10000 2.57 290 17:20 30.01.2021
3101 Clear -10 995 92 10000 2.57 290 16:47 30.01.2021
3102 Clear -10 995 92 10000 2.57 300 16:25 30.01.2021
3103 Clear -9 996 86 10000 3.09 290 15:57 30.01.2021
3104 Clear -9 996 86 10000 3.09 290 15:39 30.01.2021
3105 Clear -9 996 86 10000 3.6 280 15:20 30.01.2021
3106 Clear -9 996 86 10000 4.12 280 14:50 30.01.2021
3107 Clear -9 996 92 10000 4.12 280 14:22 30.01.2021
3108 Clear -8 996 86 10000 3.09 300 13:33 30.01.2021
3109 Clouds -8 996 86 10000 3.6 290 12:49 30.01.2021
3110 Clouds -9 996 92 10000 3.6 290 12:30 30.01.2021
3111 Clouds -9 996 92 10000 3.6 290 12:29 30.01.2021
3112 Clouds -9 996 92 10000 3.6 280 11:59 30.01.2021
3113 Clouds -9 997 92 8000 3.09 300 11:31 30.01.2021
3114 Clouds -9 996 92 10000 3.09 310 10:49 30.01.2021
3115 Clear -9 997 92 10000 3.09 300 09:52 30.01.2021
3116 Clouds -9 997 92 10000 3.09 290 09:31 30.01.2021
3117 Clouds -9 997 92 8000 3.6 280 08:47 30.01.2021
3118 Snow -9 997 92 2200 3.09 280 08:25 30.01.2021
3119 Clouds -8 997 86 10000 3.6 290 06:53 30.01.2021
3120 Clouds -7 998 86 10000 4.12 310 05:59 30.01.2021
3121 Clouds -6 998 86 10000 4.12 310 03:35 30.01.2021
3122 Clouds -6 998 93 10000 4.12 310 02:25 30.01.2021
3123 Clouds -6 999 86 10000 4.63 310 01:31 30.01.2021
3124 Clouds -5 999 93 10000 4.63 320 00:44 30.01.2021
3125 Clouds -5 999 93 10000 4.63 310 00:20 30.01.2021
3126 Clouds -5 999 93 10000 4.12 320 23:46 29.01.2021
3127 Clouds -5 999 93 10000 5.14 310 23:22 29.01.2021
3128 Clouds -4 999 93 10000 4.63 320 22:44 29.01.2021
3129 Clouds -4 999 93 10000 5.14 310 22:20 29.01.2021
3130 Clouds -4 999 93 10000 4.63 320 21:29 29.01.2021
3131 Clouds -4 999 93 10000 4.63 320 21:29 29.01.2021
3132 Clouds -4 999 93 10000 5.14 320 20:59 29.01.2021
3133 Clouds -4 999 93 10000 5.14 320 20:40 29.01.2021
3134 Clouds -4 999 93 10000 4.63 310 20:18 29.01.2021
3135 Clouds -4 999 93 10000 5.14 310 19:38 29.01.2021
3136 Clouds -4 999 93 10000 4.12 310 19:18 29.01.2021
3137 Clouds -4 999 93 10000 4.12 310 18:30 29.01.2021
3138 Clouds -4 999 93 10000 4.12 320 17:40 29.01.2021
3139 Clouds -4 1000 93 10000 4.63 310 17:21 29.01.2021
3140 Clouds -4 1000 93 10000 3.6 310 16:46 29.01.2021
3141 Clouds -4 1000 93 10000 3.6 310 16:24 29.01.2021
3142 Clouds -5 1000 93 10000 3.6 310 15:51 29.01.2021
3143 Clouds -5 1000 93 10000 3.09 300 15:31 29.01.2021
3144 Clouds -4 1000 93 10000 3.6 310 14:47 29.01.2021
3145 Clouds -4 1000 93 10000 3.09 300 14:18 29.01.2021
3146 Clouds -4 1000 93 10000 3.6 310 13:41 29.01.2021
3147 Clouds -4 1000 93 10000 3.6 300 13:22 29.01.2021
3148 Clouds -4 1001 93 10000 4.12 320 12:28 29.01.2021
3149 Clouds -3 1001 93 10000 4.12 310 11:50 29.01.2021
3150 Clouds -4 1001 93 10000 3.6 310 11:20 29.01.2021
3151 Clouds -4 1001 93 10000 3.6 310 10:52 29.01.2021
3152 Clouds -4 1001 93 10000 3.6 310 10:33 29.01.2021
3153 Clouds -4 1001 100 10000 3.6 330 09:49 29.01.2021
3154 Clouds -4 1001 100 9000 5.14 330 09:28 29.01.2021
3155 Drizzle -4 1001 100 10000 3.6 310 08:46 29.01.2021
3156 Clouds -4 1001 100 10000 3.6 310 08:22 29.01.2021
3157 Clouds -4 1001 100 10000 3.09 310 07:42 29.01.2021
3158 Clouds -4 1001 100 10000 2.57 320 07:22 29.01.2021
3159 Clouds -5 1001 93 10000 2.06 330 05:38 29.01.2021
3160 Clouds -4 1001 100 10000 2.06 350 03:50 29.01.2021
3161 Clouds -2 1001 93 10000 3.09 20 00:45 29.01.2021
3162 Clouds -2 1001 93 10000 3.09 10 00:22 29.01.2021
3163 Clouds -2 1001 93 10000 3.09 10 00:22 29.01.2021
3164 Drizzle -2 1001 93 10000 3.09 20 23:45 28.01.2021
3165 Snow -2 1001 93 9000 3.6 30 23:26 28.01.2021
3166 Snow -2 1001 93 10000 4.12 30 22:50 28.01.2021
3167 Drizzle -2 1001 100 10000 4.12 30 22:28 28.01.2021
3168 Snow -2 1001 100 10000 3.6 30 21:59 28.01.2021
3169 Snow -2 1001 100 10000 3.6 30 21:40 28.01.2021
3170 Snow -2 1001 100 3000 4.12 30 21:20 28.01.2021
3171 Snow -2 1001 100 800 4.12 30 20:40 28.01.2021
3172 Snow -1 1001 100 2000 4.12 20 20:19 28.01.2021
3173 Snow -1 1000 100 1000 4.63 30 19:47 28.01.2021
3174 Snow -1 1000 100 900 3.6 20 19:24 28.01.2021
3175 Snow -1 1000 100 2000 3.6 10 18:48 28.01.2021
3176 Snow -1 1001 100 2500 3.09 20 18:28 28.01.2021
3177 Snow -1 1001 100 2600 3.6 20 17:47 28.01.2021
3178 Snow -1 1000 100 2000 3.6 10 17:29 28.01.2021
3179 Snow -1 1000 100 3100 3.6 20 16:46 28.01.2021
3180 Snow -1 1000 100 2800 3.6 10 16:25 28.01.2021
3181 Snow -2 1000 100 1800 4.12 10 15:56 28.01.2021
3182 Snow -2 1000 93 2000 3.6 10 15:23 28.01.2021
3183 Snow -2 1001 100 2000 4.12 10 14:43 28.01.2021
3184 Snow -2 1001 100 2000 3.6 360 14:23 28.01.2021
3185 Snow -2 1001 100 2000 3.6 360 14:23 28.01.2021
3186 Snow -3 1001 100 3000 3.09 10 13:49 28.01.2021
3187 Snow -2 1001 93 2000 2.57 10 13:21 28.01.2021
3188 Snow -3 1002 100 900 2.57 10 12:46 28.01.2021
3189 Snow -4 1002 100 2500 2.57 360 12:21 28.01.2021
3190 Snow -4 1002 93 3000 2.06 360 11:44 28.01.2021
3191 Snow -4 1002 100 3500 2.57 360 11:21 28.01.2021
3192 Snow -4 1002 100 4000 1.54 360 10:56 28.01.2021
3193 Snow -5 1003 93 5000 2.06 360 10:38 28.01.2021
3194 Snow -5 1003 93 5000 2.06 360 10:20 28.01.2021
3195 Snow -5 1003 93 5000 1.54 360 09:34 28.01.2021
3196 Snow -5 1003 93 5000 1.54 10 08:58 28.01.2021
3197 Snow -5 1003 93 5000 1.54 10 08:39 28.01.2021
3198 Clouds -6 1003 93 10000 1.03 0 07:48 28.01.2021
3199 Clouds -6 1003 100 10000 1.03 300 06:51 28.01.2021
3200 Clouds -6 1003 100 10000 1.03 300 06:32 28.01.2021
3201 Clouds -7 1004 93 10000 0.51 290 04:30 28.01.2021
3202 Clouds -9 1006 92 10000 0.96 10 01:41 28.01.2021
3203 Clouds -9 1006 92 10000 1.25 2 00:27 28.01.2021
3204 Clear -8 1006 100 10000 1.41 357 23:25 27.01.2021
3205 Clear -7 1006 100 10000 1.03 0 22:44 27.01.2021
3206 Clear -7 1006 92 10000 1.03 340 22:25 27.01.2021
3207 Clear -8 1006 100 10000 1.09 308 21:55 27.01.2021
3208 Clear -8 1006 100 10000 1.09 308 21:37 27.01.2021
3209 Clear -8 1006 92 10000 1.26 317 21:19 27.01.2021
3210 Clear -8 1006 100 10000 1.26 317 20:39 27.01.2021
3211 Clouds -7 1006 100 10000 1.23 313 19:57 27.01.2021
3212 Clouds -7 1006 100 10000 1.23 313 19:37 27.01.2021
3213 Clouds -6 1006 100 10000 1.03 240 19:18 27.01.2021
3214 Clouds -6 1006 93 10000 1.03 290 18:41 27.01.2021
3215 Clouds -5 1006 93 10000 2.57 300 18:22 27.01.2021
3216 Clouds -5 1006 93 10000 2.57 300 17:44 27.01.2021
3217 Clouds -5 1006 93 10000 3.09 310 17:18 27.01.2021
3218 Clouds -5 1006 93 10000 3.09 310 17:18 27.01.2021
3219 Clouds -5 1006 100 10000 3.6 290 16:45 27.01.2021
3220 Clouds -4 1006 93 10000 3.09 320 16:27 27.01.2021
3221 Clouds -4 1006 93 10000 3.6 310 15:50 27.01.2021
3222 Clouds -4 1006 93 10000 2.57 330 15:30 27.01.2021
3223 Clouds -4 1006 93 10000 3.6 310 14:42 27.01.2021
3224 Clouds -4 1006 93 10000 3.09 290 14:21 27.01.2021
3225 Clouds -4 1006 93 10000 3.6 290 13:43 27.01.2021
3226 Clouds -4 1006 93 10000 4.12 280 12:48 27.01.2021
3227 Clouds -4 1006 93 10000 4.12 290 12:26 27.01.2021
3228 Clouds -4 1006 93 10000 4.12 300 11:55 27.01.2021
3229 Clouds -4 1006 93 10000 4.12 300 11:36 27.01.2021
3230 Clouds -4 1006 93 10000 4.63 300 11:18 27.01.2021
3231 Clouds -4 1006 93 10000 4.12 300 10:36 27.01.2021
3232 Clouds -4 1006 93 10000 4.63 290 10:18 27.01.2021
3233 Clouds -4 1005 93 10000 4.63 290 09:36 27.01.2021
3234 Clouds -4 1005 93 10000 4.12 290 08:48 27.01.2021
3235 Clouds -4 1005 93 10000 4.12 300 07:59 27.01.2021
3236 Clouds -4 1005 93 10000 4.12 300 07:40 27.01.2021
3237 Clouds -4 1005 93 10000 4.12 300 06:49 27.01.2021
3238 Clouds -4 1005 93 10000 4.63 280 05:58 27.01.2021
3239 Clouds -4 1005 93 10000 4.12 290 05:35 27.01.2021
3240 Clouds -3 1005 93 10000 5.14 310 02:47 27.01.2021
3241 Clouds -3 1005 93 10000 4.63 310 02:23 27.01.2021
3242 Clouds -3 1005 93 10000 4.63 320 01:47 27.01.2021
3243 Clouds -3 1005 93 10000 4.63 310 00:32 27.01.2021
3244 Clouds -3 1005 93 10000 4.63 310 23:44 26.01.2021
3245 Clouds -3 1005 93 10000 4.12 300 23:26 26.01.2021
3246 Clouds -3 1005 93 10000 3.6 300 22:46 26.01.2021
3247 Clouds -3 1005 93 10000 3.6 300 22:22 26.01.2021
3248 Clouds -3 1005 93 10000 3.6 310 21:53 26.01.2021
3249 Clouds -3 1005 93 10000 4.12 320 21:28 26.01.2021
3250 Clouds -3 1005 93 10000 4.12 310 20:58 26.01.2021
3251 Clouds -3 1005 93 10000 4.12 310 20:38 26.01.2021
3252 Clouds -3 1005 93 10000 4.63 320 20:20 26.01.2021
3253 Clouds -3 1005 100 10000 5.14 310 19:43 26.01.2021
3254 Clouds -3 1005 100 10000 4.63 320 19:20 26.01.2021
3255 Clouds -2 1005 93 10000 4.63 320 18:46 26.01.2021
3256 Clouds -2 1005 93 10000 5.14 320 18:24 26.01.2021
3257 Clouds -2 1005 93 10000 5.14 320 18:24 26.01.2021
3258 Clouds -2 1005 93 10000 5.14 310 17:49 26.01.2021
3259 Clouds -2 1005 93 10000 4.63 310 17:27 26.01.2021
3260 Clouds -2 1005 93 10000 4.12 310 16:55 26.01.2021
3261 Clouds -2 1005 93 10000 4.12 310 16:37 26.01.2021
3262 Snow -2 1004 93 10000 3.6 310 16:18 26.01.2021
3263 Snow -2 1004 93 8000 4.12 300 15:40 26.01.2021
3264 Snow -2 1004 93 10000 4.12 300 15:20 26.01.2021
3265 Snow -2 1004 93 10000 3.6 310 14:37 26.01.2021
3266 Snow -2 1004 93 10000 4.12 310 14:18 26.01.2021
3267 Snow -2 1004 100 10000 4.63 310 13:33 26.01.2021
3268 Snow -2 1004 93 8000 4.63 300 12:57 26.01.2021
3269 Snow -2 1004 93 8000 4.63 300 12:38 26.01.2021
3270 Snow -3 1004 100 10000 4.12 300 12:19 26.01.2021
3271 Snow -3 1004 93 10000 4.63 300 11:49 26.01.2021
3272 Snow -3 1004 93 10000 4.12 300 11:19 26.01.2021
3273 Snow -3 1004 93 10000 5.14 290 10:39 26.01.2021
3274 Snow -3 1004 93 10000 3.6 300 10:20 26.01.2021
3275 Snow -3 1004 93 10000 4.12 290 09:39 26.01.2021
3276 Clouds -3 1003 93 10000 4.12 280 09:21 26.01.2021
3277 Clouds -3 1003 93 10000 3.09 290 08:44 26.01.2021
3278 Clouds -3 1003 93 10000 3.6 290 07:56 26.01.2021
3279 Clouds -3 1003 93 10000 3.6 290 07:19 26.01.2021
3280 Clouds -3 1003 93 10000 3.09 290 05:52 26.01.2021
3281 Clouds -3 1003 93 10000 3.09 290 05:33 26.01.2021
3282 Clouds -3 1002 100 10000 3.09 290 03:32 26.01.2021
3283 Clouds -2 1001 93 10000 4.12 290 01:19 26.01.2021
3284 Snow -2 1001 93 10000 3.6 290 00:30 26.01.2021
3285 Clouds -2 1000 93 10000 4.12 290 23:33 25.01.2021
3286 Snow -2 1000 100 10000 4.63 290 22:51 25.01.2021
3287 Snow -2 1000 100 10000 4.63 290 22:31 25.01.2021
3288 Snow -2 999 100 10000 5.14 290 21:47 25.01.2021
3289 Snow -2 999 100 10000 4.63 280 21:20 25.01.2021
3290 Snow -2 999 100 10000 4.63 290 20:44 25.01.2021
3291 Clouds -2 998 100 10000 4.63 300 20:24 25.01.2021
3292 Snow -2 998 100 10000 5.14 300 19:49 25.01.2021
3293 Snow -2 997 100 8000 5.14 300 19:24 25.01.2021
3294 Snow -1 997 100 5000 5.14 300 18:47 25.01.2021
3295 Snow -1 997 100 7000 5.14 300 18:25 25.01.2021
3296 Snow -1 996 100 4800 5.14 300 17:49 25.01.2021
3297 Snow -1 996 100 2200 5.66 290 17:26 25.01.2021
3298 Snow -1 995 100 1700 5.66 290 16:57 25.01.2021
3299 Snow -1 995 100 1700 5.66 290 16:39 25.01.2021
3300 Snow -1 995 100 2300 6.17 290 16:20 25.01.2021
3301 Snow -1 994 100 2300 5.66 300 15:41 25.01.2021
3302 Snow -1 994 100 2600 5.66 300 15:22 25.01.2021
3303 Snow -1 994 100 2000 6.17 300 14:39 25.01.2021
3304 Snow 0 993 100 1900 5.66 300 14:18 25.01.2021
3305 Snow 0 993 100 1300 5.14 300 13:44 25.01.2021
3306 Snow 0 993 100 1000 5.66 300 13:25 25.01.2021
3307 Snow 0 993 100 1500 5.66 300 12:45 25.01.2021
3308 Snow 0 993 100 1500 4.63 310 12:19 25.01.2021
3309 Snow 0 993 100 1000 5.14 310 11:31 25.01.2021
3310 Snow 0 993 100 1900 5.14 310 10:53 25.01.2021
3311 Snow 0 993 100 1800 4.12 320 10:23 25.01.2021
3312 Snow 0 993 100 1900 4.12 320 09:55 25.01.2021
3313 Snow 0 993 100 1900 4.12 320 09:37 25.01.2021
3314 Snow 0 993 100 3100 4.12 320 08:56 25.01.2021
3315 Snow 0 993 93 4800 4.12 320 08:23 25.01.2021
3316 Snow 0 993 93 10000 3.6 330 07:31 25.01.2021
3317 Snow 0 993 93 10000 3.09 320 06:52 25.01.2021
3318 Clouds 0 995 93 10000 3.6 350 03:23 25.01.2021
3319 Clouds -1 995 100 10000 3.6 360 01:22 25.01.2021
3320 Clouds -1 996 100 10000 2.06 350 23:40 24.01.2021
3321 Clouds -1 996 93 10000 1.54 340 23:19 24.01.2021
3322 Clouds -1 996 93 10000 2.57 310 22:42 24.01.2021
3323 Clouds -1 997 100 10000 1.03 340 22:20 24.01.2021
3324 Clear -1 997 100 10000 1.54 330 21:46 24.01.2021
3325 Clear -1 997 100 10000 1.03 310 21:23 24.01.2021
3326 Clear -1 997 100 10000 1.54 340 20:44 24.01.2021
3327 Clear -1 997 100 10000 1.54 340 20:21 24.01.2021
3328 Clear -1 997 100 10000 1.54 310 19:52 24.01.2021
3329 Clear -1 997 100 10000 0.51 300 19:27 24.01.2021
3330 Fog -1 997 100 10000 1.54 300 18:58 24.01.2021
3331 Mist -1 997 100 5000 1.03 0 18:39 24.01.2021
3332 Fog -1 997 100 10000 1.54 300 18:39 24.01.2021
3333 Mist -1 997 100 5000 1.03 0 18:20 24.01.2021
3334 Fog -1 997 100 800 1.54 280 17:50 24.01.2021
3335 Fog -1 998 100 900 1.54 270 17:28 24.01.2021
3336 Mist -1 998 100 1500 1.54 290 16:57 24.01.2021
3337 Mist -1 998 100 1500 1.54 290 16:37 24.01.2021
3338 Mist 0 998 100 3000 2.47 332 16:18 24.01.2021
3339 Mist 0 997 100 3500 1.54 300 15:42 24.01.2021
3340 Mist 0 997 100 4000 2.57 280 15:18 24.01.2021
3341 Mist 0 997 100 4000 3.09 290 14:38 24.01.2021
3342 Clouds 0 997 100 2100 1.03 0 13:46 24.01.2021
3343 Clouds 0 997 100 1000 1.54 280 13:26 24.01.2021
3344 Fog 0 996 100 550 2.06 290 12:49 24.01.2021
3345 Fog 0 997 100 450 2.57 290 12:20 24.01.2021
3346 Fog 0 996 93 800 2.06 270 11:51 24.01.2021
3347 Mist 0 996 100 1500 2.57 280 11:24 24.01.2021
3348 Clouds 0 996 100 10000 1.03 280 10:47 24.01.2021
3349 Clouds -1 996 100 10000 1.03 280 10:26 24.01.2021
3350 Mist -2 995 100 3100 1.59 336 09:23 24.01.2021
3351 Mist -2 995 100 7000 1.03 290 08:58 24.01.2021
3352 Mist -1 995 100 7000 0.51 0 08:24 24.01.2021
3353 Clouds 0 994 93 10000 0.67 8 03:25 24.01.2021
3354 Clouds 0 994 100 10000 0.45 62 02:18 24.01.2021
3355 Clouds 0 994 93 10000 0.8 160 00:27 24.01.2021
3356 Clouds 0 994 93 10000 1.03 290 23:53 23.01.2021
3357 Clouds 0 995 93 10000 1.88 154 23:27 23.01.2021
3358 Clouds 1 995 93 10000 1.88 154 22:57 23.01.2021
3359 Clouds 1 995 93 10000 1.88 154 22:37 23.01.2021
3360 Clouds 1 995 87 10000 1.03 0 21:53 23.01.2021
3361 Clouds 1 995 87 10000 1.54 180 21:22 23.01.2021
3362 Clouds 1 995 93 10000 1.54 170 20:49 23.01.2021
3363 Clouds 1 995 87 10000 2.06 140 20:28 23.01.2021
3364 Clouds 1 995 87 10000 2.06 170 19:47 23.01.2021
3365 Clouds 1 995 93 10000 1.54 160 19:24 23.01.2021
3366 Clouds 1 995 86 10000 1.54 0 18:51 23.01.2021
3367 Clouds 1 995 87 10000 1.03 0 18:28 23.01.2021
3368 Clouds 1 995 80 10000 1.54 0 17:55 23.01.2021
3369 Clear 2 994 87 10000 2.06 200 17:28 23.01.2021
3370 Clear 2 995 81 10000 2.57 190 16:51 23.01.2021
3371 Clear 2 995 75 10000 2.06 180 16:31 23.01.2021
3372 Clear 3 994 75 10000 3.09 200 15:48 23.01.2021
3373 Clear 3 994 70 10000 3.6 210 15:26 23.01.2021
3374 Clear 3 994 70 10000 4.63 220 14:37 23.01.2021
3375 Clear 3 994 70 10000 4.63 220 14:19 23.01.2021
3376 Clear 3 993 70 10000 5.66 230 13:40 23.01.2021
3377 Clear 4 993 70 10000 6.17 230 13:21 23.01.2021
3378 Clear 4 993 70 10000 6.69 220 12:42 23.01.2021
3379 Clear 4 992 70 10000 7.2 220 12:22 23.01.2021
3380 Clear 4 992 70 10000 7.2 220 11:34 23.01.2021
3381 Clouds 4 991 70 10000 7.2 210 10:53 23.01.2021
3382 Clouds 4 990 70 10000 6.17 220 10:22 23.01.2021
3383 Clouds 4 989 70 10000 5.66 220 09:49 23.01.2021
3384 Clouds 4 989 70 10000 5.66 210 09:24 23.01.2021
3385 Clouds 4 988 75 10000 5.14 220 08:38 23.01.2021
3386 Clouds 5 987 75 10000 6.17 220 07:37 23.01.2021
3387 Clouds 5 986 81 10000 6.17 220 06:48 23.01.2021
3388 Clouds 5 982 75 10000 6.69 180 01:44 23.01.2021
3389 Clouds 4 982 81 10000 7.2 180 23:59 22.01.2021
3390 Clouds 4 982 81 10000 7.2 180 23:35 22.01.2021
3391 Clouds 4 982 81 10000 7.72 170 22:40 22.01.2021
3392 Clouds 4 982 81 10000 6.17 170 21:56 22.01.2021
3393 Clouds 4 982 81 10000 6.17 170 21:37 22.01.2021
3394 Clouds 4 982 81 10000 6.17 170 21:37 22.01.2021
3395 Clouds 4 982 81 10000 7.2 170 21:19 22.01.2021
3396 Clouds 3 982 87 10000 6.69 170 20:43 22.01.2021
3397 Clouds 3 982 87 10000 5.66 170 20:22 22.01.2021
3398 Clouds 3 981 87 10000 6.17 180 19:37 22.01.2021
3399 Clouds 4 981 87 10000 5.14 170 19:18 22.01.2021
3400 Clouds 3 981 87 10000 5.14 180 18:41 22.01.2021
3401 Clouds 3 981 87 10000 5.14 180 18:23 22.01.2021
3402 Clouds 3 980 87 10000 5.66 190 17:44 22.01.2021
3403 Clouds 4 980 81 10000 6.69 210 17:24 22.01.2021
3404 Clouds 4 980 81 10000 6.69 210 17:24 22.01.2021
3405 Clouds 4 979 87 10000 7.72 210 16:45 22.01.2021
3406 Clouds 4 978 81 10000 9.26 220 16:24 22.01.2021
3407 Clouds 6 976 93 10000 8.75 170 15:41 22.01.2021
3408 Clouds 6 976 93 10000 7.72 150 15:18 22.01.2021
3409 Rain 6 977 93 10000 8.23 150 14:31 22.01.2021
3410 Rain 6 978 93 10000 7.2 140 13:51 22.01.2021
3411 Clouds 5 979 100 10000 7.2 150 13:31 22.01.2021
3412 Rain 5 980 93 10000 7.2 140 12:52 22.01.2021
3413 Rain 5 980 93 9000 6.17 130 12:23 22.01.2021
3414 Clouds 4 981 93 8000 5.14 120 11:47 22.01.2021
3415 Rain 4 982 93 10000 6.17 130 11:22 22.01.2021
3416 Rain 4 983 93 8000 6.17 140 10:45 22.01.2021
3417 Rain 4 984 93 10000 5.14 140 09:59 22.01.2021
3418 Rain 4 984 93 10000 5.14 140 09:31 22.01.2021
3419 Clouds 4 985 93 10000 3.6 150 08:51 22.01.2021
3420 Clear 4 985 93 10000 4.12 140 08:30 22.01.2021
3421 Clear 4 986 87 10000 4.12 150 07:36 22.01.2021
3422 Clouds 4 987 87 10000 4.12 170 03:40 22.01.2021
3423 Clouds 3 988 93 10000 5.14 160 00:40 22.01.2021
3424 Clouds 3 988 93 10000 4.12 160 23:56 21.01.2021
3425 Clouds 3 988 93 10000 4.12 160 23:38 21.01.2021
3426 Clouds 3 987 93 10000 4.12 160 22:54 21.01.2021
3427 Clouds 3 987 93 10000 4.12 160 22:36 21.01.2021
3428 Clouds 3 988 81 10000 3.6 170 21:44 21.01.2021
3429 Clouds 3 988 81 10000 3.6 170 21:44 21.01.2021
3430 Clear 3 987 75 10000 4.12 180 21:22 21.01.2021
3431 Clear 3 988 81 10000 5.14 220 20:51 21.01.2021
3432 Clear 4 987 87 10000 5.66 210 20:31 21.01.2021
3433 Clear 4 987 93 10000 4.63 190 19:56 21.01.2021
3434 Clear 4 987 93 10000 4.63 190 19:38 21.01.2021
3435 Clear 4 986 93 10000 4.63 200 19:19 21.01.2021
3436 Clouds 4 986 93 10000 5.14 190 18:40 21.01.2021
3437 Clouds 4 986 93 10000 4.63 180 18:20 21.01.2021
3438 Clouds 5 986 93 10000 4.63 180 17:53 21.01.2021
3439 Drizzle 5 986 93 10000 4.63 180 17:21 21.01.2021
3440 Clouds 5 985 87 10000 4.63 170 16:50 21.01.2021
3441 Rain 5 986 87 10000 4.12 170 16:28 21.01.2021
3442 Clouds 5 986 93 10000 5.66 160 15:59 21.01.2021
3443 Clouds 5 986 93 10000 5.66 160 15:59 21.01.2021
3444 Clouds 5 986 93 10000 5.66 160 15:35 21.01.2021
3445 Clouds 5 986 93 10000 5.66 150 14:54 21.01.2021
3446 Clouds 5 986 93 10000 5.66 150 14:35 21.01.2021
3447 Clouds 5 986 93 10000 6.17 140 13:52 21.01.2021
3448 Clouds 5 986 93 10000 6.17 140 13:33 21.01.2021
3449 Clouds 5 988 100 10000 4.63 160 12:58 21.01.2021
3450 Clouds 5 988 100 10000 4.63 160 12:39 21.01.2021
3451 Clouds 5 988 100 10000 5.14 150 12:20 21.01.2021
3452 Clouds 5 988 100 10000 4.12 150 11:48 21.01.2021
3453 Clouds 4 989 100 10000 3.6 150 11:25 21.01.2021
3454 Clouds 5 989 100 10000 4.12 170 10:51 21.01.2021
3455 Clouds 4 989 100 10000 4.12 160 10:30 21.01.2021
3456 Mist 4 989 100 4500 4.12 160 09:44 21.01.2021
3457 Mist 4 989 100 4500 4.63 160 09:25 21.01.2021
3458 Clouds 4 989 100 8000 3.6 150 08:45 21.01.2021
3459 Clouds 4 990 100 10000 3.09 140 08:24 21.01.2021
3460 Rain 4 990 100 10000 3.09 160 07:28 21.01.2021
3461 Rain 4 990 100 9000 3.09 150 06:54 21.01.2021
3462 Drizzle 3 990 100 6000 3.09 140 05:21 21.01.2021
3463 Rain 3 991 100 350 2.57 130 02:40 21.01.2021
3464 Mist 2 992 100 1200 2.06 100 00:54 21.01.2021
3465 Drizzle 2 992 100 2800 4.12 90 23:54 20.01.2021
3466 Drizzle 2 992 100 2800 4.12 90 23:32 20.01.2021
3467 Rain 2 993 100 7000 4.63 100 22:58 20.01.2021
3468 Rain 2 993 100 7000 4.63 100 22:37 20.01.2021
3469 Snow 1 993 100 4300 5.66 100 21:59 20.01.2021
3470 Snow 1 993 100 4300 5.66 100 21:41 20.01.2021
3471 Snow 1 994 93 4300 6.17 100 21:20 20.01.2021
3472 Rain 1 994 93 2400 6.69 100 20:41 20.01.2021
3473 Snow 1 995 93 4000 5.66 100 20:18 20.01.2021
3474 Snow 1 995 93 3500 6.17 110 19:43 20.01.2021
3475 Snow 1 995 100 2000 6.17 110 19:24 20.01.2021
3476 Snow 1 996 100 2300 6.69 110 18:42 20.01.2021
3477 Rain 1 996 93 2300 6.17 110 17:58 20.01.2021
3478 Rain 1 996 93 2300 6.17 110 17:39 20.01.2021
3479 Snow 1 997 93 6000 5.66 110 16:59 20.01.2021
3480 Rain 1 997 93 6000 5.66 110 16:41 20.01.2021
3481 Snow 1 998 100 4500 5.66 110 15:53 20.01.2021
3482 Rain 1 998 100 4500 5.66 110 15:34 20.01.2021
3483 Rain 1 998 100 4000 5.14 110 14:51 20.01.2021
3484 Rain 2 999 100 4700 6.17 120 14:24 20.01.2021
3485 Rain 2 999 100 3400 6.69 120 13:50 20.01.2021
3486 Rain 2 1000 100 3700 6.17 120 13:31 20.01.2021
3487 Rain 1 1000 100 7000 5.66 110 12:45 20.01.2021
3488 Rain 2 1000 100 5000 5.14 110 12:20 20.01.2021
3489 Rain 2 1001 100 5000 5.14 100 11:39 20.01.2021
3490 Rain 1 1001 100 3500 5.66 100 10:56 20.01.2021
3491 Rain 1 1001 100 3500 5.66 100 10:34 20.01.2021
3492 Mist 1 1002 100 3500 6.17 110 09:55 20.01.2021
3493 Snow 1 1002 93 7000 5.66 110 09:30 20.01.2021
3494 Snow 1 1002 100 5000 5.14 110 08:59 20.01.2021
3495 Snow 1 1002 100 5000 5.14 110 08:34 20.01.2021
3496 Snow 1 1002 100 4700 5.14 110 07:59 20.01.2021
3497 Snow 1 1002 100 4700 5.14 110 07:37 20.01.2021
3498 Rain 1 1002 93 6000 5.66 100 06:39 20.01.2021
3499 Snow 1 1003 93 10000 4.63 100 03:30 20.01.2021
3500 Snow 1 1004 93 2100 4.63 100 01:50 20.01.2021
3501 Snow 1 1004 93 2300 4.63 110 00:47 20.01.2021
3502 Snow 1 1004 93 5000 4.12 110 23:50 19.01.2021
3503 Snow 1 1005 93 10000 3.09 110 23:27 19.01.2021
3504 Snow 1 1005 93 10000 3.6 110 22:57 19.01.2021
3505 Snow 1 1005 93 10000 3.6 110 22:37 19.01.2021
3506 Snow 1 1005 100 10000 2.57 120 22:19 19.01.2021
3507 Snow 1 1005 93 10000 3.6 120 21:51 19.01.2021
3508 Snow 1 1005 93 10000 3.6 120 21:27 19.01.2021
3509 Snow 1 1005 93 6000 3.09 120 20:47 19.01.2021
3510 Snow 1 1005 93 4000 3.09 130 20:24 19.01.2021
3511 Clouds 1 1005 93 10000 4.12 130 19:55 19.01.2021
3512 Snow 1 1005 86 10000 3.09 120 19:30 19.01.2021
3513 Clouds 1 1005 86 10000 3.09 120 18:49 19.01.2021
3514 Clouds 1 1005 86 10000 3.6 120 18:30 19.01.2021
3515 Snow 1 1005 86 10000 3.09 120 17:47 19.01.2021
3516 Snow 1 1006 86 10000 3.09 130 17:29 19.01.2021
3517 Snow 1 1006 80 10000 3.09 130 16:59 19.01.2021
3518 Snow 1 1006 80 10000 3.09 130 16:38 19.01.2021
3519 Clouds 1 1006 80 10000 3.09 140 16:18 19.01.2021
3520 Clouds 1 1006 86 10000 3.6 140 15:41 19.01.2021
3521 Clouds 1 1006 86 10000 3.6 140 15:21 19.01.2021
3522 Clear 1 1006 86 10000 3.6 140 14:41 19.01.2021
3523 Clouds 1 1006 86 10000 3.6 130 14:23 19.01.2021
3524 Clouds 1 1006 93 10000 3.6 130 13:48 19.01.2021
3525 Snow 1 1007 100 10000 2.57 120 13:21 19.01.2021
3526 Snow 1 1007 100 10000 2.57 120 13:21 19.01.2021
3527 Snow 0 1007 100 3000 2.06 110 12:48 19.01.2021
3528 Snow 1 1007 100 6000 4.12 130 12:29 19.01.2021
3529 Snow 0 1007 93 10000 2.06 110 11:45 19.01.2021
3530 Clouds 0 1007 93 10000 1.54 100 11:26 19.01.2021
3531 Clouds 0 1008 93 10000 2.06 130 10:51 19.01.2021
3532 Clouds -1 1008 93 10000 1.03 0 10:32 19.01.2021
3533 Clouds -1 1008 93 10000 1.03 0 09:53 19.01.2021
3534 Clouds -1 1008 93 10000 1.54 140 09:30 19.01.2021
3535 Clouds -2 1008 93 10000 1.54 120 08:59 19.01.2021
3536 Clouds -2 1008 93 10000 1.54 140 08:26 19.01.2021
3537 Clouds -2 1008 100 10000 1.03 150 07:47 19.01.2021
3538 Clear -2 1008 93 10000 1.54 140 06:54 19.01.2021
3539 Clouds -3 1010 93 10000 0.51 140 02:33 19.01.2021
3540 Clouds -3 1010 93 10000 1.03 0 01:27 19.01.2021
3541 Clouds -3 1011 93 10000 2.57 190 23:59 18.01.2021
3542 Clouds -3 1011 93 10000 2.57 190 23:35 18.01.2021
3543 Clouds -2 1011 86 10000 2.06 200 22:58 18.01.2021
3544 Clouds -2 1011 86 10000 2.06 200 22:38 18.01.2021
3545 Clouds -2 1011 86 10000 1.54 0 22:18 18.01.2021
3546 Clouds -2 1011 86 10000 2.57 210 21:40 18.01.2021
3547 Clouds -3 1011 80 10000 2.57 190 21:21 18.01.2021
3548 Clouds -3 1011 80 10000 2.57 190 20:43 18.01.2021
3549 Clouds -3 1011 80 10000 2.57 190 20:24 18.01.2021
3550 Clouds -3 1011 80 10000 2.57 200 19:51 18.01.2021
3551 Clouds -2 1011 80 10000 2.57 190 19:32 18.01.2021
3552 Clouds -2 1011 80 10000 2.57 190 18:47 18.01.2021
3553 Clouds -2 1011 80 10000 2.57 190 18:23 18.01.2021
3554 Clouds -2 1012 86 10000 2.06 0 17:45 18.01.2021
3555 Clouds -1 1012 86 10000 2.06 220 17:23 18.01.2021
3556 Clouds -1 1012 86 10000 2.06 210 16:46 18.01.2021
3557 Clouds -1 1012 86 10000 2.06 210 16:22 18.01.2021
3558 Clouds -1 1012 86 10000 3.09 210 15:48 18.01.2021
3559 Clouds -1 1012 86 10000 2.57 220 15:25 18.01.2021
3560 Clouds -1 1012 86 10000 2.57 210 14:44 18.01.2021
3561 Clouds -1 1012 86 10000 2.57 210 14:26 18.01.2021
3562 Clouds -1 1013 86 10000 2.57 220 13:47 18.01.2021
3563 Clouds -1 1013 86 10000 3.09 210 13:28 18.01.2021
3564 Clouds -1 1013 86 10000 2.57 210 12:55 18.01.2021
3565 Clouds -1 1013 86 10000 2.57 210 12:21 18.01.2021
3566 Clouds -1 1013 86 10000 2.57 200 11:57 18.01.2021
3567 Clouds -2 1013 86 10000 2.57 200 11:39 18.01.2021
3568 Clouds -2 1013 86 10000 2.57 200 11:20 18.01.2021
3569 Clouds -2 1014 86 10000 2.57 200 10:44 18.01.2021
3570 Clouds -3 1014 93 10000 2.57 190 09:50 18.01.2021
3571 Clouds -3 1014 93 10000 2.57 190 09:32 18.01.2021
3572 Clouds -3 1014 86 10000 2.57 190 08:54 18.01.2021
3573 Clouds -3 1014 86 10000 2.57 190 08:18 18.01.2021
3574 Clouds -3 1014 86 10000 2.06 200 07:36 18.01.2021
3575 Clouds -3 1015 86 10000 3.09 200 05:45 18.01.2021
3576 Clouds -3 1015 93 10000 2.06 210 04:39 18.01.2021
3577 Clouds -3 1015 93 10000 2.06 220 04:18 18.01.2021
3578 Clouds -3 1015 93 10000 2.57 210 03:42 18.01.2021
3579 Clouds -3 1016 93 10000 2.06 200 03:20 18.01.2021
3580 Clouds -3 1016 93 10000 2.06 230 02:37 18.01.2021
3581 Clouds -3 1016 93 10000 2.57 220 01:36 18.01.2021
3582 Clouds -3 1017 93 10000 2.57 220 00:32 18.01.2021
3583 Clouds -3 1017 93 10000 2.57 220 23:48 17.01.2021
3584 Clouds -3 1017 93 10000 2.06 210 23:21 17.01.2021
3585 Clouds -3 1017 93 10000 1.54 210 22:41 17.01.2021
3586 Clouds -3 1017 86 10000 2.06 200 22:22 17.01.2021
3587 Clouds -3 1018 93 10000 2.06 180 21:40 17.01.2021
3588 Clouds -3 1018 86 10000 2.06 190 21:22 17.01.2021
3589 Clouds -3 1018 93 10000 2.06 200 20:49 17.01.2021
3590 Clouds -3 1018 93 10000 2.57 210 20:29 17.01.2021
3591 Clouds -3 1018 93 10000 2.06 210 19:43 17.01.2021
3592 Clouds -3 1018 93 10000 1.54 190 19:24 17.01.2021
3593 Clouds -3 1019 93 10000 1.54 230 18:44 17.01.2021
3594 Clouds -3 1019 93 10000 2.06 240 18:26 17.01.2021
3595 Clouds -3 1019 93 10000 2.57 260 17:48 17.01.2021
3596 Clouds -3 1019 93 10000 3.6 270 17:26 17.01.2021
3597 Clouds -3 1019 93 10000 3.6 260 16:44 17.01.2021
3598 Clouds -2 1019 93 10000 3.6 250 16:24 17.01.2021
3599 Clouds -3 1019 93 10000 3.09 260 15:43 17.01.2021
3600 Clouds -3 1019 93 10000 4.12 270 15:25 17.01.2021
3601 Clouds -2 1019 86 10000 2.57 250 14:50 17.01.2021
3602 Clouds -2 1019 86 10000 2.57 250 14:26 17.01.2021
3603 Clouds -1 1019 86 10000 2.06 240 13:47 17.01.2021
3604 Clouds -1 1019 86 10000 2.57 230 13:29 17.01.2021
3605 Clouds -2 1020 93 10000 2.06 240 12:55 17.01.2021
3606 Clouds -2 1020 93 10000 2.06 210 12:32 17.01.2021
3607 Clouds -2 1020 93 10000 2.57 200 11:59 17.01.2021
3608 Clouds -2 1020 86 10000 0.51 0 11:24 17.01.2021
3609 Clouds -3 1020 86 10000 1.54 40 10:49 17.01.2021
3610 Clouds -3 1020 93 10000 1.03 260 10:21 17.01.2021
3611 Clouds -3 1019 93 10000 1.03 0 09:44 17.01.2021
3612 Clouds -3 1019 100 10000 1.4 255 08:47 17.01.2021
3613 Clouds -4 1019 100 10000 1.27 243 07:46 17.01.2021
3614 Clouds -4 1019 93 10000 0.83 218 04:29 17.01.2021
3615 Clouds -3 1019 93 10000 1.54 0 02:49 17.01.2021
3616 Clouds -3 1020 93 10000 0.51 300 00:52 17.01.2021
3617 Clouds -3 1020 86 10000 0.51 0 00:20 17.01.2021
3618 Clouds -3 1020 93 10000 1.03 130 23:52 16.01.2021
3619 Clouds -3 1020 93 10000 1.54 140 23:20 16.01.2021
3620 Clouds -3 1020 93 10000 1.54 140 22:49 16.01.2021
3621 Clouds -3 1020 93 10000 1.03 0 21:59 16.01.2021
3622 Clouds -3 1020 93 10000 1.03 0 21:40 16.01.2021
3623 Clouds -3 1020 93 10000 1.54 0 21:20 16.01.2021
3624 Clouds -3 1020 93 10000 2.06 90 20:45 16.01.2021
3625 Clouds -3 1020 93 10000 2.06 70 20:22 16.01.2021
3626 Clouds -2 1020 93 10000 2.06 60 19:48 16.01.2021
3627 Clouds -2 1020 100 10000 1.03 0 19:29 16.01.2021
3628 Clouds -2 1020 100 10000 1.03 0 18:44 16.01.2021
3629 Clouds -3 1020 100 10000 2.06 50 18:26 16.01.2021
3630 Mist -3 1019 100 2200 2.57 40 17:49 16.01.2021
3631 Snow -1 1020 93 2400 2.06 60 17:30 16.01.2021
3632 Clouds -2 1020 93 5000 1.54 320 16:47 16.01.2021
3633 Clouds -2 1020 93 5000 1.54 320 16:47 16.01.2021
3634 Clouds -1 1019 93 10000 1.54 330 16:29 16.01.2021
3635 Clouds -1 1019 93 10000 1.54 340 15:54 16.01.2021
3636 Clouds -1 1019 93 10000 1.54 340 15:54 16.01.2021
3637 Clouds -1 1019 93 10000 1.54 340 15:33 16.01.2021
3638 Clouds -1 1019 93 10000 1.54 330 14:30 16.01.2021
3639 Clouds -1 1019 93 10000 1.54 330 14:30 16.01.2021
3640 Clouds -1 1019 93 10000 1.54 330 14:30 16.01.2021
3641 Snow -1 1019 93 6000 1.54 0 13:50 16.01.2021
3642 Clouds -1 1019 93 10000 2.57 360 13:29 16.01.2021
3643 Snow -1 1019 93 10000 2.06 360 12:46 16.01.2021
3644 Snow -1 1019 100 10000 3.09 340 12:21 16.01.2021
3645 Snow -2 1019 100 9000 2.57 330 11:52 16.01.2021
3646 Snow -2 1019 93 6000 3.6 330 11:25 16.01.2021
3647 Snow -2 1019 100 10000 4.12 340 10:50 16.01.2021
3648 Snow -2 1019 93 10000 3.6 320 10:30 16.01.2021
3649 Snow -3 1019 93 10000 3.09 330 09:42 16.01.2021
3650 Clouds -3 1019 93 5000 4.12 330 09:19 16.01.2021
3651 Clouds -3 1019 93 10000 4.12 330 07:53 16.01.2021
3652 Clouds -4 1019 100 10000 4.12 310 06:44 16.01.2021
3653 Clouds -5 1019 93 2400 3.6 290 04:52 16.01.2021
3654 Clouds -5 1020 86 10000 3.6 300 02:58 16.01.2021
3655 Clouds -6 1020 86 10000 3.6 300 02:25 16.01.2021
3656 Clouds -6 1021 86 10000 2.06 310 00:44 16.01.2021
3657 Clouds -6 1022 86 10000 3.09 300 00:20 16.01.2021
3658 Clouds -6 1022 86 10000 3.09 300 23:28 15.01.2021
3659 Clouds -6 1022 86 10000 3.6 300 22:27 15.01.2021
3660 Clouds -6 1023 86 10000 3.6 290 21:48 15.01.2021
3661 Clouds -6 1023 86 10000 4.12 300 21:30 15.01.2021
3662 Clouds -6 1023 86 10000 5.14 290 20:43 15.01.2021
3663 Clouds -6 1023 86 10000 4.63 290 20:23 15.01.2021
3664 Clouds -6 1023 93 10000 5.14 310 19:45 15.01.2021
3665 Clouds -6 1023 93 10000 4.63 300 19:25 15.01.2021
3666 Clouds -6 1023 93 10000 4.12 290 18:45 15.01.2021
3667 Clouds -6 1023 93 10000 3.6 290 18:20 15.01.2021
3668 Clouds -7 1024 93 10000 3.09 300 17:56 15.01.2021
3669 Clouds -7 1023 86 10000 3.6 290 17:38 15.01.2021
3670 Clouds -7 1023 86 10000 3.6 290 17:19 15.01.2021
3671 Clouds -7 1023 86 10000 3.6 300 16:43 15.01.2021
3672 Clouds -7 1024 93 10000 3.6 300 16:22 15.01.2021
3673 Clouds -8 1024 93 10000 3.6 300 15:40 15.01.2021
3674 Snow -8 1024 93 10000 3.6 290 15:19 15.01.2021
3675 Snow -8 1024 86 10000 3.09 280 14:41 15.01.2021
3676 Snow -8 1024 92 7000 3.09 300 14:22 15.01.2021
3677 Snow -8 1024 92 10000 3.09 300 13:40 15.01.2021
3678 Snow -8 1024 92 10000 3.09 300 13:40 15.01.2021
3679 Clouds -9 1024 86 10000 3.09 290 13:20 15.01.2021
3680 Snow -8 1024 92 6000 2.57 290 12:47 15.01.2021
3681 Snow -8 1024 86 6000 3.09 300 12:26 15.01.2021
3682 Snow -9 1024 86 10000 2.57 300 11:42 15.01.2021
3683 Snow -9 1024 92 5000 3.09 300 11:23 15.01.2021
3684 Snow -9 1024 92 6000 3.6 310 10:52 15.01.2021
3685 Snow -9 1024 86 5000 3.6 310 10:24 15.01.2021
3686 Snow -9 1024 92 8000 3.6 320 09:50 15.01.2021
3687 Snow -9 1024 92 10000 3.6 310 09:29 15.01.2021
3688 Snow -9 1023 92 10000 3.09 310 08:30 15.01.2021
3689 Snow -10 1023 92 10000 2.57 300 07:47 15.01.2021
3690 Snow -10 1023 92 10000 2.57 310 07:24 15.01.2021
3691 Snow -10 1024 92 10000 3.09 310 06:52 15.01.2021
3692 Snow -9 1023 92 10000 4.12 330 03:29 15.01.2021
3693 Rain -8 1023 93 10000 4.63 330 00:57 15.01.2021
3694 Snow -8 1023 93 10000 3.6 320 23:47 14.01.2021
3695 Snow -8 1023 92 10000 3.6 310 22:59 14.01.2021
3696 Snow -8 1023 92 10000 3.6 310 22:40 14.01.2021
3697 Snow -8 1023 92 10000 3.6 310 22:22 14.01.2021
3698 Snow -8 1023 93 10000 3.6 320 21:42 14.01.2021
3699 Snow -8 1023 93 10000 4.12 320 21:21 14.01.2021
3700 Clouds -7 1023 86 10000 5.14 330 20:49 14.01.2021
3701 Snow -7 1023 93 10000 5.14 330 20:25 14.01.2021
3702 Snow -6 1023 86 9000 5.66 330 19:43 14.01.2021
3703 Snow -6 1023 86 7000 5.14 330 19:25 14.01.2021
3704 Snow -6 1023 86 10000 5.66 330 18:52 14.01.2021
3705 Snow -6 1023 93 10000 5.66 330 18:27 14.01.2021
3706 Snow -6 1023 93 10000 5.14 330 17:46 14.01.2021
3707 Snow -6 1023 93 9000 4.63 310 17:27 14.01.2021
3708 Snow -5 1023 93 10000 4.12 320 16:43 14.01.2021
3709 Snow -4 1022 93 6000 4.63 320 16:18 14.01.2021
3710 Snow -3 1022 93 2300 5.14 350 15:45 14.01.2021
3711 Snow -3 1022 100 1700 3.6 340 14:59 14.01.2021
3712 Snow -3 1022 100 1700 3.6 340 14:38 14.01.2021
3713 Snow -2 1021 100 1800 4.12 350 14:19 14.01.2021
3714 Snow -2 1021 93 8000 3.09 10 13:53 14.01.2021
3715 Snow -2 1021 93 7000 4.12 360 13:21 14.01.2021
3716 Snow -2 1021 93 4500 3.6 360 12:48 14.01.2021
3717 Snow -2 1021 93 2200 3.6 350 12:20 14.01.2021
3718 Snow -2 1021 93 6000 3.6 350 11:43 14.01.2021
3719 Snow -2 1021 100 5000 4.12 350 11:21 14.01.2021
3720 Snow -2 1021 93 5000 3.6 360 10:52 14.01.2021
3721 Snow -2 1021 93 8000 3.6 360 10:29 14.01.2021
3722 Snow -2 1021 93 10000 3.6 10 09:48 14.01.2021
3723 Snow -2 1020 93 10000 3.6 360 09:23 14.01.2021
3724 Snow -3 1020 100 10000 4.12 360 08:52 14.01.2021
3725 Snow -3 1020 100 10000 4.12 350 08:28 14.01.2021
3726 Snow -3 1019 100 10000 3.6 360 07:50 14.01.2021
3727 Drizzle -3 1019 100 10000 4.12 10 06:59 14.01.2021
3728 Clouds -3 1019 100 10000 4.12 10 06:19 14.01.2021
3729 Snow -1 1016 100 6000 4.63 10 01:55 14.01.2021
3730 Snow 0 1014 100 4600 3.6 10 23:56 13.01.2021
3731 Snow 0 1013 100 3600 4.12 20 23:23 13.01.2021
3732 Snow 0 1013 100 2200 3.6 20 22:40 13.01.2021
3733 Snow 0 1012 100 1800 5.14 30 22:18 13.01.2021
3734 Snow 0 1011 100 1500 4.63 30 21:42 13.01.2021
3735 Snow 0 1011 100 1600 4.63 20 21:19 13.01.2021
3736 Snow 0 1010 100 1900 4.12 20 20:42 13.01.2021
3737 Snow 0 1010 100 2000 3.6 20 20:20 13.01.2021
3738 Snow 0 1010 100 5000 4.12 30 19:43 13.01.2021
3739 Snow 0 1009 100 10000 4.12 10 19:22 13.01.2021
3740 Snow 0 1009 100 7000 4.12 10 18:42 13.01.2021
3741 Snow 0 1008 93 5000 4.12 10 18:18 13.01.2021
3742 Snow 0 1008 93 3500 4.12 10 17:40 13.01.2021
3743 Snow 0 1008 100 5000 4.12 10 17:18 13.01.2021
3744 Snow 0 1007 100 7000 4.12 20 16:23 13.01.2021
3745 Snow 0 1007 100 5000 4.12 20 15:59 13.01.2021
3746 Snow 0 1007 100 5000 4.12 20 15:40 13.01.2021
3747 Snow 0 1006 100 2000 4.12 20 14:56 13.01.2021
3748 Snow 0 1006 100 2500 3.6 20 14:21 13.01.2021
3749 Snow 0 1005 100 4000 2.57 10 13:37 13.01.2021
3750 Snow 0 1005 100 8000 3.09 10 13:18 13.01.2021
3751 Snow 0 1005 100 10000 3.09 20 12:44 13.01.2021
3752 Snow 0 1005 93 6000 3.09 20 12:22 13.01.2021
3753 Clouds -1 1005 93 10000 2.57 10 11:49 13.01.2021
3754 Clouds -1 1005 100 10000 2.57 10 11:31 13.01.2021
3755 Clouds -1 1004 93 10000 2.57 360 10:47 13.01.2021
3756 Clouds -2 1004 93 10000 1.54 300 10:26 13.01.2021
3757 Clear -2 1004 93 10000 1.54 320 09:40 13.01.2021
3758 Clear -3 1003 100 10000 2.06 360 08:58 13.01.2021
3759 Clear -3 1003 100 10000 2.06 360 08:34 13.01.2021
3760 Clouds -2 1003 93 10000 2.06 50 07:57 13.01.2021
3761 Clouds -2 1002 93 10000 2.57 50 07:27 13.01.2021
3762 Clouds -1 1001 93 10000 2.57 40 05:27 13.01.2021
3763 Clouds -1 1001 93 10000 2.06 70 04:18 13.01.2021
3764 Clouds -1 1000 100 10000 1.54 70 03:41 13.01.2021
3765 Clouds -2 1000 93 10000 2.57 70 03:19 13.01.2021
3766 Clouds -2 999 93 10000 2.06 300 00:47 13.01.2021
3767 Clouds -2 998 100 10000 2.92 124 23:40 12.01.2021
3768 Clouds -2 997 93 10000 1.54 80 22:57 12.01.2021
3769 Clouds -2 997 93 10000 1.54 80 22:36 12.01.2021
3770 Clouds -3 997 100 10000 1.54 100 22:18 12.01.2021
3771 Clear -3 997 93 10000 1.03 130 21:42 12.01.2021
3772 Clear -3 996 93 10000 2.06 110 21:23 12.01.2021
3773 Clear -3 996 93 10000 2.06 140 20:46 12.01.2021
3774 Clear -3 996 93 10000 2.57 140 20:26 12.01.2021
3775 Clear -4 996 93 10000 2.57 140 19:43 12.01.2021
3776 Clear -4 995 93 10000 2.57 130 18:54 12.01.2021
3777 Clear -4 995 93 10000 2.57 140 18:26 12.01.2021
3778 Clear -4 995 93 10000 3.09 140 17:58 12.01.2021
3779 Clear -5 995 93 10000 3.09 140 17:33 12.01.2021
3780 Clear -4 994 93 10000 2.06 150 16:46 12.01.2021
3781 Clear -5 994 93 10000 2.06 140 16:27 12.01.2021
3782 Clear -4 994 93 10000 1.54 130 15:54 12.01.2021
3783 Clear -4 993 93 10000 1.03 0 15:27 12.01.2021
3784 Clear -4 993 86 10000 1.54 220 14:57 12.01.2021
3785 Clear -3 993 86 10000 1.54 220 14:38 12.01.2021
3786 Clear -2 993 86 10000 1.54 220 14:18 12.01.2021
3787 Clear -3 992 86 10000 2.06 240 13:45 12.01.2021
3788 Clouds -2 992 86 10000 4.12 260 12:39 12.01.2021
3789 Clouds -2 991 93 10000 3.6 260 11:55 12.01.2021
3790 Clouds -2 991 93 10000 3.6 260 11:36 12.01.2021
3791 Clouds -2 990 93 10000 4.12 260 10:44 12.01.2021
3792 Snow -1 989 100 10000 4.12 260 10:20 12.01.2021
3793 Snow -1 989 93 9000 4.63 270 09:54 12.01.2021
3794 Snow -1 988 100 10000 5.14 260 09:24 12.01.2021
3795 Snow 0 988 100 5000 4.12 250 08:39 12.01.2021
3796 Snow 0 987 100 1800 3.6 260 08:20 12.01.2021
3797 Snow 0 987 100 1300 3.6 260 07:34 12.01.2021
3798 Snow 1 986 100 4900 3.09 180 05:56 12.01.2021
3799 Rain 2 987 100 7000 4.12 170 03:48 12.01.2021
3800 Rain 3 987 100 5000 4.63 170 03:23 12.01.2021
3801 Rain 2 988 93 10000 4.63 170 02:18 12.01.2021
3802 Rain 2 988 93 6000 5.14 160 01:24 12.01.2021
3803 Rain 2 990 93 5000 7.2 170 23:45 11.01.2021
3804 Rain 3 990 93 5000 7.2 170 23:20 11.01.2021
3805 Rain 2 991 93 5000 6.69 160 22:50 11.01.2021
3806 Rain 2 992 93 7000 6.69 170 22:32 11.01.2021
3807 Rain 3 992 93 6000 6.17 170 21:55 11.01.2021
3808 Rain 3 992 93 6000 6.17 170 21:37 11.01.2021
3809 Rain 3 993 93 6000 5.66 170 21:18 11.01.2021
3810 Rain 2 993 100 7000 5.66 160 20:40 11.01.2021
3811 Rain 2 994 100 7000 5.66 160 20:22 11.01.2021
3812 Rain 2 994 100 7000 4.63 160 19:52 11.01.2021
3813 Snow 2 995 100 7000 4.63 150 19:23 11.01.2021
3814 Snow 2 995 100 5000 5.66 140 18:44 11.01.2021
3815 Snow 1 996 100 2500 5.14 140 18:24 11.01.2021
3816 Snow 1 997 100 1500 6.17 140 17:43 11.01.2021
3817 Snow 1 998 100 1800 7.2 140 17:25 11.01.2021
3818 Snow 0 999 100 1800 6.17 130 16:50 11.01.2021
3819 Snow 0 1000 100 1900 6.69 140 16:30 11.01.2021
3820 Snow 0 1001 100 3000 5.66 130 15:59 11.01.2021
3821 Snow 0 1001 100 3000 5.66 130 15:37 11.01.2021
3822 Snow 1 1002 93 5000 7.2 150 14:58 11.01.2021
3823 Snow 1 1002 93 5000 7.2 150 14:38 11.01.2021
3824 Clouds 1 1004 93 10000 5.14 140 13:48 11.01.2021
3825 Clouds 1 1005 93 10000 4.12 140 13:24 11.01.2021
3826 Clouds 1 1005 100 10000 3.6 150 12:46 11.01.2021
3827 Clouds 0 1006 93 10000 3.09 150 12:27 11.01.2021
3828 Clouds 0 1006 93 10000 3.09 160 11:53 11.01.2021
3829 Clouds 0 1007 100 10000 3.6 140 11:26 11.01.2021
3830 Clouds -1 1007 93 10000 2.57 150 10:42 11.01.2021
3831 Clouds -1 1007 93 10000 2.57 150 10:24 11.01.2021
3832 Clouds -2 1008 100 10000 2.06 140 09:39 11.01.2021
3833 Clouds -2 1008 100 10000 2.06 130 09:20 11.01.2021
3834 Clouds -3 1008 100 9000 1.54 140 08:44 11.01.2021
3835 Mist -3 1008 100 2500 2.06 160 08:18 11.01.2021
3836 Mist -3 1008 100 4000 1.54 140 07:26 11.01.2021
3837 Snow -3 1009 100 8000 1.54 180 06:58 11.01.2021
3838 Clouds -3 1010 100 10000 2.06 230 03:27 11.01.2021
3839 Clouds -3 1010 100 10000 2.06 220 01:29 11.01.2021
3840 Clouds -2 1010 100 10000 2.57 220 23:59 10.01.2021
3841 Clouds -2 1010 100 10000 2.57 210 23:30 10.01.2021
3842 Clouds -3 1010 93 10000 2.06 220 22:48 10.01.2021
3843 Clouds -1 1010 100 10000 2.57 240 22:23 10.01.2021
3844 Clouds -1 1010 100 10000 2.57 250 21:44 10.01.2021
3845 Clouds -1 1010 93 10000 1.54 230 21:20 10.01.2021
3846 Clouds 0 1010 93 10000 3.09 250 20:53 10.01.2021
3847 Clouds 0 1010 93 10000 3.09 250 20:32 10.01.2021
3848 Clouds 0 1009 100 10000 3.6 260 19:43 10.01.2021
3849 Clouds 0 1009 100 10000 4.12 250 19:25 10.01.2021
3850 Clouds 0 1009 100 10000 3.09 230 18:49 10.01.2021
3851 Snow 0 1009 100 5000 2.57 230 18:21 10.01.2021
3852 Snow 0 1009 100 5000 2.57 230 18:21 10.01.2021
3853 Clouds 0 1009 100 10000 3.09 220 17:28 10.01.2021
3854 Clouds 0 1009 100 10000 3.09 210 16:59 10.01.2021
3855 Clouds 0 1009 100 10000 3.09 210 16:32 10.01.2021
3856 Clouds 0 1009 100 10000 3.6 200 15:54 10.01.2021
3857 Clouds 0 1009 100 10000 3.6 190 15:25 10.01.2021
3858 Clouds 0 1009 100 10000 3.6 190 15:25 10.01.2021
3859 Snow 0 1009 100 1000 4.12 180 14:50 10.01.2021
3860 Snow 0 1010 100 1000 3.6 170 14:31 10.01.2021
3861 Snow 0 1010 100 1800 4.12 170 13:54 10.01.2021
3862 Snow 0 1010 100 1800 4.12 170 13:36 10.01.2021
3863 Snow 0 1011 100 2500 4.12 180 13:18 10.01.2021
3864 Snow 0 1011 93 1500 4.12 180 12:42 10.01.2021
3865 Snow 0 1012 86 10000 4.63 170 12:18 10.01.2021
3866 Clouds -1 1012 93 10000 4.12 180 11:22 10.01.2021
3867 Clouds -1 1013 86 10000 4.63 180 10:58 10.01.2021
3868 Clouds -1 1013 86 10000 5.14 180 10:31 10.01.2021
3869 Clouds -1 1014 86 10000 3.6 180 09:59 10.01.2021
3870 Clouds -1 1014 86 10000 3.6 170 09:27 10.01.2021
3871 Clouds -1 1015 86 10000 3.6 210 08:21 10.01.2021
3872 Clouds -1 1015 86 10000 2.57 200 07:29 10.01.2021
3873 Clouds -1 1015 93 10000 3.6 210 06:19 10.01.2021
3874 Clouds -1 1015 93 10000 3.6 210 05:36 10.01.2021
3875 Clouds -1 1017 93 10000 2.57 220 02:56 10.01.2021
3876 Mist -2 1018 100 8000 3.09 220 00:52 10.01.2021
3877 Clouds -2 1018 93 9000 2.06 230 23:49 09.01.2021
3878 Mist -2 1018 100 9000 1.03 0 23:30 09.01.2021
3879 Mist -2 1019 93 7000 2.06 208 22:48 09.01.2021
3880 Mist -2 1019 100 7000 1.64 211 22:19 09.01.2021
3881 Mist -2 1019 100 8000 1.64 211 21:57 09.01.2021
3882 Mist -2 1019 100 8000 1.64 211 21:38 09.01.2021
3883 Mist -3 1019 100 6000 1.34 218 21:18 09.01.2021
3884 Mist -3 1019 100 2700 1.34 218 20:44 09.01.2021
3885 Mist -3 1019 100 4600 1.19 234 19:45 09.01.2021
3886 Clouds -3 1020 100 8000 2.06 210 19:22 09.01.2021
3887 Mist -2 1020 100 7000 1.03 180 18:52 09.01.2021
3888 Mist -2 1020 100 7000 1.03 180 18:33 09.01.2021
3889 Mist -2 1020 93 1600 1.08 247 17:48 09.01.2021
3890 Clear -2 1020 100 10000 0.51 290 17:30 09.01.2021
3891 Clear -2 1020 93 10000 1.03 290 16:36 09.01.2021
3892 Clouds -1 1020 93 10000 1.03 360 15:52 09.01.2021
3893 Clouds 0 1020 93 10000 1.03 360 15:33 09.01.2021
3894 Clouds 0 1021 86 10000 1.54 340 14:41 09.01.2021
3895 Clouds 0 1020 86 10000 1.54 340 14:20 09.01.2021
3896 Clear 0 1021 86 10000 1.03 0 13:49 09.01.2021
3897 Clouds 0 1021 86 10000 1.54 330 13:31 09.01.2021
3898 Clouds 0 1021 86 10000 1.54 360 12:50 09.01.2021
3899 Clouds 0 1021 86 10000 1.03 0 12:25 09.01.2021
3900 Clouds 0 1021 93 10000 2.06 340 11:56 09.01.2021
3901 Clouds 0 1021 93 10000 2.06 340 11:33 09.01.2021
3902 Clouds 0 1021 93 10000 1.54 350 10:55 09.01.2021
3903 Clouds 0 1021 93 10000 1.54 350 10:36 09.01.2021
3904 Clouds 0 1021 93 10000 1.54 20 09:54 09.01.2021
3905 Clouds 0 1021 93 10000 2.06 10 09:29 09.01.2021
3906 Clouds 0 1021 93 10000 1.54 10 08:59 09.01.2021
3907 Clouds 0 1021 93 10000 2.06 10 07:38 09.01.2021
3908 Clouds 0 1020 93 10000 1.54 10 06:40 09.01.2021
3909 Clouds 0 1020 100 10000 2.57 10 04:54 09.01.2021
3910 Snow 0 1020 100 10000 2.06 10 03:25 09.01.2021
3911 Snow 0 1020 100 4600 2.06 10 02:38 09.01.2021
3912 Clouds 0 1019 100 10000 2.06 10 02:19 09.01.2021
3913 Snow 0 1019 100 10000 2.06 10 00:46 09.01.2021
3914 Snow 0 1019 100 6000 2.06 10 00:22 09.01.2021
3915 Snow 0 1019 100 4500 2.06 10 23:30 08.01.2021
3916 Snow 0 1019 93 10000 2.57 10 22:38 08.01.2021
3917 Snow 0 1018 100 10000 2.57 10 21:46 08.01.2021
3918 Clouds 0 1018 100 10000 2.06 10 20:57 08.01.2021
3919 Clouds 0 1018 100 10000 2.57 360 20:27 08.01.2021
3920 Clouds 0 1018 100 10000 2.06 10 19:56 08.01.2021
3921 Clouds 0 1018 100 10000 2.57 10 19:22 08.01.2021
3922 Clouds 0 1018 100 10000 2.57 20 18:48 08.01.2021
3923 Snow 1 1017 93 10000 3.09 10 18:20 08.01.2021
3924 Snow 1 1017 93 10000 2.06 10 17:48 08.01.2021
3925 Snow 1 1017 93 9000 2.57 30 17:22 08.01.2021
3926 Clouds 1 1017 93 10000 2.57 50 16:35 08.01.2021
3927 Snow 1 1016 93 10000 2.57 20 15:44 08.01.2021
3928 Snow 1 1016 100 10000 2.57 20 15:18 08.01.2021
3929 Snow 1 1016 100 10000 2.57 20 14:35 08.01.2021
3930 Snow 1 1016 100 9000 2.57 20 13:44 08.01.2021
3931 Clouds 1 1016 100 10000 2.57 20 13:18 08.01.2021
3932 Clouds 1 1016 93 10000 2.06 20 12:46 08.01.2021
3933 Clouds 1 1016 93 10000 1.54 20 12:19 08.01.2021
3934 Clouds 1 1015 93 10000 2.06 10 11:43 08.01.2021
3935 Clouds 1 1015 93 10000 2.06 10 11:25 08.01.2021
3936 Clouds 1 1015 93 10000 2.06 20 10:50 08.01.2021
3937 Clouds 1 1015 93 10000 2.57 20 10:26 08.01.2021
3938 Clouds 1 1015 93 10000 2.06 30 09:45 08.01.2021
3939 Clouds 1 1015 93 10000 2.57 20 09:25 08.01.2021
3940 Clouds 1 1014 93 10000 2.57 30 08:33 08.01.2021
3941 Clouds 0 1014 100 10000 1.54 30 07:25 08.01.2021
3942 Snow 0 1013 100 10000 2.06 30 05:43 08.01.2021
3943 Clouds 0 1013 100 10000 2.57 20 23:46 07.01.2021
3944 Clouds 0 1013 100 10000 2.57 20 23:28 07.01.2021
3945 Clouds 0 1013 100 10000 2.57 20 22:45 07.01.2021
3946 Snow 0 1013 100 7000 2.06 10 22:25 07.01.2021
3947 Snow 0 1013 100 7000 2.06 10 22:25 07.01.2021
3948 Snow 0 1013 100 9000 2.57 20 21:44 07.01.2021
3949 Snow 0 1013 100 7000 3.09 40 21:26 07.01.2021
3950 Snow 0 1013 100 10000 2.57 20 20:47 07.01.2021
3951 Snow 0 1013 100 10000 2.57 10 20:28 07.01.2021
3952 Snow 0 1013 100 10000 2.57 10 19:44 07.01.2021
3953 Snow 0 1013 100 10000 2.06 30 19:20 07.01.2021
3954 Snow 0 1013 100 10000 2.57 30 18:30 07.01.2021
3955 Snow 0 1013 100 10000 2.57 30 18:30 07.01.2021
3956 Snow 0 1013 100 5000 2.06 20 17:47 07.01.2021
3957 Snow 0 1013 100 2000 2.57 30 17:27 07.01.2021
3958 Snow 0 1013 100 6000 2.57 30 16:53 07.01.2021
3959 Snow 0 1013 100 3500 2.57 20 16:27 07.01.2021
3960 Snow 0 1013 100 8000 2.57 10 15:41 07.01.2021
3961 Snow 0 1013 100 3000 2.57 10 14:57 07.01.2021
3962 Snow 1 1013 100 6000 2.57 10 14:27 07.01.2021
3963 Snow 1 1013 100 8000 2.06 20 13:46 07.01.2021
3964 Snow 1 1013 100 5000 2.06 10 13:18 07.01.2021
3965 Snow 0 1014 100 4000 2.57 360 12:43 07.01.2021
3966 Snow 0 1014 97 3000 2.6 10 11:57 07.01.2021
3967 Snow 0 1014 97 3000 2.6 10 11:57 07.01.2021
3968 Snow 0 1014 97 2000 2.6 10 11:36 07.01.2021
3969 Snow 0 1015 97 4500 3.1 10 10:51 07.01.2021
3970 Snow 0 1015 97 1100 3.6 30 10:31 07.01.2021
3971 Snow 0 1015 97 10000 4.1 360 09:48 07.01.2021
3972 Snow 0 1015 97 10000 4.6 10 09:20 07.01.2021
3973 Snow 0 1015 97 10000 4.1 10 08:29 07.01.2021
3974 Snow 0 1015 97 10000 3.6 360 07:53 07.01.2021
3975 Snow 0 1015 97 10000 4.1 10 07:30 07.01.2021
3976 Snow 0 1016 99 10000 4.6 10 05:26 07.01.2021
3977 Clouds 0 1018 98 10000 3.6 10 00:32 07.01.2021
3978 Clouds -1 1018 92 10000 3.1 20 23:51 06.01.2021
3979 Snow -1 1019 86 6000 3.1 20 22:47 06.01.2021
3980 Snow -1 1019 86 10000 3.1 10 21:56 06.01.2021
3981 Clouds -1 1020 80 10000 4.1 10 21:38 06.01.2021
3982 Snow -1 1020 80 10000 4.1 10 21:19 06.01.2021
3983 Snow -1 1020 80 10000 3.6 10 20:39 06.01.2021
3984 Clouds -1 1020 80 10000 4.1 20 20:18 06.01.2021
3985 Clouds 0 1020 80 10000 4.1 30 19:38 06.01.2021
3986 Snow 0 1020 86 10000 3.6 20 19:19 06.01.2021
3987 Snow 0 1020 86 10000 3.6 20 18:42 06.01.2021
3988 Clouds 0 1020 97 10000 4.6 20 18:24 06.01.2021
3989 Clouds 0 1021 97 10000 3.6 20 17:43 06.01.2021
3990 Clouds 0 1021 97 10000 3.6 20 17:24 06.01.2021
3991 Clouds 0 1021 86 10000 4.1 20 16:42 06.01.2021
3992 Clouds 0 1021 86 10000 4.1 20 16:20 06.01.2021
3993 Clouds 0 1021 86 10000 4.1 20 15:54 06.01.2021
3994 Clouds 0 1021 86 10000 4.6 20 15:32 06.01.2021
3995 Clouds -1 1022 86 10000 4.1 10 14:52 06.01.2021
3996 Clouds -1 1022 86 10000 4.1 360 14:21 06.01.2021
3997 Clouds -1 1022 86 10000 4.1 360 13:47 06.01.2021
3998 Clouds -1 1023 92 10000 3.6 20 13:24 06.01.2021
3999 Clouds -1 1023 92 10000 3.6 20 12:49 06.01.2021
4000 Clouds -1 1023 92 10000 3.6 20 12:26 06.01.2021
4001 Clouds -1 1024 86 10000 4.1 10 11:39 06.01.2021
4002 Clouds -2 1024 86 10000 3.6 10 11:20 06.01.2021
4003 Clouds -2 1024 86 10000 3.6 10 10:29 06.01.2021
4004 Clouds -2 1024 92 10000 3.6 10 09:52 06.01.2021
4005 Clouds -3 1025 92 10000 3.6 10 09:21 06.01.2021
4006 Clouds -2 1025 86 10000 3.1 20 08:41 06.01.2021
4007 Clouds -3 1025 86 10000 2.6 10 07:59 06.01.2021
4008 Clouds -2 1025 86 10000 2.6 20 07:18 06.01.2021
4009 Clouds -3 1025 86 10000 2.6 20 05:52 06.01.2021
4010 Clouds -3 1026 86 10000 2.6 360 04:41 06.01.2021
4011 Clouds -3 1027 92 10000 3.1 10 02:47 06.01.2021
4012 Clouds -3 1027 92 10000 3.1 10 02:26 06.01.2021
4013 Clouds -2 1027 86 10000 3.6 360 01:34 06.01.2021
4014 Clouds -1 1028 86 10000 3.1 10 23:34 05.01.2021
4015 Clouds -1 1028 86 10000 4.1 10 22:45 05.01.2021
4016 Clouds -1 1029 86 10000 3.6 30 22:22 05.01.2021
4017 Clouds -2 1029 86 10000 3.6 30 21:57 05.01.2021
4018 Clouds -2 1029 86 10000 3.1 10 21:18 05.01.2021
4019 Clouds -1 1029 86 10000 3.1 10 20:29 05.01.2021
4020 Clouds -1 1029 92 10000 1.5 10 19:45 05.01.2021
4021 Clouds -2 1029 92 10000 1.5 10 19:24 05.01.2021
4022 Clouds -2 1029 92 10000 3.1 10 18:46 05.01.2021
4023 Clouds -2 1029 92 10000 3.1 10 18:28 05.01.2021
4024 Clouds -1 1029 86 10000 2.1 20 17:53 05.01.2021
4025 Clouds -1 1029 86 10000 2.1 20 17:31 05.01.2021
4026 Clouds -1 1029 92 10000 4.1 20 16:53 05.01.2021
4027 Clouds -1 1029 92 10000 3.1 30 16:23 05.01.2021
4028 Clouds -1 1029 92 10000 3.1 30 15:58 05.01.2021
4029 Clouds -1 1029 92 10000 4.1 40 15:34 05.01.2021
4030 Clouds 0 1029 95 10000 3.1 20 14:48 05.01.2021
4031 Clouds 0 1030 95 10000 3.1 30 13:57 05.01.2021
4032 Clouds 0 1030 95 10000 3.1 30 13:36 05.01.2021
4033 Clouds 0 1030 95 10000 3.1 10 13:18 05.01.2021
4034 Clouds 0 1030 95 10000 4.1 360 12:46 05.01.2021
4035 Clouds 0 1030 95 10000 3.6 20 12:18 05.01.2021
4036 -273 0 0 0 0 0 11:30 05.01.2021
4037 Clouds 0 1030 95 10000 3.6 20 11:30 05.01.2021
4038 Clouds 0 1030 95 10000 3.1 20 10:45 05.01.2021
4039 Clouds 0 1030 94 10000 2.6 30 10:19 05.01.2021
4040 Clouds 0 1030 94 10000 3.1 10 09:42 05.01.2021
4041 Snow 0 1030 95 10000 3.1 20 08:59 05.01.2021
4042 Clouds 0 1029 95 10000 2.6 20 08:19 05.01.2021
4043 Clouds 0 1029 96 10000 3.1 30 05:32 05.01.2021
4044 Clouds 0 1029 98 10000 3.1 10 03:39 05.01.2021
4045 Clouds 1 1030 98 10000 1.5 10 00:23 05.01.2021
4046 Clouds 1 1030 98 10000 1.5 10 23:42 04.01.2021
4047 Snow 1 1030 97 10000 2.1 10 23:22 04.01.2021
4048 Snow 1 1029 97 10000 1.5 360 22:46 04.01.2021
4049 Snow 1 1029 97 6000 1.5 360 22:19 04.01.2021
4050 Snow 1 1030 97 7000 2.1 20 21:40 04.01.2021
4051 Snow 1 1030 96 7000 2.1 20 21:20 04.01.2021
4052 Clouds 1 1029 96 10000 1.5 350 20:38 04.01.2021
4053 Clouds 1 1029 95 10000 2.1 10 20:19 04.01.2021
4054 Clouds 1 1029 95 10000 2.1 350 19:42 04.01.2021
4055 Clouds 1 1029 94 10000 2.1 360 19:19 04.01.2021
4056 Clouds 1 1029 94 10000 3.1 360 18:46 04.01.2021
4057 Clouds 1 1029 95 10000 2.1 10 17:59 04.01.2021
4058 Clouds 1 1029 95 10000 2.6 360 17:39 04.01.2021
4059 Clouds 1 1029 95 10000 2.6 360 17:21 04.01.2021
4060 Clouds 1 1029 95 10000 2.6 10 16:42 04.01.2021
4061 Clouds 1 1029 96 10000 2.6 10 16:24 04.01.2021
4062 Clouds 1 1029 96 10000 3.1 20 15:48 04.01.2021
4063 Clouds 1 1029 96 10000 3.6 360 15:24 04.01.2021
4064 Clouds 1 1029 95 10000 3.1 360 13:58 04.01.2021
4065 Clouds 1 1029 95 10000 3.1 360 13:36 04.01.2021
4066 Clouds 0 1029 94 10000 3.1 20 12:55 04.01.2021
4067 Clouds 1 1029 94 10000 2.6 360 12:30 04.01.2021
4068 Clouds 0 1029 94 10000 3.6 10 11:41 04.01.2021
4069 Snow 0 1029 95 5000 3.1 350 11:18 04.01.2021
4070 Clouds 0 1029 95 10000 3.6 360 10:44 04.01.2021
4071 Clouds 0 1029 96 10000 2.6 360 10:22 04.01.2021
4072 Snow 0 1028 96 10000 3.1 360 09:36 04.01.2021
4073 Clouds 0 1028 96 10000 3.6 360 09:18 04.01.2021
4074 Snow 0 1028 97 10000 3.6 360 08:23 04.01.2021
4075 Snow 0 1028 97 10000 3.6 360 07:47 04.01.2021
4076 Clouds 0 1028 97 10000 3.1 340 05:42 04.01.2021
4077 Clouds 0 1027 96 10000 3.6 340 05:20 04.01.2021
4078 Clouds 0 1028 92 10000 3.1 330 02:26 04.01.2021
4079 Clouds -1 1028 92 10000 4.6 320 00:27 04.01.2021
4080 Clouds -1 1028 92 10000 4.6 320 23:38 03.01.2021
4081 Clouds -1 1028 92 10000 3.6 320 22:58 03.01.2021
4082 Clouds -1 1028 92 10000 3.6 320 22:39 03.01.2021
4083 Clouds -1 1028 92 10000 3.6 310 22:21 03.01.2021
4084 Clouds -1 1028 86 10000 3.6 310 21:41 03.01.2021
4085 Clouds -1 1028 86 10000 3.6 310 21:23 03.01.2021
4086 Clouds -1 1028 86 10000 3.1 330 20:41 03.01.2021
4087 Clouds -1 1028 86 10000 3.1 320 20:19 03.01.2021
4088 Clouds -1 1028 86 10000 2.6 320 19:47 03.01.2021
4089 Clouds -1 1028 86 10000 2.6 320 19:28 03.01.2021
4090 Clouds -1 1028 80 10000 4.1 330 18:50 03.01.2021
4091 Clouds -1 1028 80 10000 4.1 330 18:30 03.01.2021
4092 Clouds -1 1028 86 10000 4.6 340 17:53 03.01.2021
4093 Clouds -1 1028 86 10000 4.6 340 17:27 03.01.2021
4094 Clouds -1 1028 86 10000 4.1 330 16:56 03.01.2021
4095 Clouds -1 1028 86 10000 4.1 330 16:37 03.01.2021
4096 Clouds -1 1028 86 10000 3.1 320 16:18 03.01.2021
4097 Clouds -1 1028 93 10000 3.1 360 15:40 03.01.2021
4098 Clouds -1 1022 85 10000 0.89 45 15:19 03.01.2021
4099 Clouds 0 1027 92 10000 3.6 360 14:41 03.01.2021
4100 Clouds 0 1027 91 10000 4.1 350 13:55 03.01.2021
4101 Clouds 0 1027 93 10000 2.6 320 13:26 03.01.2021
4102 Snow 0 1027 93 5000 3.1 310 12:58 03.01.2021
4103 Clouds 0 1027 94 10000 2.6 310 11:46 03.01.2021
4104 Clouds 0 1027 96 10000 2.6 300 11:27 03.01.2021
4105 Clouds 0 1026 96 10000 2.6 290 10:57 03.01.2021
4106 Clouds 0 1026 96 10000 2.6 290 10:32 03.01.2021
4107 Clouds 0 1026 96 10000 2.6 300 09:45 03.01.2021
4108 Clouds 0 1026 96 10000 2.6 300 09:24 03.01.2021
4109 Clouds 0 1026 92 10000 2.6 310 08:29 03.01.2021
4110 Clouds 0 1025 90 10000 3.1 320 06:54 03.01.2021
4111 Clouds 0 1024 90 10000 3.1 330 03:20 03.01.2021
4112 Clouds 0 1023 88 10000 2.1 310 02:23 03.01.2021
4113 Clouds 0 1022 88 10000 2.1 340 00:27 03.01.2021
4114 Clouds 1 1022 88 10000 3.1 350 23:46 02.01.2021
4115 Clouds 1 1021 89 10000 3.1 350 23:19 02.01.2021
4116 Clouds 1 1021 100 10000 2.1 350 22:47 02.01.2021
4117 Clouds 1 1021 100 10000 2.1 350 22:28 02.01.2021
4118 Clouds 1 1020 100 10000 2.1 340 21:47 02.01.2021
4119 Clouds 1 1020 100 10000 2.1 340 21:28 02.01.2021
4120 Clouds 1 1020 100 10000 1.5 360 20:45 02.01.2021
4121 Clouds 1 1020 100 10000 1.5 360 20:25 02.01.2021
4122 Clouds 0 1019 92 10000 1.5 350 19:44 02.01.2021
4123 Clouds 0 1019 95 10000 1.5 350 19:20 02.01.2021
4124 Clouds 0 1019 95 10000 1.5 350 19:20 02.01.2021
4125 Mist 1 1018 95 6000 1 270 18:43 02.01.2021
4126 Clouds 1 1018 94 7000 1 310 18:25 02.01.2021
4127 Clouds 0 1018 94 7000 1 310 17:46 02.01.2021
4128 Clouds 0 1017 93 10000 1 360 17:26 02.01.2021
4129 Clouds 1 1017 93 7000 1 350 16:42 02.01.2021
4130 Clouds 1 1017 100 10000 1 10 16:21 02.01.2021
4131 Clouds 1 1017 100 10000 1 10 15:43 02.01.2021
4132 Clouds 1 1016 100 10000 2.1 360 15:25 02.01.2021
4133 Clouds 1 1016 93 10000 1 0 14:37 02.01.2021
4134 Clouds 2 1016 93 10000 1 0 14:18 02.01.2021
4135 Clouds 2 1016 93 10000 1.5 60 13:39 02.01.2021
4136 Clouds 2 1015 93 10000 1.85 77 12:54 02.01.2021
4137 Clouds 2 1015 93 10000 1.81 91 12:32 02.01.2021
4138 Rain 2 1015 93 10000 1.5 90 11:57 02.01.2021
4139 Snow 1 1015 100 9000 1.5 80 11:22 02.01.2021
4140 Rain 1 1015 100 9000 1.5 80 10:56 02.01.2021
4141 Rain 1 1014 100 7000 2.1 70 10:31 02.01.2021
4142 Rain 1 1014 93 8000 3.1 60 09:54 02.01.2021
4143 Rain 2 1014 93 8000 3.1 60 09:28 02.01.2021
4144 Rain 2 1013 100 10000 2.6 70 08:51 02.01.2021
4145 Drizzle 2 1013 100 10000 2.6 70 08:28 02.01.2021
4146 Rain 2 1013 100 10000 2.6 60 07:53 02.01.2021
4147 Snow 2 1012 100 10000 1 20 07:22 02.01.2021
4148 Snow 1 1012 100 10000 1 0 06:52 02.01.2021
4149 Drizzle 2 1012 100 10000 1 100 05:54 02.01.2021
4150 Rain 2 1011 100 10000 2.6 80 00:59 02.01.2021
4151 Rain 2 1011 100 10000 1.5 60 00:37 02.01.2021
4152 Snow 2 1011 100 10000 1.5 60 00:37 02.01.2021
4153 Clouds 2 1011 100 10000 1.5 40 23:57 01.01.2021
4154 Clouds 2 1010 100 10000 2.6 130 23:23 01.01.2021
4155 Clouds 2 1010 100 10000 1 0 22:48 01.01.2021
4156 Clouds 2 1010 100 10000 1 0 22:26 01.01.2021
4157 Rain 2 1010 100 10000 1 120 21:58 01.01.2021
4158 Rain 2 1010 100 10000 1 120 21:39 01.01.2021
4159 Clouds 2 1010 100 8000 4.1 120 21:19 01.01.2021
4160 Drizzle 2 1010 93 10000 2.6 120 20:43 01.01.2021
4161 Rain 2 1010 93 10000 2.6 90 20:18 01.01.2021
4162 Rain 2 1009 100 10000 2.6 70 19:41 01.01.2021
4163 Rain 2 1009 100 10000 2.6 70 19:20 01.01.2021
4164 Drizzle 2 1009 93 10000 3.1 80 18:42 01.01.2021
4165 Clouds 2 1009 100 10000 2.1 60 18:23 01.01.2021
4166 Rain 2 1009 100 8000 1 0 17:44 01.01.2021
4167 Rain 2 1009 100 6000 1.77 109 17:23 01.01.2021
4168 Drizzle 2 1009 100 10000 1 0 16:45 01.01.2021
4169 Drizzle 2 1009 100 10000 1 10 16:25 01.01.2021
4170 Drizzle 2 1009 100 10000 2.1 20 15:39 01.01.2021
4171 Rain 2 1009 100 5000 1 360 14:44 01.01.2021
4172 Rain 3 1009 100 5000 1 360 14:25 01.01.2021
4173 Mist 2 1009 100 4400 1.94 115 13:38 01.01.2021
4174 Mist 2 1009 100 5000 1.7 112 12:51 01.01.2021
4175 Mist 2 1009 100 5000 1.56 117 12:27 01.01.2021
4176 Mist 2 1009 86 3200 1.56 117 11:42 01.01.2021
4177 Clouds 1 1009 86 3500 1.34 114 11:19 01.01.2021
4178 Clouds 1 1009 86 3500 1.34 114 10:56 01.01.2021
4179 Clouds 2 1009 88 3500 1.32 127 10:28 01.01.2021
4180 Fog 1 1009 89 250 1.35 143 09:31 01.01.2021
4181 Fog 1 1008 88 750 1.35 145 08:30 01.01.2021
4182 Fog 1 1008 88 200 1.21 150 07:22 01.01.2021
4183 Clouds 2 1007 100 2000 1.5 130 04:51 01.01.2021
4184 Mist 2 1007 100 350 0.5 0 01:58 01.01.2021
4185 Clouds 3 1006 100 10000 2.1 140 00:33 01.01.2021
4186 Mist 3 1006 93 9000 1.5 130 23:43 31.12.2020
4187 Clouds 3 1006 100 10000 2.6 140 23:21 31.12.2020
4188 Clouds 3 1006 100 10000 2.6 140 22:55 31.12.2020
4189 Clouds 3 1006 93 10000 1.5 170 22:36 31.12.2020
4190 Clouds 3 1006 93 10000 1.5 170 22:36 31.12.2020
4191 Clouds 3 1005 93 10000 2.1 140 22:18 31.12.2020
4192 Clouds 3 1005 100 10000 2.6 130 21:43 31.12.2020
4193 Clouds 3 1005 100 10000 2.6 130 21:20 31.12.2020
4194 Clouds 3 1005 93 10000 2.6 110 20:31 31.12.2020
4195 Drizzle 3 1005 93 10000 2.1 150 19:59 31.12.2020
4196 Rain 3 1004 93 10000 2.6 130 19:36 31.12.2020
4197 Clouds 3 1004 100 10000 3.6 130 19:18 31.12.2020
4198 Rain 3 1004 93 10000 3.6 120 18:41 31.12.2020
4199 Clouds 3 1004 93 10000 2.6 120 18:23 31.12.2020
4200 Clouds 3 1004 93 10000 2.6 120 17:41 31.12.2020
4201 Clouds 3 1004 93 10000 2.1 110 17:21 31.12.2020
4202 Clouds 3 1004 93 10000 2.1 110 16:39 31.12.2020
4203 Clouds 3 1003 100 10000 2.6 130 16:20 31.12.2020
4204 Clouds 3 1003 100 10000 2.6 130 15:45 31.12.2020
4205 Clouds 3 1003 93 10000 2.6 120 15:20 31.12.2020
4206 Clouds 4 1003 93 10000 2.6 140 14:43 31.12.2020
4207 Clouds 4 1003 93 10000 3.1 130 14:24 31.12.2020
4208 Clouds 4 1003 93 10000 3.1 130 13:59 31.12.2020
4209 Clouds 4 1003 86 10000 2.1 130 13:38 31.12.2020
4210 Rain 4 1003 93 10000 3.1 130 13:19 31.12.2020
4211 Clouds 4 1003 93 10000 2.6 120 12:50 31.12.2020
4212 Clouds 4 1003 93 10000 2.6 120 12:32 31.12.2020
4213 Clouds 3 1003 100 10000 2.6 130 11:48 31.12.2020
4214 Clouds 3 1003 100 10000 2.6 130 11:30 31.12.2020
4215 Clouds 3 1003 93 10000 2.6 120 10:46 31.12.2020
4216 Clouds 3 1003 93 10000 2.6 120 10:27 31.12.2020
4217 Clouds 3 1002 100 10000 2.1 150 09:50 31.12.2020
4218 Clouds 3 1002 100 10000 2.1 150 09:26 31.12.2020
4219 Clouds 3 1002 100 10000 2.6 130 08:50 31.12.2020
4220 Clouds 3 1002 100 10000 2.6 130 08:31 31.12.2020
4221 Drizzle 3 1002 100 10000 2.6 150 07:56 31.12.2020
4222 Rain 3 1002 100 10000 2.6 150 07:27 31.12.2020
4223 Clouds 3 1001 93 10000 3.6 130 05:30 31.12.2020
4224 Clouds 3 1001 93 10000 2.6 140 03:38 31.12.2020
4225 Clouds 2 1001 100 10000 1.5 140 02:44 31.12.2020
4226 Clouds 2 1001 100 10000 2.6 120 02:25 31.12.2020
4227 Clouds 1 1001 100 10000 2.6 120 01:43 31.12.2020
4228 Clouds 2 1001 100 10000 2.1 140 01:22 31.12.2020
4229 Mist 1 1001 100 9000 2.6 140 00:43 31.12.2020
4230 Mist 2 1000 100 5000 1.5 130 23:43 30.12.2020
4231 Mist 1 1000 100 3600 1.5 130 23:19 30.12.2020
4232 Clouds 2 1000 100 10000 2.1 150 22:47 30.12.2020
4233 Clouds 2 1000 100 10000 2.1 150 22:29 30.12.2020
4234 Clouds 2 1000 100 10000 1.5 180 21:39 30.12.2020
4235 Clear 2 999 100 10000 2.1 170 21:20 30.12.2020
4236 Clear 2 999 100 10000 2.1 160 20:48 30.12.2020
4237 Clear 2 999 100 10000 2.1 160 20:20 30.12.2020
4238 Clouds 2 999 100 10000 1.5 160 19:40 30.12.2020
4239 Clouds 2 999 100 10000 2.1 180 19:21 30.12.2020
4240 Clouds 2 999 100 10000 2.1 180 18:46 30.12.2020
4241 Clouds 2 998 100 10000 1.5 170 18:27 30.12.2020
4242 Clouds 2 998 100 10000 1.5 170 17:50 30.12.2020
4243 Clouds 1 998 100 10000 2.6 190 17:32 30.12.2020
4244 Clouds 1 998 100 10000 2.1 190 16:53 30.12.2020
4245 Rain 1 998 100 10000 2.1 190 16:29 30.12.2020
4246 Clouds 1 997 100 8000 1.5 190 15:47 30.12.2020
4247 Rain 1 997 100 5000 2.1 190 15:24 30.12.2020
4248 Snow 1 997 100 5000 2.1 190 14:44 30.12.2020
4249 Rain 1 996 100 7000 2.1 200 14:22 30.12.2020
4250 Rain 2 996 100 7000 1 210 13:29 30.12.2020
4251 Rain 2 996 100 9000 0.5 210 12:29 30.12.2020
4252 Rain 2 995 100 9000 1 250 11:57 30.12.2020
4253 Rain 2 995 100 9000 1 250 11:36 30.12.2020
4254 Rain 2 995 100 9000 1 320 11:18 30.12.2020
4255 Drizzle 2 994 93 9000 1.5 320 10:40 30.12.2020
4256 Drizzle 2 994 100 9000 1.5 350 10:21 30.12.2020
4257 Drizzle 2 994 100 9000 1.5 350 09:49 30.12.2020
4258 Rain 2 993 100 10000 2.1 340 09:25 30.12.2020
4259 Rain 2 993 100 9000 2.1 20 08:28 30.12.2020
4260 Clouds 2 992 100 9000 2.1 20 07:29 30.12.2020
4261 Clouds 2 992 100 10000 2.6 20 06:52 30.12.2020
4262 Clouds 2 992 100 10000 2.6 20 06:30 30.12.2020
4263 Clouds 3 992 93 8000 2.6 40 05:43 30.12.2020
4264 Rain 3 992 93 8000 2.6 40 05:24 30.12.2020
4265 Drizzle 3 992 100 6000 3.1 50 03:28 30.12.2020
4266 Drizzle 3 992 100 5000 4.1 50 02:40 30.12.2020
4267 Rain 3 992 100 7000 4.1 60 01:56 30.12.2020
4268 Rain 4 992 93 6000 3.6 40 01:33 30.12.2020
4269 Mist 4 992 93 4600 4.6 60 00:50 30.12.2020
4270 Rain 4 992 93 4600 4.6 60 00:30 30.12.2020
4271 Mist 4 992 93 4700 4.6 60 23:54 29.12.2020
4272 Mist 4 993 93 4500 4.6 70 23:36 29.12.2020
4273 Mist 4 993 93 3600 4.1 70 22:58 29.12.2020
4274 Clouds 4 987 95 10000 1.34 45 22:40 29.12.2020
4275 Clouds 4 987 95 10000 1.79 45 22:20 29.12.2020
4276 Mist 4 993 93 4600 3.6 80 21:46 29.12.2020
4277 Clouds 4 993 93 10000 5.7 90 21:24 29.12.2020
4278 Clouds 4 993 93 10000 5.7 90 20:46 29.12.2020
4279 Clouds 4 993 93 10000 5.7 90 20:25 29.12.2020
4280 Drizzle 4 993 93 10000 6.2 90 19:49 29.12.2020
4281 Drizzle 4 993 93 10000 6.2 90 19:24 29.12.2020
4282 Clouds 4 993 93 10000 5.7 90 18:54 29.12.2020
4283 Rain 4 987 94 10000 1.34 45 18:32 29.12.2020
4284 Rain 5 993 93 10000 6.7 100 17:57 29.12.2020
4285 Rain 5 993 93 10000 6.7 100 17:37 29.12.2020
4286 Rain 5 993 93 10000 5.1 90 17:18 29.12.2020
4287 Rain 5 993 93 10000 5.1 90 16:35 29.12.2020
4288 Rain 5 994 93 10000 5.1 90 15:56 29.12.2020
4289 Rain 5 994 93 10000 5.1 90 15:34 29.12.2020
4290 Clouds 5 994 93 10000 5.7 100 14:58 29.12.2020
4291 Clouds 5 994 93 10000 5.7 100 14:36 29.12.2020
4292 Clouds 5 994 93 9000 6.2 110 14:18 29.12.2020
4293 Clouds 5 994 93 9000 6.2 110 14:18 29.12.2020
4294 Clouds 5 994 93 9000 6.2 110 13:39 29.12.2020
4295 Mist 5 994 93 8000 6.2 110 13:18 29.12.2020
4296 Drizzle 5 994 93 9000 4.6 100 12:37 29.12.2020
4297 Clouds 5 994 100 7000 4.1 110 12:19 29.12.2020
4298 Rain 5 994 100 7000 4.1 110 11:50 29.12.2020
4299 Rain 5 994 100 7000 4.1 110 11:31 29.12.2020
4300 Clouds 5 994 93 10000 5.7 120 10:22 29.12.2020
4301 Clouds 5 993 93 10000 4.1 110 09:47 29.12.2020
4302 Clouds 5 993 93 10000 3.6 100 09:19 29.12.2020
4303 Clouds 5 993 93 10000 4.1 100 08:50 29.12.2020
4304 Rain 5 993 93 10000 6.2 120 07:58 29.12.2020
4305 Drizzle 4 993 100 10000 4.1 100 07:26 29.12.2020
4306 Rain 4 993 93 10000 5.1 110 06:19 29.12.2020
4307 Rain 4 993 93 9000 4.6 120 03:32 29.12.2020
4308 Rain 4 994 100 3400 5.7 110 00:44 29.12.2020
4309 Rain 4 994 93 8000 5.1 100 23:55 28.12.2020
4310 Mist 4 994 93 8000 5.1 100 23:33 28.12.2020
4311 Clouds 3 995 93 10000 5.1 110 22:24 28.12.2020
4312 Rain 3 995 93 10000 5.7 110 21:44 28.12.2020
4313 Rain 3 995 93 10000 6.7 110 21:24 28.12.2020
4314 Rain 3 995 93 10000 6.2 120 20:40 28.12.2020
4315 Rain 4 995 93 10000 6.2 120 20:22 28.12.2020
4316 Rain 4 995 86 10000 5.7 120 19:47 28.12.2020
4317 Rain 4 995 86 10000 7.7 120 19:24 28.12.2020
4318 Clouds 4 995 86 10000 7.7 120 18:51 28.12.2020
4319 Clouds 4 995 86 10000 7.7 120 18:28 28.12.2020
4320 Clouds 4 995 86 10000 6.2 130 17:45 28.12.2020
4321 Clouds 4 995 86 10000 8.2 130 17:25 28.12.2020
4322 Clouds 4 995 86 10000 8.2 130 16:46 28.12.2020
4323 Clouds 3 995 93 10000 8.2 120 16:26 28.12.2020
4324 Clouds 3 995 93 10000 8.2 120 15:52 28.12.2020
4325 Clouds 3 995 93 10000 8.2 120 15:26 28.12.2020
4326 Rain 3 996 86 10000 7.2 120 14:23 28.12.2020
4327 Rain 4 996 86 10000 7.7 120 13:35 28.12.2020
4328 Clouds 4 996 86 10000 9.8 130 12:57 28.12.2020
4329 Clouds 4 996 93 5000 7.7 130 12:24 28.12.2020
4330 Clouds 4 996 93 5000 7.7 120 11:47 28.12.2020
4331 Clouds 4 996 93 5000 7.7 120 11:26 28.12.2020
4332 Clouds 4 996 86 8000 8.7 130 10:52 28.12.2020
4333 Clouds 4 996 86 8000 8.7 130 10:28 28.12.2020
4334 Clouds 4 990 89 10000 2.68 135 09:49 28.12.2020
4335 Clouds 4 995 75 10000 9.3 140 09:21 28.12.2020
4336 Clouds 4 995 75 10000 9.3 140 08:55 28.12.2020
4337 Clouds 4 994 80 10000 10.8 130 06:51 28.12.2020
4338 Clouds 4 994 76 10000 7.7 140 04:44 28.12.2020
4339 Clouds 4 994 74 10000 7.7 140 02:59 28.12.2020
4340 Clouds 4 994 74 10000 8.7 150 01:46 28.12.2020
4341 Clouds 5 994 73 10000 7.7 140 23:50 27.12.2020
4342 Clouds 5 994 72 10000 8.7 150 23:20 27.12.2020
4343 Clouds 5 994 72 10000 8.7 150 23:20 27.12.2020
4344 Clouds 4 994 75 10000 8.2 150 21:59 27.12.2020
4345 Clouds 5 993 75 10000 7.7 150 21:27 27.12.2020
4346 Clouds 5 993 75 10000 8.7 150 20:56 27.12.2020
4347 Clouds 5 993 75 10000 9.3 150 19:49 27.12.2020
4348 Clouds 5 993 75 10000 9.3 150 19:23 27.12.2020
4349 Clouds 4 992 75 10000 8.2 150 18:47 27.12.2020
4350 Clouds 4 993 80 10000 9.3 150 18:20 27.12.2020
4351 Clouds 4 993 80 10000 9.3 150 17:52 27.12.2020
4352 Clouds 4 993 80 10000 9.3 150 17:34 27.12.2020
4353 Clouds 4 993 80 10000 10.3 150 16:54 27.12.2020
4354 Clouds 4 993 86 10000 9.8 150 16:21 27.12.2020
4355 Clouds 5 993 93 10000 7.7 160 15:22 27.12.2020
4356 Clouds 5 993 93 10000 7.7 160 14:45 27.12.2020
4357 Clouds 5 993 93 10000 7.7 160 14:27 27.12.2020
4358 Rain 5 994 86 10000 7.2 170 13:23 27.12.2020
4359 Clouds 5 994 86 10000 7.2 170 12:51 27.12.2020
4360 Clouds 5 994 86 10000 8.2 170 12:22 27.12.2020
4361 Clouds 5 995 86 10000 8.2 170 11:40 27.12.2020
4362 Clouds 5 995 86 10000 7.2 170 10:53 27.12.2020
4363 Clouds 5 995 86 10000 7.2 170 10:26 27.12.2020
4364 Clouds 5 995 86 10000 7.2 160 09:58 27.12.2020
4365 Rain 4 989 93 10000 1.34 248 08:50 27.12.2020
4366 Drizzle 4 995 86 10000 7.7 160 08:26 27.12.2020
4367 Clouds 4 995 93 10000 7.2 170 07:28 27.12.2020
4368 Drizzle 4 996 93 10000 6.2 170 05:46 27.12.2020
4369 Drizzle 4 997 93 10000 5.1 170 04:58 27.12.2020
4370 Drizzle 3 998 86 10000 4.1 170 03:22 27.12.2020
4371 Drizzle 3 1000 93 10000 4.1 160 01:35 27.12.2020
4372 Rain 3 1001 100 7000 4.1 140 00:25 27.12.2020
4373 Drizzle 2 1001 93 9000 4.1 150 23:41 26.12.2020
4374 Clouds 2 1002 93 10000 4.1 140 23:21 26.12.2020
4375 Clouds 2 1003 93 10000 3.6 140 22:38 26.12.2020
4376 Clouds 2 1004 93 10000 3.6 140 22:18 26.12.2020
4377 Clouds 2 1004 93 10000 3.6 140 22:18 26.12.2020
4378 Clouds 2 1004 93 10000 3.6 140 21:52 26.12.2020
4379 Clouds 1 1004 89 10000 3.6 150 21:24 26.12.2020
4380 Clouds 1 1005 89 10000 3.1 130 20:43 26.12.2020
4381 Clouds 0 1005 90 10000 3.1 130 20:20 26.12.2020
4382 Clouds -1 1006 92 10000 2.6 130 19:30 26.12.2020
4383 Clouds -1 1007 92 10000 2.6 140 18:54 26.12.2020
4384 Clouds -1 1007 92 10000 2.6 140 18:32 26.12.2020
4385 Clouds -2 1008 92 10000 3.1 140 17:46 26.12.2020
4386 Clouds -2 1008 92 10000 3.1 140 17:27 26.12.2020
4387 Clouds -2 1009 92 10000 2.6 140 16:38 26.12.2020
4388 Mist -2 1009 92 9000 2.1 140 15:57 26.12.2020
4389 Clouds -2 1010 92 10000 2.1 160 15:20 26.12.2020
4390 Clouds -2 1010 100 10000 2.1 150 14:30 26.12.2020
4391 Clouds -2 1010 100 10000 1.5 200 13:56 26.12.2020
4392 Clouds -2 1011 100 10000 1.5 180 13:36 26.12.2020
4393 Clouds -2 1011 100 10000 0.5 0 12:53 26.12.2020
4394 Clouds -1 1011 92 10000 1 230 12:35 26.12.2020
4395 Clouds -2 1011 100 10000 1 0 11:59 26.12.2020
4396 Clouds -2 1012 100 10000 2.6 270 11:41 26.12.2020
4397 Clouds -2 1012 100 10000 2.6 280 11:19 26.12.2020
4398 Clouds -2 1012 92 10000 2.6 250 10:43 26.12.2020
4399 Clouds -2 1012 100 10000 2.1 280 10:23 26.12.2020
4400 Clouds -2 1012 100 10000 2.1 280 09:41 26.12.2020
4401 Clouds -2 1012 92 10000 2.1 290 08:55 26.12.2020
4402 Clouds -2 1012 92 10000 3.1 280 08:19 26.12.2020
4403 Clouds -2 1012 100 10000 2.6 290 07:21 26.12.2020
4404 Clouds -1 1012 92 10000 4.1 310 04:39 26.12.2020
4405 Clouds -1 1012 100 10000 3.1 290 02:34 26.12.2020
4406 Clouds 0 1013 97 10000 3.6 300 00:36 26.12.2020
4407 Snow 0 1013 97 10000 3.1 330 23:49 25.12.2020
4408 Clouds 0 1013 95 10000 3.1 330 23:28 25.12.2020
4409 Clouds -1 1012 100 10000 4.6 330 22:52 25.12.2020
4410 Clouds -1 1012 100 10000 4.6 330 22:26 25.12.2020
4411 Clouds 0 1012 93 10000 4.6 320 21:42 25.12.2020
4412 Clouds 0 1012 93 10000 4.6 320 21:24 25.12.2020
4413 Snow -1 1012 100 4600 5.7 330 20:45 25.12.2020
4414 Snow -1 1012 100 4600 5.7 330 20:26 25.12.2020
4415 Snow -1 1012 100 1200 5.7 330 19:43 25.12.2020
4416 Snow 0 1012 91 1800 5.7 310 18:47 25.12.2020
4417 Snow 0 1012 95 1800 5.7 310 18:29 25.12.2020
4418 Snow 0 1012 95 10000 5.7 310 17:35 25.12.2020
4419 Snow 0 1012 96 6000 6.2 320 16:55 25.12.2020
4420 Snow 0 1011 98 900 5.7 320 16:25 25.12.2020
4421 Snow 0 1011 98 900 5.7 320 15:50 25.12.2020
4422 Snow 0 1011 98 900 5.7 320 15:31 25.12.2020
4423 Snow 0 1010 98 1200 6.2 330 14:32 25.12.2020
4424 Snow 0 1010 98 10000 6.2 320 13:57 25.12.2020
4425 Snow 0 1010 98 9000 7.7 330 13:37 25.12.2020
4426 Snow 0 1010 97 9000 7.7 330 13:18 25.12.2020
4427 Snow 0 1010 97 9000 7.7 330 13:18 25.12.2020
4428 Snow 0 1010 94 10000 7.7 320 12:27 25.12.2020
4429 Snow 0 1009 94 10000 7.7 320 11:48 25.12.2020
4430 Clouds 0 1010 94 10000 7.7 320 11:24 25.12.2020
4431 Clouds 0 1010 94 10000 7.7 320 11:24 25.12.2020
4432 Snow 0 1010 94 10000 7.2 310 10:47 25.12.2020
4433 Snow 0 1010 95 10000 7.2 310 10:21 25.12.2020
4434 Clouds 0 1009 96 10000 5.7 310 09:26 25.12.2020
4435 Clouds -1 1009 86 10000 4.6 310 08:40 25.12.2020
4436 Snow -1 1009 92 10000 5.7 310 07:35 25.12.2020
4437 Snow -1 1009 92 10000 6.2 310 06:44 25.12.2020
4438 Clouds 0 1008 94 10000 3.6 300 02:36 25.12.2020
4439 Clouds 0 1008 94 10000 3.6 300 02:36 25.12.2020
4440 Clouds -1 1007 92 10000 3.1 310 00:38 25.12.2020
4441 Clouds 0 1007 93 10000 3.6 310 23:40 24.12.2020
4442 Clouds 0 1007 91 10000 3.1 320 23:21 24.12.2020
4443 Snow 0 1007 90 10000 3.1 310 22:26 24.12.2020
4444 Snow 0 1007 90 10000 3.1 310 21:53 24.12.2020
4445 Snow 0 1007 90 10000 3.1 310 21:27 24.12.2020
4446 Clouds 0 1006 91 10000 2.1 290 20:18 24.12.2020
4447 Clouds 0 1006 88 10000 3.1 300 18:22 24.12.2020
4448 Clouds 0 1006 100 10000 3.1 310 17:45 24.12.2020
4449 Clouds 0 1006 92 10000 2.6 300 17:26 24.12.2020
4450 Clouds 0 1005 92 10000 2.6 310 16:27 24.12.2020
4451 Clouds 0 1005 89 10000 2.6 330 15:49 24.12.2020
4452 Clouds 0 1005 89 10000 2.6 330 15:29 24.12.2020
4453 Clouds 0 1005 89 10000 2.6 320 14:58 24.12.2020
4454 Clouds 0 1005 89 10000 2.6 310 14:40 24.12.2020
4455 Clear 0 1005 86 10000 2.6 310 14:22 24.12.2020
4456 Clear 0 1005 86 10000 2.6 310 13:39 24.12.2020
4457 Clouds 0 1005 92 10000 2.1 310 13:19 24.12.2020
4458 Clouds 0 1005 92 10000 2.1 310 12:41 24.12.2020
4459 Clouds -1 1005 100 10000 2.1 290 12:19 24.12.2020
4460 Clouds -1 1005 100 10000 2.1 290 11:39 24.12.2020
4461 Clouds -1 1005 100 10000 1.5 280 11:20 24.12.2020
4462 Clouds -1 1005 100 10000 1.5 280 10:46 24.12.2020
4463 Clouds -2 1005 100 10000 1.5 280 10:28 24.12.2020
4464 Clouds -2 1005 100 10000 1.5 280 09:51 24.12.2020
4465 Clouds -2 1005 100 10000 1.5 280 09:23 24.12.2020
4466 Clear -2 1004 100 10000 2.5 331 07:57 24.12.2020
4467 Clear -2 1004 100 10000 1 0 07:37 24.12.2020
4468 Clear -2 1004 100 10000 0.5 0 06:52 24.12.2020
4469 Mist -1 1005 100 900 1 0 04:24 24.12.2020
4470 Clear 0 1005 92 10000 0.5 0 01:53 24.12.2020
4471 Clear -1 1005 92 10000 0.5 0 01:30 24.12.2020
4472 Clear 0 1005 91 10000 1.5 230 00:55 24.12.2020
4473 Clear 0 1005 90 10000 1.5 270 00:19 24.12.2020
4474 Clear 1 1005 90 10000 1.5 270 23:40 23.12.2020
4475 Clear 1 1005 87 10000 2.6 270 23:21 23.12.2020
4476 Clear 1 1004 93 10000 2.1 270 22:50 23.12.2020
4477 Clear 1 1005 93 10000 2.1 250 22:29 23.12.2020
4478 Clear 1 1004 93 10000 3.1 260 21:49 23.12.2020
4479 Clear 1 1004 93 10000 2.6 250 21:23 23.12.2020
4480 Clear 2 1004 93 10000 2.6 250 20:47 23.12.2020
4481 Clear 2 1004 86 10000 3.6 250 20:28 23.12.2020
4482 Clear 2 1004 86 10000 3.6 250 19:59 23.12.2020
4483 Clear 2 1004 86 10000 3.6 250 19:38 23.12.2020
4484 Clear 2 1004 93 10000 4.1 250 19:19 23.12.2020
4485 Clear 3 1004 93 10000 4.1 250 18:46 23.12.2020
4486 Clear 3 1004 93 10000 4.6 240 18:20 23.12.2020
4487 Clear 3 1003 93 10000 3.1 240 17:36 23.12.2020
4488 Clear 3 1003 93 10000 3.1 240 17:18 23.12.2020
4489 Clear 3 1003 93 10000 3.1 220 16:40 23.12.2020
4490 Clear 3 1003 93 10000 3.6 220 16:22 23.12.2020
4491 Clear 3 1003 93 10000 3.6 220 15:50 23.12.2020
4492 Clouds 4 1003 86 10000 4.1 250 15:27 23.12.2020
4493 Clouds 4 1003 86 10000 4.1 250 14:58 23.12.2020
4494 Clouds 4 1002 80 10000 4.6 250 14:38 23.12.2020
4495 Clouds 5 1002 80 10000 5.7 270 14:20 23.12.2020
4496 Clouds 5 1002 80 10000 5.7 270 13:43 23.12.2020
4497 Clouds 5 1002 80 10000 4.6 270 13:19 23.12.2020
4498 Clouds 5 1002 80 10000 4.6 260 12:49 23.12.2020
4499 Clouds 5 1002 80 10000 4.6 260 12:24 23.12.2020
4500 Clouds 6 1002 81 10000 4.6 250 11:46 23.12.2020
4501 Clouds 6 1002 81 10000 5.1 250 11:19 23.12.2020
4502 Clouds 6 1001 87 10000 4.1 230 10:43 23.12.2020
4503 Clouds 5 1001 93 10000 3.6 220 10:25 23.12.2020
4504 Clouds 6 1001 87 10000 3.6 230 09:35 23.12.2020
4505 Clouds 5 1001 93 10000 3.1 220 08:48 23.12.2020
4506 Clouds 5 1000 93 10000 3.6 220 08:20 23.12.2020
4507 Clouds 5 1000 93 10000 3.6 240 07:27 23.12.2020
4508 Clouds 5 1000 93 10000 3.1 240 06:41 23.12.2020
4509 Clouds 5 1000 93 10000 2.1 210 05:39 23.12.2020
4510 Clouds 5 1000 93 10000 2.6 220 04:57 23.12.2020
4511 Clouds 5 1000 100 10000 3.1 240 00:34 23.12.2020
4512 Clouds 5 1000 100 10000 2.6 220 23:58 22.12.2020
4513 Clouds 5 1000 100 10000 2.6 220 23:33 22.12.2020
4514 Mist 5 1000 100 5000 2.1 170 22:44 22.12.2020
4515 Mist 5 1000 100 5000 2.1 170 22:25 22.12.2020
4516 Mist 5 1000 100 8000 2.6 160 21:59 22.12.2020
4517 Drizzle 5 1000 100 10000 2.6 160 21:41 22.12.2020
4518 Drizzle 5 1000 93 7000 3.1 180 21:19 22.12.2020
4519 Rain 5 1000 93 7000 3.1 180 20:48 22.12.2020
4520 Rain 5 1000 100 9000 5.7 140 20:22 22.12.2020
4521 Rain 5 1000 100 9000 5.7 140 19:44 22.12.2020
4522 Rain 5 1001 93 10000 6.2 140 19:22 22.12.2020
4523 Rain 5 1001 100 9000 6.7 140 18:55 22.12.2020
4524 Rain 5 1001 100 9000 6.7 140 18:30 22.12.2020
4525 Rain 5 1002 87 9000 7.7 140 17:59 22.12.2020
4526 Rain 5 1002 93 10000 6.7 140 17:26 22.12.2020
4527 Rain 5 1003 87 10000 7.2 140 16:56 22.12.2020
4528 Rain 5 1003 87 10000 7.2 140 16:37 22.12.2020
4529 Rain 5 1003 93 10000 6.2 140 16:19 22.12.2020
4530 Rain 5 1003 87 10000 7.2 140 15:43 22.12.2020
4531 Rain 5 1004 93 10000 6.2 140 15:23 22.12.2020
4532 Rain 5 1004 93 10000 6.2 140 14:45 22.12.2020
4533 Clouds 5 1004 93 10000 6.2 140 14:27 22.12.2020
4534 Rain 6 1005 87 10000 6.2 140 13:50 22.12.2020
4535 Rain 6 1006 87 10000 6.2 150 13:20 22.12.2020
4536 Rain 6 1006 87 10000 6.2 150 12:58 22.12.2020
4537 Clouds 6 1006 81 10000 5.7 150 12:39 22.12.2020
4538 Clouds 6 1007 81 10000 5.7 140 12:19 22.12.2020
4539 Clouds 6 1007 81 10000 5.7 140 11:42 22.12.2020
4540 Clouds 5 1008 87 10000 5.7 140 11:22 22.12.2020
4541 Clouds 5 1008 87 10000 5.7 140 10:55 22.12.2020
4542 Clouds 5 1008 87 10000 5.7 140 10:27 22.12.2020
4543 Clouds 5 1008 93 10000 4.6 140 09:58 22.12.2020
4544 Clouds 5 1009 93 10000 4.1 120 09:30 22.12.2020
4545 Rain 5 1009 93 10000 4.1 120 08:58 22.12.2020
4546 Clouds 4 1010 93 10000 2.6 120 08:39 22.12.2020
4547 Clouds 4 1010 93 10000 2.1 130 08:19 22.12.2020
4548 Clouds 4 1010 93 10000 2.1 130 07:27 22.12.2020
4549 Clouds 4 1011 93 10000 2.6 140 06:34 22.12.2020
4550 Clouds 3 1012 93 10000 2.1 180 05:33 22.12.2020
4551 Clouds 4 1013 100 10000 2.6 190 02:35 22.12.2020
4552 Clouds 4 1013 93 10000 2.1 190 00:30 22.12.2020
4553 Clouds 4 1013 93 10000 2.1 190 23:51 21.12.2020
4554 Clouds 5 1013 87 10000 3.1 220 23:22 21.12.2020
4555 Clouds 5 1013 87 10000 3.1 220 22:37 21.12.2020
4556 Clouds 5 1013 93 10000 3.1 210 22:19 21.12.2020
4557 Clouds 5 1013 93 10000 3.1 210 22:19 21.12.2020
4558 Clouds 5 1013 93 10000 3.1 210 22:19 21.12.2020
4559 Clouds 6 1013 93 10000 4.1 210 21:48 21.12.2020
4560 Clouds 6 1013 93 10000 4.1 210 21:30 21.12.2020
4561 Clouds 6 1013 93 10000 4.6 220 20:46 21.12.2020
4562 Clouds 6 1013 93 10000 3.6 210 20:23 21.12.2020
4563 Clouds 6 1013 93 10000 3.6 210 19:55 21.12.2020
4564 Clouds 6 1013 93 10000 4.1 190 19:36 21.12.2020
4565 Clouds 5 1013 93 10000 3.6 190 19:18 21.12.2020
4566 Clouds 6 1013 93 10000 3.6 190 18:45 21.12.2020
4567 Clouds 6 1013 93 10000 2.6 190 18:27 21.12.2020
4568 Clouds 6 1013 93 10000 4.1 190 17:43 21.12.2020
4569 Clouds 6 1013 93 10000 4.1 190 17:23 21.12.2020
4570 Clouds 6 1013 93 10000 3.1 180 16:45 21.12.2020
4571 Clouds 6 1013 93 10000 3.1 190 16:23 21.12.2020
4572 Clouds 6 1013 93 10000 3.1 190 15:43 21.12.2020
4573 Clouds 6 1013 93 10000 2.6 190 15:18 21.12.2020
4574 Clouds 6 1013 93 10000 3.1 200 14:54 21.12.2020
4575 Clouds 6 1013 100 10000 3.1 190 14:20 21.12.2020
4576 Clouds 6 1014 100 10000 2.6 180 13:42 21.12.2020
4577 Clouds 6 1014 100 10000 2.6 210 13:22 21.12.2020
4578 Clouds 7 1014 93 10000 3.1 200 12:43 21.12.2020
4579 Clouds 6 1014 100 10000 3.1 210 12:23 21.12.2020
4580 Clouds 6 1014 100 10000 3.1 210 11:43 21.12.2020
4581 Clouds 6 1014 100 10000 3.1 200 11:23 21.12.2020
4582 Clouds 6 1014 100 10000 3.1 200 11:23 21.12.2020
4583 Clouds 6 1014 100 10000 3.1 200 10:58 21.12.2020
4584 Clouds 6 1014 100 10000 3.1 210 10:40 21.12.2020
4585 Clouds 6 1014 100 10000 3.1 210 09:59 21.12.2020
4586 Drizzle 6 1014 100 10000 3.1 190 09:40 21.12.2020
4587 Clouds 6 1014 100 10000 3.1 190 09:22 21.12.2020
4588 Rain 6 1014 100 10000 2.6 190 08:30 21.12.2020
4589 Rain 6 1014 100 10000 2.6 180 07:31 21.12.2020
4590 Drizzle 6 1015 100 10000 2.6 170 05:50 21.12.2020
4591 Clouds 6 1015 100 10000 2.6 160 04:31 21.12.2020
4592 Rain 6 1016 100 10000 2.6 170 00:38 21.12.2020
4593 Rain 6 1016 93 10000 3.6 180 23:52 20.12.2020
4594 Rain 7 1016 93 8000 4.1 180 23:21 20.12.2020
4595 Rain 7 1016 93 8000 4.1 180 22:55 20.12.2020
4596 Clouds 7 1016 93 8000 4.1 180 22:37 20.12.2020
4597 Clouds 7 1017 93 6000 4.1 170 22:19 20.12.2020
4598 Mist 7 1017 93 5000 4.1 170 21:38 20.12.2020
4599 Clouds 7 1011 95 10000 0.89 248 21:19 20.12.2020
4600 Clouds 7 1017 93 7000 3.6 170 20:45 20.12.2020
4601 Clouds 7 1011 95 10000 0.89 248 20:22 20.12.2020
4602 Clouds 7 1017 93 8000 3.1 160 19:44 20.12.2020
4603 Clouds 7 1017 93 8000 3.1 160 19:24 20.12.2020
4604 Clouds 6 1017 100 9000 3.1 160 18:54 20.12.2020
4605 Clouds 6 1017 100 9000 3.1 160 18:36 20.12.2020
4606 Clouds 6 1017 100 9000 3.1 160 18:36 20.12.2020
4607 Clouds 6 1018 93 10000 3.1 170 17:55 20.12.2020
4608 Clouds 6 1018 93 10000 3.1 170 17:36 20.12.2020
4609 Clouds 6 1018 93 10000 3.1 170 17:18 20.12.2020
4610 Clouds 6 1018 93 10000 3.1 170 16:43 20.12.2020
4611 Clouds 6 1018 93 10000 3.6 190 16:23 20.12.2020
4612 Clouds 6 1018 93 10000 3.6 190 15:40 20.12.2020
4613 Clouds 6 1017 93 10000 3.6 190 15:22 20.12.2020
4614 Clouds 6 1017 93 10000 3.6 180 14:45 20.12.2020
4615 Clouds 6 1017 93 10000 3.6 180 14:27 20.12.2020
4616 Clouds 7 1017 93 10000 3.1 170 13:44 20.12.2020
4617 Clouds 7 1017 93 10000 3.6 180 13:23 20.12.2020
4618 Clouds 7 1012 94 10000 0.45 248 12:51 20.12.2020
4619 Clouds 7 1018 90 10000 3.55 201 12:23 20.12.2020
4620 Clouds 7 1012 94 10000 0.45 270 11:51 20.12.2020
4621 Clouds 7 1017 93 10000 3.6 180 11:26 20.12.2020
4622 Clouds 7 1017 87 10000 3.6 190 10:49 20.12.2020
4623 Clouds 6 1017 93 10000 3.6 180 10:22 20.12.2020
4624 Clouds 6 1017 93 10000 3.6 180 09:56 20.12.2020
4625 Clouds 6 1016 93 10000 3.6 190 09:37 20.12.2020
4626 Clouds 6 1016 93 10000 3.6 190 09:18 20.12.2020
4627 Clouds 6 1016 93 10000 3.1 180 08:47 20.12.2020
4628 Clouds 6 1015 93 10000 3.6 150 08:28 20.12.2020
4629 Clouds 6 1016 87 10000 2.6 180 07:21 20.12.2020
4630 Clouds 5 1015 93 10000 5.7 220 03:44 20.12.2020
4631 Clouds 5 1015 100 10000 4.1 180 01:25 20.12.2020
4632 Clouds 5 1015 93 10000 4.1 190 23:58 19.12.2020
4633 Clouds 5 1015 93 10000 4.6 190 23:18 19.12.2020
4634 Clouds 5 1015 93 10000 4.6 190 23:18 19.12.2020
4635 Clouds 5 1015 93 10000 5.1 180 22:44 19.12.2020
4636 Clouds 5 1015 93 10000 5.1 180 22:25 19.12.2020
4637 Clouds 5 1015 93 10000 3.6 170 21:58 19.12.2020
4638 Clouds 5 1015 93 10000 3.6 170 21:38 19.12.2020
4639 Clouds 5 1015 100 10000 4.1 170 21:20 19.12.2020
4640 Clouds 5 1015 100 10000 3.6 160 20:37 19.12.2020
4641 Clouds 5 1015 100 10000 3.1 170 20:18 19.12.2020
4642 Clouds 5 1015 100 10000 3.6 170 19:46 19.12.2020
4643 Clouds 5 1015 100 10000 3.6 170 19:24 19.12.2020
4644 Clouds 5 1015 100 10000 2.6 180 18:34 19.12.2020
4645 Clouds 5 1015 100 10000 2.1 160 17:58 19.12.2020
4646 Clear 5 1015 100 10000 2.1 150 17:37 19.12.2020
4647 Clear 5 1015 93 10000 2.1 170 17:19 19.12.2020
4648 Clear 5 1015 93 10000 1.5 170 16:40 19.12.2020
4649 Clouds 5 1015 93 10000 2.1 190 16:22 19.12.2020
4650 Clouds 6 1015 100 10000 2.6 170 15:54 19.12.2020
4651 Clouds 6 1015 100 10000 2.6 170 15:26 19.12.2020
4652 Clouds 6 1015 93 10000 1.5 190 14:39 19.12.2020
4653 Clouds 7 1015 100 10000 2.6 200 13:59 19.12.2020
4654 Clouds 7 1015 100 10000 2.6 200 13:40 19.12.2020
4655 Clouds 7 1016 91 10000 3.39 227 13:18 19.12.2020
4656 Clouds 7 1015 100 10000 3.6 210 12:42 19.12.2020
4657 Mist 7 1015 100 7000 3.6 210 12:24 19.12.2020
4658 Clouds 7 1015 100 10000 2.1 190 11:56 19.12.2020
4659 Clouds 7 1015 100 10000 2.1 190 11:35 19.12.2020
4660 Clouds 7 1015 93 9000 2.6 200 10:43 19.12.2020
4661 Clouds 7 1010 95 10000 0.45 225 10:23 19.12.2020
4662 Rain 7 1015 93 9000 2.1 180 09:47 19.12.2020
4663 Rain 7 1015 93 9000 2.1 180 09:29 19.12.2020
4664 Rain 7 1015 93 10000 2.6 210 08:32 19.12.2020
4665 Clouds 6 1015 100 10000 2.6 200 07:24 19.12.2020
4666 Clouds 6 1015 100 10000 2.6 200 06:52 19.12.2020
4667 Clouds 6 1015 100 10000 3.1 210 06:19 19.12.2020
4668 Clouds 6 1014 100 10000 2.6 190 05:18 19.12.2020
4669 Clouds 6 1015 100 10000 2.6 190 03:19 19.12.2020
4670 Clouds 6 1015 100 10000 3.1 210 00:37 19.12.2020
4671 Rain 6 1015 100 10000 3.1 210 00:18 19.12.2020
4672 Rain 6 1015 100 10000 3.6 210 23:47 18.12.2020
4673 Rain 6 1015 100 10000 3.6 210 23:23 18.12.2020
4674 Rain 6 1015 93 10000 3.1 200 22:46 18.12.2020
4675 Rain 6 1015 93 10000 2.1 200 22:22 18.12.2020
4676 Rain 6 1015 93 10000 2.1 200 21:50 18.12.2020
4677 Rain 6 1015 93 10000 2.6 200 21:31 18.12.2020
4678 Rain 6 1009 94 10000 0.45 248 20:41 18.12.2020
4679 Clouds 5 1015 100 10000 2.1 200 20:21 18.12.2020
4680 Clouds 5 1015 100 10000 2.1 200 19:44 18.12.2020
4681 Clouds 5 1015 100 10000 1 0 19:20 18.12.2020
4682 Clouds 5 1015 93 10000 0.5 220 18:42 18.12.2020
4683 Clouds 5 1015 93 10000 1.5 230 18:24 18.12.2020
4684 Clouds 5 1015 93 10000 1.5 250 17:24 18.12.2020
4685 Clouds 6 1015 87 10000 2.6 250 16:55 18.12.2020
4686 Clouds 6 1015 87 10000 2.6 250 16:37 18.12.2020
4687 Clouds 6 1015 87 10000 5.1 270 16:18 18.12.2020
4688 Clouds 6 1015 87 10000 5.1 270 15:41 18.12.2020
4689 Clouds 5 1014 93 10000 4.6 260 15:23 18.12.2020
4690 Clouds 5 1014 86 10000 4.6 270 14:55 18.12.2020
4691 Clouds 5 1013 86 10000 6.2 270 14:22 18.12.2020
4692 Clouds 5 1013 86 10000 5.7 270 13:50 18.12.2020
4693 Clouds 5 1013 86 10000 5.7 270 13:31 18.12.2020
4694 Clouds 5 1012 87 10000 6.7 260 12:50 18.12.2020
4695 Clouds 5 1012 93 10000 4.6 270 12:22 18.12.2020
4696 Clouds 5 1012 93 10000 5.1 270 11:23 18.12.2020
4697 Clouds 5 1011 93 10000 6.7 270 10:40 18.12.2020
4698 Drizzle 5 1011 93 10000 6.7 260 10:20 18.12.2020
4699 Drizzle 5 1011 93 10000 5.7 260 09:40 18.12.2020
4700 Drizzle 5 1010 100 10000 5.7 260 09:22 18.12.2020
4701 Drizzle 5 1010 100 10000 5.7 260 08:55 18.12.2020
4702 Rain 6 1010 93 10000 5.7 250 08:36 18.12.2020
4703 Rain 6 1009 93 10000 6.2 240 07:47 18.12.2020
4704 Rain 6 1009 93 10000 5.1 240 07:19 18.12.2020
4705 Rain 6 1009 93 10000 5.1 240 06:58 18.12.2020
4706 Clouds 6 1009 100 10000 3.6 210 05:43 18.12.2020
4707 Clouds 6 1009 100 10000 3.1 200 04:51 18.12.2020
4708 Drizzle 6 1009 100 10000 1.5 180 02:31 18.12.2020
4709 Drizzle 7 1009 93 10000 1.5 190 01:41 18.12.2020
4710 Rain 7 1010 93 10000 2.6 160 00:28 18.12.2020
4711 Clouds 7 1010 93 10000 3.6 160 23:50 17.12.2020
4712 Rain 7 1011 93 10000 3.6 160 23:19 17.12.2020
4713 Drizzle 7 1011 93 10000 3.6 170 22:47 17.12.2020
4714 Drizzle 7 1011 93 10000 3.6 170 22:27 17.12.2020
4715 Rain 7 1012 93 10000 3.1 160 21:44 17.12.2020
4716 Rain 6 1012 100 8000 3.6 140 21:20 17.12.2020
4717 Rain 6 1013 93 10000 4.1 130 20:45 17.12.2020
4718 Drizzle 6 1013 93 10000 4.1 130 20:19 17.12.2020
4719 Rain 6 1013 93 8000 4.6 130 19:49 17.12.2020
4720 Rain 6 1014 93 10000 5.1 130 19:25 17.12.2020
4721 Rain 6 1014 93 10000 5.1 130 18:47 17.12.2020
4722 Rain 6 1015 93 10000 5.1 130 18:27 17.12.2020
4723 Rain 6 1015 93 10000 5.1 130 17:58 17.12.2020
4724 Rain 6 1015 93 10000 5.1 130 17:38 17.12.2020
4725 Rain 6 1015 93 10000 4.1 140 17:20 17.12.2020
4726 Rain 6 1015 93 10000 4.1 140 16:37 17.12.2020
4727 Rain 6 1016 93 10000 4.6 140 16:18 17.12.2020
4728 Rain 6 1016 93 10000 4.6 140 15:42 17.12.2020
4729 Rain 6 1016 93 10000 3.1 130 15:23 17.12.2020
4730 Clouds 6 1017 100 8000 4.1 130 14:47 17.12.2020
4731 Clouds 6 1017 87 10000 3.1 130 14:20 17.12.2020
4732 Clouds 6 1018 87 10000 2.6 140 13:42 17.12.2020
4733 Clouds 6 1018 87 10000 2.6 150 13:20 17.12.2020
4734 Clouds 6 1018 87 10000 2.6 150 12:40 17.12.2020
4735 Clouds 5 1019 100 10000 1 0 12:21 17.12.2020
4736 Clouds 5 1019 100 10000 1.5 160 11:42 17.12.2020
4737 Clouds 5 1019 100 10000 1.5 160 11:21 17.12.2020
4738 Fog 4 1019 100 9000 2.1 140 10:44 17.12.2020
4739 Fog 4 1019 100 10000 1.5 140 09:37 17.12.2020
4740 Clouds 4 1019 100 10000 1.5 130 08:52 17.12.2020
4741 Clouds 4 1018 100 9000 0.5 0 07:44 17.12.2020
4742 Clouds 4 1018 100 9000 0.5 0 07:25 17.12.2020
4743 Mist 5 1018 100 8000 1.67 221 06:49 17.12.2020
4744 Mist 5 1018 100 8000 1.67 221 06:30 17.12.2020
4745 Clouds 3 1018 100 10000 2.1 240 03:30 17.12.2020
4746 Clouds 4 1017 100 10000 4.1 260 00:27 17.12.2020
4747 Clouds 4 1017 100 10000 3.6 240 23:42 16.12.2020
4748 Clouds 3 1017 100 10000 2.6 240 23:18 16.12.2020
4749 Clouds 3 1016 100 10000 1.5 230 22:48 16.12.2020
4750 Clouds 3 1016 100 10000 1.5 230 22:30 16.12.2020
4751 Clear 3 1016 93 10000 1.5 240 21:44 16.12.2020
4752 Clear 4 1015 93 10000 2.6 260 21:23 16.12.2020
4753 Clouds 4 1015 93 10000 3.1 270 20:52 16.12.2020
4754 Clouds 5 1015 86 10000 5.7 270 20:20 16.12.2020
4755 Clouds 5 1015 86 10000 5.7 270 19:38 16.12.2020
4756 Clouds 5 1015 86 10000 6.2 270 19:18 16.12.2020
4757 Clouds 5 1015 86 10000 5.1 280 18:49 16.12.2020
4758 Clouds 5 1014 86 10000 4.6 270 18:25 16.12.2020
4759 Clouds 5 1014 86 10000 5.1 280 17:38 16.12.2020
4760 Clouds 5 1014 86 10000 5.1 280 17:38 16.12.2020
4761 Clouds 6 1014 87 10000 6.7 270 16:56 16.12.2020
4762 Clouds 6 1013 81 10000 7.7 270 16:36 16.12.2020
4763 Clouds 6 1013 81 10000 7.7 270 16:18 16.12.2020
4764 Clouds 6 1013 81 10000 7.7 270 15:46 16.12.2020
4765 Clouds 6 1012 87 10000 6.7 270 15:18 16.12.2020
4766 Clouds 6 1012 87 10000 6.2 260 14:44 16.12.2020
4767 Clouds 6 1011 87 10000 5.1 270 14:26 16.12.2020
4768 Clouds 6 1011 87 10000 5.7 270 13:41 16.12.2020
4769 Clouds 6 1011 87 10000 5.7 270 13:20 16.12.2020
4770 Clouds 6 1011 87 10000 5.7 270 12:43 16.12.2020
4771 Clouds 6 1010 87 10000 5.7 260 11:51 16.12.2020
4772 Clouds 6 1010 87 10000 5.7 260 11:32 16.12.2020
4773 Clouds 6 1009 87 10000 5.1 260 10:56 16.12.2020
4774 Clouds 6 1009 87 10000 5.1 260 10:36 16.12.2020
4775 Clouds 6 1009 93 10000 4.6 260 09:56 16.12.2020
4776 Clouds 7 1009 93 10000 4.6 260 09:32 16.12.2020
4777 Clouds 7 1007 100 10000 3.6 250 08:23 16.12.2020
4778 Clouds 7 1007 100 10000 4.1 260 07:45 16.12.2020
4779 Clouds 7 1007 100 10000 4.1 260 07:20 16.12.2020
4780 Rain 6 1007 100 10000 3.1 240 05:31 16.12.2020
4781 Rain 6 1007 100 7000 2.1 190 01:59 16.12.2020
4782 Clouds 7 1007 93 10000 3.1 190 23:50 15.12.2020
4783 Clouds 7 1007 93 10000 3.1 190 23:32 15.12.2020
4784 Rain 6 1008 93 10000 4.1 170 22:42 15.12.2020
4785 Clouds 6 1008 93 10000 3.6 180 22:22 15.12.2020
4786 Clouds 7 1008 93 10000 3.1 160 21:48 15.12.2020
4787 Clouds 7 1008 93 10000 3.6 160 21:24 15.12.2020
4788 Rain 7 1008 93 10000 3.6 160 20:46 15.12.2020
4789 Rain 7 1009 93 10000 4.1 160 20:27 15.12.2020
4790 Rain 7 1009 93 10000 4.1 160 19:55 15.12.2020
4791 Rain 7 1009 93 10000 3.6 160 19:34 15.12.2020
4792 Rain 7 1009 93 9000 4.1 150 18:44 15.12.2020
4793 Clouds 7 1009 93 10000 3.6 150 18:24 15.12.2020
4794 Rain 7 1009 93 10000 3.6 150 17:59 15.12.2020
4795 Rain 7 1009 93 9000 4.1 160 17:41 15.12.2020
4796 Clouds 7 1010 93 10000 4.1 160 17:20 15.12.2020
4797 Clouds 7 1010 93 10000 4.1 160 17:20 15.12.2020
4798 Clouds 7 1010 93 10000 4.1 160 16:33 15.12.2020
4799 Clouds 7 1010 93 10000 4.1 160 15:55 15.12.2020
4800 Clouds 7 1010 93 10000 4.1 160 15:32 15.12.2020
4801 Clouds 7 1010 93 10000 3.6 150 14:49 15.12.2020
4802 Clouds 7 1010 93 10000 3.6 160 14:25 15.12.2020
4803 Clouds 7 1011 93 10000 5.1 180 13:53 15.12.2020
4804 Clouds 7 1011 93 10000 5.1 180 13:33 15.12.2020
4805 Clouds 7 1010 93 10000 4.1 160 12:47 15.12.2020
4806 Clouds 7 1012 89 10000 3.64 190 12:22 15.12.2020
4807 Clouds 7 1011 93 10000 3.1 170 11:57 15.12.2020
4808 Clouds 7 1011 93 10000 3.1 170 11:39 15.12.2020
4809 Clouds 7 1011 87 10000 3.1 170 11:20 15.12.2020
4810 Clouds 7 1011 87 10000 3.1 170 10:39 15.12.2020
4811 Clouds 6 1011 87 10000 3.6 190 09:53 15.12.2020
4812 Clouds 6 1011 87 10000 3.6 190 09:32 15.12.2020
4813 Clouds 6 1011 100 10000 3.6 170 08:58 15.12.2020
4814 Clouds 6 1011 93 10000 3.1 180 08:30 15.12.2020
4815 Clouds 6 1011 93 10000 3.1 180 08:30 15.12.2020
4816 Clouds 6 1011 93 10000 3.1 180 07:54 15.12.2020
4817 Clouds 6 1010 93 10000 3.6 170 07:33 15.12.2020
4818 Mist 6 1010 93 9000 5.1 150 06:37 15.12.2020
4819 Clouds 5 1011 93 10000 5.1 150 04:20 15.12.2020
4820 Clouds 5 1012 93 10000 3.1 140 00:36 15.12.2020
4821 Clouds 4 1013 86 10000 4.1 130 23:28 14.12.2020
4822 Clouds 4 1013 86 10000 4.1 130 22:59 14.12.2020
4823 Clouds 4 1013 86 10000 4.1 130 22:37 14.12.2020
4824 Clouds 3 1013 93 10000 2.6 130 21:54 14.12.2020
4825 Clouds 3 1013 93 10000 2.6 130 21:35 14.12.2020
4826 Clouds 3 1014 86 10000 4.1 120 20:52 14.12.2020
4827 Clouds 3 1014 86 10000 4.1 120 20:30 14.12.2020
4828 Clouds 3 1014 93 10000 2.6 100 19:55 14.12.2020
4829 Clouds 3 1015 93 10000 2.1 130 19:30 14.12.2020
4830 Clouds 3 1015 93 10000 3.1 110 18:55 14.12.2020
4831 Clouds 3 1015 93 10000 3.1 120 18:32 14.12.2020
4832 Clouds 2 1015 93 10000 3.1 120 17:53 14.12.2020
4833 Clouds 2 1015 93 10000 3.1 120 17:32 14.12.2020
4834 Clouds 2 1015 86 10000 1.5 90 16:53 14.12.2020
4835 Clouds 2 1016 86 10000 1.5 80 16:29 14.12.2020
4836 Clouds 2 1016 86 10000 1.5 80 15:50 14.12.2020
4837 Clouds 2 1016 88 10000 2.6 70 15:25 14.12.2020
4838 Clouds 2 1016 88 10000 2.1 90 14:45 14.12.2020
4839 Clouds 3 1016 86 10000 2.1 120 14:26 14.12.2020
4840 Clouds 3 1016 74 10000 2.6 90 13:47 14.12.2020
4841 Clouds 2 1016 87 10000 2.1 110 13:24 14.12.2020
4842 Clouds 2 1016 91 10000 2.1 110 12:53 14.12.2020
4843 Clouds 2 1016 92 10000 3.1 80 12:29 14.12.2020
4844 Clouds 2 1016 93 10000 3.1 70 11:36 14.12.2020
4845 Clouds 2 1016 80 10000 1 70 10:48 14.12.2020
4846 Clouds 1 1016 80 10000 1 70 10:27 14.12.2020
4847 Clouds 1 1016 93 10000 1 40 09:44 14.12.2020
4848 Clouds 1 1016 86 10000 2 65 08:49 14.12.2020
4849 Clouds 1 1016 86 10000 2 65 08:30 14.12.2020
4850 Clouds 1 1016 86 10000 1.5 360 07:52 14.12.2020
4851 Clouds 1 1016 80 10000 1 0 06:55 14.12.2020
4852 Clouds 1 1016 80 10000 2.1 140 05:51 14.12.2020
4853 Clouds 1 1016 86 10000 2.6 70 03:29 14.12.2020
4854 Clouds 1 1016 80 10000 2.6 70 00:57 14.12.2020
4855 Clouds 1 1017 80 10000 2.6 80 00:34 14.12.2020
4856 Clouds 1 1016 80 10000 3.1 80 23:58 13.12.2020
4857 Clouds 1 1016 86 10000 3.6 90 23:40 13.12.2020
4858 Clouds 1 1016 90 10000 4.1 110 22:51 13.12.2020
4859 Clouds 1 1016 91 10000 3.1 110 22:21 13.12.2020
4860 Clouds 1 1016 91 10000 3.6 110 21:50 13.12.2020
4861 Clouds 1 1016 91 10000 3.6 110 21:29 13.12.2020
4862 Clouds 2 1016 91 10000 3.1 90 20:42 13.12.2020
4863 Clouds 2 1016 90 10000 3.1 90 20:23 13.12.2020
4864 Clouds 2 1015 93 10000 2.6 80 19:43 13.12.2020
4865 Clouds 2 1016 93 10000 3.1 110 19:22 13.12.2020
4866 Clouds 2 1016 93 10000 3.1 110 19:22 13.12.2020
4867 Clouds 2 1016 93 10000 2.6 120 18:44 13.12.2020
4868 Clouds 2 1015 100 10000 3.1 110 18:21 13.12.2020
4869 Clouds 2 1015 100 10000 3.1 110 17:59 13.12.2020
4870 Clouds 2 1015 93 10000 3.6 110 17:41 13.12.2020
4871 Clouds 2 1015 100 10000 3.6 120 17:18 13.12.2020
4872 Clouds 2 1015 93 10000 4.6 120 16:39 13.12.2020
4873 Clouds 3 1015 93 10000 3.1 110 16:21 13.12.2020
4874 Clouds 3 1015 93 10000 3.1 110 15:45 13.12.2020
4875 Clouds 3 1015 93 10000 3.1 110 15:45 13.12.2020
4876 Rain 3 1014 93 9000 3.6 110 15:24 13.12.2020
4877 Rain 3 1014 100 9000 3.6 110 14:45 13.12.2020
4878 Rain 3 1014 100 9000 3.6 110 14:27 13.12.2020
4879 Rain 3 1014 100 5000 2.6 120 13:46 13.12.2020
4880 Mist 3 1014 100 5000 2.6 120 13:27 13.12.2020
4881 Rain 4 1014 93 7000 3.6 110 12:55 13.12.2020
4882 Mist 4 1014 93 5000 3.1 120 12:24 13.12.2020
4883 Mist 4 1014 93 5000 3.1 130 11:53 13.12.2020
4884 Mist 4 1014 93 5000 3.1 130 11:28 13.12.2020
4885 Mist 4 1014 93 3800 3.1 100 10:42 13.12.2020
4886 Clouds 4 1014 93 3100 2.6 80 10:18 13.12.2020
4887 Mist 4 1014 93 2700 2.6 60 09:31 13.12.2020
4888 Mist 3 1014 100 2400 2.1 60 08:47 13.12.2020
4889 Mist 3 1014 100 2400 2.1 60 08:23 13.12.2020
4890 Clouds 3 1013 93 9000 3.6 120 05:50 13.12.2020
4891 Mist 4 1013 93 5000 4.1 140 02:43 13.12.2020
4892 Clouds 4 1013 93 10000 3.1 130 01:59 13.12.2020
4893 Rain 4 1013 93 10000 3.1 130 01:33 13.12.2020
4894 Mist 4 1013 93 8000 3.6 130 00:37 13.12.2020
4895 Clouds 4 1013 93 10000 3.6 90 23:33 12.12.2020
4896 Clouds 4 1013 93 10000 4.6 110 22:59 12.12.2020
4897 Clouds 4 1013 93 10000 4.6 120 22:28 12.12.2020
4898 Mist 5 1012 100 3900 4.6 110 21:46 12.12.2020
4899 Mist 5 1012 100 4500 3.6 90 21:19 12.12.2020
4900 Mist 5 1012 100 3500 3.6 100 20:44 12.12.2020
4901 Clouds 5 1012 93 10000 2.6 90 20:21 12.12.2020
4902 Clouds 5 1012 93 10000 2.6 90 19:51 12.12.2020
4903 Clouds 5 1012 93 10000 2.6 90 19:33 12.12.2020
4904 Clouds 5 1012 93 10000 3.1 100 18:55 12.12.2020
4905 Clouds 5 1012 93 10000 3.1 100 18:36 12.12.2020
4906 Clouds 5 1012 93 10000 3.1 110 18:18 12.12.2020
4907 Clouds 5 1012 93 10000 3.6 110 17:40 12.12.2020
4908 Clouds 5 1011 93 10000 4.1 110 16:42 12.12.2020
4909 Clouds 5 1011 100 10000 4.6 110 15:57 12.12.2020
4910 Clouds 5 1011 100 10000 4.6 110 15:57 12.12.2020
4911 Clouds 5 1011 100 10000 4.6 110 15:39 12.12.2020
4912 Mist 5 1011 100 7000 4.1 100 14:54 12.12.2020
4913 Mist 5 1011 100 5000 3.6 110 14:22 12.12.2020
4914 Mist 5 1011 100 7000 3.6 100 13:41 12.12.2020
4915 Mist 5 1011 100 7000 3.6 100 13:23 12.12.2020
4916 Mist 5 1011 100 5000 2.6 90 12:36 12.12.2020
4917 Drizzle 5 1011 93 6000 2.6 100 11:20 12.12.2020
4918 Rain 5 1011 93 5000 2.1 100 10:45 12.12.2020
4919 Clouds 4 1011 93 8000 3.1 90 09:24 12.12.2020
4920 Mist 4 1010 100 2500 2.6 100 07:42 12.12.2020
4921 Clouds 4 1010 93 10000 3.1 110 01:39 12.12.2020
4922 Clouds 4 1011 93 10000 2.6 100 23:30 11.12.2020
4923 Clouds 3 1010 100 5000 3.6 110 20:57 11.12.2020
4924 Rain 3 1010 93 9000 3.6 110 19:42 11.12.2020
4925 Clouds 3 1010 93 8000 3.6 100 16:52 11.12.2020
4926 Rain 3 1011 100 5000 3.1 40 14:37 11.12.2020
4927 Rain 3 1011 100 5000 3.1 40 14:37 11.12.2020
4928 Rain 2 1011 100 3500 4.6 50 13:45 11.12.2020
4929 Clouds 3 1012 93 10000 4.6 60 12:23 11.12.2020
4930 Clouds 3 1012 93 10000 4.6 60 11:55 11.12.2020
4931 Clouds 3 1012 93 10000 4.6 60 11:36 11.12.2020
4932 Clouds 3 1012 94 10000 4.1 70 10:40 11.12.2020
4933 Clouds 3 1013 89 10000 5.1 100 07:42 11.12.2020
4934 Clouds 3 1013 93 10000 3.6 80 05:36 11.12.2020
4935 Clouds 3 1014 93 10000 3.1 80 04:47 11.12.2020
4936 Clouds 3 1015 93 10000 4.6 70 00:54 11.12.2020
4937 Clouds 2 1016 93 10000 3.1 50 23:28 10.12.2020
4938 Clouds 2 1016 85 10000 4.6 70 21:37 10.12.2020
4939 Clouds 2 1017 89 10000 4.1 80 20:51 10.12.2020
4940 Clouds 2 1017 92 10000 4.1 80 20:29 10.12.2020
4941 Clouds 2 1017 80 10000 4.1 80 19:29 10.12.2020
4942 Clouds 2 1017 80 10000 4.1 80 18:48 10.12.2020
4943 Clouds 2 1018 80 10000 4.6 80 17:35 10.12.2020
4944 Clouds 2 1018 80 10000 4.6 100 15:59 10.12.2020
4945 Clouds 2 1018 80 10000 5.1 110 15:22 10.12.2020
4946 Clouds 2 1018 80 10000 5.1 110 14:46 10.12.2020
4947 Clouds 2 1019 83 10000 5.7 110 13:42 10.12.2020
4948 Clouds 2 1019 93 10000 5.1 130 12:23 10.12.2020
4949 Clouds 2 1019 93 10000 5.7 130 10:54 10.12.2020
4950 Clouds 3 1019 86 10000 4.1 120 08:27 10.12.2020
4951 Clouds 3 1019 86 10000 3.6 120 07:28 10.12.2020
4952 Clouds 3 1019 86 10000 4.6 130 06:20 10.12.2020
4953 Clouds 3 1020 93 10000 3.6 120 02:43 10.12.2020
4954 Clouds 3 1020 93 10000 4.1 120 01:33 10.12.2020
4955 Clouds 3 1021 86 10000 4.1 130 23:44 09.12.2020
4956 Mist 2 1021 100 5000 4.6 130 20:39 09.12.2020
4957 Clouds 2 1021 100 5000 5.1 110 19:46 09.12.2020
4958 Clouds 2 1021 100 6000 5.1 130 18:39 09.12.2020
4959 Rain 2 1021 100 10000 4.1 120 17:29 09.12.2020
4960 Clouds 2 1021 100 10000 4.1 120 16:40 09.12.2020
4961 Drizzle 2 1021 100 8000 4.1 120 16:20 09.12.2020
4962 Drizzle 3 1021 93 9000 3.1 140 14:51 09.12.2020
4963 Clouds 3 1021 93 10000 4.1 130 14:27 09.12.2020
4964 Clouds 3 1021 86 10000 4.1 130 13:37 09.12.2020
4965 Clouds 3 1021 86 10000 3.6 130 13:18 09.12.2020
4966 Clouds 3 1021 86 10000 3.6 140 12:31 09.12.2020
4967 Clouds 3 1021 93 10000 3.1 140 11:37 09.12.2020
4968 Clouds 3 1020 93 10000 4.1 130 09:52 09.12.2020
4969 Clouds 3 1020 93 9000 3.6 130 08:41 09.12.2020
4970 Clouds 2 1020 100 10000 3.6 130 06:50 09.12.2020
4971 Rain 2 1019 100 10000 3.6 130 05:28 09.12.2020
4972 Clouds 2 1019 93 10000 3.6 100 02:43 09.12.2020
4973 Clouds 2 1019 93 10000 3.6 120 00:42 09.12.2020
4974 Drizzle 2 1019 93 7000 4.6 120 23:35 08.12.2020
4975 Clouds 2 1019 93 10000 5.1 120 22:26 08.12.2020
4976 Clouds 2 1018 80 10000 4.1 110 20:47 08.12.2020
4977 Clouds 2 1018 80 10000 4.1 120 19:31 08.12.2020
4978 Clouds 2 1018 74 10000 5.1 120 18:36 08.12.2020
4979 Clouds 2 1018 80 10000 4.1 120 17:19 08.12.2020
4980 Clouds 2 1017 80 10000 7.2 130 15:23 08.12.2020
4981 Clouds 2 1017 80 10000 6.2 120 13:50 08.12.2020
4982 Clouds 3 1017 83 10000 6.7 120 12:41 08.12.2020
4983 Clouds 3 1017 82 10000 5.7 120 11:59 08.12.2020
4984 Clouds 3 1018 84 10000 5.67 147 11:24 08.12.2020
4985 Clouds 3 1017 81 10000 7.7 120 10:41 08.12.2020
4986 Clouds 3 1017 80 10000 7.7 130 09:45 08.12.2020
4987 Clouds 4 1016 80 10000 6.2 120 07:40 08.12.2020
4988 Clouds 4 1016 86 10000 7.2 130 05:35 08.12.2020
4989 Clouds 4 1016 80 10000 5.1 130 02:29 08.12.2020
4990 Clouds 4 1016 75 10000 6.7 130 00:44 08.12.2020
4991 Clouds 4 1015 75 10000 6.7 130 23:25 07.12.2020
4992 Clouds 4 1015 75 10000 5.1 130 22:21 07.12.2020
4993 Clouds 4 1015 75 10000 6.2 130 21:38 07.12.2020
4994 Clouds 4 1015 75 10000 5.1 130 19:27 07.12.2020
4995 Clouds 4 1014 80 10000 6.7 130 17:57 07.12.2020
4996 Clouds 4 1014 80 10000 5.7 120 17:20 07.12.2020
4997 Clouds 4 1014 86 10000 6.2 120 16:38 07.12.2020
4998 Clouds 4 1014 80 10000 8.2 130 15:24 07.12.2020
4999 Clouds 4 1014 80 10000 6.2 140 14:31 07.12.2020
5000 Clouds 5 1014 86 10000 7.2 120 13:36 07.12.2020
5001 Clouds 5 1014 86 10000 6.7 120 12:30 07.12.2020
5002 Clouds 5 1014 86 10000 7.7 130 11:42 07.12.2020
5003 Clouds 5 1014 86 10000 6.2 130 10:36 07.12.2020
5004 Clouds 5 1014 87 10000 6.2 130 09:23 07.12.2020
5005 Clouds 5 1014 87 10000 6.2 120 07:38 07.12.2020
5006 Mist 5 1014 93 8000 5.1 130 05:27 07.12.2020
5007 Mist 5 1014 100 5000 5.1 130 03:53 07.12.2020
5008 Mist 5 1015 100 5000 4.6 140 00:49 07.12.2020
5009 Mist 6 1015 93 7000 5.7 140 22:52 06.12.2020
5010 Clouds 6 1015 93 6000 6.7 140 21:45 06.12.2020
5011 Clouds 6 1014 93 6000 6.7 130 20:43 06.12.2020
5012 Clouds 6 1014 93 6000 5.1 130 20:22 06.12.2020
5013 Clouds 6 1014 93 6000 6.2 140 19:26 06.12.2020
5014 Clouds 7 1014 93 9000 7.2 140 17:39 06.12.2020
5015 Clouds 7 1014 93 9000 6.2 140 16:34 06.12.2020
5016 Clouds 8 1014 93 8000 5.7 140 14:49 06.12.2020
5017 Clouds 8 1014 93 9000 4.6 130 13:21 06.12.2020
5018 Clouds 8 1015 89 10000 4.2 158 12:30 06.12.2020
5019 Mist 8 1014 93 8000 4.1 160 11:42 06.12.2020
5020 Mist 8 1014 93 8000 3.6 160 11:23 06.12.2020
5021 Mist 8 1013 93 8000 4.6 160 10:34 06.12.2020
5022 Mist 8 1013 93 8000 4.1 150 09:23 06.12.2020
5023 Mist 8 1012 93 9000 3.1 160 07:29 06.12.2020
5024 Mist 8 1011 93 9000 4.6 150 04:47 06.12.2020
5025 Clouds 8 1010 93 10000 4.6 140 00:45 06.12.2020
5026 Clouds 8 1010 93 10000 4.6 140 00:26 06.12.2020
5027 Clouds 8 1010 93 10000 4.6 140 23:55 05.12.2020
5028 Clouds 8 1009 87 10000 3.6 140 22:24 05.12.2020
5029 Clouds 8 1009 87 10000 3.6 140 21:55 05.12.2020
5030 Clouds 8 1009 87 10000 3.6 140 21:28 05.12.2020
5031 Clouds 8 1008 87 10000 4.6 140 19:54 05.12.2020
5032 Clouds 7 1007 93 10000 4.6 120 18:46 05.12.2020
5033 Clouds 7 1008 93 9000 3.6 110 17:39 05.12.2020
5034 Clouds 7 1008 93 10000 3.1 110 16:45 05.12.2020
5035 Clouds 7 1008 93 10000 3.1 110 16:24 05.12.2020
5036 Clouds 7 1008 87 10000 2.6 120 14:39 05.12.2020
5037 Clouds 6 1007 87 9000 2.1 120 12:35 05.12.2020
5038 Clouds 6 1007 93 8000 2.6 110 11:50 05.12.2020
5039 Clouds 6 1007 93 8000 2.1 130 10:35 05.12.2020
5040 Mist 6 1006 93 7000 2.6 120 08:40 05.12.2020
5041 Mist 6 1006 93 8000 3.1 130 07:47 05.12.2020
5042 Mist 6 1005 93 8000 3.6 120 05:33 05.12.2020
5043 Clouds 6 1005 93 9000 3.1 140 23:59 04.12.2020
5044 Rain 6 1004 93 6000 3.1 140 23:20 04.12.2020
5045 Drizzle 5 1004 100 5000 4.1 130 21:34 04.12.2020
5046 Clouds 5 1004 100 9000 4.1 110 19:21 04.12.2020
5047 Clouds 4 1004 93 10000 3.1 100 18:30 04.12.2020
5048 Rain 4 1004 93 10000 6.2 120 17:44 04.12.2020
5049 Rain 3 1004 93 10000 5.7 130 16:30 04.12.2020
5050 Rain 4 1005 93 10000 6.2 120 15:21 04.12.2020
5051 Rain 4 1005 100 9000 6.2 120 13:36 04.12.2020
5052 Rain 4 1005 100 8000 5.1 120 13:18 04.12.2020
5053 Rain 4 1005 93 8000 5.1 130 12:20 04.12.2020
5054 Rain 4 1006 100 8000 4.1 120 10:37 04.12.2020
5055 Clouds 4 1005 93 10000 4.6 140 08:29 04.12.2020
5056 Drizzle 4 1004 93 10000 4.6 130 06:40 04.12.2020
5057 Rain 3 1005 93 6000 6.7 120 04:52 04.12.2020
5058 Rain 3 1006 86 8000 7.7 120 01:20 04.12.2020
5059 Rain 3 1008 80 10000 7.2 120 22:47 03.12.2020
5060 Clouds 4 1008 85 10000 4.6 130 21:23 03.12.2020
5061 Rain 4 1009 85 10000 4.6 140 20:46 03.12.2020
5062 Clouds 4 1009 78 10000 6.2 140 19:23 03.12.2020
5063 Clouds 4 1009 80 10000 6.7 140 18:41 03.12.2020
5064 Clouds 4 1009 80 10000 5.1 130 17:21 03.12.2020
5065 Clouds 3 1010 86 10000 4.6 140 15:59 03.12.2020
5066 Clouds 3 1010 86 10000 5.7 120 15:32 03.12.2020
5067 Clouds 3 1011 81 10000 6.2 130 14:49 03.12.2020
5068 Clouds 3 1011 74 10000 4.6 130 13:55 03.12.2020
5069 Clouds 3 1012 74 10000 5.7 140 12:46 03.12.2020
5070 Clouds 3 1012 69 10000 6.2 140 12:23 03.12.2020
5071 Clouds 3 1013 74 10000 4.1 160 10:54 03.12.2020
5072 Clouds 3 1013 69 10000 4.1 150 08:49 03.12.2020
5073 Clouds 3 1015 74 10000 3.6 160 04:21 03.12.2020
5074 Clouds 3 1016 80 10000 5.1 150 01:57 03.12.2020
5075 Clouds 3 1017 80 10000 3.6 140 00:28 03.12.2020
5076 Clouds 3 1018 86 10000 4.6 160 22:46 02.12.2020
5077 Clouds 3 1018 93 10000 3.1 150 21:50 02.12.2020
5078 Clouds 3 1019 93 10000 3.6 170 20:51 02.12.2020
5079 Drizzle 3 1019 93 7000 5.7 160 20:33 02.12.2020
5080 Drizzle 3 1019 93 8000 3.6 140 19:50 02.12.2020
5081 Clouds 3 1020 86 10000 1.5 140 17:51 02.12.2020
5082 Clouds 3 1020 86 10000 1.5 140 17:32 02.12.2020
5083 Clouds 3 1021 86 10000 2.1 130 16:49 02.12.2020
5084 Clouds 4 1022 93 10000 2.6 150 14:33 02.12.2020
5085 Clouds 3 1024 93 10000 1 150 11:33 02.12.2020
5086 Clouds 3 1025 100 10000 1.5 140 10:26 02.12.2020
5087 Clouds 2 1025 93 10000 1 0 07:51 02.12.2020
5088 Mist 3 1026 100 7000 1.5 230 00:50 02.12.2020
5089 Clouds 3 1025 93 9000 1 270 22:21 01.12.2020
5090 Clouds 3 1023 93 10000 1.5 250 19:57 01.12.2020
5091 Clouds 3 1023 93 10000 1.5 250 19:33 01.12.2020
5092 Clouds 3 1023 93 10000 1.5 240 17:27 01.12.2020
5093 Clouds 3 1021 93 10000 1.5 220 15:24 01.12.2020
5094 Rain 3 1020 93 10000 2.1 230 13:37 01.12.2020
5095 Clouds 2 1019 93 10000 2.1 220 11:44 01.12.2020
5096 Clouds 2 1019 93 10000 2.1 220 11:26 01.12.2020
5097 Clear 2 1018 93 10000 1.5 0 10:32 01.12.2020
5098 Clouds 1 1016 90 10000 1.5 220 08:18 01.12.2020
5099 Clouds 2 1015 87 10000 1.5 0 06:46 01.12.2020
5100 Clouds 2 1013 93 10000 2.6 200 01:51 01.12.2020
5101 Clouds 2 1013 93 10000 2.6 210 01:51 01.12.2020
5102 Clouds 2 1013 93 10000 2.6 200 00:52 01.12.2020
5103 Clouds 2 1013 93 10000 2.6 200 23:21 30.11.2020
5104 Clouds 2 1013 93 10000 2.6 220 22:42 30.11.2020
5105 Clouds 2 1013 93 10000 3.6 210 22:23 30.11.2020
5106 Clouds 2 1013 93 10000 3.1 220 20:47 30.11.2020
5107 Clouds 2 1013 93 10000 3.1 220 19:42 30.11.2020
5108 Rain 1 1014 100 10000 3.1 190 18:23 30.11.2020
5109 Rain 1 1014 100 10000 3.1 190 17:47 30.11.2020
5110 Rain 1 1014 100 10000 2.1 180 16:54 30.11.2020
5111 Snow 1 1015 95 10000 2.1 190 15:46 30.11.2020
5112 Clouds 0 1015 93 10000 3.1 210 14:31 30.11.2020
5113 Mist -1 1016 100 4600 2.1 180 13:42 30.11.2020
5114 Clouds -1 1017 92 10000 1 0 12:26 30.11.2020
5115 Clouds -1 1018 92 10000 1 160 11:57 30.11.2020
5116 Clouds -2 1019 92 10000 3.1 250 10:26 30.11.2020
5117 Clouds -1 1019 100 10000 3.1 200 09:45 30.11.2020
5118 Mist -1 1020 100 8000 2.6 250 07:18 30.11.2020
5119 Clouds 0 1024 95 10000 1.5 310 23:58 29.11.2020
5120 Clouds 0 1025 95 10000 1.5 320 21:51 29.11.2020
5121 Clouds 0 1025 95 10000 2.1 290 21:28 29.11.2020
5122 Clouds 0 1025 95 10000 1.5 360 19:54 29.11.2020
5123 Clouds 0 1026 93 10000 2.6 310 17:47 29.11.2020
5124 Clouds 0 1027 94 10000 2.6 320 15:25 29.11.2020
5125 Clouds 0 1027 88 9000 2.1 340 13:23 29.11.2020
5126 Clouds 0 1028 100 10000 3.1 320 11:41 29.11.2020
5127 Mist -1 1028 100 3600 2.6 320 10:22 29.11.2020
5128 Clouds -1 1028 100 10000 3.1 310 08:38 29.11.2020
5129 Clouds 0 1029 88 10000 2.1 340 05:19 29.11.2020
5130 Clouds 1 1030 85 10000 2.1 340 23:52 28.11.2020
5131 Clouds 1 1030 85 10000 3.1 350 22:56 28.11.2020
5132 Rain 1 1029 100 10000 1.5 0 20:47 28.11.2020
5133 Clouds 1 1029 100 10000 1.5 340 19:48 28.11.2020
5134 Drizzle 1 1029 84 10000 2.1 340 19:22 28.11.2020
5135 Clouds 1 1029 85 10000 2.1 340 18:27 28.11.2020
5136 Clouds 1 1029 85 10000 1.5 340 17:47 28.11.2020
5137 Clouds 1 1029 85 10000 1.5 350 16:40 28.11.2020
5138 Clouds 1 1029 86 10000 2.1 350 14:52 28.11.2020
5139 Clouds 2 1028 93 10000 2.6 360 12:35 28.11.2020
5140 Clouds 1 1028 86 10000 1.5 330 10:36 28.11.2020
5141 Drizzle 1 1026 88 10000 1.5 320 06:36 28.11.2020
5142 Clouds 2 1025 84 10000 1.5 310 03:26 28.11.2020
5143 Clouds 1 1024 83 10000 2.1 310 01:34 28.11.2020
5144 Clouds 1 1023 85 10000 2.1 330 22:56 27.11.2020
5145 Clouds 0 1022 89 10000 1.5 320 21:33 27.11.2020
5146 Clouds 1 1022 86 10000 2.1 330 20:31 27.11.2020
5147 Clouds 1 1022 92 10000 2.1 320 19:25 27.11.2020
5148 Clouds 1 1021 91 10000 2.6 310 18:44 27.11.2020
5149 Clouds 2 1020 86 10000 3.6 300 14:47 27.11.2020
5150 Clouds 2 1019 79 10000 3.6 310 13:29 27.11.2020
5151 Clouds 2 1019 79 10000 3.6 320 12:48 27.11.2020
5152 Clear 1 1019 79 10000 2.6 300 11:49 27.11.2020
5153 Clouds 1 1019 81 10000 2.6 290 10:51 27.11.2020
5154 Clear 0 1018 100 10000 2.6 290 10:19 27.11.2020
5155 Clear 0 1018 93 10000 3.72 332 07:29 27.11.2020
5156 Clear 1 1014 92 10000 3.56 336 22:29 26.11.2020
5157 Clear 2 1012 93 10000 2.6 330 21:57 26.11.2020
5158 Clear 2 1012 93 10000 2.6 330 21:25 26.11.2020
5159 Clear 3 1011 100 10000 3.1 340 19:24 26.11.2020
5160 Clear 3 1011 100 10000 3.6 340 18:30 26.11.2020
5161 Clouds 6 1009 93 10000 3.1 350 16:20 26.11.2020
5162 Clouds 7 1008 100 10000 2.6 280 13:43 26.11.2020
5163 Clouds 8 1008 93 10000 2.1 270 12:44 26.11.2020
5164 Clouds 8 1008 93 10000 2.1 270 12:23 26.11.2020
5165 Clouds 8 1008 93 10000 2.1 260 10:38 26.11.2020
5166 Clouds 8 1008 93 10000 2.1 260 09:48 26.11.2020
5167 Clouds 8 1008 93 10000 2.1 260 09:30 26.11.2020
5168 Clouds 7 1008 100 10000 2.1 260 08:40 26.11.2020
5169 Clouds 7 1007 100 8000 3.1 230 06:55 26.11.2020
5170 Clouds 8 1008 87 10000 3.1 230 00:46 26.11.2020
5171 Clouds 8 1008 81 10000 4.6 210 21:29 25.11.2020
5172 Clouds 8 1009 81 10000 4.6 230 19:58 25.11.2020
5173 Clouds 8 1009 81 10000 5.1 240 18:50 25.11.2020
5174 Clouds 8 1009 81 10000 4.1 220 17:24 25.11.2020
5175 Clouds 9 1009 87 10000 4.1 220 15:42 25.11.2020
5176 Clouds 9 1010 85 10000 5.21 232 14:42 25.11.2020
5177 Clouds 9 1009 87 10000 4.6 220 13:44 25.11.2020
5178 Clouds 9 1010 87 10000 4.1 210 12:30 25.11.2020
5179 Rain 9 1010 93 10000 4.6 210 11:20 25.11.2020
5180 Rain 9 1010 93 10000 3.1 230 09:20 25.11.2020
5181 Clouds 9 1010 100 10000 5.1 240 08:49 25.11.2020
5182 Rain 8 1010 100 10000 2.1 180 05:20 25.11.2020
5183 Fog 7 1010 100 4400 1.5 180 03:31 25.11.2020
5184 Fog 7 1011 100 250 2.1 210 00:55 25.11.2020
5185 Fog 6 1010 100 200 0.5 230 23:57 24.11.2020
5186 Fog 6 1010 100 100 2.88 258 23:34 24.11.2020
5187 Fog 7 1009 93 10000 1 250 22:18 24.11.2020
5188 Clouds 8 1009 93 10000 1.5 260 21:31 24.11.2020
5189 Clouds 8 1009 100 10000 3.1 250 20:45 24.11.2020
5190 Clouds 7 1008 93 10000 3.1 250 19:47 24.11.2020
5191 Clouds 7 1002 94 10000 0.89 270 17:31 24.11.2020
5192 Clouds 6 1008 100 6000 2.6 200 16:56 24.11.2020
5193 Clouds 6 1008 100 6000 2.6 200 16:36 24.11.2020
5194 Rain 6 1008 100 6000 2.1 200 15:55 24.11.2020
5195 Rain 6 1008 100 5000 2.6 200 15:19 24.11.2020
5196 Rain 6 1009 100 10000 2.6 180 14:43 24.11.2020
5197 Drizzle 6 1009 93 10000 2.6 200 12:58 24.11.2020
5198 Rain 6 1010 93 10000 2.1 200 12:31 24.11.2020
5199 Rain 6 1010 93 10000 2.6 200 11:58 24.11.2020
5200 Rain 5 1010 93 10000 2.1 190 10:52 24.11.2020
5201 Clouds 5 1011 93 10000 2.6 210 10:25 24.11.2020
5202 Clouds 4 1011 93 10000 1.5 190 09:36 24.11.2020
5203 Clouds 3 1011 93 10000 1.5 210 08:27 24.11.2020
5204 Clouds 1 1012 86 10000 3.1 240 04:50 24.11.2020
5205 Clear 3 1005 74 10000 0.45 247 23:32 23.11.2020
5206 Clear 4 1010 64 10000 5.7 260 21:47 23.11.2020
5207 Clear 4 1010 64 10000 6.2 270 21:20 23.11.2020
5208 Clear 4 1009 60 10000 5.7 270 20:28 23.11.2020
5209 Clear 4 1008 60 10000 6.2 280 19:36 23.11.2020
5210 Clear 5 1007 60 10000 6.2 270 17:28 23.11.2020
5211 Clouds 5 1006 60 10000 6.7 270 16:55 23.11.2020
5212 Clear 6 1004 56 10000 7.2 270 14:50 23.11.2020
5213 Clear 6 1004 56 10000 6.2 260 13:55 23.11.2020
5214 Clear 6 1003 60 10000 5.7 260 12:40 23.11.2020
5215 Clear 6 1003 56 10000 6.2 260 11:57 23.11.2020
5216 Clear 5 1003 56 10000 6.7 270 11:37 23.11.2020
5217 Clear 5 1002 65 10000 5.7 260 09:47 23.11.2020
5218 Clear 4 1002 65 10000 5.7 260 08:51 23.11.2020
5219 Clear 4 1002 65 10000 6.2 250 07:56 23.11.2020
5220 Clear 6 1000 70 10000 6.2 260 02:39 23.11.2020
5221 Clear 7 999 70 10000 6.2 260 23:51 22.11.2020
5222 Clear 7 998 75 10000 6.7 260 22:23 22.11.2020
5223 Clear 7 998 75 10000 6.2 250 21:24 22.11.2020
5224 Clear 7 997 75 10000 6.2 250 20:20 22.11.2020
5225 Clear 7 997 75 10000 7.2 240 19:23 22.11.2020
5226 Clouds 7 996 70 10000 8.2 250 18:23 22.11.2020
5227 Clouds 7 996 70 10000 6.7 240 16:26 22.11.2020
5228 Clouds 7 996 70 10000 7.2 240 15:25 22.11.2020
5229 Clouds 8 996 70 10000 7.7 230 13:27 22.11.2020
5230 Clouds 7 997 70 10000 7.7 230 12:43 22.11.2020
5231 Clouds 7 997 70 10000 6.7 240 11:54 22.11.2020
5232 Clear 7 998 75 10000 6.7 230 10:51 22.11.2020
5233 Clear 7 998 75 10000 6.7 230 10:33 22.11.2020
5234 Clear 6 1000 81 10000 7.2 240 04:39 22.11.2020
5235 Clouds 7 1000 87 10000 4.1 230 23:56 21.11.2020
5236 Clouds 7 1000 87 10000 4.6 240 22:41 21.11.2020
5237 Clouds 8 1000 87 10000 5.1 230 21:31 21.11.2020
5238 Clouds 7 1000 93 10000 4.6 210 20:49 21.11.2020
5239 Rain 7 1000 93 10000 5.1 220 20:20 21.11.2020
5240 Clouds 7 1001 93 10000 5.1 220 19:49 21.11.2020
5241 Rain 6 1001 87 10000 5.1 210 19:18 21.11.2020
5242 Clouds 6 1002 93 10000 6.2 200 17:31 21.11.2020
5243 Clouds 5 1004 93 10000 6.2 190 16:45 21.11.2020
5244 Clouds 5 1005 93 10000 5.7 200 15:41 21.11.2020
5245 Drizzle 5 1006 93 10000 6.7 190 15:20 21.11.2020
5246 Clouds 5 1007 93 8000 7.2 200 14:42 21.11.2020
5247 Rain 5 1010 86 10000 7.2 180 12:44 21.11.2020
5248 Rain 5 1011 86 9000 8.2 180 12:22 21.11.2020
5249 Rain 4 1012 86 10000 6.7 190 11:49 21.11.2020
5250 Clouds 4 1014 86 10000 5.7 180 10:28 21.11.2020
5251 Rain 4 1018 69 10000 4.6 190 08:52 21.11.2020
5252 Rain 3 1018 74 10000 4.1 170 08:19 21.11.2020
5253 Clouds 0 1021 86 10000 2.1 140 05:42 21.11.2020
5254 Clear -2 1023 92 10000 1.5 200 02:52 21.11.2020
5255 Clear -1 1024 92 10000 2.6 210 00:22 21.11.2020
5256 Clear 0 1024 74 10000 2.1 250 22:45 20.11.2020
5257 Clear 0 1023 88 10000 2.1 260 21:45 20.11.2020
5258 Clear 1 1022 74 10000 2.1 250 21:21 20.11.2020
5259 Clear 1 1022 74 10000 2.1 250 21:21 20.11.2020
5260 Clear 1 1022 74 10000 3.1 300 19:55 20.11.2020
5261 Clear 1 1021 74 10000 3.6 300 18:55 20.11.2020
5262 Clear 2 1021 69 10000 4.6 290 18:27 20.11.2020
5263 Clear 2 1020 64 10000 5.1 300 17:30 20.11.2020
5264 Clear 3 1019 64 10000 6.7 290 16:47 20.11.2020
5265 Clear 3 1019 64 10000 5.7 300 15:59 20.11.2020
5266 Clear 3 1018 64 10000 5.7 290 15:39 20.11.2020
5267 Clouds 3 1016 64 10000 9.3 290 13:51 20.11.2020
5268 Clouds 4 1016 64 10000 7.7 300 13:19 20.11.2020
5269 Clouds 4 1015 60 10000 8.7 290 12:41 20.11.2020
5270 Clear 3 1014 64 10000 8.7 280 11:50 20.11.2020
5271 Clear 3 1013 64 10000 9.3 290 11:21 20.11.2020
5272 Clear 2 1011 69 10000 8.7 280 09:47 20.11.2020
5273 Clouds 2 1009 69 10000 7.7 280 08:29 20.11.2020
5274 Clouds 2 1008 69 10000 8.7 270 07:47 20.11.2020
5275 Clouds 2 1006 64 10000 8.7 270 05:18 20.11.2020
5276 Clouds 1 1002 74 10000 5.1 290 23:38 19.11.2020
5277 Clouds 1 1000 74 10000 5.7 280 22:30 19.11.2020
5278 Clouds 1 1000 74 10000 7.7 280 21:52 19.11.2020
5279 Clouds 1 999 74 10000 5.7 270 20:53 19.11.2020
5280 Clear 1 998 69 10000 7.7 270 20:19 19.11.2020
5281 Clear 2 997 64 10000 6.7 270 19:26 19.11.2020
5282 Clouds 1 996 80 10000 7.7 290 18:47 19.11.2020
5283 Clouds 1 994 80 10000 8.2 280 17:21 19.11.2020
5284 Rain 1 993 86 10000 9.3 290 16:26 19.11.2020
5285 Rain 2 990 93 10000 8.2 300 15:29 19.11.2020
5286 Rain 9 986 66 10000 8.2 220 13:49 19.11.2020
5287 Rain 9 986 66 10000 8.2 220 13:30 19.11.2020
5288 Clouds 10 986 66 10000 8.2 230 12:52 19.11.2020
5289 Clouds 10 986 66 10000 7.2 210 12:33 19.11.2020
5290 Clouds 9 987 66 10000 7.2 220 11:40 19.11.2020
5291 Clouds 9 987 66 10000 7.2 220 11:21 19.11.2020
5292 Clouds 10 987 66 10000 8.7 220 10:31 19.11.2020
5293 Clouds 9 988 70 10000 9.3 220 09:47 19.11.2020
5294 Clouds 9 988 70 10000 9.3 220 09:27 19.11.2020
5295 Clouds 9 988 81 10000 7.7 220 08:24 19.11.2020
5296 Drizzle 10 987 93 8000 7.7 190 07:35 19.11.2020
5297 Clouds 11 996 76 10000 7.7 200 01:47 19.11.2020
5298 Clouds 11 998 76 10000 7.2 210 00:32 19.11.2020
5299 Clouds 12 999 81 10000 6.7 210 23:31 18.11.2020
5300 Clouds 12 999 81 10000 7.2 210 22:58 18.11.2020
5301 Clouds 12 1000 81 10000 5.7 220 22:28 18.11.2020
5302 Clouds 12 1002 81 10000 6.2 220 21:43 18.11.2020
5303 Clouds 12 1002 81 10000 6.2 220 21:25 18.11.2020
5304 Clouds 12 1002 71 10000 8.7 230 20:32 18.11.2020
5305 Clouds 12 1003 76 10000 7.2 230 19:42 18.11.2020
5306 Clouds 12 1004 76 10000 8.7 230 19:21 18.11.2020
5307 Clouds 13 1004 76 10000 7.7 230 18:40 18.11.2020
5308 Clouds 13 1005 87 10000 5.1 220 17:44 18.11.2020
5309 Clouds 13 1005 82 10000 5.1 210 16:27 18.11.2020
5310 Clouds 13 1005 82 10000 6.2 210 15:58 18.11.2020
5311 Clouds 14 1006 82 10000 6.2 210 14:41 18.11.2020
5312 Clouds 13 1007 87 10000 5.1 220 13:47 18.11.2020
5313 Clouds 13 1007 87 10000 5.1 220 13:21 18.11.2020
5314 Clouds 13 1008 87 10000 4.6 210 12:42 18.11.2020
5315 Clouds 12 1008 93 10000 3.6 210 11:51 18.11.2020
5316 Clouds 12 1002 93 10000 0.89 225 10:54 18.11.2020
5317 Clouds 12 1008 87 8000 3.6 210 10:27 18.11.2020
5318 Clouds 11 1008 87 10000 5.1 240 08:33 18.11.2020
5319 Clouds 12 1007 87 10000 5.7 240 06:41 18.11.2020
5320 Clouds 12 1005 93 10000 5.1 250 02:51 18.11.2020
5321 Rain 10 1004 100 8000 5.7 210 00:18 18.11.2020
5322 Clouds 10 1004 100 10000 4.6 200 23:23 17.11.2020
5323 Drizzle 9 1004 100 10000 5.1 200 22:41 17.11.2020
5324 Drizzle 9 1004 100 10000 5.1 200 22:23 17.11.2020
5325 Drizzle 9 1005 93 10000 5.1 190 21:46 17.11.2020
5326 Clouds 9 1006 93 10000 5.7 180 20:58 17.11.2020
5327 Rain 9 1006 93 10000 5.7 180 20:40 17.11.2020
5328 Rain 9 1007 93 9000 5.7 170 20:22 17.11.2020
5329 Rain 9 1008 87 10000 5.1 180 18:36 17.11.2020
5330 Clouds 9 1008 87 10000 5.1 180 18:18 17.11.2020
5331 Clouds 9 1009 87 10000 4.6 190 16:59 17.11.2020
5332 Clouds 9 1010 87 10000 4.1 190 16:29 17.11.2020
5333 Clouds 9 1010 87 10000 3.6 200 15:51 17.11.2020
5334 Clouds 9 1010 87 10000 3.6 200 15:33 17.11.2020
5335 Clouds 9 1010 87 10000 3.6 190 14:57 17.11.2020
5336 Clouds 9 1010 87 10000 3.1 210 14:28 17.11.2020
5337 Clouds 9 1011 87 10000 4.1 210 13:41 17.11.2020
5338 Clouds 9 1011 87 10000 3.6 210 13:19 17.11.2020
5339 Clouds 9 1011 87 10000 3.6 200 12:40 17.11.2020
5340 Clouds 9 1011 93 10000 4.1 190 11:44 17.11.2020
5341 Clouds 9 1010 87 10000 3.6 190 10:50 17.11.2020
5342 Clouds 9 1010 87 10000 3.6 190 10:29 17.11.2020
5343 Clouds 9 1011 93 10000 3.1 180 09:51 17.11.2020
5344 Clouds 9 1010 93 10000 3.1 180 09:29 17.11.2020
5345 Clouds 9 1010 93 10000 2.6 180 08:23 17.11.2020
5346 Clouds 9 1010 93 10000 3.1 200 07:46 17.11.2020
5347 Clouds 9 1009 93 10000 3.1 180 06:40 17.11.2020
5348 Clouds 9 1009 93 10000 3.1 190 03:48 17.11.2020
5349 Clouds 9 1009 87 10000 3.6 180 02:53 17.11.2020
5350 Clouds 9 1009 87 10000 3.1 170 01:25 17.11.2020
5351 Clouds 9 1009 87 10000 2.6 170 00:55 17.11.2020
5352 Clouds 9 1008 87 10000 3.6 170 23:49 16.11.2020
5353 Clouds 9 1008 87 10000 3.6 170 23:29 16.11.2020
5354 Clouds 10 1008 87 10000 3.6 170 22:47 16.11.2020
5355 Clouds 9 1008 87 10000 3.6 170 22:20 16.11.2020
5356 Clouds 9 1008 87 10000 3.6 170 21:46 16.11.2020
5357 Clouds 10 1008 87 10000 3.6 170 21:24 16.11.2020
5358 Clouds 10 1008 87 10000 4.1 180 20:38 16.11.2020
5359 Clouds 10 1008 87 10000 4.6 170 20:20 16.11.2020
5360 Clouds 10 1008 87 9000 4.6 160 19:38 16.11.2020
5361 Clouds 10 1008 87 9000 4.1 160 19:19 16.11.2020
5362 Clouds 10 1008 87 9000 4.1 160 18:39 16.11.2020
5363 Clouds 10 1007 93 9000 4.1 170 17:50 16.11.2020
5364 Drizzle 10 1007 93 10000 4.6 170 17:21 16.11.2020
5365 Drizzle 10 1007 93 10000 4.6 170 16:53 16.11.2020
5366 Clouds 10 1007 93 9000 4.6 160 16:28 16.11.2020
5367 Clouds 10 1007 93 9000 5.1 160 15:52 16.11.2020
5368 Clouds 10 1007 93 9000 5.1 160 15:29 16.11.2020
5369 Clouds 10 1006 93 10000 4.6 160 14:57 16.11.2020
5370 Clouds 10 1006 93 10000 5.7 160 14:28 16.11.2020
5371 Clouds 10 1006 93 10000 6.2 150 13:31 16.11.2020
5372 Clouds 10 1006 87 10000 5.7 160 12:33 16.11.2020
5373 Clouds 10 1006 93 10000 6.7 160 11:44 16.11.2020
5374 Clouds 10 1006 93 10000 6.7 160 11:24 16.11.2020
5375 Clouds 10 1006 87 10000 5.7 150 10:47 16.11.2020
5376 Clouds 10 1006 87 10000 5.7 150 10:26 16.11.2020
5377 Clouds 10 1006 87 10000 5.7 150 10:26 16.11.2020
5378 Clouds 10 1006 87 10000 6.7 150 09:53 16.11.2020
5379 Clouds 10 1006 87 10000 6.7 150 09:35 16.11.2020
5380 Clouds 10 1005 93 10000 5.7 150 08:49 16.11.2020
5381 Clouds 10 1005 93 10000 5.7 150 08:26 16.11.2020
5382 Clouds 10 1005 93 9000 6.2 140 07:36 16.11.2020
5383 Mist 10 1006 93 7000 6.7 140 06:47 16.11.2020
5384 Mist 10 1006 93 7000 6.2 140 05:50 16.11.2020
5385 Mist 10 1007 93 6000 5.7 130 03:58 16.11.2020
5386 Mist 10 1008 93 6000 5.7 140 01:46 16.11.2020
5387 Mist 10 1008 93 6000 5.7 140 01:46 16.11.2020
5388 Mist 10 1008 93 5000 5.7 150 00:53 16.11.2020
5389 Mist 10 1010 100 4400 6.2 150 23:33 15.11.2020
5390 Mist 10 1009 100 4700 6.7 130 22:58 15.11.2020
5391 Mist 10 1009 100 4600 6.2 140 22:37 15.11.2020
5392 Mist 10 1009 93 4800 6.7 130 22:18 15.11.2020
5393 Mist 10 1010 93 4400 5.7 130 21:37 15.11.2020
5394 Clouds 10 1011 93 4500 5.7 130 21:19 15.11.2020
5395 Clouds 9 1011 93 10000 5.72 161 20:40 15.11.2020
5396 Clouds 9 1012 92 10000 5.49 162 19:59 15.11.2020
5397 Mist 10 1011 93 5000 5.1 140 19:41 15.11.2020
5398 Drizzle 10 1011 93 5000 5.1 140 19:21 15.11.2020
5399 Mist 10 1012 93 7000 5.7 150 18:45 15.11.2020
5400 Mist 10 1012 93 7000 5.7 150 18:25 15.11.2020
5401 Clouds 10 1012 93 9000 5.1 150 17:59 15.11.2020
5402 Clouds 10 1012 93 10000 5.7 150 17:40 15.11.2020
5403 Clouds 10 1012 93 10000 5.7 150 17:22 15.11.2020
5404 Clouds 10 1012 93 10000 5.1 140 16:44 15.11.2020
5405 Clouds 10 1012 93 10000 5.7 140 16:19 15.11.2020
5406 Clouds 10 1012 93 10000 5.7 140 15:44 15.11.2020
5407 Clouds 10 1012 93 10000 5.7 140 15:25 15.11.2020
5408 Drizzle 10 1012 93 10000 5.7 140 14:53 15.11.2020
5409 Rain 9 1013 90 10000 5.65 170 14:26 15.11.2020
5410 Clouds 9 1012 87 10000 5.1 140 13:44 15.11.2020
5411 Clouds 9 1012 87 10000 5.1 140 13:25 15.11.2020
5412 Clouds 9 1013 87 10000 4.1 160 12:46 15.11.2020
5413 Clouds 9 1013 93 10000 4.1 160 12:19 15.11.2020
5414 Clouds 9 1013 93 10000 3.6 150 11:44 15.11.2020
5415 Clouds 9 1013 93 10000 3.6 150 11:19 15.11.2020
5416 Clouds 9 1013 93 10000 3.6 150 10:53 15.11.2020
5417 Clouds 9 1013 93 10000 3.6 150 10:31 15.11.2020
5418 Clouds 9 1013 93 10000 3.1 140 09:55 15.11.2020
5419 Clouds 9 1013 93 10000 3.1 130 09:32 15.11.2020
5420 Clouds 9 1013 100 10000 3.1 140 08:56 15.11.2020
5421 Mist 8 1013 100 8000 2.1 140 08:38 15.11.2020
5422 Clouds 8 1014 100 8000 2.6 140 07:45 15.11.2020
5423 Fog 8 1014 100 350 2.1 150 06:42 15.11.2020
5424 Clouds 7 1014 100 9000 1.5 170 04:53 15.11.2020
5425 Fog 6 1015 100 250 1.71 186 01:54 15.11.2020
5426 Clouds 7 1015 100 10000 1 150 00:31 15.11.2020
5427 Mist 7 1015 100 6000 1 160 23:49 14.11.2020
5428 Mist 7 1015 100 6000 1.5 150 22:59 14.11.2020
5429 Clouds 7 1015 100 10000 2.11 179 22:41 14.11.2020
5430 Clouds 8 1015 93 10000 1 0 22:19 14.11.2020
5431 Clouds 8 1015 93 10000 1 240 21:39 14.11.2020
5432 Clouds 8 1015 93 10000 1.5 160 21:20 14.11.2020
5433 Clouds 8 1015 93 10000 1 160 20:47 14.11.2020
5434 Clouds 8 1015 93 10000 1 0 20:24 14.11.2020
5435 Clouds 8 1015 100 10000 1.5 220 19:36 14.11.2020
5436 Clouds 8 1014 93 10000 1 180 18:59 14.11.2020
5437 Clouds 8 1014 100 10000 2.1 180 18:39 14.11.2020
5438 Clouds 8 1014 100 10000 1.5 170 18:21 14.11.2020
5439 Clouds 8 1014 100 10000 2.1 180 17:45 14.11.2020
5440 Clouds 8 1014 100 10000 2.1 180 17:45 14.11.2020
5441 Clouds 8 1014 100 10000 2.1 180 17:27 14.11.2020
5442 Clouds 8 1014 93 10000 2.6 190 16:52 14.11.2020
5443 Clouds 8 1014 93 10000 2.6 190 16:33 14.11.2020
5444 Drizzle 9 1014 93 10000 2.6 190 15:55 14.11.2020
5445 Drizzle 9 1014 93 5000 2.6 180 15:32 14.11.2020
5446 Clouds 9 1014 93 10000 3.1 160 14:57 14.11.2020
5447 Clouds 9 1014 93 10000 2.6 170 14:30 14.11.2020
5448 Clouds 9 1014 93 10000 3.1 160 13:55 14.11.2020
5449 Clouds 9 1014 93 10000 3.1 170 13:37 14.11.2020
5450 Clouds 9 1014 93 10000 3.1 170 13:18 14.11.2020
5451 Clouds 9 1014 87 10000 4.1 190 12:39 14.11.2020
5452 Clouds 9 1014 93 10000 3.6 170 12:18 14.11.2020
5453 Clouds 9 1015 93 10000 3.6 160 11:39 14.11.2020
5454 Clouds 9 1015 93 10000 4.1 160 11:18 14.11.2020
5455 Clouds 9 1015 93 10000 4.1 150 10:40 14.11.2020
5456 Clouds 8 1015 93 10000 3.1 150 10:22 14.11.2020
5457 Clouds 8 1015 93 10000 3.6 140 09:45 14.11.2020
5458 Clouds 8 1015 93 10000 3.6 140 09:26 14.11.2020
5459 Clouds 7 1015 100 10000 2.6 140 08:42 14.11.2020
5460 Clouds 7 1015 100 10000 3.1 150 08:22 14.11.2020
5461 Clouds 7 1015 93 10000 2.6 140 07:42 14.11.2020
5462 Clouds 7 1015 93 10000 2.6 140 07:42 14.11.2020
5463 Clouds 7 1015 93 10000 3.1 160 06:58 14.11.2020
5464 Clouds 7 1015 93 10000 2.6 150 06:21 14.11.2020
5465 Mist 7 1015 93 8000 3.1 150 05:18 14.11.2020
5466 Clouds 7 1016 100 9000 2.6 130 01:59 14.11.2020
5467 Mist 7 1016 100 6000 2.6 130 00:25 14.11.2020
5468 Rain 7 1016 93 8000 2.6 130 23:38 13.11.2020
5469 Mist 7 1016 100 7000 2.1 110 22:59 13.11.2020
5470 Clouds 7 1016 100 10000 2.6 130 22:41 13.11.2020
5471 Clouds 7 1016 100 10000 3.1 130 22:21 13.11.2020
5472 Clouds 7 1016 100 10000 3.1 130 21:49 13.11.2020
5473 Clouds 6 1016 100 10000 3.1 120 21:27 13.11.2020
5474 Clouds 7 1016 93 9000 3.6 110 20:51 13.11.2020
5475 Clouds 7 1016 100 10000 4.6 120 20:32 13.11.2020
5476 Clouds 7 1016 93 10000 3.6 120 19:56 13.11.2020
5477 Clouds 7 1016 100 10000 4.1 120 19:37 13.11.2020
5478 Clouds 7 1017 93 10000 4.1 120 19:19 13.11.2020
5479 Clouds 7 1017 93 10000 4.6 110 18:32 13.11.2020
5480 Clouds 8 1017 93 10000 4.1 120 17:47 13.11.2020
5481 Clouds 8 1017 93 10000 4.6 120 17:23 13.11.2020
5482 Clouds 8 1017 93 10000 4.6 120 16:57 13.11.2020
5483 Rain 8 1017 93 10000 3.6 120 16:39 13.11.2020
5484 Clouds 8 1018 93 10000 4.6 120 16:20 13.11.2020
5485 Drizzle 8 1018 93 9000 4.1 130 15:39 13.11.2020
5486 Rain 8 1018 93 10000 4.1 120 15:21 13.11.2020
5487 Rain 8 1018 93 10000 4.1 120 15:21 13.11.2020
5488 Rain 8 1018 93 9000 4.6 120 14:38 13.11.2020
5489 Clouds 8 1018 93 10000 5.1 130 14:18 13.11.2020
5490 Clouds 8 1018 93 10000 5.1 130 14:18 13.11.2020
5491 Rain 8 1018 93 10000 2.6 110 13:32 13.11.2020
5492 Rain 8 1018 93 10000 3.1 120 12:59 13.11.2020
5493 Rain 8 1019 93 10000 3.1 110 12:40 13.11.2020
5494 Clouds 8 1019 93 10000 3.1 110 12:22 13.11.2020
5495 Clouds 7 1019 100 9000 2.6 140 11:46 13.11.2020
5496 Clouds 7 1019 100 10000 3.6 130 11:22 13.11.2020
5497 Clouds 7 1019 100 10000 3.6 130 10:51 13.11.2020
5498 Drizzle 7 1019 93 8000 4.1 120 10:32 13.11.2020
5499 Rain 7 1019 93 8000 2.1 110 09:52 13.11.2020
5500 Clouds 7 1020 93 8000 2.1 130 09:31 13.11.2020
5501 Clouds 7 1020 93 9000 2.6 160 08:54 13.11.2020
5502 Clouds 7 1020 93 6000 2.6 130 08:29 13.11.2020
5503 Rain 7 1020 93 10000 2.1 110 07:51 13.11.2020
5504 Clouds 7 1020 93 10000 2.1 110 07:27 13.11.2020
5505 Drizzle 6 1020 100 9000 2.1 90 06:56 13.11.2020
5506 Drizzle 6 1020 100 7000 1.5 90 06:37 13.11.2020
5507 Rain 6 1020 100 4700 2.1 110 05:41 13.11.2020
5508 Rain 7 1021 93 6000 3.1 120 03:44 13.11.2020
5509 Mist 6 1022 100 3800 2.1 110 01:42 13.11.2020
5510 Rain 7 1022 93 2800 1.5 110 00:37 13.11.2020
5511 Rain 7 1022 93 3600 2.1 110 23:55 12.11.2020
5512 Rain 7 1022 93 6000 2.1 110 23:21 12.11.2020
5513 Mist 7 1022 93 6000 2.1 110 22:56 12.11.2020
5514 Mist 7 1022 87 7000 2.1 110 22:38 12.11.2020
5515 Mist 7 1022 87 7000 2.1 120 21:59 12.11.2020
5516 Mist 7 1022 87 8000 3.1 160 21:41 12.11.2020
5517 Clouds 7 1022 75 10000 2.1 150 21:22 12.11.2020
5518 Clouds 7 1022 75 10000 2.6 150 20:42 12.11.2020
5519 Clouds 7 1022 75 10000 2.6 150 20:24 12.11.2020
5520 Clouds 8 1022 75 10000 2.1 150 19:55 12.11.2020
5521 Clouds 8 1022 75 10000 2.1 150 19:37 12.11.2020
5522 Clouds 7 1023 75 10000 2.6 150 19:19 12.11.2020
5523 Clouds 8 1023 75 10000 2.6 140 18:42 12.11.2020
5524 Clouds 8 1022 75 10000 3.1 140 18:20 12.11.2020
5525 Clouds 8 1022 75 10000 2.6 130 17:43 12.11.2020
5526 Clouds 8 1022 75 10000 2.6 130 17:24 12.11.2020
5527 Clouds 8 1023 75 10000 2.1 140 16:45 12.11.2020
5528 Clouds 8 1023 75 10000 2.1 140 16:23 12.11.2020
5529 Clouds 8 1023 75 10000 2.1 130 15:53 12.11.2020
5530 Clouds 7 1023 75 10000 3.1 140 15:29 12.11.2020
5531 Clouds 8 1023 75 10000 2.6 150 14:56 12.11.2020
5532 Clouds 8 1023 75 10000 2.6 130 14:37 12.11.2020
5533 Clouds 8 1023 75 10000 2.6 150 14:18 12.11.2020
5534 Clouds 8 1023 75 9000 2.6 130 13:45 12.11.2020
5535 Clouds 8 1023 75 9000 3.1 140 13:19 12.11.2020
5536 Clouds 8 1023 75 9000 3.1 140 12:48 12.11.2020
5537 Clouds 7 1023 75 9000 3.1 140 12:25 12.11.2020
5538 Clouds 7 1024 75 9000 2.6 140 11:54 12.11.2020
5539 Clouds 7 1024 75 9000 3.1 150 11:35 12.11.2020
5540 Clouds 7 1024 75 9000 3.1 140 10:53 12.11.2020
5541 Clouds 7 1024 87 10000 2.6 140 10:34 12.11.2020
5542 Clouds 7 1024 87 10000 2.6 140 09:52 12.11.2020
5543 Clouds 7 1024 87 10000 1.5 130 09:27 12.11.2020
5544 Clouds 7 1024 87 10000 1.5 140 08:58 12.11.2020
5545 Clouds 7 1024 87 10000 1 0 08:40 12.11.2020
5546 Clouds 7 1024 87 10000 1 0 08:40 12.11.2020
5547 Clouds 6 1024 87 10000 1 120 08:20 12.11.2020
5548 Clouds 6 1024 87 10000 1 120 07:54 12.11.2020
5549 Clouds 6 1024 87 10000 1 110 07:31 12.11.2020
5550 Clouds 6 1024 87 10000 1 110 06:52 12.11.2020
5551 Clouds 6 1024 87 10000 2.13 174 06:25 12.11.2020
5552 Clouds 6 1025 87 10000 1.5 150 03:45 12.11.2020
5553 Clouds 6 1025 87 10000 0.5 150 03:19 12.11.2020
5554 Clouds 6 1025 87 10000 1 150 00:32 12.11.2020
5555 Clouds 6 1026 81 10000 1 170 23:43 11.11.2020
5556 Clouds 6 1026 81 10000 1 170 23:24 11.11.2020
5557 Clouds 6 1026 81 10000 1 170 23:24 11.11.2020
5558 Clouds 6 1026 81 10000 1 0 22:47 11.11.2020
5559 Clouds 6 1026 75 10000 1 0 22:22 11.11.2020
5560 Clouds 6 1026 75 10000 1 0 21:57 11.11.2020
5561 Clouds 6 1026 81 10000 1.5 220 21:38 11.11.2020
5562 Clouds 6 1026 81 10000 1.5 200 21:19 11.11.2020
5563 Clouds 7 1026 81 10000 1.5 220 20:42 11.11.2020
5564 Clouds 7 1026 81 10000 1.5 210 20:22 11.11.2020
5565 Clouds 7 1026 81 10000 1.5 210 19:55 11.11.2020
5566 Clouds 7 1026 81 10000 2.1 210 19:37 11.11.2020
5567 Clouds 7 1026 81 10000 2.1 210 19:18 11.11.2020
5568 Clouds 7 1026 81 10000 2.1 210 19:18 11.11.2020
5569 Clouds 7 1026 87 10000 1.5 200 18:41 11.11.2020
5570 Clouds 7 1026 87 10000 1.5 0 18:21 11.11.2020
5571 Clouds 7 1027 87 10000 1 200 17:37 11.11.2020
5572 Clouds 7 1027 87 10000 1 210 17:19 11.11.2020
5573 Clouds 7 1027 87 10000 1 0 16:39 11.11.2020
5574 Clouds 7 1027 87 10000 1 0 16:39 11.11.2020
5575 Clouds 8 1027 81 10000 1.5 0 16:21 11.11.2020
5576 Clouds 8 1027 81 10000 1.5 210 15:41 11.11.2020
5577 Clouds 8 1027 81 10000 1.5 210 15:23 11.11.2020
5578 Clouds 8 1027 81 10000 2.1 230 15:23 11.11.2020
5579 Clouds 8 1027 81 10000 1.5 0 14:47 11.11.2020
5580 Clouds 8 1027 81 10000 1.5 0 14:28 11.11.2020
5581 Clouds 8 1027 87 10000 1.5 0 13:49 11.11.2020
5582 Clouds 8 1027 87 10000 1.5 0 13:24 11.11.2020
5583 Clouds 8 1028 93 10000 1.5 0 12:22 11.11.2020
5584 Clouds 8 1028 93 10000 2.1 220 11:58 11.11.2020
5585 Clouds 8 1028 93 10000 2.1 210 11:40 11.11.2020
5586 Clouds 8 1028 93 10000 1.5 0 11:20 11.11.2020
5587 Clouds 8 1029 93 10000 1.5 190 10:39 11.11.2020
5588 Clouds 8 1029 93 10000 1.5 190 10:19 11.11.2020
5589 Clouds 7 1029 100 9000 2.1 180 09:43 11.11.2020
5590 Mist 8 1029 100 6000 1.5 180 09:24 11.11.2020
5591 Drizzle 8 1029 100 7000 1.5 160 08:45 11.11.2020
5592 Drizzle 8 1029 100 7000 1.5 160 08:25 11.11.2020
5593 Clouds 7 1029 93 10000 1.5 120 07:49 11.11.2020
5594 Clouds 7 1029 93 10000 1 0 06:33 11.11.2020
5595 Clouds 7 1029 93 10000 1 0 05:52 11.11.2020
5596 Clouds 6 1031 93 10000 1.5 0 02:29 11.11.2020
5597 Clouds 6 1031 87 10000 1.5 210 00:58 11.11.2020
5598 Clouds 6 1031 87 10000 1.5 210 00:58 11.11.2020
5599 Rain 6 1031 87 10000 1.5 200 00:25 11.11.2020
5600 Clouds 6 1031 87 10000 2.6 220 23:42 10.11.2020
5601 Rain 6 1031 87 10000 2.6 220 23:23 10.11.2020
5602 Clouds 6 1031 87 10000 2.1 210 22:51 10.11.2020
5603 Clouds 6 1031 87 10000 1.5 180 22:26 10.11.2020
5604 Clouds 6 1031 87 10000 2.1 220 21:42 10.11.2020
5605 Clouds 6 1031 87 10000 2.1 240 21:24 10.11.2020
5606 Rain 6 1031 87 10000 2.1 240 20:58 10.11.2020
5607 Clouds 6 1031 87 10000 2.6 230 20:40 10.11.2020
5608 Clouds 6 1032 81 10000 3.1 220 20:22 10.11.2020
5609 Clouds 6 1032 81 10000 2.6 230 19:46 10.11.2020
5610 Clouds 6 1032 81 10000 2.6 230 19:25 10.11.2020
5611 Clouds 6 1032 81 10000 1.5 220 18:56 10.11.2020
5612 Clouds 6 1032 81 10000 2.1 230 18:37 10.11.2020
5613 Clouds 6 1032 87 10000 1.5 220 18:18 10.11.2020
5614 Clouds 6 1032 81 10000 1.5 230 17:42 10.11.2020
5615 Clouds 6 1032 81 10000 3.1 240 17:24 10.11.2020
5616 Clouds 6 1032 81 10000 2.6 240 16:42 10.11.2020
5617 Clouds 6 1032 81 10000 3.1 230 16:24 10.11.2020
5618 Clouds 6 1032 81 10000 3.1 230 15:55 10.11.2020
5619 Clouds 6 1032 81 10000 3.1 240 15:37 10.11.2020
5620 Clouds 6 1032 81 10000 2.6 230 15:18 10.11.2020
5621 Clouds 6 1032 81 10000 3.1 240 14:40 10.11.2020
5622 Clouds 6 1032 81 10000 3.6 250 14:19 10.11.2020
5623 Clouds 6 1032 87 10000 2.6 260 13:40 10.11.2020
5624 Clouds 6 1032 81 10000 3.6 270 13:21 10.11.2020
5625 Clouds 6 1032 81 10000 3.6 270 12:56 10.11.2020
5626 Clouds 6 1033 81 10000 4.1 270 12:37 10.11.2020
5627 Clouds 6 1033 81 10000 3.6 270 12:18 10.11.2020
5628 Clouds 6 1033 86 10000 4.1 270 11:36 10.11.2020
5629 Clouds 5 1032 86 10000 4.1 250 11:18 10.11.2020
5630 Clouds 5 1032 86 10000 4.1 270 10:42 10.11.2020
5631 Clouds 5 1032 86 10000 3.1 270 10:22 10.11.2020
5632 Clouds 4 1032 93 10000 3.6 260 09:46 10.11.2020
5633 Clouds 4 1032 93 10000 3.6 260 09:26 10.11.2020
5634 Clouds 4 1032 100 10000 4.1 240 08:57 10.11.2020
5635 Clouds 4 1032 93 10000 3.6 240 08:29 10.11.2020
5636 Clouds 4 1031 100 10000 3.1 270 07:46 10.11.2020
5637 Clouds 4 1031 100 10000 3.1 270 07:26 10.11.2020
5638 Mist 4 1031 100 8000 3.1 240 06:42 10.11.2020
5639 Mist 4 1031 100 6000 2.6 220 05:56 10.11.2020
5640 Mist 4 1031 100 4900 2.1 230 05:24 10.11.2020
5641 Clouds 4 1032 100 10000 2.1 250 02:48 10.11.2020
5642 Clouds 4 1031 93 10000 3.1 250 01:32 10.11.2020
5643 Clouds 5 1031 93 10000 1 270 00:23 10.11.2020
5644 Clouds 5 1031 93 10000 3.1 290 23:38 09.11.2020
5645 Clouds 4 1031 100 10000 2.6 290 22:54 09.11.2020
5646 Clouds 4 1031 93 10000 2.1 280 22:36 09.11.2020
5647 Clouds 4 1031 100 10000 2.6 270 22:18 09.11.2020
5648 Clouds 4 1030 100 10000 1 0 21:39 09.11.2020
5649 Clear 4 1030 100 10000 1.5 250 21:19 09.11.2020
5650 Clear 3 1030 100 10000 1.78 244 20:39 09.11.2020
5651 Clear 4 1030 100 10000 1.5 290 20:21 09.11.2020
5652 Clear 4 1030 100 10000 1.5 250 19:42 09.11.2020
5653 Clear 4 1030 100 10000 1.5 250 19:22 09.11.2020
5654 Clear 4 1030 100 10000 1.5 260 18:46 09.11.2020
5655 Clear 4 1030 100 10000 1.5 260 18:46 09.11.2020
5656 Clear 5 1030 93 10000 1.5 280 18:21 09.11.2020
5657 Clear 5 1030 93 10000 1.5 280 17:58 09.11.2020
5658 Clear 5 1030 93 10000 1.5 280 17:39 09.11.2020
5659 Clear 5 1030 86 10000 1 290 17:21 09.11.2020
5660 Clear 6 1029 87 10000 1.5 280 16:38 09.11.2020
5661 Clear 6 1029 87 10000 2.1 290 16:19 09.11.2020
5662 Clear 6 1029 87 10000 2.6 290 15:42 09.11.2020
5663 Clear 6 1029 87 10000 2.6 290 15:23 09.11.2020
5664 Clouds 7 1029 87 10000 3.1 280 14:44 09.11.2020
5665 Clouds 7 1029 87 10000 3.1 280 14:26 09.11.2020
5666 Clouds 8 1029 81 10000 4.1 280 13:51 09.11.2020
5667 Clouds 8 1029 81 10000 4.1 310 13:21 09.11.2020
5668 Clouds 8 1028 81 10000 3.6 290 12:50 09.11.2020
5669 Clouds 8 1028 81 10000 3.6 290 12:26 09.11.2020
5670 Clouds 8 1028 81 10000 3.6 290 11:57 09.11.2020
5671 Clouds 8 1028 81 10000 2.6 290 11:39 09.11.2020
5672 Clouds 8 1028 87 10000 2.1 310 11:20 09.11.2020
5673 Clouds 8 1028 87 10000 2.1 310 10:42 09.11.2020
5674 Clouds 8 1028 87 10000 2.1 310 10:23 09.11.2020
5675 Clouds 8 1027 93 10000 2.1 300 09:45 09.11.2020
5676 Clouds 8 1027 93 10000 2.1 300 09:24 09.11.2020
5677 Clouds 7 1027 100 10000 1.5 260 08:41 09.11.2020
5678 Clouds 7 1026 100 10000 1.5 230 08:20 09.11.2020
5679 Clouds 7 1026 100 10000 1.5 230 07:40 09.11.2020
5680 Clouds 7 1026 100 10000 1.5 230 07:19 09.11.2020
5681 Clouds 7 1026 100 10000 1.5 230 06:31 09.11.2020
5682 Clouds 8 1026 93 10000 2.1 220 03:22 09.11.2020
5683 Clouds 7 1026 93 10000 2.6 190 01:43 09.11.2020
5684 Clouds 7 1026 93 10000 2.1 190 00:58 09.11.2020
5685 Clouds 7 1027 93 10000 2.6 190 23:53 08.11.2020
5686 Mist 7 1027 87 8000 2.6 180 23:30 08.11.2020
5687 Clouds 7 1027 87 10000 2.6 150 22:46 08.11.2020
5688 Clouds 6 1027 93 10000 0.5 150 22:23 08.11.2020
5689 Clouds 6 1027 93 10000 0.5 150 21:56 08.11.2020
5690 Clouds 6 1027 93 10000 0.5 150 21:56 08.11.2020
5691 Clouds 5 1027 93 10000 2.12 195 21:37 08.11.2020
5692 Clouds 5 1027 93 10000 1.5 0 21:18 08.11.2020
5693 Clouds 4 1027 100 10000 2.04 192 20:39 08.11.2020
5694 Clouds 4 1027 100 10000 2.04 192 20:39 08.11.2020
5695 Clouds 4 1027 100 10000 2.04 192 20:39 08.11.2020
5696 Clear 4 1027 93 10000 1.85 198 20:21 08.11.2020
5697 Clear 4 1027 93 10000 1.85 198 19:56 08.11.2020
5698 Clear 4 1026 100 10000 0.5 0 19:37 08.11.2020
5699 Clouds 4 1026 93 10000 2.1 200 19:19 08.11.2020
5700 Clear 3 1026 100 10000 2.04 199 18:45 08.11.2020
5701 Clear 4 1026 93 10000 1.76 198 18:21 08.11.2020
5702 Clear 4 1026 93 10000 1.76 198 17:57 08.11.2020
5703 Clear 4 1026 86 10000 1.76 198 17:37 08.11.2020
5704 Clear 5 1026 86 10000 1.18 191 17:19 08.11.2020
5705 Clear 6 1026 81 10000 1.18 191 16:47 08.11.2020
5706 Clear 6 1026 70 10000 1 170 16:21 08.11.2020
5707 Clear 6 1026 70 10000 1 170 15:56 08.11.2020
5708 Clear 7 1026 70 10000 0.75 197 15:38 08.11.2020
5709 Clear 8 1025 61 10000 0.48 228 15:19 08.11.2020
5710 Clouds 8 1025 66 10000 0.48 228 14:38 08.11.2020
5711 Clouds 9 1025 66 10000 0.21 315 14:20 08.11.2020
5712 Clouds 9 1026 66 10000 1.5 0 13:44 08.11.2020
5713 Clouds 9 1025 70 10000 1 0 13:21 08.11.2020
5714 Clouds 9 1025 70 10000 0.5 0 12:42 08.11.2020
5715 Clouds 8 1025 70 10000 0.5 0 12:24 08.11.2020
5716 Clouds 8 1025 70 10000 1.5 0 11:57 08.11.2020
5717 Clouds 8 1025 70 10000 1.5 0 11:38 08.11.2020
5718 Clouds 8 1025 70 10000 1.5 0 11:38 08.11.2020
5719 Clouds 8 1025 75 10000 1 0 11:20 08.11.2020
5720 Clouds 7 1024 87 10000 1.5 330 10:49 08.11.2020
5721 Clear 7 1024 87 10000 1.5 0 10:18 08.11.2020
5722 Clear 7 1024 93 10000 1.5 300 09:42 08.11.2020
5723 Clear 6 1024 93 10000 1.5 300 09:24 08.11.2020
5724 Clear 6 1023 100 10000 1.5 310 08:55 08.11.2020
5725 Clear 6 1022 100 10000 1 340 08:36 08.11.2020
5726 Clear 6 1022 93 10000 1 280 08:18 08.11.2020
5727 Clear 6 1022 93 10000 1 300 07:46 08.11.2020
5728 Clouds 6 1021 87 10000 1.5 330 07:19 08.11.2020
5729 Clouds 6 1020 93 10000 1 0 05:55 08.11.2020
5730 Clouds 7 1020 93 10000 1.5 0 05:29 08.11.2020
5731 Clouds 8 1019 93 10000 2.6 360 03:56 08.11.2020
5732 Clouds 9 1017 93 10000 3.6 300 01:49 08.11.2020
5733 Clouds 9 1017 87 10000 3.1 290 01:18 08.11.2020
5734 Rain 9 1017 87 10000 2.6 250 00:26 08.11.2020
5735 Clouds 9 1018 87 10000 3.81 271 23:46 07.11.2020
5736 Clouds 9 1018 87 10000 3.3 261 23:28 07.11.2020
5737 Clouds 10 1017 87 10000 4.6 240 22:42 07.11.2020
5738 Rain 10 1017 87 10000 4.1 240 22:23 07.11.2020
5739 Rain 10 1017 87 10000 4.1 240 22:23 07.11.2020
5740 Clouds 10 1017 87 10000 4.1 250 21:45 07.11.2020
5741 Rain 10 1017 87 10000 4.1 250 21:22 07.11.2020
5742 Clouds 10 1017 87 10000 3.6 230 20:50 07.11.2020
5743 Clouds 10 1017 87 10000 3.6 230 20:32 07.11.2020
5744 Clouds 10 1017 87 10000 4.1 230 19:59 07.11.2020
5745 Clouds 10 1017 87 10000 3.1 230 19:39 07.11.2020
5746 Clouds 10 1017 87 10000 2.6 230 19:20 07.11.2020
5747 Clouds 10 1017 87 10000 4.1 230 18:39 07.11.2020
5748 Clouds 10 1017 81 10000 4.1 230 18:20 07.11.2020
5749 Clouds 11 1017 81 10000 4.1 250 17:45 07.11.2020
5750 Clouds 11 1017 81 10000 4.1 250 17:25 07.11.2020
5751 Clouds 11 1018 81 10000 4.6 240 16:43 07.11.2020
5752 Clouds 11 1018 81 10000 4.1 250 16:24 07.11.2020
5753 Clouds 11 1018 81 10000 5.1 250 15:47 07.11.2020
5754 Clouds 11 1018 81 10000 5.1 250 15:24 07.11.2020
5755 Clouds 11 1019 81 10000 5.7 260 14:56 07.11.2020
5756 Clouds 11 1019 81 10000 4.6 250 14:38 07.11.2020
5757 Clouds 11 1019 81 10000 5.1 240 14:19 07.11.2020
5758 Clouds 11 1019 87 10000 5.1 240 13:39 07.11.2020
5759 Clouds 11 1019 87 10000 5.7 250 13:21 07.11.2020
5760 Clouds 11 1020 81 10000 5.7 240 12:33 07.11.2020
5761 Clouds 10 1020 87 10000 4.6 240 11:45 07.11.2020
5762 Clouds 10 1020 87 10000 4.6 240 11:25 07.11.2020
5763 Clouds 9 1020 93 10000 4.1 230 10:56 07.11.2020
5764 Clouds 9 1021 93 10000 4.6 240 10:38 07.11.2020
5765 Clouds 9 1021 87 10000 4.1 240 10:20 07.11.2020
5766 Clear 8 1015 92 10000 1.79 225 09:47 07.11.2020
5767 Clouds 8 1021 93 10000 6.7 240 09:21 07.11.2020
5768 Clear 8 1021 100 10000 4.6 240 08:43 07.11.2020
5769 Clear 8 1021 100 10000 4.6 240 08:22 07.11.2020
5770 Clear 8 1022 100 10000 2.6 240 07:37 07.11.2020
5771 Clear 7 1022 100 10000 2.6 230 06:48 07.11.2020
5772 Mist 7 1022 100 3700 5.1 240 05:40 07.11.2020
5773 Clouds 7 1022 100 1000 3.1 240 03:26 07.11.2020
5774 Clear 7 1016 95 10000 0.45 247 02:38 07.11.2020
5775 Fog 6 1023 100 350 1.5 200 01:27 07.11.2020
5776 Fog 8 1023 100 250 1 0 00:34 07.11.2020
5777 Clear 9 1024 93 10000 2.1 260 23:32 06.11.2020
5778 Clear 9 1023 93 10000 1.5 270 22:57 06.11.2020
5779 Clear 9 1023 100 10000 2.6 260 22:38 06.11.2020
5780 Clear 9 1023 93 10000 2.6 250 22:18 06.11.2020
5781 Clear 10 1023 93 10000 2.1 260 21:41 06.11.2020
5782 Clear 10 1023 93 10000 3.1 270 21:20 06.11.2020
5783 Clear 10 1023 87 10000 3.1 250 20:44 06.11.2020
5784 Clear 10 1023 93 10000 2.6 240 20:20 06.11.2020
5785 Clear 10 1022 93 10000 2.1 220 19:45 06.11.2020
5786 Clear 10 1022 93 10000 2.1 220 19:27 06.11.2020
5787 Clear 10 1022 87 10000 2.1 220 18:55 06.11.2020
5788 Clear 10 1022 87 10000 2.1 220 18:55 06.11.2020
5789 Clear 11 1022 87 10000 2.1 230 18:37 06.11.2020
5790 Clear 11 1022 81 10000 2.1 230 18:19 06.11.2020
5791 Clear 11 1021 81 10000 2.6 250 17:41 06.11.2020
5792 Clear 12 1021 81 10000 2.6 250 17:23 06.11.2020
5793 Clear 12 1021 76 10000 2.6 250 16:39 06.11.2020
5794 Clear 12 1021 76 10000 2.6 250 16:20 06.11.2020
5795 Clear 13 1022 71 10000 3.1 260 15:41 06.11.2020
5796 Clear 14 1021 67 10000 3.1 250 15:22 06.11.2020
5797 Clear 14 1021 67 10000 2.6 260 14:41 06.11.2020
5798 Clear 14 1022 67 10000 3.6 260 14:18 06.11.2020
5799 Clear 14 1022 67 10000 3.6 260 14:18 06.11.2020
5800 Clear 14 1021 71 10000 5.1 260 13:42 06.11.2020
5801 Clear 14 1021 71 10000 5.1 260 13:42 06.11.2020
5802 Clear 14 1021 67 10000 4.6 240 13:19 06.11.2020
5803 Clear 14 1021 67 10000 4.1 270 12:42 06.11.2020
5804 Clear 14 1021 67 10000 6.7 270 12:22 06.11.2020
5805 Clear 14 1020 67 10000 5.1 270 11:38 06.11.2020
5806 Clear 13 1020 71 10000 5.1 280 10:59 06.11.2020
5807 Clear 13 1020 71 10000 5.1 270 10:36 06.11.2020
5808 Clear 12 1020 76 10000 4.6 270 09:58 06.11.2020
5809 Clear 11 1019 81 10000 5.1 260 09:38 06.11.2020
5810 Clear 11 1019 87 10000 4.6 250 09:20 06.11.2020
5811 Clear 10 1019 87 10000 3.1 250 08:47 06.11.2020
5812 Clear 9 1019 87 10000 3.1 250 08:28 06.11.2020
5813 Clear 9 1018 87 10000 2.6 250 07:44 06.11.2020
5814 Clear 9 1018 87 10000 3.1 250 07:21 06.11.2020
5815 Clouds 9 1018 87 10000 4.1 260 06:42 06.11.2020
5816 Clouds 9 1018 93 10000 5.1 250 05:39 06.11.2020
5817 Clouds 9 1017 87 10000 3.1 260 02:52 06.11.2020
5818 Clouds 8 1016 87 10000 3.6 250 00:35 06.11.2020
5819 Clouds 9 1016 87 10000 4.6 250 23:56 05.11.2020
5820 Clouds 9 1016 87 10000 4.1 250 23:26 05.11.2020
5821 Clouds 9 1016 87 10000 4.1 250 22:49 05.11.2020
5822 Clear 9 1015 87 10000 2.6 240 22:26 05.11.2020
5823 Clear 9 1015 87 10000 2.6 240 22:26 05.11.2020
5824 Clear 9 1015 87 10000 2.6 240 21:58 05.11.2020
5825 Clear 9 1015 87 10000 4.6 230 21:40 05.11.2020
5826 Clear 8 1015 87 10000 4.1 240 21:19 05.11.2020
5827 Clear 9 1015 87 10000 3.1 230 20:44 05.11.2020
5828 Clear 9 1014 87 10000 4.6 230 20:24 05.11.2020
5829 Clear 9 1014 87 10000 4.6 230 19:57 05.11.2020
5830 Clear 9 1014 87 10000 4.1 230 19:38 05.11.2020
5831 Clear 9 1014 87 10000 4.1 230 19:19 05.11.2020
5832 Clear 9 1014 81 10000 3.6 240 18:41 05.11.2020
5833 Clear 9 1013 81 10000 3.6 230 18:22 05.11.2020
5834 Clear 9 1013 81 10000 3.6 250 17:47 05.11.2020
5835 Clear 9 1013 81 10000 4.6 230 17:26 05.11.2020
5836 Clear 9 1013 81 10000 4.6 250 16:49 05.11.2020
5837 Clear 10 1013 81 10000 4.6 250 16:29 05.11.2020
5838 Clear 10 1013 76 10000 4.1 260 15:55 05.11.2020
5839 Clear 10 1013 76 10000 4.1 260 15:37 05.11.2020
5840 Clear 11 1012 76 10000 5.7 260 15:18 05.11.2020
5841 Clear 11 1012 71 10000 6.2 250 14:44 05.11.2020
5842 Clear 11 1011 71 10000 6.7 250 14:24 05.11.2020
5843 Clear 12 1011 71 10000 7.7 260 13:41 05.11.2020
5844 Clear 11 1012 76 10000 7.7 260 13:18 05.11.2020
5845 Clear 11 1011 76 10000 9.3 260 12:42 05.11.2020
5846 Clear 11 1011 76 10000 9.3 260 12:23 05.11.2020
5847 Clouds 10 1011 76 10000 7.2 250 11:43 05.11.2020
5848 Clouds 10 1012 81 10000 5.7 230 11:23 05.11.2020
5849 Clouds 9 1011 76 10000 6.7 230 10:49 05.11.2020
5850 Clouds 9 1011 76 10000 6.7 230 10:28 05.11.2020
5851 Clouds 9 1011 76 10000 6.7 230 10:28 05.11.2020
5852 Clouds 8 1012 81 10000 5.7 230 09:50 05.11.2020
5853 Clouds 8 1012 75 10000 7.7 240 09:25 05.11.2020
5854 Clouds 7 1012 75 10000 7.7 240 08:55 05.11.2020
5855 Clear 7 1012 75 10000 6.7 230 08:36 05.11.2020
5856 Clear 7 1012 81 10000 5.1 230 08:18 05.11.2020
5857 Clouds 7 1013 86 10000 6.5 252 07:28 05.11.2020
5858 Clouds 6 1013 87 10000 4.6 230 06:50 05.11.2020
5859 Clouds 6 1013 87 10000 4.6 230 06:32 05.11.2020
5860 Clouds 5 1015 87 10000 4.1 230 03:45 05.11.2020
5861 Clear 6 1016 93 10000 5.1 240 00:45 05.11.2020
5862 Clear 6 1016 87 10000 5.7 240 00:20 05.11.2020
5863 Clear 6 1016 87 10000 5.1 240 23:43 04.11.2020
5864 Clear 6 1016 87 10000 5.1 240 23:24 04.11.2020
5865 Clear 6 1015 87 10000 4.6 240 22:42 04.11.2020
5866 Clouds 6 1015 87 10000 5.1 240 22:22 04.11.2020
5867 Clouds 6 1015 87 10000 5.7 240 21:47 04.11.2020
5868 Clouds 6 1015 87 10000 5.1 240 21:27 04.11.2020
5869 Clouds 6 1015 87 10000 5.1 240 20:54 04.11.2020
5870 Clouds 6 1015 87 10000 4.1 240 20:35 04.11.2020
5871 Clouds 6 1015 93 10000 4.1 230 19:59 04.11.2020
5872 Clouds 6 1015 93 10000 4.6 230 19:40 04.11.2020
5873 Clouds 6 1015 93 10000 4.6 230 19:40 04.11.2020
5874 Clear 6 1015 93 10000 4.1 230 19:22 04.11.2020
5875 Clear 6 1015 93 10000 3.1 220 18:41 04.11.2020
5876 Clear 6 1015 93 10000 3.1 220 18:23 04.11.2020
5877 Clouds 6 1015 87 10000 3.1 240 17:48 04.11.2020
5878 Clouds 6 1015 87 10000 3.1 240 17:27 04.11.2020
5879 Clouds 7 1014 87 10000 3.1 240 16:56 04.11.2020
5880 Clouds 7 1014 87 10000 3.1 240 16:36 04.11.2020
5881 Clouds 7 1014 81 10000 4.6 250 16:18 04.11.2020
5882 Clouds 8 1014 81 10000 4.1 260 15:41 04.11.2020
5883 Clouds 8 1014 81 10000 6.2 250 15:23 04.11.2020
5884 Clouds 8 1014 81 10000 5.1 240 14:45 04.11.2020
5885 Clouds 8 1014 81 10000 5.1 240 14:24 04.11.2020
5886 Clouds 8 1014 81 10000 4.1 240 13:51 04.11.2020
5887 Clouds 8 1014 81 10000 4.1 240 13:22 04.11.2020
5888 Clouds 8 1013 81 10000 4.1 240 12:58 04.11.2020
5889 Clouds 8 1014 87 10000 4.1 240 12:40 04.11.2020
5890 Clouds 8 1014 87 10000 3.1 190 12:22 04.11.2020
5891 Clouds 8 1014 87 10000 3.6 190 11:45 04.11.2020
5892 Clouds 9 1014 81 10000 3.6 190 11:22 04.11.2020
5893 Clouds 8 1014 81 10000 3.6 190 10:49 04.11.2020
5894 Clouds 7 1014 93 10000 2.1 160 10:24 04.11.2020
5895 Clouds 7 1014 93 10000 2.1 160 09:56 04.11.2020
5896 Clouds 6 1015 100 10000 2.1 180 09:28 04.11.2020
5897 Clear 5 1014 100 10000 1 0 08:50 04.11.2020
5898 Clear 5 1014 100 10000 1 0 08:23 04.11.2020
5899 Clear 4 1015 100 10000 0.5 0 07:58 04.11.2020
5900 Clear 5 1015 100 10000 1.5 190 07:37 04.11.2020
5901 Clear 5 1015 93 10000 2.6 210 07:18 04.11.2020
5902 Clear 5 1015 93 10000 2.6 210 06:39 04.11.2020
5903 Clear 6 1015 100 10000 3.6 200 04:59 04.11.2020
5904 Clear 6 1016 100 10000 3.1 200 02:31 04.11.2020
5905 Clear 7 1015 93 10000 3.1 200 01:38 04.11.2020
5906 Clear 6 1015 87 10000 2.6 210 23:59 03.11.2020
5907 Clear 6 1015 87 10000 2.6 220 23:26 03.11.2020
5908 Clear 6 1015 93 10000 2.1 210 22:55 03.11.2020
5909 Clear 7 1015 87 10000 1.5 210 22:37 03.11.2020
5910 Clear 7 1014 87 10000 2.1 230 22:18 03.11.2020
5911 Clear 7 1014 93 10000 2.6 220 21:41 03.11.2020
5912 Clear 7 1014 93 10000 2.6 220 21:23 03.11.2020
5913 Clouds 7 1013 87 10000 1.5 210 20:48 03.11.2020
5914 Clouds 8 1013 87 10000 1.5 210 20:27 03.11.2020
5915 Clear 8 1014 85 10000 4.45 245 19:55 03.11.2020
5916 Clouds 8 1012 81 10000 4.1 230 19:37 03.11.2020
5917 Clouds 8 1012 81 10000 3.1 230 19:18 03.11.2020
5918 Clouds 8 1012 76 10000 3.1 230 18:40 03.11.2020
5919 Clouds 9 1011 71 10000 4.1 240 18:19 03.11.2020
5920 Clouds 9 1011 76 10000 5.1 230 17:46 03.11.2020
5921 Clouds 9 1011 76 10000 5.1 230 17:27 03.11.2020
5922 Clouds 10 1009 71 10000 4.1 240 16:51 03.11.2020
5923 Clouds 10 1009 71 10000 4.1 240 16:30 03.11.2020
5924 Clouds 10 1009 66 10000 5.7 250 15:53 03.11.2020
5925 Clouds 11 1009 71 10000 6.2 240 15:30 03.11.2020
5926 Clouds 11 1008 66 10000 5.7 230 14:57 03.11.2020
5927 Clouds 11 1008 71 10000 4.6 230 14:38 03.11.2020
5928 Clouds 12 1008 71 10000 4.1 220 14:19 03.11.2020
5929 Clouds 12 1007 71 10000 5.7 230 13:41 03.11.2020
5930 Clouds 11 1007 76 10000 5.1 220 13:21 03.11.2020
5931 Clouds 11 1007 76 10000 5.1 230 12:44 03.11.2020
5932 Clouds 11 1006 76 10000 5.7 230 12:21 03.11.2020
5933 Clouds 11 1006 71 10000 5.1 230 11:46 03.11.2020
5934 Clouds 11 1006 71 10000 5.1 230 11:24 03.11.2020
5935 Clouds 11 1006 76 10000 5.1 230 10:55 03.11.2020
5936 Clouds 11 1005 76 10000 5.1 240 10:37 03.11.2020
5937 Clouds 11 1005 76 10000 5.1 230 10:18 03.11.2020
5938 Clouds 11 1005 76 10000 4.6 240 09:44 03.11.2020
5939 Clouds 10 1004 81 10000 4.6 230 09:22 03.11.2020
5940 Clouds 10 1004 81 10000 6.2 230 08:48 03.11.2020
5941 Clouds 10 1004 81 10000 6.2 230 08:29 03.11.2020
5942 Clouds 10 1003 81 10000 5.1 230 07:41 03.11.2020
5943 Clouds 10 1002 81 10000 6.2 220 07:19 03.11.2020
5944 Clouds 10 1001 87 10000 5.7 240 06:21 03.11.2020
5945 Clouds 10 1000 87 10000 4.6 240 04:34 03.11.2020
5946 Clouds 12 995 87 10000 7.7 270 00:45 03.11.2020
5947 Clouds 13 994 87 10000 4.6 200 00:20 03.11.2020
5948 Clouds 14 994 87 10000 5.1 190 23:43 02.11.2020
5949 Clouds 13 994 87 10000 5.1 190 23:22 02.11.2020
5950 Clouds 14 994 93 10000 5.1 190 22:43 02.11.2020
5951 Clouds 14 994 93 10000 5.1 190 22:24 02.11.2020
5952 Clouds 14 994 90 10000 7.39 220 21:39 02.11.2020
5953 Clouds 14 993 93 10000 6.2 180 21:21 02.11.2020
5954 Clouds 14 993 93 10000 6.2 180 20:56 02.11.2020
5955 Clouds 14 994 91 10000 8.14 214 20:38 02.11.2020
5956 Clouds 14 988 92 10000 1.34 225 20:18 02.11.2020
5957 Clouds 14 993 93 10000 7.7 180 19:43 02.11.2020
5958 Clouds 14 993 93 10000 7.2 180 19:25 02.11.2020
5959 Clouds 14 993 93 10000 7.7 180 18:43 02.11.2020
5960 Clouds 14 993 93 10000 6.7 180 18:22 02.11.2020
5961 Clouds 14 993 93 10000 6.7 180 17:58 02.11.2020
5962 Clouds 14 993 93 10000 6.2 180 17:40 02.11.2020
5963 Clouds 14 993 93 10000 6.7 180 17:20 02.11.2020
5964 Clouds 14 993 93 10000 6.2 170 16:42 02.11.2020
5965 Clouds 13 993 93 10000 6.2 170 16:23 02.11.2020
5966 Clouds 13 993 100 10000 7.2 170 15:44 02.11.2020
5967 Clouds 13 994 100 10000 8.2 180 15:24 02.11.2020
5968 Clouds 13 994 100 10000 8.2 180 14:57 02.11.2020
5969 Clouds 13 993 93 10000 7.2 180 14:37 02.11.2020
5970 Clouds 13 994 93 10000 7.7 170 14:18 02.11.2020
5971 Clouds 13 994 93 10000 7.7 170 13:42 02.11.2020
5972 Mist 13 994 93 10000 4.6 170 13:21 02.11.2020
5973 Clouds 13 995 100 10000 8.2 170 12:40 02.11.2020
5974 Clouds 13 995 93 10000 8.7 180 12:20 02.11.2020
5975 Clouds 13 995 93 10000 8.7 170 11:39 02.11.2020
5976 Clouds 13 995 93 10000 8.7 170 11:19 02.11.2020
5977 Clouds 12 995 93 10000 10.05 187 10:43 02.11.2020
5978 Drizzle 12 995 93 10000 9.3 170 10:22 02.11.2020
5979 Clouds 12 995 93 10000 8.2 160 09:51 02.11.2020
5980 Rain 12 995 92 10000 9.6 181 09:24 02.11.2020
5981 Clouds 11 997 93 9000 8.7 160 08:46 02.11.2020
5982 Clouds 11 997 93 10000 9.72 181 08:27 02.11.2020
5983 Clouds 11 998 93 10000 9.72 181 07:54 02.11.2020
5984 Clouds 11 998 93 5000 7.7 160 07:30 02.11.2020
5985 Clouds 11 992 94 10000 0.89 90 06:37 02.11.2020
5986 Rain 11 1001 93 4000 7.7 160 04:55 02.11.2020
5987 Clouds 11 1004 93 10000 5.7 170 01:26 02.11.2020
5988 Clouds 11 1005 93 10000 5.7 160 00:36 02.11.2020
5989 Clouds 11 1005 87 10000 5.7 160 23:55 01.11.2020
5990 Clouds 10 1005 87 10000 5.1 160 23:36 01.11.2020
5991 Rain 10 1006 87 10000 5.1 170 23:18 01.11.2020
5992 Clouds 10 1006 87 10000 5.7 160 22:38 01.11.2020
5993 Clouds 10 1006 93 10000 5.7 160 22:18 01.11.2020
5994 Clouds 10 1007 100 10000 5.7 160 21:41 01.11.2020
5995 Rain 10 1007 100 5000 6.2 150 21:23 01.11.2020
5996 Clouds 10 1007 100 5000 5.7 160 20:45 01.11.2020
5997 Clouds 10 1007 100 5000 5.7 160 20:25 01.11.2020
5998 Clouds 10 1008 100 5000 5.7 150 19:46 01.11.2020
5999 Clouds 10 1008 100 5000 5.7 150 19:28 01.11.2020
6000 Mist 10 1008 100 4500 6.7 150 18:57 01.11.2020
6001 Rain 10 1008 93 5000 6.7 150 18:37 01.11.2020
6002 Drizzle 10 1008 93 5000 6.7 140 18:18 01.11.2020
6003 Clouds 10 1009 93 5000 5.7 140 17:43 01.11.2020
6004 Mist 10 1010 93 5000 5.7 150 17:25 01.11.2020
6005 Drizzle 10 1010 93 6000 5.7 150 16:44 01.11.2020
6006 Drizzle 10 1010 93 6000 5.7 150 16:25 01.11.2020
6007 Clouds 10 1010 93 10000 6.7 150 15:55 01.11.2020
6008 Mist 10 1010 93 8000 7.7 150 15:37 01.11.2020
6009 Clouds 10 1010 93 10000 7.2 150 15:18 01.11.2020
6010 Clouds 9 1011 93 6000 6.2 150 14:45 01.11.2020
6011 Mist 9 1011 100 8000 5.7 150 14:22 01.11.2020
6012 Mist 9 1011 100 8000 5.7 150 13:50 01.11.2020
6013 Clouds 9 1012 100 4000 5.1 150 13:32 01.11.2020
6014 Rain 9 1012 93 5000 6.2 140 12:58 01.11.2020
6015 Mist 9 1012 93 5000 6.2 140 12:38 01.11.2020
6016 Clouds 9 1013 87 10000 6.2 150 12:18 01.11.2020
6017 Clouds 9 1013 86 10000 6.96 167 11:46 01.11.2020
6018 Clouds 10 1013 81 10000 6.7 140 11:18 01.11.2020
6019 Clouds 10 1014 81 10000 6.2 140 10:42 01.11.2020
6020 Clouds 10 1014 81 10000 6.2 150 10:23 01.11.2020
6021 Clouds 10 1014 81 10000 6.2 150 09:48 01.11.2020
6022 Clouds 10 1015 81 10000 6.7 140 08:55 01.11.2020
6023 Clouds 10 1015 81 10000 5.7 150 08:36 01.11.2020
6024 Clouds 10 1015 81 10000 6.7 140 07:50 01.11.2020
6025 Clouds 9 1015 87 10000 6.2 150 06:48 01.11.2020
6026 Clouds 10 1017 87 10000 5.7 150 02:22 01.11.2020
6027 Clouds 10 1018 87 10000 5.7 150 01:31 01.11.2020
6028 Clouds 10 1018 93 10000 4.1 160 23:51 31.10.2020
6029 Clouds 10 1019 93 10000 3.6 150 23:23 31.10.2020
6030 Mist 10 1019 100 7000 3.1 150 22:45 31.10.2020
6031 Mist 10 1019 100 7000 3.1 150 22:45 31.10.2020
6032 Mist 10 1019 100 7000 3.1 150 22:24 31.10.2020
6033 Clouds 9 1019 100 10000 2.6 160 21:46 31.10.2020
6034 Drizzle 9 1019 100 3100 2.6 130 21:22 31.10.2020
6035 Clouds 9 1019 100 10000 2.1 140 20:43 31.10.2020
6036 Clouds 9 1019 93 10000 2.1 160 20:20 31.10.2020
6037 Clouds 9 1020 93 10000 2.6 190 19:44 31.10.2020
6038 Clouds 9 1020 93 10000 2.6 190 19:25 31.10.2020
6039 Clouds 9 1020 93 10000 3.1 190 18:59 31.10.2020
6040 Clouds 9 1020 100 10000 3.1 190 18:41 31.10.2020
6041 Clouds 9 1020 100 8000 2.6 190 17:47 31.10.2020
6042 Clouds 9 1020 100 8000 2.6 190 17:27 31.10.2020
6043 Clouds 9 1020 100 6000 3.1 190 16:56 31.10.2020
6044 Clouds 9 1020 100 9000 3.6 180 16:37 31.10.2020
6045 Clouds 9 1020 100 8000 4.1 180 15:56 31.10.2020
6046 Clouds 9 1020 100 10000 4.1 180 15:26 31.10.2020
6047 Clouds 9 1020 100 8000 3.6 180 14:58 31.10.2020
6048 Clouds 9 1020 93 6000 4.1 180 14:37 31.10.2020
6049 Clouds 10 1020 87 9000 4.6 180 14:18 31.10.2020
6050 Clouds 10 1020 87 10000 4.1 170 13:43 31.10.2020
6051 Clouds 10 1020 93 10000 4.6 170 13:20 31.10.2020
6052 Clouds 9 1020 100 10000 4.1 170 12:27 31.10.2020
6053 Clouds 9 1020 100 10000 2.6 160 11:47 31.10.2020
6054 Clouds 9 1020 100 10000 2.6 160 11:28 31.10.2020
6055 Clouds 9 1021 100 10000 3.1 160 10:54 31.10.2020
6056 Rain 8 1021 100 10000 3.1 160 10:33 31.10.2020
6057 Clouds 7 1020 100 6000 3.6 140 09:42 31.10.2020
6058 Mist 7 1020 100 2500 1.5 130 09:20 31.10.2020
6059 Mist 6 1020 100 2100 2.1 160 08:30 31.10.2020
6060 Mist 5 1020 100 6000 1.5 140 07:49 31.10.2020
6061 Mist 5 1020 100 6000 1.5 140 07:26 31.10.2020
6062 Mist 4 1020 100 8000 1.83 158 06:38 31.10.2020
6063 Mist 5 1019 100 6000 1 290 03:50 31.10.2020
6064 Clouds 4 1020 100 2100 1 340 03:21 31.10.2020
6065 Fog 4 1020 100 200 0.5 0 01:29 31.10.2020
6066 Fog 4 1019 100 200 1 0 00:46 31.10.2020
6067 Fog 4 1019 100 150 2.1 290 23:50 30.10.2020
6068 Fog 4 1018 100 150 1.5 140 23:24 30.10.2020
6069 Fog 3 1018 100 300 1.5 250 22:45 30.10.2020
6070 Fog 3 1018 100 300 1.5 250 22:24 30.10.2020
6071 Fog 4 1018 100 300 1 0 21:55 30.10.2020
6072 Fog 4 1017 100 300 0.5 0 21:37 30.10.2020
6073 Fog 4 1017 100 300 1 0 21:18 30.10.2020
6074 Fog 4 1017 100 300 1.5 290 20:39 30.10.2020
6075 Fog 4 1017 100 150 1 0 20:20 30.10.2020
6076 Fog 4 1017 100 150 1.5 0 19:46 30.10.2020
6077 Fog 4 1016 100 200 1.5 310 19:19 30.10.2020
6078 Fog 4 1016 100 200 1.5 270 18:50 30.10.2020
6079 Fog 5 1016 100 200 1.5 270 18:28 30.10.2020
6080 Fog 5 1016 100 250 2.1 290 17:49 30.10.2020
6081 Fog 5 1015 100 100 1 270 17:24 30.10.2020
6082 Fog 5 1015 100 100 1 270 16:57 30.10.2020
6083 Fog 5 1015 100 200 0.5 0 16:38 30.10.2020
6084 Fog 6 1015 100 200 1.5 0 16:19 30.10.2020
6085 Fog 6 1015 100 300 1 0 15:40 30.10.2020
6086 Fog 6 1014 100 300 1.5 0 15:20 30.10.2020
6087 Fog 7 1014 100 300 1.5 280 14:44 30.10.2020
6088 Fog 7 1014 100 300 1.5 280 14:25 30.10.2020
6089 Fog 7 1014 100 200 1 0 13:47 30.10.2020
6090 Fog 6 1014 100 300 2.1 280 13:22 30.10.2020
6091 Fog 6 1014 100 300 2.1 280 12:55 30.10.2020
6092 Fog 6 1013 100 250 1.5 280 12:23 30.10.2020
6093 Fog 6 1013 100 250 1.5 280 11:56 30.10.2020
6094 Fog 6 1013 100 250 1.5 250 11:23 30.10.2020
6095 Fog 6 1013 100 150 2.1 300 10:58 30.10.2020
6096 Fog 6 1013 100 150 1 0 10:39 30.10.2020
6097 Fog 5 1012 100 150 2.1 280 10:21 30.10.2020
6098 Fog 5 1012 100 150 1 300 09:43 30.10.2020
6099 Fog 5 1012 100 150 1.5 310 09:20 30.10.2020
6100 Fog 4 1011 100 50 1.5 300 08:39 30.10.2020
6101 Fog 4 1011 100 100 1 290 08:20 30.10.2020
6102 Fog 4 1011 100 250 1 330 07:46 30.10.2020
6103 Fog 4 1011 100 250 1 330 07:27 30.10.2020
6104 Fog 5 1010 100 150 1 0 06:21 30.10.2020
6105 Fog 5 1009 100 100 1 300 04:28 30.10.2020
6106 Fog 6 1009 100 200 0.5 270 01:43 30.10.2020
6107 Mist 6 1008 100 3900 0.5 260 00:38 30.10.2020
6108 Mist 7 1008 100 7000 1.42 331 23:48 29.10.2020
6109 Mist 7 1008 100 7000 1.05 325 23:30 29.10.2020
6110 Mist 6 1008 100 10000 1.05 325 22:49 29.10.2020
6111 Mist 6 1008 100 10000 0.96 312 22:27 29.10.2020
6112 Mist 6 1008 100 10000 1 0 21:51 29.10.2020
6113 Mist 6 1008 100 10000 1 0 21:28 29.10.2020
6114 Mist 7 1007 100 10000 1 0 20:59 29.10.2020
6115 Fog 7 1007 100 10000 1.08 295 20:40 29.10.2020
6116 Fog 7 1007 100 10000 1.08 295 20:40 29.10.2020
6117 Fog 7 1007 100 10000 0.5 270 20:18 29.10.2020
6118 Fog 7 1007 100 10000 1.15 278 19:40 29.10.2020
6119 Fog 7 1007 100 10000 1.21 255 19:21 29.10.2020
6120 Fog 7 1006 100 10000 1.06 246 18:47 29.10.2020
6121 Clouds 8 1006 100 10000 1 170 18:27 29.10.2020
6122 Clouds 8 1006 100 10000 1 170 17:55 29.10.2020
6123 Clouds 8 1006 100 10000 1 170 17:37 29.10.2020
6124 Clouds 9 1006 93 10000 1 180 17:18 29.10.2020
6125 Clouds 8 1006 87 10000 1.5 180 16:43 29.10.2020
6126 Clouds 9 1006 87 10000 1.5 0 16:18 29.10.2020
6127 Clouds 10 1005 87 10000 2.1 190 15:41 29.10.2020
6128 Clouds 10 1005 87 10000 2.1 180 15:22 29.10.2020
6129 Clouds 10 1005 87 10000 2.1 180 14:59 29.10.2020
6130 Clouds 10 1005 87 10000 2.1 180 14:59 29.10.2020
6131 Clouds 10 1005 87 10000 2.1 180 14:59 29.10.2020
6132 Clouds 10 1005 87 10000 2.6 200 14:40 29.10.2020
6133 Clouds 10 1005 87 10000 3.1 180 14:20 29.10.2020
6134 Clouds 10 1005 81 10000 2.6 180 13:45 29.10.2020
6135 Clouds 10 1005 81 10000 2.6 180 13:26 29.10.2020
6136 Clouds 10 1005 87 10000 3.1 190 12:43 29.10.2020
6137 Clouds 10 1005 81 10000 2.6 170 12:19 29.10.2020
6138 Clouds 10 1005 87 10000 3.6 170 11:49 29.10.2020
6139 Clouds 10 1005 87 10000 3.6 170 11:26 29.10.2020
6140 Clouds 9 1005 93 10000 3.6 180 10:58 29.10.2020
6141 Clear 9 1005 87 10000 3.1 190 10:36 29.10.2020
6142 Clear 9 1005 87 10000 3.1 190 10:18 29.10.2020
6143 Clear 8 1005 87 10000 2.1 190 09:46 29.10.2020
6144 Clear 8 1004 87 10000 2.6 160 09:20 29.10.2020
6145 Clear 7 1004 93 10000 2.1 180 08:40 29.10.2020
6146 Clear 7 1004 93 10000 2.1 180 08:19 29.10.2020
6147 Clear 7 1004 93 10000 1.5 170 07:48 29.10.2020
6148 Clear 7 1003 100 10000 2.6 180 06:59 29.10.2020
6149 Clear 7 1003 100 10000 2.6 190 06:24 29.10.2020
6150 Clear 7 1003 93 10000 2.6 160 04:48 29.10.2020
6151 Clear 7 997 94 10000 3.73 210 02:18 29.10.2020
6152 Clear 7 997 94 10000 0.45 225 00:38 29.10.2020
6153 Clouds 7 1004 93 10000 4.03 212 00:19 29.10.2020
6154 Clouds 7 997 94 10000 0.45 247 23:40 28.10.2020
6155 Clouds 7 1004 93 10000 3.93 215 23:19 28.10.2020
6156 Clear 8 1003 100 10000 2.6 180 22:42 28.10.2020
6157 Clear 8 1003 100 10000 2.6 180 22:23 28.10.2020
6158 Clear 8 1003 93 10000 2.6 190 21:45 28.10.2020
6159 Clear 8 1003 93 10000 2.6 190 21:25 28.10.2020
6160 Clear 8 1003 93 10000 3.6 180 20:44 28.10.2020
6161 Clear 8 1002 93 10000 2.6 190 20:23 28.10.2020
6162 Clear 8 1002 93 10000 2.6 190 19:55 28.10.2020
6163 Clear 8 1002 93 10000 3.1 180 19:36 28.10.2020
6164 Clear 8 1002 93 10000 3.1 190 19:18 28.10.2020
6165 Clouds 9 1002 93 10000 3.1 200 18:42 28.10.2020
6166 Clouds 9 1002 93 10000 3.6 200 18:18 28.10.2020
6167 Clouds 9 1002 100 10000 3.6 190 17:41 28.10.2020
6168 Clouds 9 1001 93 10000 3.6 180 17:21 28.10.2020
6169 Clouds 9 1001 93 10000 3.6 180 16:47 28.10.2020
6170 Clouds 10 1001 93 10000 3.6 180 16:28 28.10.2020
6171 Drizzle 10 1001 100 5000 4.1 180 15:42 28.10.2020
6172 Rain 10 995 94 10000 0.89 225 15:19 28.10.2020
6173 Clouds 9 1001 93 10000 6.2 170 14:49 28.10.2020
6174 Clouds 9 1001 93 10000 6.2 170 14:31 28.10.2020
6175 Rain 9 1002 88 10000 6.79 193 13:59 28.10.2020
6176 Rain 11 1002 86 10000 7.07 190 12:37 28.10.2020
6177 Rain 11 996 89 10000 1.34 270 12:19 28.10.2020
6178 Rain 11 1002 84 10000 6.9 194 11:42 28.10.2020
6179 Clouds 11 996 86 10000 1.34 225 11:22 28.10.2020
6180 Clouds 11 1002 87 10000 4.1 170 10:53 28.10.2020
6181 Clouds 11 1002 87 10000 4.1 170 10:34 28.10.2020
6182 Clouds 10 1002 93 10000 4.1 170 09:56 28.10.2020
6183 Clouds 10 1002 93 10000 4.1 170 09:38 28.10.2020
6184 Clouds 9 1002 93 10000 2.6 160 09:20 28.10.2020
6185 Clear 8 1002 93 10000 3.1 140 08:45 28.10.2020
6186 Clear 8 1002 93 10000 3.1 150 08:24 28.10.2020
6187 Clear 7 1002 93 10000 2.6 160 07:47 28.10.2020
6188 Clear 7 1002 93 10000 2.6 160 07:29 28.10.2020
6189 Clear 7 1002 93 10000 2.6 180 06:40 28.10.2020
6190 Clear 7 1002 87 10000 3.6 190 05:49 28.10.2020
6191 Clear 7 1002 87 10000 4.1 190 04:52 28.10.2020
6192 Clear 7 1001 87 10000 3.6 190 04:24 28.10.2020
6193 Clear 8 1001 87 10000 3.6 190 02:25 28.10.2020
6194 Clouds 8 1001 87 10000 4.1 190 00:51 28.10.2020
6195 Clouds 9 1001 87 10000 3.6 190 23:51 27.10.2020
6196 Clouds 9 1001 87 10000 3.6 190 23:23 27.10.2020
6197 Clouds 9 1001 87 10000 3.6 190 22:55 27.10.2020
6198 Clouds 10 1002 93 10000 4.1 200 22:37 27.10.2020
6199 Clouds 10 1002 93 10000 4.1 200 22:18 27.10.2020
6200 Clouds 10 1002 93 10000 4.1 200 21:54 27.10.2020
6201 Clouds 10 1002 93 10000 3.6 180 21:36 27.10.2020
6202 Clouds 10 1002 93 10000 3.6 170 21:18 27.10.2020
6203 Clouds 10 1002 93 10000 3.1 160 20:39 27.10.2020
6204 Clear 10 1002 87 10000 3.1 150 20:20 27.10.2020
6205 Clear 9 1002 93 10000 2.6 160 19:39 27.10.2020
6206 Clear 9 1002 93 10000 3.1 150 19:20 27.10.2020
6207 Clear 9 1002 93 10000 3.1 150 18:58 27.10.2020
6208 Clear 9 1002 93 10000 3.1 150 18:58 27.10.2020
6209 Clear 9 1002 93 10000 3.1 150 18:39 27.10.2020
6210 Clouds 9 1002 93 10000 2.6 160 18:18 27.10.2020
6211 Clear 9 1003 93 10000 3.1 160 17:43 27.10.2020
6212 Clear 9 1003 93 10000 2.6 170 17:21 27.10.2020
6213 Clear 9 1003 93 10000 2.6 170 17:21 27.10.2020
6214 Clear 9 1003 93 10000 2.6 170 17:21 27.10.2020
6215 Clouds 9 1003 87 10000 3.1 180 16:48 27.10.2020
6216 Clouds 9 1003 87 10000 3.1 180 16:27 27.10.2020
6217 Clouds 10 1003 87 10000 2.6 180 15:49 27.10.2020
6218 Clouds 10 1003 87 10000 2.6 180 15:30 27.10.2020
6219 Clouds 10 1002 87 10000 4.1 180 14:57 27.10.2020
6220 Clouds 10 1002 87 10000 3.6 190 14:39 27.10.2020
6221 Clouds 10 1002 87 10000 3.6 180 14:20 27.10.2020
6222 Clouds 11 1002 87 10000 4.1 190 13:33 27.10.2020
6223 Clouds 11 1002 87 10000 3.6 190 12:59 27.10.2020
6224 Clouds 11 1002 87 10000 3.6 180 12:39 27.10.2020
6225 Clouds 11 1002 93 10000 3.6 190 12:20 27.10.2020
6226 Clouds 10 1002 93 10000 3.6 190 11:42 27.10.2020
6227 Clouds 10 1002 93 10000 2.6 190 11:22 27.10.2020
6228 Clouds 10 1002 87 10000 3.1 190 10:47 27.10.2020
6229 Clouds 10 1002 87 10000 3.1 190 10:47 27.10.2020
6230 Clouds 10 1002 87 10000 3.1 190 10:26 27.10.2020
6231 Clouds 9 1001 100 10000 2.1 180 09:46 27.10.2020
6232 Clouds 9 1001 100 10000 2.1 180 09:26 27.10.2020
6233 Clear 9 1001 100 10000 1.5 200 08:39 27.10.2020
6234 Clouds 9 1001 100 10000 2.1 190 08:20 27.10.2020
6235 Clouds 9 1000 100 10000 1.5 0 07:45 27.10.2020
6236 Clouds 9 1000 100 10000 1.5 0 07:45 27.10.2020
6237 Clouds 9 1000 100 10000 1.5 0 07:45 27.10.2020
6238 Clouds 9 1000 100 10000 1.5 0 07:26 27.10.2020
6239 Rain 9 999 100 9000 2.1 190 06:22 27.10.2020
6240 Rain 9 999 100 9000 2.1 190 06:22 27.10.2020
6241 Rain 9 999 100 9000 2.1 190 06:22 27.10.2020
6242 Rain 9 999 100 9000 2.1 190 05:52 27.10.2020
6243 Drizzle 9 999 100 10000 2.1 220 05:34 27.10.2020
6244 Rain 10 999 93 3200 2.6 160 04:44 27.10.2020
6245 Drizzle 11 1001 93 5000 2.6 150 02:33 27.10.2020
6246 Drizzle 11 1001 93 6000 3.1 160 00:58 27.10.2020
6247 Mist 11 1002 100 6000 4.1 160 23:46 26.10.2020
6248 Rain 11 1002 100 4500 3.6 150 23:26 26.10.2020
6249 Mist 11 1002 100 4500 3.6 150 22:49 26.10.2020
6250 Rain 11 1002 100 4500 3.6 150 22:27 26.10.2020
6251 Rain 11 1002 100 9000 2.6 140 21:50 26.10.2020
6252 Rain 11 1002 100 9000 2.6 140 21:50 26.10.2020
6253 Clouds 11 1002 100 4200 3.1 130 21:21 26.10.2020
6254 Clouds 11 1002 100 4200 3.1 130 20:58 26.10.2020
6255 Clouds 11 1002 100 4100 2.6 130 20:40 26.10.2020
6256 Rain 11 1003 100 5000 2.1 120 20:21 26.10.2020
6257 Rain 11 1003 100 7000 1.5 130 19:47 26.10.2020
6258 Rain 11 1003 100 7000 1.5 130 19:25 26.10.2020
6259 Rain 11 1003 93 10000 1.5 140 18:46 26.10.2020
6260 Rain 11 1003 93 10000 1.5 140 18:25 26.10.2020
6261 Rain 11 1003 93 10000 1.5 140 17:59 26.10.2020
6262 Rain 11 1003 93 10000 1.5 140 17:39 26.10.2020
6263 Clouds 11 1003 93 10000 1.5 0 17:21 26.10.2020
6264 Clouds 11 1003 93 10000 2.1 160 16:43 26.10.2020
6265 Clouds 11 1002 87 10000 2.6 150 16:21 26.10.2020
6266 Clouds 11 1003 93 10000 2.6 160 15:43 26.10.2020
6267 Clouds 12 1003 93 10000 2.6 160 15:25 26.10.2020
6268 Clouds 12 1003 93 10000 3.1 170 14:53 26.10.2020
6269 Clouds 12 1003 93 10000 2.6 170 14:34 26.10.2020
6270 Clouds 12 1003 93 10000 2.1 190 13:46 26.10.2020
6271 Clouds 12 1003 93 10000 2.1 190 13:27 26.10.2020
6272 Clouds 12 1002 93 10000 2.1 150 12:57 26.10.2020
6273 Clouds 12 1002 93 10000 2.1 190 12:36 26.10.2020
6274 Clouds 12 1002 93 10000 1.5 180 12:18 26.10.2020
6275 Clouds 11 1002 100 10000 0.5 0 11:45 26.10.2020
6276 Clouds 11 1002 93 10000 1.5 190 11:23 26.10.2020
6277 Clouds 11 1002 93 10000 1.5 190 10:57 26.10.2020
6278 Clouds 11 1002 93 10000 1.5 0 10:38 26.10.2020
6279 Clouds 11 1002 93 10000 1 0 10:18 26.10.2020
6280 Clouds 11 1002 100 10000 1 200 09:31 26.10.2020
6281 Clouds 10 1001 100 10000 1 0 08:55 26.10.2020
6282 Drizzle 10 1001 100 10000 2.6 150 08:26 26.10.2020
6283 Clouds 10 1001 100 10000 2.6 140 07:48 26.10.2020
6284 Rain 10 1001 100 10000 2.6 140 07:29 26.10.2020
6285 Drizzle 11 1001 100 10000 2.6 180 05:46 26.10.2020
6286 Rain 11 1000 100 10000 3.6 160 04:20 26.10.2020
6287 Rain 11 1001 100 8000 3.1 150 03:21 26.10.2020
6288 Rain 11 1001 100 8000 3.1 150 03:21 26.10.2020
6289 Rain 11 1001 100 8000 3.1 150 03:21 26.10.2020
6290 Rain 11 1001 100 8000 3.1 150 03:21 26.10.2020
6291 Rain 11 1001 100 6000 3.1 150 01:34 26.10.2020
6292 Rain 11 1001 93 10000 3.6 160 00:39 26.10.2020
6293 Rain 11 1002 93 10000 3.6 170 00:21 26.10.2020
6294 Clouds 11 1002 93 10000 3.1 170 23:37 25.10.2020
6295 Drizzle 11 1002 93 10000 3.6 170 22:59 25.10.2020
6296 Clouds 11 1001 93 10000 4.1 180 22:39 25.10.2020
6297 Clouds 11 1001 93 10000 3.6 170 22:19 25.10.2020
6298 Clouds 11 1002 93 10000 4.1 180 21:39 25.10.2020
6299 Clouds 11 1002 93 10000 4.6 180 21:19 25.10.2020
6300 Rain 12 1002 93 10000 4.6 170 20:44 25.10.2020
6301 Rain 12 1002 93 10000 4.6 170 20:25 25.10.2020
6302 Rain 12 1001 93 10000 4.6 170 19:57 25.10.2020
6303 Clouds 12 1002 93 10000 4.1 170 19:38 25.10.2020
6304 Clouds 12 1001 93 10000 4.6 160 19:19 25.10.2020
6305 Clouds 12 1002 88 10000 5.62 189 18:41 25.10.2020
6306 Clouds 12 1002 89 10000 6.03 188 18:23 25.10.2020
6307 Clouds 12 996 92 10000 1.34 135 17:58 25.10.2020
6308 Clouds 12 996 92 10000 0.45 225 17:38 25.10.2020
6309 Clouds 12 1002 93 10000 5.1 160 17:20 25.10.2020
6310 Clouds 12 996 92 10000 1.34 112 16:47 25.10.2020
6311 Clouds 12 1002 87 10000 5.1 160 16:28 25.10.2020
6312 Clouds 12 1002 87 10000 5.1 160 16:28 25.10.2020
6313 Clouds 12 1002 87 10000 4.1 160 15:52 25.10.2020
6314 Clouds 12 1002 93 10000 4.6 140 15:31 25.10.2020
6315 Clouds 12 1003 87 10000 5.1 150 14:58 25.10.2020
6316 Clouds 12 1003 93 10000 4.6 150 14:32 25.10.2020
6317 Clouds 12 1003 93 10000 4.6 150 13:59 25.10.2020
6318 Clouds 12 1003 93 10000 4.1 150 13:40 25.10.2020
6319 Clouds 12 1003 93 10000 4.6 140 13:19 25.10.2020
6320 Clouds 12 1003 93 10000 4.6 140 13:19 25.10.2020
6321 Clouds 12 1004 93 10000 4.6 140 12:46 25.10.2020
6322 Clouds 11 1004 93 10000 4.6 140 12:25 25.10.2020
6323 Clouds 11 1004 93 10000 4.6 140 11:44 25.10.2020
6324 Clouds 11 1005 87 10000 5.1 140 11:21 25.10.2020
6325 Clouds 11 1005 87 10000 5.1 140 11:21 25.10.2020
6326 Clouds 10 1005 87 10000 5.1 140 10:57 25.10.2020
6327 Clouds 10 1005 93 10000 4.6 140 10:38 25.10.2020
6328 Clouds 10 1005 93 10000 4.6 140 10:20 25.10.2020
6329 Clouds 9 1005 100 10000 5.1 130 09:40 25.10.2020
6330 Clouds 9 1005 93 10000 4.6 140 09:19 25.10.2020
6331 Clouds 8 1006 100 10000 4.1 130 08:41 25.10.2020
6332 Clouds 8 1006 93 10000 3.6 130 08:22 25.10.2020
6333 Clouds 7 1006 100 10000 3.6 120 07:47 25.10.2020
6334 Clouds 6 1006 100 10000 3.6 120 07:24 25.10.2020
6335 Clouds 6 1006 93 10000 3.1 140 06:45 25.10.2020
6336 Clouds 5 1007 100 10000 2.6 150 05:36 25.10.2020
6337 Clouds 5 1007 100 10000 3.1 130 04:52 25.10.2020
6338 Mist 4 1007 100 8000 2.1 170 02:56 25.10.2020
6339 Clouds 4 1007 100 10000 1 0 01:20 25.10.2020
6340 Clouds 4 1007 100 10000 1.52 235 00:40 25.10.2020
6341 Clouds 4 1007 100 10000 1.5 270 00:18 25.10.2020
6342 Clouds 4 1007 100 10000 2.6 280 23:43 24.10.2020
6343 Clouds 4 1007 100 10000 2.6 280 23:22 24.10.2020
6344 Clouds 4 1006 100 10000 3.1 280 22:42 24.10.2020
6345 Clouds 4 1006 100 10000 3.1 280 22:23 24.10.2020
6346 Mist 4 1006 100 9000 4.1 300 21:56 24.10.2020
6347 Mist 4 1006 100 9000 4.1 300 21:38 24.10.2020
6348 Mist 4 1005 100 4800 3.1 290 21:19 24.10.2020
6349 Mist 4 1005 100 5000 3.1 300 20:45 24.10.2020
6350 Mist 4 1005 100 5000 3.1 300 20:21 24.10.2020
6351 Mist 4 1004 100 3400 5.7 280 19:44 24.10.2020
6352 Mist 4 1004 100 3400 5.7 280 19:25 24.10.2020
6353 Mist 5 1004 93 5000 5.1 300 18:54 24.10.2020
6354 Clouds 5 1003 100 10000 5.1 260 18:31 24.10.2020
6355 Clouds 6 1002 93 10000 6.2 270 17:55 24.10.2020
6356 Mist 7 1002 93 8000 6.7 280 17:27 24.10.2020
6357 Drizzle 8 1001 100 5000 5.7 260 16:58 24.10.2020
6358 Drizzle 8 1000 100 5000 2.6 230 16:40 24.10.2020
6359 Rain 10 1000 93 10000 1.5 230 15:59 24.10.2020
6360 Rain 10 1000 93 10000 2.6 220 15:38 24.10.2020
6361 Clouds 10 1000 93 10000 2.6 210 15:19 24.10.2020
6362 Clouds 10 1000 93 10000 2.6 220 14:40 24.10.2020
6363 Clouds 10 1000 93 10000 2.6 220 14:22 24.10.2020
6364 Clouds 9 1000 100 10000 1.5 230 13:44 24.10.2020
6365 Clouds 9 1000 100 10000 1.5 0 13:20 24.10.2020
6366 Clouds 9 1000 100 10000 1 0 12:41 24.10.2020
6367 Clouds 8 1001 100 10000 1.5 0 12:20 24.10.2020
6368 Clouds 8 1001 100 10000 1.5 0 11:51 24.10.2020
6369 Clouds 7 1001 93 6000 1.5 0 11:24 24.10.2020
6370 Clouds 6 1001 93 5000 3.1 100 10:51 24.10.2020
6371 Clouds 6 1001 93 5000 3.1 100 10:32 24.10.2020
6372 Rain 5 1002 100 10000 3.1 90 09:50 24.10.2020
6373 Rain 4 1002 100 10000 3.1 90 09:27 24.10.2020
6374 Clouds 4 1003 100 6000 1.5 80 08:58 24.10.2020
6375 Rain 3 1003 100 10000 1.5 100 08:19 24.10.2020
6376 Rain 3 1003 100 10000 1.5 100 07:53 24.10.2020
6377 Clouds 2 1004 100 10000 2.1 100 07:22 24.10.2020
6378 Clouds 2 1004 100 10000 1.5 120 06:51 24.10.2020
6379 Clouds 1 1005 100 10000 1.5 150 05:47 24.10.2020
6380 Clear 1 1006 100 10000 1.36 217 02:28 24.10.2020
6381 Mist 0 1006 100 9000 1.55 220 00:59 24.10.2020
6382 Clear 0 1006 84 10000 0.5 0 00:39 24.10.2020
6383 Clear 0 1006 84 10000 0.5 0 00:21 24.10.2020
6384 Mist 0 1006 100 4800 1.52 232 23:43 23.10.2020
6385 Mist 0 1006 100 4800 1.42 237 23:23 23.10.2020
6386 Mist 0 1006 100 4800 1.42 237 23:23 23.10.2020
6387 Clear 0 1006 100 7000 1.42 237 22:56 23.10.2020
6388 Clouds 0 1006 100 10000 0.5 180 22:36 23.10.2020
6389 Clouds -1 1006 100 10000 1.56 229 22:18 23.10.2020
6390 Clouds 0 1006 100 10000 1.56 229 21:39 23.10.2020
6391 Clouds 1 1006 82 10000 1.11 236 21:21 23.10.2020
6392 Clouds 1 1006 82 10000 1.11 236 20:39 23.10.2020
6393 Clouds 0 1006 80 10000 1.04 244 20:20 23.10.2020
6394 Clouds 1 1006 79 10000 1.36 246 19:48 23.10.2020
6395 Clouds 1 1006 78 10000 1.04 295 19:30 23.10.2020
6396 Clouds 1 1005 78 10000 1 220 18:52 23.10.2020
6397 Clouds 1 1005 77 10000 1.87 327 18:30 23.10.2020
6398 Clouds 2 1005 93 10000 1.5 290 17:48 23.10.2020
6399 Clouds 3 1005 93 10000 1.5 290 17:23 23.10.2020
6400 Clouds 3 1005 86 10000 2.1 300 16:56 23.10.2020
6401 Clouds 3 1005 86 10000 2.1 300 16:56 23.10.2020
6402 Clouds 4 1005 86 10000 2.1 300 16:56 23.10.2020
6403 Clouds 4 1005 86 10000 2.1 300 16:56 23.10.2020
6404 Clouds 4 1004 80 10000 3.6 310 16:35 23.10.2020
6405 Clouds 4 1004 80 10000 3.1 300 15:59 23.10.2020
6406 Clouds 4 1004 80 10000 3.1 330 15:41 23.10.2020
6407 Clouds 4 1004 86 10000 4.1 300 15:20 23.10.2020
6408 Clouds 4 1004 86 10000 4.1 300 14:50 23.10.2020
6409 Clouds 4 1003 86 10000 3.6 300 14:32 23.10.2020
6410 Clouds 4 1002 86 10000 4.6 340 13:44 23.10.2020
6411 Clouds 4 1002 93 10000 4.6 310 13:24 23.10.2020
6412 Clouds 4 1002 93 10000 4.6 310 12:52 23.10.2020
6413 Clouds 4 1001 93 10000 4.1 330 12:31 23.10.2020
6414 Clouds 4 1001 93 9000 3.6 320 11:59 23.10.2020
6415 Clouds 4 1000 93 7000 4.1 330 11:41 23.10.2020
6416 Drizzle 4 1000 93 6000 4.6 340 11:20 23.10.2020
6417 Drizzle 4 999 93 9000 4.1 350 10:39 23.10.2020
6418 Clouds 5 998 93 10000 5.1 340 10:20 23.10.2020
6419 Clouds 5 998 100 10000 5.1 350 09:43 23.10.2020
6420 Clouds 5 997 93 8000 5.7 340 09:23 23.10.2020
6421 Clouds 6 997 93 8000 5.7 340 08:52 23.10.2020
6422 Drizzle 7 996 93 10000 4.1 350 08:28 23.10.2020
6423 Rain 9 995 93 10000 3.1 240 07:27 23.10.2020
6424 Clouds 10 994 93 10000 3.6 220 06:52 23.10.2020
6425 Rain 10 995 93 6000 3.1 220 06:20 23.10.2020
6426 Rain 10 995 93 10000 3.6 210 04:42 23.10.2020
6427 Clouds 10 996 93 10000 3.1 220 02:28 23.10.2020
6428 Clouds 11 996 93 10000 5.1 240 00:54 23.10.2020
6429 Clouds 12 996 93 4800 5.1 230 00:32 23.10.2020
6430 Rain 12 996 93 10000 4.6 220 23:38 22.10.2020
6431 Rain 12 996 93 10000 4.1 210 23:19 22.10.2020
6432 Clouds 12 996 93 10000 4.1 200 22:45 22.10.2020
6433 Clouds 12 996 93 10000 4.1 200 22:26 22.10.2020
6434 Clouds 12 996 93 10000 3.1 190 21:56 22.10.2020
6435 Clouds 12 997 93 10000 2.6 190 21:37 22.10.2020
6436 Clouds 11 997 100 10000 2.6 180 21:18 22.10.2020
6437 Clouds 11 997 100 10000 2.6 190 20:42 22.10.2020
6438 Clouds 11 997 100 10000 2.6 190 20:24 22.10.2020
6439 Rain 11 997 93 10000 2.1 180 19:43 22.10.2020
6440 Rain 11 998 93 10000 1.5 0 19:20 22.10.2020
6441 Clouds 11 998 93 10000 2.1 220 18:44 22.10.2020
6442 Clouds 11 998 93 10000 2.6 250 18:22 22.10.2020
6443 Clouds 11 998 93 10000 2.6 250 17:58 22.10.2020
6444 Clouds 11 998 93 10000 3.1 260 17:39 22.10.2020
6445 Clouds 11 997 93 10000 5.1 260 17:20 22.10.2020
6446 Clouds 11 997 93 10000 5.7 270 16:42 22.10.2020
6447 Clouds 11 997 93 10000 5.7 270 16:23 22.10.2020
6448 Clouds 11 996 93 10000 6.7 270 15:48 22.10.2020
6449 Clouds 11 996 93 10000 6.7 270 15:26 22.10.2020
6450 Clouds 11 994 93 10000 8.2 280 14:50 22.10.2020
6451 Clouds 11 994 93 10000 8.2 280 14:27 22.10.2020
6452 Clouds 12 993 93 10000 6.7 280 13:57 22.10.2020
6453 Clouds 11 993 100 10000 7.7 280 13:38 22.10.2020
6454 Clouds 11 992 100 10000 5.7 280 13:20 22.10.2020
6455 Drizzle 11 991 100 8000 4.6 290 12:28 22.10.2020
6456 Rain 11 990 100 6000 3.6 280 11:51 22.10.2020
6457 Rain 11 989 100 2000 1.62 303 11:21 22.10.2020
6458 Rain 11 989 100 2000 1.62 303 10:56 22.10.2020
6459 Rain 11 989 100 4000 1.62 303 10:38 22.10.2020
6460 Rain 11 989 100 5000 1 120 10:18 22.10.2020
6461 Drizzle 11 989 100 4000 1.5 120 09:42 22.10.2020
6462 Rain 11 990 100 4000 2.1 110 08:58 22.10.2020
6463 Rain 11 990 100 4500 2.1 110 08:39 22.10.2020
6464 Clouds 11 990 100 8000 2.1 120 08:19 22.10.2020
6465 Rain 11 991 100 8000 2.6 120 07:43 22.10.2020
6466 Rain 11 991 93 8000 3.1 120 06:59 22.10.2020
6467 Rain 11 992 100 10000 3.6 120 06:37 22.10.2020
6468 Rain 10 993 100 3600 4.6 120 05:42 22.10.2020
6469 Rain 11 994 100 4200 3.6 120 05:22 22.10.2020
6470 Rain 11 998 93 6000 3.1 110 02:40 22.10.2020
6471 Mist 10 1000 100 6000 2.1 130 00:36 22.10.2020
6472 Clouds 10 1001 100 4400 2.1 130 00:18 22.10.2020
6473 Clouds 10 1001 100 3300 2.6 130 23:38 21.10.2020
6474 Fog 10 1001 100 200 1 120 22:58 21.10.2020
6475 Mist 10 1002 100 2600 1 140 22:37 21.10.2020
6476 Mist 10 1002 100 4500 1 140 22:18 21.10.2020
6477 Mist 10 1002 100 6000 1 0 21:44 21.10.2020
6478 Mist 10 1002 100 6000 2.1 150 21:19 21.10.2020
6479 Clouds 10 1003 100 7000 1.5 0 20:48 21.10.2020
6480 Clouds 10 1003 100 8000 1.5 0 20:19 21.10.2020
6481 Clouds 10 1003 100 8000 1.5 0 19:59 21.10.2020
6482 Clouds 10 1003 100 9000 1.5 180 19:39 21.10.2020
6483 Clouds 10 1003 93 8000 2.1 190 19:19 21.10.2020
6484 Clouds 10 1003 93 7000 2.6 180 18:47 21.10.2020
6485 Clouds 10 1003 93 7000 2.6 180 18:26 21.10.2020
6486 Clouds 10 1004 93 10000 2.6 190 17:47 21.10.2020
6487 Clouds 10 1003 93 10000 2.6 190 17:21 21.10.2020
6488 Clouds 10 1003 93 10000 2.6 190 16:56 21.10.2020
6489 Clouds 10 1004 93 10000 2.6 180 16:36 21.10.2020
6490 Clouds 10 1004 93 10000 2.6 180 16:18 21.10.2020
6491 Clouds 10 1004 87 10000 3.1 190 15:42 21.10.2020
6492 Clouds 10 1004 87 10000 3.1 190 15:20 21.10.2020
6493 Clouds 11 1004 87 10000 2.6 180 14:46 21.10.2020
6494 Clouds 11 1004 93 10000 2.1 200 14:28 21.10.2020
6495 Clouds 10 1004 93 10000 2.1 170 13:46 21.10.2020
6496 Clouds 10 1004 93 10000 3.1 180 13:27 21.10.2020
6497 Clouds 10 1004 93 10000 2.6 190 12:55 21.10.2020
6498 Clouds 10 1004 93 10000 2.1 210 12:37 21.10.2020
6499 Clouds 10 1004 93 10000 2.1 210 12:18 21.10.2020
6500 Clouds 9 1004 100 9000 2.6 210 11:40 21.10.2020
6501 Clouds 9 1004 100 9000 2.6 210 11:20 21.10.2020
6502 Mist 9 1004 93 7000 1.5 180 10:46 21.10.2020
6503 Mist 9 1004 93 7000 1.5 0 10:25 21.10.2020
6504 Mist 9 1004 93 6000 1 170 09:53 21.10.2020
6505 Mist 9 1004 93 6000 1 170 09:53 21.10.2020
6506 Mist 8 1004 100 7000 1.5 0 09:33 21.10.2020
6507 Mist 8 1004 93 7000 1 160 08:56 21.10.2020
6508 Mist 8 1004 93 7000 1 160 08:56 21.10.2020
6509 Mist 8 1004 100 6000 1 150 08:38 21.10.2020
6510 Mist 8 1004 100 6000 1 150 08:19 21.10.2020
6511 Mist 8 1004 100 6000 1 150 08:19 21.10.2020
6512 Mist 8 1004 93 7000 1.5 120 07:37 21.10.2020
6513 Mist 8 1004 100 7000 1.5 130 06:52 21.10.2020
6514 Mist 7 1004 100 4600 1.5 130 06:27 21.10.2020
6515 Mist 7 1005 100 7000 1.5 140 04:47 21.10.2020
6516 Rain 7 1008 100 10000 2.6 130 00:52 21.10.2020
6517 Rain 7 1009 93 10000 1.5 160 23:49 20.10.2020
6518 Rain 7 1010 93 10000 2.6 140 22:54 20.10.2020
6519 Rain 7 1010 100 10000 2.6 130 22:29 20.10.2020
6520 Rain 7 1010 100 10000 3.1 130 21:50 20.10.2020
6521 Rain 7 1011 100 10000 3.1 130 21:21 20.10.2020
6522 Rain 7 1011 93 10000 3.1 120 20:56 20.10.2020
6523 Rain 6 1012 100 10000 3.1 120 20:36 20.10.2020
6524 Rain 6 1012 100 10000 3.1 120 20:18 20.10.2020
6525 Clouds 6 1013 100 10000 3.6 130 19:42 20.10.2020
6526 Rain 6 1013 100 10000 3.6 130 19:22 20.10.2020
6527 Rain 6 1014 93 10000 3.1 140 18:52 20.10.2020
6528 Clouds 6 1014 93 10000 2.6 130 18:34 20.10.2020
6529 Rain 6 1014 93 10000 3.1 130 17:48 20.10.2020
6530 Rain 6 1015 87 10000 3.6 130 17:29 20.10.2020
6531 Rain 6 1015 75 10000 3.6 130 16:48 20.10.2020
6532 Rain 6 1015 75 10000 4.1 130 16:28 20.10.2020
6533 Rain 7 1016 70 10000 4.6 120 15:57 20.10.2020
6534 Rain 7 1016 70 10000 4.6 110 15:38 20.10.2020
6535 Clouds 7 1016 70 10000 4.6 110 15:19 20.10.2020
6536 Clouds 6 1017 81 10000 4.1 130 14:41 20.10.2020
6537 Clouds 6 1017 65 10000 4.1 130 14:22 20.10.2020
6538 Clouds 6 1018 65 10000 3.6 130 13:44 20.10.2020
6539 Clouds 6 1018 64 10000 3.1 130 13:24 20.10.2020
6540 Clouds 5 1018 64 10000 2.6 140 12:58 20.10.2020
6541 Clouds 5 1019 64 10000 3.1 130 12:40 20.10.2020
6542 Clouds 4 1019 69 10000 3.1 130 12:21 20.10.2020
6543 Clouds 4 1019 80 10000 1.5 150 11:43 20.10.2020
6544 Clouds 3 1019 73 10000 1.75 169 11:25 20.10.2020
6545 Clouds 1 1019 73 10000 1.75 169 10:38 20.10.2020
6546 Clouds 1 1019 78 10000 1.14 192 10:19 20.10.2020
6547 Clouds 1 1019 78 10000 1.14 192 09:42 20.10.2020
6548 Clouds 1 1019 92 10000 0.73 262 09:18 20.10.2020
6549 Clouds -1 1019 100 10000 0.73 262 08:39 20.10.2020
6550 Clouds -2 1018 92 10000 0.83 2 07:53 20.10.2020
6551 Clouds -2 1018 92 10000 1.55 321 07:26 20.10.2020
6552 Clouds -2 1018 92 10000 1.55 321 06:32 20.10.2020
6553 Clouds -1 1018 100 10000 1.88 323 05:51 20.10.2020
6554 Clouds -1 1018 92 10000 1 290 03:58 20.10.2020
6555 Clouds -1 1017 86 10000 2.1 300 02:25 20.10.2020
6556 Clouds 0 1017 87 10000 2.1 290 01:20 20.10.2020
6557 Clouds -1 1016 86 10000 2.1 290 00:49 20.10.2020
6558 Clouds -1 1016 92 10000 1 0 00:22 20.10.2020
6559 Clouds 0 1016 86 10000 1 0 23:47 19.10.2020
6560 Clouds 0 1016 83 10000 1.5 300 23:24 19.10.2020
6561 Clouds 1 1016 74 10000 2.1 290 22:44 19.10.2020
6562 Clouds 1 1015 74 10000 2.1 290 22:24 19.10.2020
6563 Clouds 1 1015 74 10000 2.1 290 22:24 19.10.2020
6564 Clouds 2 1015 74 10000 2.1 300 21:48 19.10.2020
6565 Clouds 2 1015 74 10000 2.1 290 21:22 19.10.2020
6566 Clouds 2 1014 64 10000 2.6 290 20:52 19.10.2020
6567 Clouds 3 1014 64 10000 2.1 280 20:33 19.10.2020
6568 Clouds 3 1013 64 10000 2.1 290 19:54 19.10.2020
6569 Clouds 3 1013 64 10000 2.1 300 19:36 19.10.2020
6570 Clouds 3 1013 64 10000 2.1 300 19:18 19.10.2020
6571 Clouds 4 1012 55 10000 3.6 290 18:42 19.10.2020
6572 Clouds 4 1012 55 10000 3.6 290 18:18 19.10.2020
6573 Clouds 4 1012 55 10000 3.6 290 18:18 19.10.2020
6574 Clouds 4 1012 52 10000 4.6 300 17:44 19.10.2020
6575 Clouds 5 1012 52 10000 5.7 290 17:24 19.10.2020
6576 Clouds 5 1012 52 10000 6.7 290 16:46 19.10.2020
6577 Clear 6 1011 48 10000 6.7 290 16:28 19.10.2020
6578 Clear 6 1012 59 10000 5.16 317 15:44 19.10.2020
6579 Clear 6 1005 53 10000 2.24 292 15:25 19.10.2020
6580 Clear 6 1012 61 10000 5.74 315 14:51 19.10.2020
6581 Clear 6 1011 60 10000 5.94 314 14:26 19.10.2020
6582 Clear 5 1011 60 10000 6.25 314 13:54 19.10.2020
6583 Clear 5 1004 53 10000 1.79 292 13:34 19.10.2020
6584 Clear 5 1010 63 10000 6.39 317 12:56 19.10.2020
6585 Clear 5 1003 56 10000 2.68 292 12:38 19.10.2020
6586 Clear 4 1010 64 10000 6.73 318 12:19 19.10.2020
6587 Clear 4 1008 60 10000 8.2 300 11:39 19.10.2020
6588 Clear 4 1008 60 10000 8.2 300 11:18 19.10.2020
6589 Clear 4 1008 60 10000 8.2 290 10:40 19.10.2020
6590 Clear 4 1007 60 10000 8.2 290 10:20 19.10.2020
6591 Clear 3 1007 64 10000 8.7 290 09:48 19.10.2020
6592 Clear 3 1007 64 10000 8.7 290 09:22 19.10.2020
6593 Clear 3 1006 64 10000 7.2 290 08:49 19.10.2020
6594 Clear 3 1006 64 10000 7.2 290 08:23 19.10.2020
6595 Clear 3 1006 64 10000 7.2 290 07:52 19.10.2020
6596 Clear 3 1006 64 10000 8.2 280 07:19 19.10.2020
6597 Clear 3 1005 60 10000 6.7 280 06:19 19.10.2020
6598 Clear 3 1005 64 10000 8.7 280 03:50 19.10.2020
6599 Clear 3 1005 60 10000 9.3 280 03:32 19.10.2020
6600 Clear 3 1005 55 10000 5.7 290 00:59 19.10.2020
6601 Clear 3 1005 55 10000 5.7 290 00:25 19.10.2020
6602 Clear 3 1004 55 10000 7.7 300 23:48 18.10.2020
6603 Clear 3 1004 55 10000 7.7 300 23:25 18.10.2020
6604 Clear 3 1004 59 10000 7.2 300 22:52 18.10.2020
6605 Clouds 4 1004 60 10000 5.7 290 22:22 18.10.2020
6606 Clouds 4 1004 60 10000 5.7 290 21:56 18.10.2020
6607 Clear 4 1004 60 10000 5.7 290 21:37 18.10.2020
6608 Clear 4 1004 56 10000 5.7 290 21:18 18.10.2020
6609 Clear 4 1004 60 10000 5.1 290 20:40 18.10.2020
6610 Clouds 4 1004 64 10000 4.1 290 20:19 18.10.2020
6611 Clouds 5 1003 60 10000 7.2 310 19:43 18.10.2020
6612 Clouds 5 1003 60 10000 7.2 310 19:25 18.10.2020
6613 Clouds 5 1003 56 10000 5.1 290 18:49 18.10.2020
6614 Clouds 6 1003 56 10000 5.1 290 18:28 18.10.2020
6615 Clouds 5 1003 52 10000 6.7 300 17:44 18.10.2020
6616 Clouds 6 1003 52 10000 6.7 300 17:25 18.10.2020
6617 Clouds 6 1002 52 10000 7.2 290 16:55 18.10.2020
6618 Clouds 6 1002 56 10000 6.2 300 16:37 18.10.2020
6619 Clouds 6 1002 52 10000 5.7 290 16:18 18.10.2020
6620 Clouds 6 1002 52 10000 6.7 300 15:41 18.10.2020
6621 Clouds 6 1002 48 10000 6.7 310 15:19 18.10.2020
6622 Clouds 6 1002 48 10000 6.7 310 14:54 18.10.2020
6623 Clouds 6 1002 48 10000 8.7 300 14:29 18.10.2020
6624 Clouds 6 1001 48 10000 10.3 290 13:56 18.10.2020
6625 Clouds 6 1001 56 10000 8.7 310 13:38 18.10.2020
6626 Clouds 5 1001 60 10000 7.7 300 13:19 18.10.2020
6627 Clouds 6 1001 61 10000 6.7 300 12:42 18.10.2020
6628 Clouds 6 1000 63 10000 7.7 290 12:21 18.10.2020
6629 Clear 6 1000 63 10000 7.2 290 11:42 18.10.2020
6630 Clear 6 1000 64 10000 7.2 290 11:23 18.10.2020
6631 Clear 6 1001 60 10000 7.2 280 10:41 18.10.2020
6632 Clouds 5 1001 65 10000 6.7 280 10:21 18.10.2020
6633 Clouds 5 1001 65 10000 6.2 280 09:52 18.10.2020
6634 Clear 4 1001 69 10000 7.2 280 09:25 18.10.2020
6635 Clear 4 1001 69 10000 7.2 280 08:58 18.10.2020
6636 Clear 4 1000 69 10000 6.7 280 08:39 18.10.2020
6637 Clouds 4 1000 64 10000 7.2 280 08:20 18.10.2020
6638 Clouds 4 1000 60 10000 7.2 280 07:30 18.10.2020
6639 Clouds 4 1002 65 10000 5.7 270 05:33 18.10.2020
6640 Clouds 5 1003 60 10000 5.7 300 02:56 18.10.2020
6641 Clouds 7 1004 75 10000 2.6 280 01:41 18.10.2020
6642 Clouds 7 1004 75 10000 2.1 290 00:52 18.10.2020
6643 Clouds 8 1004 70 10000 4.1 310 00:34 18.10.2020
6644 Clouds 8 1005 76 10000 4.6 300 23:56 17.10.2020
6645 Clouds 8 1005 81 10000 4.1 260 23:37 17.10.2020
6646 Rain 8 1005 81 10000 4.1 260 23:19 17.10.2020
6647 Clouds 8 1006 76 10000 4.1 240 22:41 17.10.2020
6648 Rain 8 1006 76 10000 4.1 240 22:20 17.10.2020
6649 Rain 8 1006 76 10000 4.1 240 22:20 17.10.2020
6650 Clouds 8 1006 76 10000 4.1 240 21:56 17.10.2020
6651 Clouds 8 1007 76 10000 4.1 230 21:38 17.10.2020
6652 Clouds 8 1007 76 10000 3.6 230 21:19 17.10.2020
6653 Clouds 8 1008 76 10000 3.1 230 20:40 17.10.2020
6654 Drizzle 8 1008 76 10000 4.6 230 20:18 17.10.2020
6655 Clouds 9 1009 76 10000 3.6 230 19:42 17.10.2020
6656 Clouds 9 1009 76 10000 3.6 230 19:18 17.10.2020
6657 Clouds 9 1009 76 10000 4.6 240 18:43 17.10.2020
6658 Clouds 9 1009 76 10000 4.6 240 18:24 17.10.2020
6659 Clouds 9 1010 71 10000 4.6 250 17:45 17.10.2020
6660 Clouds 9 1010 71 10000 4.6 250 17:23 17.10.2020
6661 Clouds 10 1011 71 10000 5.1 250 16:49 17.10.2020
6662 Clouds 10 1012 71 10000 5.1 250 16:23 17.10.2020
6663 Clouds 10 1012 71 10000 5.1 250 15:56 17.10.2020
6664 Clouds 10 1012 66 10000 5.7 250 15:38 17.10.2020
6665 Clouds 10 1013 71 10000 5.1 240 15:20 17.10.2020
6666 Clouds 10 1013 71 10000 5.1 240 15:20 17.10.2020
6667 Clouds 10 1013 71 10000 6.2 240 14:40 17.10.2020
6668 Clouds 10 1014 71 10000 6.2 240 14:22 17.10.2020
6669 Clouds 10 1014 71 10000 6.2 240 13:56 17.10.2020
6670 Clouds 10 1015 71 10000 5.1 240 13:38 17.10.2020
6671 Clouds 10 1015 71 10000 5.7 240 13:19 17.10.2020
6672 Clouds 9 1016 71 10000 4.6 240 12:40 17.10.2020
6673 Clouds 9 1016 71 10000 4.1 220 12:19 17.10.2020
6674 Clouds 9 1016 71 10000 4.1 220 11:54 17.10.2020
6675 Clouds 8 1016 76 10000 3.6 230 11:28 17.10.2020
6676 Clouds 7 1017 87 10000 3.1 220 10:36 17.10.2020
6677 Clouds 6 1017 93 10000 2.6 210 10:18 17.10.2020
6678 Clouds 6 1018 100 10000 1.5 200 09:40 17.10.2020
6679 Clouds 5 1018 100 10000 2.6 190 09:21 17.10.2020
6680 Clear 5 1018 100 10000 2.1 210 08:37 17.10.2020
6681 Clear 4 1019 100 10000 1 0 08:18 17.10.20